<?xml version="1.0" encoding="utf-8"?>
<gpx xmlns:xsi="http://www.w3.org/2001/XMLSchema-instance" xmlns:xsd="http://www.w3.org/2001/XMLSchema" version="1.1" creator="Shapelink.com" xmlns="http://www.topografix.com/GPX/1/1" xmlns:gpxtpx="http://www.garmin.com/xmlschemas/TrackPointExtension/v1">
  <metadata>
    <name>Løping 10.17 km, 2013-05-22</name>
    <desc></desc>
    <author><name>Mikael Blom</name></author> 
    <time>2013-05-22T18:39:04Z</time>
  </metadata>
  <trk>
    <name>Løping 10.17 km, 2013-05-22</name>
    <trkseg>
      <trkpt lat="59.8462955" lon="17.6488703">
        <ele>6.86646</ele>
        <time>2013-05-22T18:39:04Z</time>
      </trkpt>
      <trkpt lat="59.846283" lon="17.648841">
        <ele>6.86646</ele>
        <time>2013-05-22T18:39:05Z</time>
      </trkpt>
      <trkpt lat="59.8462676" lon="17.6488114">
        <ele>6.86646</ele>
        <time>2013-05-22T18:39:06Z</time>
      </trkpt>
      <trkpt lat="59.8462531" lon="17.6487773">
        <ele>6.38586</ele>
        <time>2013-05-22T18:39:07Z</time>
      </trkpt>
      <trkpt lat="59.8462348" lon="17.6487441">
        <ele>6.86646</ele>
        <time>2013-05-22T18:39:08Z</time>
      </trkpt>
      <trkpt lat="59.8462165" lon="17.6487153">
        <ele>6.86646</ele>
        <time>2013-05-22T18:39:09Z</time>
      </trkpt>
      <trkpt lat="59.8461976" lon="17.6486869">
        <ele>7.82788</ele>
        <time>2013-05-22T18:39:10Z</time>
      </trkpt>
      <trkpt lat="59.8461806" lon="17.6486538">
        <ele>8.30859</ele>
        <time>2013-05-22T18:39:11Z</time>
      </trkpt>
      <trkpt lat="59.8461663" lon="17.6486206">
        <ele>8.78918</ele>
        <time>2013-05-22T18:39:12Z</time>
      </trkpt>
      <trkpt lat="59.8461469" lon="17.6485875">
        <ele>8.78918</ele>
        <time>2013-05-22T18:39:13Z</time>
      </trkpt>
      <trkpt lat="59.8461241" lon="17.6485529">
        <ele>9.2699</ele>
        <time>2013-05-22T18:39:14Z</time>
      </trkpt>
      <trkpt lat="59.846102" lon="17.6485207">
        <ele>8.78918</ele>
        <time>2013-05-22T18:39:15Z</time>
      </trkpt>
      <trkpt lat="59.8460847" lon="17.6484893">
        <ele>9.2699</ele>
        <time>2013-05-22T18:39:16Z</time>
      </trkpt>
      <trkpt lat="59.8460732" lon="17.6484618">
        <ele>9.75061</ele>
        <time>2013-05-22T18:39:17Z</time>
      </trkpt>
      <trkpt lat="59.8460606" lon="17.6484439">
        <ele>10.2312</ele>
        <time>2013-05-22T18:39:18Z</time>
      </trkpt>
      <trkpt lat="59.846042" lon="17.6484357">
        <ele>10.7118</ele>
        <time>2013-05-22T18:39:19Z</time>
      </trkpt>
      <trkpt lat="59.8460212" lon="17.6484387">
        <ele>11.1925</ele>
        <time>2013-05-22T18:39:20Z</time>
      </trkpt>
      <trkpt lat="59.8460022" lon="17.6484498">
        <ele>11.1925</ele>
        <time>2013-05-22T18:39:21Z</time>
      </trkpt>
      <trkpt lat="59.8459814" lon="17.6484704">
        <ele>11.1925</ele>
        <time>2013-05-22T18:39:22Z</time>
      </trkpt>
      <trkpt lat="59.8459587" lon="17.6484885">
        <ele>11.1925</ele>
        <time>2013-05-22T18:39:23Z</time>
      </trkpt>
      <trkpt lat="59.8459379" lon="17.6485067">
        <ele>12.1538</ele>
        <time>2013-05-22T18:39:24Z</time>
      </trkpt>
      <trkpt lat="59.8459213" lon="17.6485254">
        <ele>12.6344</ele>
        <time>2013-05-22T18:39:25Z</time>
      </trkpt>
      <trkpt lat="59.8459006" lon="17.6485376">
        <ele>13.1151</ele>
        <time>2013-05-22T18:39:26Z</time>
      </trkpt>
      <trkpt lat="59.84588" lon="17.6485627">
        <ele>14.0764</ele>
        <time>2013-05-22T18:39:27Z</time>
      </trkpt>
      <trkpt lat="59.8458562" lon="17.6485882">
        <ele>15.0377</ele>
        <time>2013-05-22T18:39:28Z</time>
      </trkpt>
      <trkpt lat="59.8458329" lon="17.6486162">
        <ele>15.999</ele>
        <time>2013-05-22T18:39:29Z</time>
      </trkpt>
      <trkpt lat="59.8458066" lon="17.6486435">
        <ele>16.4797</ele>
        <time>2013-05-22T18:39:30Z</time>
      </trkpt>
      <trkpt lat="59.8457936" lon="17.6486527">
        <ele>17.4412</ele>
        <time>2013-05-22T18:39:31Z</time>
      </trkpt>
      <trkpt lat="59.8457846" lon="17.6486649">
        <ele>17.9218</ele>
        <time>2013-05-22T18:39:32Z</time>
      </trkpt>
      <trkpt lat="59.8457687" lon="17.6486894">
        <ele>18.4023</ele>
        <time>2013-05-22T18:39:33Z</time>
      </trkpt>
      <trkpt lat="59.8457519" lon="17.6487166">
        <ele>18.8831</ele>
        <time>2013-05-22T18:39:34Z</time>
      </trkpt>
      <trkpt lat="59.8457412" lon="17.6487443">
        <ele>20.325</ele>
        <time>2013-05-22T18:39:35Z</time>
      </trkpt>
      <trkpt lat="59.8457275" lon="17.6487703">
        <ele>20.325</ele>
        <time>2013-05-22T18:39:36Z</time>
      </trkpt>
      <trkpt lat="59.845708" lon="17.6487901">
        <ele>18.8831</ele>
        <time>2013-05-22T18:39:37Z</time>
      </trkpt>
      <trkpt lat="59.8456889" lon="17.6488108">
        <ele>18.4023</ele>
        <time>2013-05-22T18:39:38Z</time>
      </trkpt>
      <trkpt lat="59.8456703" lon="17.6488389">
        <ele>18.4023</ele>
        <time>2013-05-22T18:39:39Z</time>
      </trkpt>
      <trkpt lat="59.8456511" lon="17.6488693">
        <ele>17.9218</ele>
        <time>2013-05-22T18:39:40Z</time>
      </trkpt>
      <trkpt lat="59.8456303" lon="17.6488993">
        <ele>17.9218</ele>
        <time>2013-05-22T18:39:41Z</time>
      </trkpt>
      <trkpt lat="59.8456117" lon="17.6489392">
        <ele>18.4023</ele>
        <time>2013-05-22T18:39:42Z</time>
      </trkpt>
      <trkpt lat="59.8455889" lon="17.6489757">
        <ele>18.8831</ele>
        <time>2013-05-22T18:39:43Z</time>
      </trkpt>
      <trkpt lat="59.8455659" lon="17.6490243">
        <ele>19.3638</ele>
        <time>2013-05-22T18:39:44Z</time>
      </trkpt>
      <trkpt lat="59.8455464" lon="17.6490686">
        <ele>21.2864</ele>
        <time>2013-05-22T18:39:45Z</time>
      </trkpt>
      <trkpt lat="59.8455263" lon="17.6491025">
        <ele>22.2476</ele>
        <time>2013-05-22T18:39:46Z</time>
      </trkpt>
      <trkpt lat="59.8455055" lon="17.6491318">
        <ele>22.7283</ele>
        <time>2013-05-22T18:39:47Z</time>
      </trkpt>
      <trkpt lat="59.8454869" lon="17.6491484">
        <ele>22.7283</ele>
        <time>2013-05-22T18:39:48Z</time>
      </trkpt>
      <trkpt lat="59.8454751" lon="17.6491797">
        <ele>24.651</ele>
        <time>2013-05-22T18:39:49Z</time>
      </trkpt>
      <trkpt lat="59.8454654" lon="17.6492246">
        <ele>26.0929</ele>
        <time>2013-05-22T18:39:50Z</time>
      </trkpt>
      <trkpt lat="59.8454547" lon="17.649261">
        <ele>26.5736</ele>
        <time>2013-05-22T18:39:51Z</time>
      </trkpt>
      <trkpt lat="59.8454377" lon="17.649276">
        <ele>27.0543</ele>
        <time>2013-05-22T18:39:52Z</time>
      </trkpt>
      <trkpt lat="59.8454102" lon="17.6492851">
        <ele>26.0929</ele>
        <time>2013-05-22T18:39:53Z</time>
      </trkpt>
      <trkpt lat="59.8453832" lon="17.6493022">
        <ele>26.5736</ele>
        <time>2013-05-22T18:39:54Z</time>
      </trkpt>
      <trkpt lat="59.84535" lon="17.649326">
        <ele>27.0543</ele>
        <time>2013-05-22T18:39:55Z</time>
      </trkpt>
      <trkpt lat="59.8453294" lon="17.6493423">
        <ele>28.0155</ele>
        <time>2013-05-22T18:39:56Z</time>
      </trkpt>
      <trkpt lat="59.8453031" lon="17.6493542">
        <ele>26.5736</ele>
        <time>2013-05-22T18:39:57Z</time>
      </trkpt>
      <trkpt lat="59.8452782" lon="17.6493713">
        <ele>25.1317</ele>
        <time>2013-05-22T18:39:58Z</time>
      </trkpt>
      <trkpt lat="59.8452479" lon="17.6494035">
        <ele>23.209</ele>
        <time>2013-05-22T18:39:59Z</time>
      </trkpt>
      <trkpt lat="59.8452251" lon="17.6494318">
        <ele>22.7283</ele>
        <time>2013-05-22T18:40:00Z</time>
      </trkpt>
      <trkpt lat="59.8451998" lon="17.6494566">
        <ele>21.767</ele>
        <time>2013-05-22T18:40:01Z</time>
      </trkpt>
      <trkpt lat="59.8451718" lon="17.6494906">
        <ele>21.2864</ele>
        <time>2013-05-22T18:40:02Z</time>
      </trkpt>
      <trkpt lat="59.8451408" lon="17.6495277">
        <ele>21.2864</ele>
        <time>2013-05-22T18:40:03Z</time>
      </trkpt>
      <trkpt lat="59.8451107" lon="17.6495666">
        <ele>21.2864</ele>
        <time>2013-05-22T18:40:04Z</time>
      </trkpt>
      <trkpt lat="59.845075" lon="17.6495935">
        <ele>21.767</ele>
        <time>2013-05-22T18:40:05Z</time>
      </trkpt>
      <trkpt lat="59.8450424" lon="17.6496268">
        <ele>21.2864</ele>
        <time>2013-05-22T18:40:06Z</time>
      </trkpt>
      <trkpt lat="59.8450196" lon="17.6496514">
        <ele>20.8057</ele>
        <time>2013-05-22T18:40:07Z</time>
      </trkpt>
      <trkpt lat="59.8450049" lon="17.6496737">
        <ele>20.8057</ele>
        <time>2013-05-22T18:40:08Z</time>
      </trkpt>
      <trkpt lat="59.844984" lon="17.6497013">
        <ele>21.2864</ele>
        <time>2013-05-22T18:40:09Z</time>
      </trkpt>
      <trkpt lat="59.8449636" lon="17.6497303">
        <ele>21.767</ele>
        <time>2013-05-22T18:40:10Z</time>
      </trkpt>
      <trkpt lat="59.844946" lon="17.6497473">
        <ele>21.2864</ele>
        <time>2013-05-22T18:40:11Z</time>
      </trkpt>
      <trkpt lat="59.844932" lon="17.6497667">
        <ele>20.8057</ele>
        <time>2013-05-22T18:40:12Z</time>
      </trkpt>
      <trkpt lat="59.8449108" lon="17.6497987">
        <ele>20.325</ele>
        <time>2013-05-22T18:40:13Z</time>
      </trkpt>
      <trkpt lat="59.8448884" lon="17.6498219">
        <ele>20.325</ele>
        <time>2013-05-22T18:40:14Z</time>
      </trkpt>
      <trkpt lat="59.8448631" lon="17.649838">
        <ele>19.8444</ele>
        <time>2013-05-22T18:40:15Z</time>
      </trkpt>
      <trkpt lat="59.8448409" lon="17.649865">
        <ele>19.8444</ele>
        <time>2013-05-22T18:40:16Z</time>
      </trkpt>
      <trkpt lat="59.8448146" lon="17.6498852">
        <ele>18.4023</ele>
        <time>2013-05-22T18:40:17Z</time>
      </trkpt>
      <trkpt lat="59.8447952" lon="17.6499063">
        <ele>17.9218</ele>
        <time>2013-05-22T18:40:18Z</time>
      </trkpt>
      <trkpt lat="59.8447787" lon="17.6499272">
        <ele>17.9218</ele>
        <time>2013-05-22T18:40:19Z</time>
      </trkpt>
      <trkpt lat="59.8447649" lon="17.6499449">
        <ele>18.4023</ele>
        <time>2013-05-22T18:40:20Z</time>
      </trkpt>
      <trkpt lat="59.8447465" lon="17.6499645">
        <ele>18.4023</ele>
        <time>2013-05-22T18:40:21Z</time>
      </trkpt>
      <trkpt lat="59.8447186" lon="17.6499961">
        <ele>17.4412</ele>
        <time>2013-05-22T18:40:22Z</time>
      </trkpt>
      <trkpt lat="59.8446925" lon="17.6500287">
        <ele>15.999</ele>
        <time>2013-05-22T18:40:23Z</time>
      </trkpt>
      <trkpt lat="59.8446749" lon="17.6500585">
        <ele>16.4797</ele>
        <time>2013-05-22T18:40:24Z</time>
      </trkpt>
      <trkpt lat="59.8446554" lon="17.6500903">
        <ele>15.999</ele>
        <time>2013-05-22T18:40:25Z</time>
      </trkpt>
      <trkpt lat="59.8446408" lon="17.6501179">
        <ele>15.5184</ele>
        <time>2013-05-22T18:40:26Z</time>
      </trkpt>
      <trkpt lat="59.8446254" lon="17.6501405">
        <ele>15.0377</ele>
        <time>2013-05-22T18:40:27Z</time>
      </trkpt>
      <trkpt lat="59.8446052" lon="17.650168">
        <ele>15.0377</ele>
        <time>2013-05-22T18:40:28Z</time>
      </trkpt>
      <trkpt lat="59.844582" lon="17.6501876">
        <ele>14.557</ele>
        <time>2013-05-22T18:40:29Z</time>
      </trkpt>
      <trkpt lat="59.8445566" lon="17.6502115">
        <ele>13.5958</ele>
        <time>2013-05-22T18:40:30Z</time>
      </trkpt>
      <trkpt lat="59.8445405" lon="17.6502338">
        <ele>13.5958</ele>
        <time>2013-05-22T18:40:31Z</time>
      </trkpt>
      <trkpt lat="59.8445266" lon="17.6502512">
        <ele>13.1151</ele>
        <time>2013-05-22T18:40:32Z</time>
      </trkpt>
      <trkpt lat="59.8445121" lon="17.6502693">
        <ele>12.6344</ele>
        <time>2013-05-22T18:40:33Z</time>
      </trkpt>
      <trkpt lat="59.8444924" lon="17.6502987">
        <ele>13.1151</ele>
        <time>2013-05-22T18:40:34Z</time>
      </trkpt>
      <trkpt lat="59.8444778" lon="17.6503279">
        <ele>13.5958</ele>
        <time>2013-05-22T18:40:35Z</time>
      </trkpt>
      <trkpt lat="59.8444652" lon="17.6503504">
        <ele>13.1151</ele>
        <time>2013-05-22T18:40:36Z</time>
      </trkpt>
      <trkpt lat="59.8444574" lon="17.6503657">
        <ele>13.5958</ele>
        <time>2013-05-22T18:40:37Z</time>
      </trkpt>
      <trkpt lat="59.8444488" lon="17.6503792">
        <ele>12.1538</ele>
        <time>2013-05-22T18:40:38Z</time>
      </trkpt>
      <trkpt lat="59.8444424" lon="17.6503937">
        <ele>13.1151</ele>
        <time>2013-05-22T18:40:39Z</time>
      </trkpt>
      <trkpt lat="59.8444282" lon="17.6504163">
        <ele>13.5958</ele>
        <time>2013-05-22T18:40:40Z</time>
      </trkpt>
      <trkpt lat="59.8444134" lon="17.6504411">
        <ele>13.5958</ele>
        <time>2013-05-22T18:40:41Z</time>
      </trkpt>
      <trkpt lat="59.8444006" lon="17.6504654">
        <ele>13.5958</ele>
        <time>2013-05-22T18:40:42Z</time>
      </trkpt>
      <trkpt lat="59.8443913" lon="17.6504937">
        <ele>15.0377</ele>
        <time>2013-05-22T18:40:43Z</time>
      </trkpt>
      <trkpt lat="59.8443784" lon="17.6505284">
        <ele>15.999</ele>
        <time>2013-05-22T18:40:44Z</time>
      </trkpt>
      <trkpt lat="59.8443628" lon="17.65056">
        <ele>15.999</ele>
        <time>2013-05-22T18:40:45Z</time>
      </trkpt>
      <trkpt lat="59.8443374" lon="17.650588">
        <ele>15.5184</ele>
        <time>2013-05-22T18:40:46Z</time>
      </trkpt>
      <trkpt lat="59.8443085" lon="17.6506219">
        <ele>15.0377</ele>
        <time>2013-05-22T18:40:47Z</time>
      </trkpt>
      <trkpt lat="59.8442867" lon="17.6506486">
        <ele>14.557</ele>
        <time>2013-05-22T18:40:48Z</time>
      </trkpt>
      <trkpt lat="59.8442714" lon="17.6506839">
        <ele>15.5184</ele>
        <time>2013-05-22T18:40:49Z</time>
      </trkpt>
      <trkpt lat="59.8442497" lon="17.6507107">
        <ele>15.0377</ele>
        <time>2013-05-22T18:40:50Z</time>
      </trkpt>
      <trkpt lat="59.8442284" lon="17.6507347">
        <ele>14.0764</ele>
        <time>2013-05-22T18:40:51Z</time>
      </trkpt>
      <trkpt lat="59.8442069" lon="17.6507575">
        <ele>13.1151</ele>
        <time>2013-05-22T18:40:52Z</time>
      </trkpt>
      <trkpt lat="59.8441899" lon="17.6507793">
        <ele>12.6344</ele>
        <time>2013-05-22T18:40:53Z</time>
      </trkpt>
      <trkpt lat="59.8441754" lon="17.6508114">
        <ele>12.6344</ele>
        <time>2013-05-22T18:40:54Z</time>
      </trkpt>
      <trkpt lat="59.8441525" lon="17.6508531">
        <ele>12.6344</ele>
        <time>2013-05-22T18:40:55Z</time>
      </trkpt>
      <trkpt lat="59.8441353" lon="17.6508865">
        <ele>13.1151</ele>
        <time>2013-05-22T18:40:56Z</time>
      </trkpt>
      <trkpt lat="59.8441167" lon="17.650919">
        <ele>12.6344</ele>
        <time>2013-05-22T18:40:57Z</time>
      </trkpt>
      <trkpt lat="59.8440963" lon="17.6509388">
        <ele>12.1538</ele>
        <time>2013-05-22T18:40:58Z</time>
      </trkpt>
      <trkpt lat="59.8440804" lon="17.6509646">
        <ele>12.6344</ele>
        <time>2013-05-22T18:40:59Z</time>
      </trkpt>
      <trkpt lat="59.8440691" lon="17.6509931">
        <ele>12.1538</ele>
        <time>2013-05-22T18:41:00Z</time>
      </trkpt>
      <trkpt lat="59.8440565" lon="17.6510195">
        <ele>11.6732</ele>
        <time>2013-05-22T18:41:01Z</time>
      </trkpt>
      <trkpt lat="59.844042" lon="17.651046">
        <ele>11.6732</ele>
        <time>2013-05-22T18:41:02Z</time>
      </trkpt>
      <trkpt lat="59.8440215" lon="17.6510729">
        <ele>11.1925</ele>
        <time>2013-05-22T18:41:03Z</time>
      </trkpt>
      <trkpt lat="59.8439996" lon="17.6511047">
        <ele>10.7118</ele>
        <time>2013-05-22T18:41:04Z</time>
      </trkpt>
      <trkpt lat="59.8439774" lon="17.6511433">
        <ele>10.7118</ele>
        <time>2013-05-22T18:41:05Z</time>
      </trkpt>
      <trkpt lat="59.8439603" lon="17.6511786">
        <ele>11.1925</ele>
        <time>2013-05-22T18:41:06Z</time>
      </trkpt>
      <trkpt lat="59.8439401" lon="17.6512059">
        <ele>11.6732</ele>
        <time>2013-05-22T18:41:07Z</time>
      </trkpt>
      <trkpt lat="59.8439203" lon="17.6512295">
        <ele>12.1538</ele>
        <time>2013-05-22T18:41:08Z</time>
      </trkpt>
      <trkpt lat="59.8438976" lon="17.6512522">
        <ele>11.6732</ele>
        <time>2013-05-22T18:41:09Z</time>
      </trkpt>
      <trkpt lat="59.8438784" lon="17.6512812">
        <ele>11.6732</ele>
        <time>2013-05-22T18:41:10Z</time>
      </trkpt>
      <trkpt lat="59.8438532" lon="17.6513071">
        <ele>11.1925</ele>
        <time>2013-05-22T18:41:11Z</time>
      </trkpt>
      <trkpt lat="59.8438312" lon="17.651325">
        <ele>10.7118</ele>
        <time>2013-05-22T18:41:12Z</time>
      </trkpt>
      <trkpt lat="59.8438143" lon="17.6513419">
        <ele>10.7118</ele>
        <time>2013-05-22T18:41:13Z</time>
      </trkpt>
      <trkpt lat="59.8437998" lon="17.651375">
        <ele>11.1925</ele>
        <time>2013-05-22T18:41:14Z</time>
      </trkpt>
      <trkpt lat="59.8437825" lon="17.6514106">
        <ele>11.6732</ele>
        <time>2013-05-22T18:41:15Z</time>
      </trkpt>
      <trkpt lat="59.8437578" lon="17.6514356">
        <ele>11.1925</ele>
        <time>2013-05-22T18:41:16Z</time>
      </trkpt>
      <trkpt lat="59.8437361" lon="17.651464">
        <ele>11.6732</ele>
        <time>2013-05-22T18:41:17Z</time>
      </trkpt>
      <trkpt lat="59.8437159" lon="17.6514769">
        <ele>12.1538</ele>
        <time>2013-05-22T18:41:18Z</time>
      </trkpt>
      <trkpt lat="59.8437014" lon="17.651479">
        <ele>12.1538</ele>
        <time>2013-05-22T18:41:19Z</time>
      </trkpt>
      <trkpt lat="59.8436847" lon="17.651497">
        <ele>12.1538</ele>
        <time>2013-05-22T18:41:20Z</time>
      </trkpt>
      <trkpt lat="59.84367" lon="17.6515201">
        <ele>12.1538</ele>
        <time>2013-05-22T18:41:21Z</time>
      </trkpt>
      <trkpt lat="59.8436562" lon="17.6515371">
        <ele>12.1538</ele>
        <time>2013-05-22T18:41:22Z</time>
      </trkpt>
      <trkpt lat="59.8436358" lon="17.6515615">
        <ele>11.6732</ele>
        <time>2013-05-22T18:41:23Z</time>
      </trkpt>
      <trkpt lat="59.8436218" lon="17.6515755">
        <ele>11.6732</ele>
        <time>2013-05-22T18:41:24Z</time>
      </trkpt>
      <trkpt lat="59.8436009" lon="17.6515947">
        <ele>10.7118</ele>
        <time>2013-05-22T18:41:25Z</time>
      </trkpt>
      <trkpt lat="59.8435826" lon="17.6516141">
        <ele>10.7118</ele>
        <time>2013-05-22T18:41:26Z</time>
      </trkpt>
      <trkpt lat="59.8435578" lon="17.6516403">
        <ele>10.2312</ele>
        <time>2013-05-22T18:41:27Z</time>
      </trkpt>
      <trkpt lat="59.843534" lon="17.6516687">
        <ele>10.7118</ele>
        <time>2013-05-22T18:41:28Z</time>
      </trkpt>
      <trkpt lat="59.8435203" lon="17.6516872">
        <ele>11.1925</ele>
        <time>2013-05-22T18:41:29Z</time>
      </trkpt>
      <trkpt lat="59.8435012" lon="17.6517064">
        <ele>11.1925</ele>
        <time>2013-05-22T18:41:30Z</time>
      </trkpt>
      <trkpt lat="59.8434825" lon="17.6517241">
        <ele>11.6732</ele>
        <time>2013-05-22T18:41:31Z</time>
      </trkpt>
      <trkpt lat="59.8434614" lon="17.6517478">
        <ele>11.6732</ele>
        <time>2013-05-22T18:41:32Z</time>
      </trkpt>
      <trkpt lat="59.8434391" lon="17.6517661">
        <ele>11.6732</ele>
        <time>2013-05-22T18:41:33Z</time>
      </trkpt>
      <trkpt lat="59.8434165" lon="17.6517863">
        <ele>11.6732</ele>
        <time>2013-05-22T18:41:34Z</time>
      </trkpt>
      <trkpt lat="59.8433915" lon="17.6518065">
        <ele>11.6732</ele>
        <time>2013-05-22T18:41:35Z</time>
      </trkpt>
      <trkpt lat="59.8433728" lon="17.6518241">
        <ele>12.1538</ele>
        <time>2013-05-22T18:41:36Z</time>
      </trkpt>
      <trkpt lat="59.8433541" lon="17.6518503">
        <ele>11.6732</ele>
        <time>2013-05-22T18:41:37Z</time>
      </trkpt>
      <trkpt lat="59.8433325" lon="17.6518707">
        <ele>11.6732</ele>
        <time>2013-05-22T18:41:38Z</time>
      </trkpt>
      <trkpt lat="59.8433121" lon="17.6518841">
        <ele>11.1925</ele>
        <time>2013-05-22T18:41:39Z</time>
      </trkpt>
      <trkpt lat="59.843292" lon="17.6518987">
        <ele>11.1925</ele>
        <time>2013-05-22T18:41:40Z</time>
      </trkpt>
      <trkpt lat="59.8432691" lon="17.651919">
        <ele>10.7118</ele>
        <time>2013-05-22T18:41:41Z</time>
      </trkpt>
      <trkpt lat="59.8432418" lon="17.6519394">
        <ele>10.7118</ele>
        <time>2013-05-22T18:41:42Z</time>
      </trkpt>
      <trkpt lat="59.8432123" lon="17.6519627">
        <ele>10.7118</ele>
        <time>2013-05-22T18:41:43Z</time>
      </trkpt>
      <trkpt lat="59.8431829" lon="17.6519888">
        <ele>11.1925</ele>
        <time>2013-05-22T18:41:44Z</time>
      </trkpt>
      <trkpt lat="59.8431579" lon="17.6520106">
        <ele>10.2312</ele>
        <time>2013-05-22T18:41:45Z</time>
      </trkpt>
      <trkpt lat="59.8431378" lon="17.6520318">
        <ele>10.2312</ele>
        <time>2013-05-22T18:41:46Z</time>
      </trkpt>
      <trkpt lat="59.843115" lon="17.6520541">
        <ele>10.2312</ele>
        <time>2013-05-22T18:41:47Z</time>
      </trkpt>
      <trkpt lat="59.8430907" lon="17.6520673">
        <ele>10.2312</ele>
        <time>2013-05-22T18:41:48Z</time>
      </trkpt>
      <trkpt lat="59.8430678" lon="17.652077">
        <ele>10.2312</ele>
        <time>2013-05-22T18:41:49Z</time>
      </trkpt>
      <trkpt lat="59.8430408" lon="17.6520903">
        <ele>9.2699</ele>
        <time>2013-05-22T18:41:50Z</time>
      </trkpt>
      <trkpt lat="59.8430237" lon="17.6520987">
        <ele>9.75061</ele>
        <time>2013-05-22T18:41:51Z</time>
      </trkpt>
      <trkpt lat="59.8429979" lon="17.6521074">
        <ele>9.2699</ele>
        <time>2013-05-22T18:41:52Z</time>
      </trkpt>
      <trkpt lat="59.8429816" lon="17.6521155">
        <ele>9.2699</ele>
        <time>2013-05-22T18:41:53Z</time>
      </trkpt>
      <trkpt lat="59.8429598" lon="17.6521261">
        <ele>9.2699</ele>
        <time>2013-05-22T18:41:54Z</time>
      </trkpt>
      <trkpt lat="59.8429527" lon="17.6521296">
        <ele>8.78918</ele>
        <time>2013-05-22T18:41:55Z</time>
      </trkpt>
      <trkpt lat="59.8429381" lon="17.6521349">
        <ele>8.78918</ele>
        <time>2013-05-22T18:41:56Z</time>
      </trkpt>
      <trkpt lat="59.8429204" lon="17.6521458">
        <ele>9.2699</ele>
        <time>2013-05-22T18:41:57Z</time>
      </trkpt>
      <trkpt lat="59.8428958" lon="17.6521554">
        <ele>8.78918</ele>
        <time>2013-05-22T18:41:58Z</time>
      </trkpt>
      <trkpt lat="59.8428682" lon="17.6521541">
        <ele>8.30859</ele>
        <time>2013-05-22T18:41:59Z</time>
      </trkpt>
      <trkpt lat="59.8428423" lon="17.6521546">
        <ele>7.82788</ele>
        <time>2013-05-22T18:42:00Z</time>
      </trkpt>
      <trkpt lat="59.8428207" lon="17.6521459">
        <ele>8.30859</ele>
        <time>2013-05-22T18:42:01Z</time>
      </trkpt>
      <trkpt lat="59.8428008" lon="17.6521397">
        <ele>8.78918</ele>
        <time>2013-05-22T18:42:02Z</time>
      </trkpt>
      <trkpt lat="59.8427883" lon="17.6521383">
        <ele>8.78918</ele>
        <time>2013-05-22T18:42:03Z</time>
      </trkpt>
      <trkpt lat="59.8427667" lon="17.6521454">
        <ele>7.82788</ele>
        <time>2013-05-22T18:42:04Z</time>
      </trkpt>
      <trkpt lat="59.8427507" lon="17.6521541">
        <ele>8.30859</ele>
        <time>2013-05-22T18:42:05Z</time>
      </trkpt>
      <trkpt lat="59.842733" lon="17.6521674">
        <ele>8.30859</ele>
        <time>2013-05-22T18:42:06Z</time>
      </trkpt>
      <trkpt lat="59.8427067" lon="17.6521815">
        <ele>8.30859</ele>
        <time>2013-05-22T18:42:07Z</time>
      </trkpt>
      <trkpt lat="59.8426811" lon="17.6521718">
        <ele>8.30859</ele>
        <time>2013-05-22T18:42:08Z</time>
      </trkpt>
      <trkpt lat="59.842657" lon="17.652167">
        <ele>8.78918</ele>
        <time>2013-05-22T18:42:09Z</time>
      </trkpt>
      <trkpt lat="59.8426389" lon="17.6521608">
        <ele>8.78918</ele>
        <time>2013-05-22T18:42:10Z</time>
      </trkpt>
      <trkpt lat="59.84262" lon="17.6521679">
        <ele>8.78918</ele>
        <time>2013-05-22T18:42:11Z</time>
      </trkpt>
      <trkpt lat="59.842597" lon="17.6521831">
        <ele>8.30859</ele>
        <time>2013-05-22T18:42:12Z</time>
      </trkpt>
      <trkpt lat="59.8425732" lon="17.6521925">
        <ele>8.78918</ele>
        <time>2013-05-22T18:42:13Z</time>
      </trkpt>
      <trkpt lat="59.8425466" lon="17.6522011">
        <ele>8.78918</ele>
        <time>2013-05-22T18:42:14Z</time>
      </trkpt>
      <trkpt lat="59.8425197" lon="17.6522243">
        <ele>9.2699</ele>
        <time>2013-05-22T18:42:15Z</time>
      </trkpt>
      <trkpt lat="59.8424973" lon="17.6522338">
        <ele>8.78918</ele>
        <time>2013-05-22T18:42:16Z</time>
      </trkpt>
      <trkpt lat="59.8424718" lon="17.6522338">
        <ele>8.78918</ele>
        <time>2013-05-22T18:42:17Z</time>
      </trkpt>
      <trkpt lat="59.8424553" lon="17.6522381">
        <ele>9.2699</ele>
        <time>2013-05-22T18:42:18Z</time>
      </trkpt>
      <trkpt lat="59.8424345" lon="17.6522388">
        <ele>9.2699</ele>
        <time>2013-05-22T18:42:19Z</time>
      </trkpt>
      <trkpt lat="59.842413" lon="17.6522482">
        <ele>8.30859</ele>
        <time>2013-05-22T18:42:20Z</time>
      </trkpt>
      <trkpt lat="59.8423893" lon="17.6522607">
        <ele>9.2699</ele>
        <time>2013-05-22T18:42:21Z</time>
      </trkpt>
      <trkpt lat="59.8423662" lon="17.6522748">
        <ele>8.78918</ele>
        <time>2013-05-22T18:42:22Z</time>
      </trkpt>
      <trkpt lat="59.8423415" lon="17.6522894">
        <ele>8.78918</ele>
        <time>2013-05-22T18:42:23Z</time>
      </trkpt>
      <trkpt lat="59.8423093" lon="17.6523282">
        <ele>10.2312</ele>
        <time>2013-05-22T18:42:24Z</time>
      </trkpt>
      <trkpt lat="59.8422709" lon="17.6523704">
        <ele>10.2312</ele>
        <time>2013-05-22T18:42:25Z</time>
      </trkpt>
      <trkpt lat="59.8422413" lon="17.6523924">
        <ele>9.75061</ele>
        <time>2013-05-22T18:42:26Z</time>
      </trkpt>
      <trkpt lat="59.8422109" lon="17.6524085">
        <ele>9.2699</ele>
        <time>2013-05-22T18:42:27Z</time>
      </trkpt>
      <trkpt lat="59.8421815" lon="17.6524157">
        <ele>8.78918</ele>
        <time>2013-05-22T18:42:28Z</time>
      </trkpt>
      <trkpt lat="59.8421525" lon="17.6524261">
        <ele>7.82788</ele>
        <time>2013-05-22T18:42:29Z</time>
      </trkpt>
      <trkpt lat="59.8421347" lon="17.6524509">
        <ele>8.78918</ele>
        <time>2013-05-22T18:42:30Z</time>
      </trkpt>
      <trkpt lat="59.8421125" lon="17.6524683">
        <ele>9.2699</ele>
        <time>2013-05-22T18:42:31Z</time>
      </trkpt>
      <trkpt lat="59.8420898" lon="17.6524784">
        <ele>9.2699</ele>
        <time>2013-05-22T18:42:32Z</time>
      </trkpt>
      <trkpt lat="59.8420652" lon="17.6524953">
        <ele>8.30859</ele>
        <time>2013-05-22T18:42:33Z</time>
      </trkpt>
      <trkpt lat="59.8420431" lon="17.6525162">
        <ele>8.30859</ele>
        <time>2013-05-22T18:42:34Z</time>
      </trkpt>
      <trkpt lat="59.8420249" lon="17.6525429">
        <ele>8.30859</ele>
        <time>2013-05-22T18:42:35Z</time>
      </trkpt>
      <trkpt lat="59.8420079" lon="17.652575">
        <ele>8.78918</ele>
        <time>2013-05-22T18:42:36Z</time>
      </trkpt>
      <trkpt lat="59.841981" lon="17.6526062">
        <ele>8.30859</ele>
        <time>2013-05-22T18:42:37Z</time>
      </trkpt>
      <trkpt lat="59.8419588" lon="17.6526377">
        <ele>8.30859</ele>
        <time>2013-05-22T18:42:38Z</time>
      </trkpt>
      <trkpt lat="59.8419368" lon="17.6526662">
        <ele>7.82788</ele>
        <time>2013-05-22T18:42:39Z</time>
      </trkpt>
      <trkpt lat="59.8419165" lon="17.6526954">
        <ele>8.30859</ele>
        <time>2013-05-22T18:42:40Z</time>
      </trkpt>
      <trkpt lat="59.8418971" lon="17.6527197">
        <ele>8.30859</ele>
        <time>2013-05-22T18:42:41Z</time>
      </trkpt>
      <trkpt lat="59.8418772" lon="17.652743">
        <ele>8.30859</ele>
        <time>2013-05-22T18:42:42Z</time>
      </trkpt>
      <trkpt lat="59.8418599" lon="17.6527722">
        <ele>7.82788</ele>
        <time>2013-05-22T18:42:43Z</time>
      </trkpt>
      <trkpt lat="59.8418354" lon="17.6528099">
        <ele>7.34717</ele>
        <time>2013-05-22T18:42:44Z</time>
      </trkpt>
      <trkpt lat="59.8418152" lon="17.6528451">
        <ele>6.38586</ele>
        <time>2013-05-22T18:42:45Z</time>
      </trkpt>
      <trkpt lat="59.8417934" lon="17.6528835">
        <ele>6.38586</ele>
        <time>2013-05-22T18:42:46Z</time>
      </trkpt>
      <trkpt lat="59.8417731" lon="17.6529026">
        <ele>5.42456</ele>
        <time>2013-05-22T18:42:47Z</time>
      </trkpt>
      <trkpt lat="59.8417531" lon="17.6529202">
        <ele>4.94385</ele>
        <time>2013-05-22T18:42:48Z</time>
      </trkpt>
      <trkpt lat="59.8417311" lon="17.6529425">
        <ele>3.98267</ele>
        <time>2013-05-22T18:42:49Z</time>
      </trkpt>
      <trkpt lat="59.8417132" lon="17.6529664">
        <ele>4.46326</ele>
        <time>2013-05-22T18:42:50Z</time>
      </trkpt>
      <trkpt lat="59.8416966" lon="17.6529969">
        <ele>5.42456</ele>
        <time>2013-05-22T18:42:51Z</time>
      </trkpt>
      <trkpt lat="59.8416722" lon="17.6530314">
        <ele>6.38586</ele>
        <time>2013-05-22T18:42:52Z</time>
      </trkpt>
      <trkpt lat="59.8416484" lon="17.6530579">
        <ele>6.86646</ele>
        <time>2013-05-22T18:42:53Z</time>
      </trkpt>
      <trkpt lat="59.8416314" lon="17.6530821">
        <ele>7.34717</ele>
        <time>2013-05-22T18:42:54Z</time>
      </trkpt>
      <trkpt lat="59.8416095" lon="17.653104">
        <ele>7.82788</ele>
        <time>2013-05-22T18:42:55Z</time>
      </trkpt>
      <trkpt lat="59.8415853" lon="17.6531221">
        <ele>7.82788</ele>
        <time>2013-05-22T18:42:56Z</time>
      </trkpt>
      <trkpt lat="59.841563" lon="17.6531392">
        <ele>7.82788</ele>
        <time>2013-05-22T18:42:57Z</time>
      </trkpt>
      <trkpt lat="59.841541" lon="17.6531548">
        <ele>7.82788</ele>
        <time>2013-05-22T18:42:58Z</time>
      </trkpt>
      <trkpt lat="59.8415185" lon="17.6531658">
        <ele>7.82788</ele>
        <time>2013-05-22T18:42:59Z</time>
      </trkpt>
      <trkpt lat="59.8414961" lon="17.6531757">
        <ele>8.30859</ele>
        <time>2013-05-22T18:43:00Z</time>
      </trkpt>
      <trkpt lat="59.841471" lon="17.6531869">
        <ele>8.78918</ele>
        <time>2013-05-22T18:43:01Z</time>
      </trkpt>
      <trkpt lat="59.8414462" lon="17.6531979">
        <ele>8.78918</ele>
        <time>2013-05-22T18:43:02Z</time>
      </trkpt>
      <trkpt lat="59.8414208" lon="17.6532047">
        <ele>8.78918</ele>
        <time>2013-05-22T18:43:03Z</time>
      </trkpt>
      <trkpt lat="59.8413961" lon="17.6532197">
        <ele>8.78918</ele>
        <time>2013-05-22T18:43:04Z</time>
      </trkpt>
      <trkpt lat="59.8413757" lon="17.6532269">
        <ele>9.2699</ele>
        <time>2013-05-22T18:43:05Z</time>
      </trkpt>
      <trkpt lat="59.8413577" lon="17.6532279">
        <ele>10.2312</ele>
        <time>2013-05-22T18:43:06Z</time>
      </trkpt>
      <trkpt lat="59.8413334" lon="17.6532384">
        <ele>10.2312</ele>
        <time>2013-05-22T18:43:07Z</time>
      </trkpt>
      <trkpt lat="59.8413013" lon="17.6532596">
        <ele>10.2312</ele>
        <time>2013-05-22T18:43:08Z</time>
      </trkpt>
      <trkpt lat="59.8412817" lon="17.6532695">
        <ele>10.2312</ele>
        <time>2013-05-22T18:43:09Z</time>
      </trkpt>
      <trkpt lat="59.8412635" lon="17.6532807">
        <ele>9.75061</ele>
        <time>2013-05-22T18:43:10Z</time>
      </trkpt>
      <trkpt lat="59.8412416" lon="17.6532905">
        <ele>9.75061</ele>
        <time>2013-05-22T18:43:11Z</time>
      </trkpt>
      <trkpt lat="59.8412206" lon="17.6532942">
        <ele>9.75061</ele>
        <time>2013-05-22T18:43:12Z</time>
      </trkpt>
      <trkpt lat="59.8411997" lon="17.6532967">
        <ele>9.75061</ele>
        <time>2013-05-22T18:43:13Z</time>
      </trkpt>
      <trkpt lat="59.8411771" lon="17.6532984">
        <ele>9.75061</ele>
        <time>2013-05-22T18:43:14Z</time>
      </trkpt>
      <trkpt lat="59.8411564" lon="17.6532983">
        <ele>9.75061</ele>
        <time>2013-05-22T18:43:15Z</time>
      </trkpt>
      <trkpt lat="59.8411278" lon="17.6533108">
        <ele>9.2699</ele>
        <time>2013-05-22T18:43:16Z</time>
      </trkpt>
      <trkpt lat="59.8411065" lon="17.6533118">
        <ele>8.78918</ele>
        <time>2013-05-22T18:43:17Z</time>
      </trkpt>
      <trkpt lat="59.8410857" lon="17.6533082">
        <ele>8.78918</ele>
        <time>2013-05-22T18:43:18Z</time>
      </trkpt>
      <trkpt lat="59.8410656" lon="17.6533166">
        <ele>10.7118</ele>
        <time>2013-05-22T18:43:19Z</time>
      </trkpt>
      <trkpt lat="59.8410392" lon="17.653318">
        <ele>12.6344</ele>
        <time>2013-05-22T18:43:20Z</time>
      </trkpt>
      <trkpt lat="59.8410112" lon="17.6533103">
        <ele>12.6344</ele>
        <time>2013-05-22T18:43:21Z</time>
      </trkpt>
      <trkpt lat="59.8409824" lon="17.6533015">
        <ele>13.5958</ele>
        <time>2013-05-22T18:43:22Z</time>
      </trkpt>
      <trkpt lat="59.8409582" lon="17.6532983">
        <ele>13.1151</ele>
        <time>2013-05-22T18:43:23Z</time>
      </trkpt>
      <trkpt lat="59.8409354" lon="17.6532921">
        <ele>12.6344</ele>
        <time>2013-05-22T18:43:24Z</time>
      </trkpt>
      <trkpt lat="59.8409123" lon="17.653301">
        <ele>13.1151</ele>
        <time>2013-05-22T18:43:25Z</time>
      </trkpt>
      <trkpt lat="59.840881" lon="17.6533227">
        <ele>12.6344</ele>
        <time>2013-05-22T18:43:26Z</time>
      </trkpt>
      <trkpt lat="59.8408528" lon="17.6533372">
        <ele>12.6344</ele>
        <time>2013-05-22T18:43:27Z</time>
      </trkpt>
      <trkpt lat="59.8408356" lon="17.6533347">
        <ele>12.1538</ele>
        <time>2013-05-22T18:43:28Z</time>
      </trkpt>
      <trkpt lat="59.8408174" lon="17.653332">
        <ele>12.1538</ele>
        <time>2013-05-22T18:43:29Z</time>
      </trkpt>
      <trkpt lat="59.8408029" lon="17.653334">
        <ele>11.1925</ele>
        <time>2013-05-22T18:43:30Z</time>
      </trkpt>
      <trkpt lat="59.8407854" lon="17.6533388">
        <ele>10.7118</ele>
        <time>2013-05-22T18:43:31Z</time>
      </trkpt>
      <trkpt lat="59.8407631" lon="17.6533438">
        <ele>10.2312</ele>
        <time>2013-05-22T18:43:32Z</time>
      </trkpt>
      <trkpt lat="59.840732" lon="17.6533552">
        <ele>10.2312</ele>
        <time>2013-05-22T18:43:33Z</time>
      </trkpt>
      <trkpt lat="59.8407056" lon="17.6533645">
        <ele>9.75061</ele>
        <time>2013-05-22T18:43:34Z</time>
      </trkpt>
      <trkpt lat="59.8406687" lon="17.6533994">
        <ele>10.2312</ele>
        <time>2013-05-22T18:43:35Z</time>
      </trkpt>
      <trkpt lat="59.8406424" lon="17.6534138">
        <ele>9.75061</ele>
        <time>2013-05-22T18:43:36Z</time>
      </trkpt>
      <trkpt lat="59.8406124" lon="17.6534217">
        <ele>9.75061</ele>
        <time>2013-05-22T18:43:37Z</time>
      </trkpt>
      <trkpt lat="59.8405891" lon="17.6534303">
        <ele>10.2312</ele>
        <time>2013-05-22T18:43:38Z</time>
      </trkpt>
      <trkpt lat="59.8405656" lon="17.6534425">
        <ele>11.1925</ele>
        <time>2013-05-22T18:43:39Z</time>
      </trkpt>
      <trkpt lat="59.8405479" lon="17.6534496">
        <ele>11.1925</ele>
        <time>2013-05-22T18:43:40Z</time>
      </trkpt>
      <trkpt lat="59.8405284" lon="17.6534482">
        <ele>11.6732</ele>
        <time>2013-05-22T18:43:41Z</time>
      </trkpt>
      <trkpt lat="59.840505" lon="17.6534475">
        <ele>12.6344</ele>
        <time>2013-05-22T18:43:42Z</time>
      </trkpt>
      <trkpt lat="59.8404759" lon="17.65346">
        <ele>11.6732</ele>
        <time>2013-05-22T18:43:43Z</time>
      </trkpt>
      <trkpt lat="59.8404552" lon="17.6534585">
        <ele>10.7118</ele>
        <time>2013-05-22T18:43:44Z</time>
      </trkpt>
      <trkpt lat="59.8404357" lon="17.6534703">
        <ele>10.2312</ele>
        <time>2013-05-22T18:43:45Z</time>
      </trkpt>
      <trkpt lat="59.8404162" lon="17.6534811">
        <ele>10.7118</ele>
        <time>2013-05-22T18:43:46Z</time>
      </trkpt>
      <trkpt lat="59.8403969" lon="17.6534864">
        <ele>10.7118</ele>
        <time>2013-05-22T18:43:47Z</time>
      </trkpt>
      <trkpt lat="59.8403801" lon="17.6534921">
        <ele>11.1925</ele>
        <time>2013-05-22T18:43:48Z</time>
      </trkpt>
      <trkpt lat="59.8403633" lon="17.6534911">
        <ele>11.1925</ele>
        <time>2013-05-22T18:43:49Z</time>
      </trkpt>
      <trkpt lat="59.8403446" lon="17.6534873">
        <ele>11.6732</ele>
        <time>2013-05-22T18:43:50Z</time>
      </trkpt>
      <trkpt lat="59.8403264" lon="17.6534865">
        <ele>12.1538</ele>
        <time>2013-05-22T18:43:51Z</time>
      </trkpt>
      <trkpt lat="59.8403051" lon="17.6534873">
        <ele>12.1538</ele>
        <time>2013-05-22T18:43:52Z</time>
      </trkpt>
      <trkpt lat="59.8402827" lon="17.6534857">
        <ele>11.6732</ele>
        <time>2013-05-22T18:43:53Z</time>
      </trkpt>
      <trkpt lat="59.8402581" lon="17.6534903">
        <ele>11.6732</ele>
        <time>2013-05-22T18:43:54Z</time>
      </trkpt>
      <trkpt lat="59.8402306" lon="17.6535009">
        <ele>11.1925</ele>
        <time>2013-05-22T18:43:55Z</time>
      </trkpt>
      <trkpt lat="59.8402078" lon="17.6535123">
        <ele>10.2312</ele>
        <time>2013-05-22T18:43:56Z</time>
      </trkpt>
      <trkpt lat="59.8401865" lon="17.6535293">
        <ele>10.7118</ele>
        <time>2013-05-22T18:43:57Z</time>
      </trkpt>
      <trkpt lat="59.8401461" lon="17.6535646">
        <ele>10.2312</ele>
        <time>2013-05-22T18:43:58Z</time>
      </trkpt>
      <trkpt lat="59.8401161" lon="17.6535817">
        <ele>10.2312</ele>
        <time>2013-05-22T18:43:59Z</time>
      </trkpt>
      <trkpt lat="59.840081" lon="17.6536059">
        <ele>10.2312</ele>
        <time>2013-05-22T18:44:00Z</time>
      </trkpt>
      <trkpt lat="59.8400477" lon="17.6536251">
        <ele>11.6732</ele>
        <time>2013-05-22T18:44:01Z</time>
      </trkpt>
      <trkpt lat="59.840017" lon="17.6536291">
        <ele>12.1538</ele>
        <time>2013-05-22T18:44:02Z</time>
      </trkpt>
      <trkpt lat="59.8399963" lon="17.6536298">
        <ele>11.1925</ele>
        <time>2013-05-22T18:44:03Z</time>
      </trkpt>
      <trkpt lat="59.8399731" lon="17.6536317">
        <ele>11.1925</ele>
        <time>2013-05-22T18:44:04Z</time>
      </trkpt>
      <trkpt lat="59.8399445" lon="17.6536307">
        <ele>11.1925</ele>
        <time>2013-05-22T18:44:05Z</time>
      </trkpt>
      <trkpt lat="59.8399172" lon="17.6536266">
        <ele>11.1925</ele>
        <time>2013-05-22T18:44:06Z</time>
      </trkpt>
      <trkpt lat="59.8398851" lon="17.6536291">
        <ele>10.7118</ele>
        <time>2013-05-22T18:44:07Z</time>
      </trkpt>
      <trkpt lat="59.8398602" lon="17.6536288">
        <ele>10.7118</ele>
        <time>2013-05-22T18:44:08Z</time>
      </trkpt>
      <trkpt lat="59.8398332" lon="17.6536321">
        <ele>9.75061</ele>
        <time>2013-05-22T18:44:09Z</time>
      </trkpt>
      <trkpt lat="59.8398212" lon="17.6536354">
        <ele>9.75061</ele>
        <time>2013-05-22T18:44:10Z</time>
      </trkpt>
      <trkpt lat="59.8398103" lon="17.6536376">
        <ele>9.75061</ele>
        <time>2013-05-22T18:44:11Z</time>
      </trkpt>
      <trkpt lat="59.8397913" lon="17.6536483">
        <ele>9.2699</ele>
        <time>2013-05-22T18:44:12Z</time>
      </trkpt>
      <trkpt lat="59.8397668" lon="17.6536572">
        <ele>9.75061</ele>
        <time>2013-05-22T18:44:13Z</time>
      </trkpt>
      <trkpt lat="59.8397462" lon="17.6536595">
        <ele>9.75061</ele>
        <time>2013-05-22T18:44:14Z</time>
      </trkpt>
      <trkpt lat="59.8397241" lon="17.6536621">
        <ele>9.75061</ele>
        <time>2013-05-22T18:44:15Z</time>
      </trkpt>
      <trkpt lat="59.8397049" lon="17.6536687">
        <ele>9.75061</ele>
        <time>2013-05-22T18:44:16Z</time>
      </trkpt>
      <trkpt lat="59.8396735" lon="17.6536906">
        <ele>9.2699</ele>
        <time>2013-05-22T18:44:17Z</time>
      </trkpt>
      <trkpt lat="59.8396509" lon="17.6536993">
        <ele>9.75061</ele>
        <time>2013-05-22T18:44:18Z</time>
      </trkpt>
      <trkpt lat="59.8396301" lon="17.6537032">
        <ele>10.7118</ele>
        <time>2013-05-22T18:44:19Z</time>
      </trkpt>
      <trkpt lat="59.8396076" lon="17.6537037">
        <ele>11.1925</ele>
        <time>2013-05-22T18:44:20Z</time>
      </trkpt>
      <trkpt lat="59.8395898" lon="17.6537008">
        <ele>10.7118</ele>
        <time>2013-05-22T18:44:21Z</time>
      </trkpt>
      <trkpt lat="59.8395702" lon="17.6537027">
        <ele>10.2312</ele>
        <time>2013-05-22T18:44:22Z</time>
      </trkpt>
      <trkpt lat="59.8395428" lon="17.6537107">
        <ele>9.75061</ele>
        <time>2013-05-22T18:44:23Z</time>
      </trkpt>
      <trkpt lat="59.8395195" lon="17.6537101">
        <ele>9.75061</ele>
        <time>2013-05-22T18:44:24Z</time>
      </trkpt>
      <trkpt lat="59.839494" lon="17.6537033">
        <ele>9.2699</ele>
        <time>2013-05-22T18:44:25Z</time>
      </trkpt>
      <trkpt lat="59.8394737" lon="17.653704">
        <ele>9.75061</ele>
        <time>2013-05-22T18:44:26Z</time>
      </trkpt>
      <trkpt lat="59.8394552" lon="17.6537066">
        <ele>10.2312</ele>
        <time>2013-05-22T18:44:27Z</time>
      </trkpt>
      <trkpt lat="59.8394439" lon="17.6537132">
        <ele>10.7118</ele>
        <time>2013-05-22T18:44:28Z</time>
      </trkpt>
      <trkpt lat="59.8394225" lon="17.6537203">
        <ele>11.6732</ele>
        <time>2013-05-22T18:44:29Z</time>
      </trkpt>
      <trkpt lat="59.8393978" lon="17.6537241">
        <ele>11.6732</ele>
        <time>2013-05-22T18:44:30Z</time>
      </trkpt>
      <trkpt lat="59.8393715" lon="17.6537271">
        <ele>11.1925</ele>
        <time>2013-05-22T18:44:31Z</time>
      </trkpt>
      <trkpt lat="59.8393572" lon="17.6537195">
        <ele>11.6732</ele>
        <time>2013-05-22T18:44:32Z</time>
      </trkpt>
      <trkpt lat="59.8393433" lon="17.6537122">
        <ele>11.6732</ele>
        <time>2013-05-22T18:44:33Z</time>
      </trkpt>
      <trkpt lat="59.8393297" lon="17.6537074">
        <ele>11.1925</ele>
        <time>2013-05-22T18:44:34Z</time>
      </trkpt>
      <trkpt lat="59.839317" lon="17.6536996">
        <ele>10.7118</ele>
        <time>2013-05-22T18:44:35Z</time>
      </trkpt>
      <trkpt lat="59.8393029" lon="17.653694">
        <ele>11.1925</ele>
        <time>2013-05-22T18:44:36Z</time>
      </trkpt>
      <trkpt lat="59.8392832" lon="17.653697">
        <ele>10.7118</ele>
        <time>2013-05-22T18:44:37Z</time>
      </trkpt>
      <trkpt lat="59.8392657" lon="17.6536887">
        <ele>11.1925</ele>
        <time>2013-05-22T18:44:38Z</time>
      </trkpt>
      <trkpt lat="59.8392405" lon="17.6536874">
        <ele>10.7118</ele>
        <time>2013-05-22T18:44:39Z</time>
      </trkpt>
      <trkpt lat="59.8392179" lon="17.6536837">
        <ele>11.6732</ele>
        <time>2013-05-22T18:44:40Z</time>
      </trkpt>
      <trkpt lat="59.8391947" lon="17.6536818">
        <ele>11.6732</ele>
        <time>2013-05-22T18:44:41Z</time>
      </trkpt>
      <trkpt lat="59.8391686" lon="17.6536748">
        <ele>12.1538</ele>
        <time>2013-05-22T18:44:42Z</time>
      </trkpt>
      <trkpt lat="59.8391429" lon="17.6536688">
        <ele>12.6344</ele>
        <time>2013-05-22T18:44:43Z</time>
      </trkpt>
      <trkpt lat="59.8391185" lon="17.6536641">
        <ele>12.6344</ele>
        <time>2013-05-22T18:44:44Z</time>
      </trkpt>
      <trkpt lat="59.839092" lon="17.6536563">
        <ele>13.1151</ele>
        <time>2013-05-22T18:44:45Z</time>
      </trkpt>
      <trkpt lat="59.8390672" lon="17.6536502">
        <ele>14.0764</ele>
        <time>2013-05-22T18:44:46Z</time>
      </trkpt>
      <trkpt lat="59.8390454" lon="17.6536457">
        <ele>13.5958</ele>
        <time>2013-05-22T18:44:47Z</time>
      </trkpt>
      <trkpt lat="59.8390215" lon="17.6536366">
        <ele>14.0764</ele>
        <time>2013-05-22T18:44:48Z</time>
      </trkpt>
      <trkpt lat="59.8389978" lon="17.6536318">
        <ele>13.5958</ele>
        <time>2013-05-22T18:44:49Z</time>
      </trkpt>
      <trkpt lat="59.8389766" lon="17.6536298">
        <ele>13.5958</ele>
        <time>2013-05-22T18:44:50Z</time>
      </trkpt>
      <trkpt lat="59.8389531" lon="17.6536252">
        <ele>13.5958</ele>
        <time>2013-05-22T18:44:51Z</time>
      </trkpt>
      <trkpt lat="59.8389324" lon="17.6536164">
        <ele>14.0764</ele>
        <time>2013-05-22T18:44:52Z</time>
      </trkpt>
      <trkpt lat="59.8389087" lon="17.6536089">
        <ele>14.0764</ele>
        <time>2013-05-22T18:44:53Z</time>
      </trkpt>
      <trkpt lat="59.838887" lon="17.6535978">
        <ele>14.557</ele>
        <time>2013-05-22T18:44:54Z</time>
      </trkpt>
      <trkpt lat="59.8388657" lon="17.6535853">
        <ele>14.557</ele>
        <time>2013-05-22T18:44:55Z</time>
      </trkpt>
      <trkpt lat="59.8388469" lon="17.6535745">
        <ele>14.557</ele>
        <time>2013-05-22T18:44:56Z</time>
      </trkpt>
      <trkpt lat="59.8388238" lon="17.6535667">
        <ele>13.5958</ele>
        <time>2013-05-22T18:44:57Z</time>
      </trkpt>
      <trkpt lat="59.8388007" lon="17.6535678">
        <ele>13.5958</ele>
        <time>2013-05-22T18:44:58Z</time>
      </trkpt>
      <trkpt lat="59.8387771" lon="17.6535698">
        <ele>13.1151</ele>
        <time>2013-05-22T18:44:59Z</time>
      </trkpt>
      <trkpt lat="59.8387417" lon="17.6535834">
        <ele>12.6344</ele>
        <time>2013-05-22T18:45:00Z</time>
      </trkpt>
      <trkpt lat="59.8387184" lon="17.6535821">
        <ele>13.5958</ele>
        <time>2013-05-22T18:45:01Z</time>
      </trkpt>
      <trkpt lat="59.8386945" lon="17.6535873">
        <ele>13.1151</ele>
        <time>2013-05-22T18:45:02Z</time>
      </trkpt>
      <trkpt lat="59.8386755" lon="17.6535953">
        <ele>11.1925</ele>
        <time>2013-05-22T18:45:03Z</time>
      </trkpt>
      <trkpt lat="59.8386475" lon="17.6536141">
        <ele>10.7118</ele>
        <time>2013-05-22T18:45:04Z</time>
      </trkpt>
      <trkpt lat="59.8386156" lon="17.6536366">
        <ele>10.2312</ele>
        <time>2013-05-22T18:45:05Z</time>
      </trkpt>
      <trkpt lat="59.8385936" lon="17.653649">
        <ele>10.2312</ele>
        <time>2013-05-22T18:45:06Z</time>
      </trkpt>
      <trkpt lat="59.8385617" lon="17.6536655">
        <ele>10.2312</ele>
        <time>2013-05-22T18:45:07Z</time>
      </trkpt>
      <trkpt lat="59.83853" lon="17.6536739">
        <ele>10.7118</ele>
        <time>2013-05-22T18:45:08Z</time>
      </trkpt>
      <trkpt lat="59.8385006" lon="17.6536894">
        <ele>10.7118</ele>
        <time>2013-05-22T18:45:09Z</time>
      </trkpt>
      <trkpt lat="59.8384785" lon="17.6536967">
        <ele>11.1925</ele>
        <time>2013-05-22T18:45:10Z</time>
      </trkpt>
      <trkpt lat="59.8384617" lon="17.6536998">
        <ele>12.1538</ele>
        <time>2013-05-22T18:45:11Z</time>
      </trkpt>
      <trkpt lat="59.838441" lon="17.6537055">
        <ele>12.1538</ele>
        <time>2013-05-22T18:45:12Z</time>
      </trkpt>
      <trkpt lat="59.8384253" lon="17.6537102">
        <ele>12.6344</ele>
        <time>2013-05-22T18:45:13Z</time>
      </trkpt>
      <trkpt lat="59.8384011" lon="17.6537229">
        <ele>12.6344</ele>
        <time>2013-05-22T18:45:14Z</time>
      </trkpt>
      <trkpt lat="59.8383704" lon="17.6537377">
        <ele>13.1151</ele>
        <time>2013-05-22T18:45:15Z</time>
      </trkpt>
      <trkpt lat="59.8383439" lon="17.6537491">
        <ele>13.5958</ele>
        <time>2013-05-22T18:45:16Z</time>
      </trkpt>
      <trkpt lat="59.8383202" lon="17.6537599">
        <ele>13.5958</ele>
        <time>2013-05-22T18:45:17Z</time>
      </trkpt>
      <trkpt lat="59.8382974" lon="17.6537656">
        <ele>14.0764</ele>
        <time>2013-05-22T18:45:18Z</time>
      </trkpt>
      <trkpt lat="59.8382775" lon="17.6537701">
        <ele>14.557</ele>
        <time>2013-05-22T18:45:19Z</time>
      </trkpt>
      <trkpt lat="59.8382539" lon="17.6537781">
        <ele>14.557</ele>
        <time>2013-05-22T18:45:20Z</time>
      </trkpt>
      <trkpt lat="59.8382293" lon="17.6537827">
        <ele>15.0377</ele>
        <time>2013-05-22T18:45:21Z</time>
      </trkpt>
      <trkpt lat="59.8382068" lon="17.6537732">
        <ele>14.0764</ele>
        <time>2013-05-22T18:45:22Z</time>
      </trkpt>
      <trkpt lat="59.8381827" lon="17.6537609">
        <ele>13.5958</ele>
        <time>2013-05-22T18:45:23Z</time>
      </trkpt>
      <trkpt lat="59.8381612" lon="17.6537525">
        <ele>14.0764</ele>
        <time>2013-05-22T18:45:24Z</time>
      </trkpt>
      <trkpt lat="59.8381392" lon="17.6537485">
        <ele>14.0764</ele>
        <time>2013-05-22T18:45:25Z</time>
      </trkpt>
      <trkpt lat="59.8381172" lon="17.653751">
        <ele>14.0764</ele>
        <time>2013-05-22T18:45:26Z</time>
      </trkpt>
      <trkpt lat="59.8380953" lon="17.6537543">
        <ele>14.0764</ele>
        <time>2013-05-22T18:45:27Z</time>
      </trkpt>
      <trkpt lat="59.8380715" lon="17.6537517">
        <ele>14.557</ele>
        <time>2013-05-22T18:45:28Z</time>
      </trkpt>
      <trkpt lat="59.8380477" lon="17.6537457">
        <ele>14.0764</ele>
        <time>2013-05-22T18:45:29Z</time>
      </trkpt>
      <trkpt lat="59.8380248" lon="17.653745">
        <ele>13.5958</ele>
        <time>2013-05-22T18:45:30Z</time>
      </trkpt>
      <trkpt lat="59.8380007" lon="17.6537414">
        <ele>14.0764</ele>
        <time>2013-05-22T18:45:31Z</time>
      </trkpt>
      <trkpt lat="59.8379786" lon="17.6537331">
        <ele>14.557</ele>
        <time>2013-05-22T18:45:32Z</time>
      </trkpt>
      <trkpt lat="59.8379608" lon="17.6537257">
        <ele>14.557</ele>
        <time>2013-05-22T18:45:33Z</time>
      </trkpt>
      <trkpt lat="59.8379419" lon="17.6537183">
        <ele>15.0377</ele>
        <time>2013-05-22T18:45:34Z</time>
      </trkpt>
      <trkpt lat="59.8379225" lon="17.6537071">
        <ele>15.0377</ele>
        <time>2013-05-22T18:45:35Z</time>
      </trkpt>
      <trkpt lat="59.8379032" lon="17.6536921">
        <ele>15.5184</ele>
        <time>2013-05-22T18:45:36Z</time>
      </trkpt>
      <trkpt lat="59.8378856" lon="17.6536782">
        <ele>15.5184</ele>
        <time>2013-05-22T18:45:37Z</time>
      </trkpt>
      <trkpt lat="59.8378658" lon="17.6536618">
        <ele>15.0377</ele>
        <time>2013-05-22T18:45:38Z</time>
      </trkpt>
      <trkpt lat="59.8378504" lon="17.6536365">
        <ele>15.0377</ele>
        <time>2013-05-22T18:45:39Z</time>
      </trkpt>
      <trkpt lat="59.8378363" lon="17.6536178">
        <ele>14.557</ele>
        <time>2013-05-22T18:45:40Z</time>
      </trkpt>
      <trkpt lat="59.8378188" lon="17.6536097">
        <ele>14.557</ele>
        <time>2013-05-22T18:45:41Z</time>
      </trkpt>
      <trkpt lat="59.8378022" lon="17.6535968">
        <ele>14.557</ele>
        <time>2013-05-22T18:45:42Z</time>
      </trkpt>
      <trkpt lat="59.8377777" lon="17.6535917">
        <ele>13.5958</ele>
        <time>2013-05-22T18:45:43Z</time>
      </trkpt>
      <trkpt lat="59.837753" lon="17.6535856">
        <ele>13.1151</ele>
        <time>2013-05-22T18:45:44Z</time>
      </trkpt>
      <trkpt lat="59.8377265" lon="17.6535818">
        <ele>12.6344</ele>
        <time>2013-05-22T18:45:45Z</time>
      </trkpt>
      <trkpt lat="59.8377032" lon="17.6535698">
        <ele>13.1151</ele>
        <time>2013-05-22T18:45:46Z</time>
      </trkpt>
      <trkpt lat="59.8376828" lon="17.6535611">
        <ele>13.5958</ele>
        <time>2013-05-22T18:45:47Z</time>
      </trkpt>
      <trkpt lat="59.8376554" lon="17.6535599">
        <ele>13.5958</ele>
        <time>2013-05-22T18:45:48Z</time>
      </trkpt>
      <trkpt lat="59.8376281" lon="17.6535478">
        <ele>14.0764</ele>
        <time>2013-05-22T18:45:49Z</time>
      </trkpt>
      <trkpt lat="59.8376011" lon="17.6535397">
        <ele>13.5958</ele>
        <time>2013-05-22T18:45:50Z</time>
      </trkpt>
      <trkpt lat="59.8375711" lon="17.6535373">
        <ele>13.5958</ele>
        <time>2013-05-22T18:45:51Z</time>
      </trkpt>
      <trkpt lat="59.8375484" lon="17.65353">
        <ele>14.0764</ele>
        <time>2013-05-22T18:45:52Z</time>
      </trkpt>
      <trkpt lat="59.8375281" lon="17.653522">
        <ele>14.0764</ele>
        <time>2013-05-22T18:45:53Z</time>
      </trkpt>
      <trkpt lat="59.837506" lon="17.6535124">
        <ele>14.0764</ele>
        <time>2013-05-22T18:45:54Z</time>
      </trkpt>
      <trkpt lat="59.8374867" lon="17.6535004">
        <ele>14.557</ele>
        <time>2013-05-22T18:45:55Z</time>
      </trkpt>
      <trkpt lat="59.8374694" lon="17.6534893">
        <ele>14.557</ele>
        <time>2013-05-22T18:45:56Z</time>
      </trkpt>
      <trkpt lat="59.8374469" lon="17.6534766">
        <ele>14.557</ele>
        <time>2013-05-22T18:45:57Z</time>
      </trkpt>
      <trkpt lat="59.8374218" lon="17.6534661">
        <ele>15.5184</ele>
        <time>2013-05-22T18:45:58Z</time>
      </trkpt>
      <trkpt lat="59.8374001" lon="17.6534611">
        <ele>15.999</ele>
        <time>2013-05-22T18:45:59Z</time>
      </trkpt>
      <trkpt lat="59.8373821" lon="17.6534526">
        <ele>16.4797</ele>
        <time>2013-05-22T18:46:00Z</time>
      </trkpt>
      <trkpt lat="59.8373596" lon="17.6534482">
        <ele>16.9604</ele>
        <time>2013-05-22T18:46:01Z</time>
      </trkpt>
      <trkpt lat="59.8373311" lon="17.6534517">
        <ele>17.9218</ele>
        <time>2013-05-22T18:46:02Z</time>
      </trkpt>
      <trkpt lat="59.8372997" lon="17.6534557">
        <ele>17.9218</ele>
        <time>2013-05-22T18:46:03Z</time>
      </trkpt>
      <trkpt lat="59.8372785" lon="17.6534413">
        <ele>17.9218</ele>
        <time>2013-05-22T18:46:04Z</time>
      </trkpt>
      <trkpt lat="59.8372602" lon="17.6534284">
        <ele>17.9218</ele>
        <time>2013-05-22T18:46:05Z</time>
      </trkpt>
      <trkpt lat="59.8372324" lon="17.6534185">
        <ele>18.8831</ele>
        <time>2013-05-22T18:46:06Z</time>
      </trkpt>
      <trkpt lat="59.8371951" lon="17.6534253">
        <ele>18.4023</ele>
        <time>2013-05-22T18:46:07Z</time>
      </trkpt>
      <trkpt lat="59.8371556" lon="17.6534144">
        <ele>19.8444</ele>
        <time>2013-05-22T18:46:08Z</time>
      </trkpt>
      <trkpt lat="59.8371374" lon="17.6533964">
        <ele>20.325</ele>
        <time>2013-05-22T18:46:09Z</time>
      </trkpt>
      <trkpt lat="59.8371209" lon="17.6533812">
        <ele>20.325</ele>
        <time>2013-05-22T18:46:10Z</time>
      </trkpt>
      <trkpt lat="59.8370883" lon="17.6533857">
        <ele>20.8057</ele>
        <time>2013-05-22T18:46:11Z</time>
      </trkpt>
      <trkpt lat="59.8370669" lon="17.6533832">
        <ele>20.8057</ele>
        <time>2013-05-22T18:46:12Z</time>
      </trkpt>
      <trkpt lat="59.8370469" lon="17.6533812">
        <ele>20.325</ele>
        <time>2013-05-22T18:46:13Z</time>
      </trkpt>
      <trkpt lat="59.8370246" lon="17.6533805">
        <ele>20.325</ele>
        <time>2013-05-22T18:46:14Z</time>
      </trkpt>
      <trkpt lat="59.8370051" lon="17.6533673">
        <ele>20.325</ele>
        <time>2013-05-22T18:46:15Z</time>
      </trkpt>
      <trkpt lat="59.8369863" lon="17.6533621">
        <ele>20.325</ele>
        <time>2013-05-22T18:46:16Z</time>
      </trkpt>
      <trkpt lat="59.8369742" lon="17.6533501">
        <ele>20.8057</ele>
        <time>2013-05-22T18:46:17Z</time>
      </trkpt>
      <trkpt lat="59.8369578" lon="17.6533316">
        <ele>21.2864</ele>
        <time>2013-05-22T18:46:18Z</time>
      </trkpt>
      <trkpt lat="59.836935" lon="17.653322">
        <ele>22.7283</ele>
        <time>2013-05-22T18:46:19Z</time>
      </trkpt>
      <trkpt lat="59.8369138" lon="17.653309">
        <ele>22.7283</ele>
        <time>2013-05-22T18:46:20Z</time>
      </trkpt>
      <trkpt lat="59.8368885" lon="17.6532973">
        <ele>22.7283</ele>
        <time>2013-05-22T18:46:21Z</time>
      </trkpt>
      <trkpt lat="59.8368713" lon="17.6532818">
        <ele>22.2476</ele>
        <time>2013-05-22T18:46:22Z</time>
      </trkpt>
      <trkpt lat="59.8368613" lon="17.6532608">
        <ele>22.2476</ele>
        <time>2013-05-22T18:46:23Z</time>
      </trkpt>
      <trkpt lat="59.8368414" lon="17.6532528">
        <ele>23.209</ele>
        <time>2013-05-22T18:46:24Z</time>
      </trkpt>
      <trkpt lat="59.8368142" lon="17.6532554">
        <ele>22.7283</ele>
        <time>2013-05-22T18:46:25Z</time>
      </trkpt>
      <trkpt lat="59.8367899" lon="17.6532542">
        <ele>22.7283</ele>
        <time>2013-05-22T18:46:26Z</time>
      </trkpt>
      <trkpt lat="59.8367713" lon="17.6532407">
        <ele>22.7283</ele>
        <time>2013-05-22T18:46:27Z</time>
      </trkpt>
      <trkpt lat="59.836754" lon="17.6532268">
        <ele>21.767</ele>
        <time>2013-05-22T18:46:28Z</time>
      </trkpt>
      <trkpt lat="59.836738" lon="17.6532098">
        <ele>21.767</ele>
        <time>2013-05-22T18:46:29Z</time>
      </trkpt>
      <trkpt lat="59.8367175" lon="17.6532002">
        <ele>21.767</ele>
        <time>2013-05-22T18:46:30Z</time>
      </trkpt>
      <trkpt lat="59.8366911" lon="17.6531901">
        <ele>21.2864</ele>
        <time>2013-05-22T18:46:31Z</time>
      </trkpt>
      <trkpt lat="59.8366593" lon="17.6531811">
        <ele>20.8057</ele>
        <time>2013-05-22T18:46:32Z</time>
      </trkpt>
      <trkpt lat="59.8366313" lon="17.653189">
        <ele>20.8057</ele>
        <time>2013-05-22T18:46:33Z</time>
      </trkpt>
      <trkpt lat="59.8366071" lon="17.6531835">
        <ele>20.325</ele>
        <time>2013-05-22T18:46:34Z</time>
      </trkpt>
      <trkpt lat="59.8365891" lon="17.6531637">
        <ele>18.8831</ele>
        <time>2013-05-22T18:46:35Z</time>
      </trkpt>
      <trkpt lat="59.8365595" lon="17.6531459">
        <ele>16.9604</ele>
        <time>2013-05-22T18:46:36Z</time>
      </trkpt>
      <trkpt lat="59.8365293" lon="17.6531353">
        <ele>16.4797</ele>
        <time>2013-05-22T18:46:37Z</time>
      </trkpt>
      <trkpt lat="59.8365049" lon="17.6531257">
        <ele>16.4797</ele>
        <time>2013-05-22T18:46:38Z</time>
      </trkpt>
      <trkpt lat="59.8364876" lon="17.6531103">
        <ele>16.9604</ele>
        <time>2013-05-22T18:46:39Z</time>
      </trkpt>
      <trkpt lat="59.8364605" lon="17.6531052">
        <ele>16.9604</ele>
        <time>2013-05-22T18:46:40Z</time>
      </trkpt>
      <trkpt lat="59.8364422" lon="17.6530922">
        <ele>16.4797</ele>
        <time>2013-05-22T18:46:41Z</time>
      </trkpt>
      <trkpt lat="59.8364243" lon="17.6530777">
        <ele>15.999</ele>
        <time>2013-05-22T18:46:42Z</time>
      </trkpt>
      <trkpt lat="59.8364054" lon="17.6530595">
        <ele>15.999</ele>
        <time>2013-05-22T18:46:43Z</time>
      </trkpt>
      <trkpt lat="59.8363854" lon="17.653041">
        <ele>15.5184</ele>
        <time>2013-05-22T18:46:44Z</time>
      </trkpt>
      <trkpt lat="59.8363652" lon="17.6530255">
        <ele>15.999</ele>
        <time>2013-05-22T18:46:45Z</time>
      </trkpt>
      <trkpt lat="59.8363446" lon="17.6530099">
        <ele>15.999</ele>
        <time>2013-05-22T18:46:46Z</time>
      </trkpt>
      <trkpt lat="59.8363227" lon="17.6529964">
        <ele>16.4797</ele>
        <time>2013-05-22T18:46:47Z</time>
      </trkpt>
      <trkpt lat="59.8362992" lon="17.6529851">
        <ele>16.4797</ele>
        <time>2013-05-22T18:46:48Z</time>
      </trkpt>
      <trkpt lat="59.8362746" lon="17.6529687">
        <ele>16.4797</ele>
        <time>2013-05-22T18:46:49Z</time>
      </trkpt>
      <trkpt lat="59.8362539" lon="17.6529506">
        <ele>16.9604</ele>
        <time>2013-05-22T18:46:50Z</time>
      </trkpt>
      <trkpt lat="59.8362305" lon="17.6529392">
        <ele>15.999</ele>
        <time>2013-05-22T18:46:51Z</time>
      </trkpt>
      <trkpt lat="59.8362053" lon="17.6529259">
        <ele>15.999</ele>
        <time>2013-05-22T18:46:52Z</time>
      </trkpt>
      <trkpt lat="59.8361823" lon="17.652914">
        <ele>15.999</ele>
        <time>2013-05-22T18:46:53Z</time>
      </trkpt>
      <trkpt lat="59.8361604" lon="17.6529041">
        <ele>15.999</ele>
        <time>2013-05-22T18:46:54Z</time>
      </trkpt>
      <trkpt lat="59.8361376" lon="17.6528894">
        <ele>15.999</ele>
        <time>2013-05-22T18:46:55Z</time>
      </trkpt>
      <trkpt lat="59.8361164" lon="17.652872">
        <ele>15.999</ele>
        <time>2013-05-22T18:46:56Z</time>
      </trkpt>
      <trkpt lat="59.8360973" lon="17.6528522">
        <ele>16.4797</ele>
        <time>2013-05-22T18:46:57Z</time>
      </trkpt>
      <trkpt lat="59.8360809" lon="17.6528286">
        <ele>16.9604</ele>
        <time>2013-05-22T18:46:58Z</time>
      </trkpt>
      <trkpt lat="59.8360576" lon="17.6528138">
        <ele>17.4412</ele>
        <time>2013-05-22T18:46:59Z</time>
      </trkpt>
      <trkpt lat="59.8360306" lon="17.6528017">
        <ele>17.4412</ele>
        <time>2013-05-22T18:47:00Z</time>
      </trkpt>
      <trkpt lat="59.836011" lon="17.6527814">
        <ele>18.4023</ele>
        <time>2013-05-22T18:47:01Z</time>
      </trkpt>
      <trkpt lat="59.835987" lon="17.652769">
        <ele>18.8831</ele>
        <time>2013-05-22T18:47:02Z</time>
      </trkpt>
      <trkpt lat="59.8359639" lon="17.6527523">
        <ele>19.3638</ele>
        <time>2013-05-22T18:47:03Z</time>
      </trkpt>
      <trkpt lat="59.8359409" lon="17.6527321">
        <ele>19.3638</ele>
        <time>2013-05-22T18:47:04Z</time>
      </trkpt>
      <trkpt lat="59.8359208" lon="17.6527151">
        <ele>19.3638</ele>
        <time>2013-05-22T18:47:05Z</time>
      </trkpt>
      <trkpt lat="59.8358981" lon="17.6527045">
        <ele>19.8444</ele>
        <time>2013-05-22T18:47:06Z</time>
      </trkpt>
      <trkpt lat="59.8358778" lon="17.6526874">
        <ele>20.325</ele>
        <time>2013-05-22T18:47:07Z</time>
      </trkpt>
      <trkpt lat="59.835855" lon="17.6526755">
        <ele>19.8444</ele>
        <time>2013-05-22T18:47:08Z</time>
      </trkpt>
      <trkpt lat="59.8358306" lon="17.6526675">
        <ele>20.325</ele>
        <time>2013-05-22T18:47:09Z</time>
      </trkpt>
      <trkpt lat="59.8358089" lon="17.6526592">
        <ele>20.325</ele>
        <time>2013-05-22T18:47:10Z</time>
      </trkpt>
      <trkpt lat="59.8357879" lon="17.6526529">
        <ele>20.8057</ele>
        <time>2013-05-22T18:47:11Z</time>
      </trkpt>
      <trkpt lat="59.8357691" lon="17.6526508">
        <ele>20.8057</ele>
        <time>2013-05-22T18:47:12Z</time>
      </trkpt>
      <trkpt lat="59.8357484" lon="17.6526524">
        <ele>20.325</ele>
        <time>2013-05-22T18:47:13Z</time>
      </trkpt>
      <trkpt lat="59.8357265" lon="17.6526554">
        <ele>19.8444</ele>
        <time>2013-05-22T18:47:14Z</time>
      </trkpt>
      <trkpt lat="59.8357058" lon="17.6526586">
        <ele>19.3638</ele>
        <time>2013-05-22T18:47:15Z</time>
      </trkpt>
      <trkpt lat="59.8356877" lon="17.6526545">
        <ele>19.3638</ele>
        <time>2013-05-22T18:47:16Z</time>
      </trkpt>
      <trkpt lat="59.8356693" lon="17.6526477">
        <ele>19.8444</ele>
        <time>2013-05-22T18:47:17Z</time>
      </trkpt>
      <trkpt lat="59.83565" lon="17.6526478">
        <ele>20.325</ele>
        <time>2013-05-22T18:47:18Z</time>
      </trkpt>
      <trkpt lat="59.8356249" lon="17.6526513">
        <ele>20.325</ele>
        <time>2013-05-22T18:47:19Z</time>
      </trkpt>
      <trkpt lat="59.8356009" lon="17.6526541">
        <ele>20.325</ele>
        <time>2013-05-22T18:47:20Z</time>
      </trkpt>
      <trkpt lat="59.8355798" lon="17.65266">
        <ele>20.325</ele>
        <time>2013-05-22T18:47:21Z</time>
      </trkpt>
      <trkpt lat="59.8355566" lon="17.6526655">
        <ele>20.325</ele>
        <time>2013-05-22T18:47:22Z</time>
      </trkpt>
      <trkpt lat="59.8355349" lon="17.6526698">
        <ele>20.325</ele>
        <time>2013-05-22T18:47:23Z</time>
      </trkpt>
      <trkpt lat="59.8355126" lon="17.6526758">
        <ele>19.8444</ele>
        <time>2013-05-22T18:47:24Z</time>
      </trkpt>
      <trkpt lat="59.8354891" lon="17.6526809">
        <ele>19.8444</ele>
        <time>2013-05-22T18:47:25Z</time>
      </trkpt>
      <trkpt lat="59.835467" lon="17.6526871">
        <ele>20.325</ele>
        <time>2013-05-22T18:47:26Z</time>
      </trkpt>
      <trkpt lat="59.8354476" lon="17.6526902">
        <ele>20.325</ele>
        <time>2013-05-22T18:47:27Z</time>
      </trkpt>
      <trkpt lat="59.8354269" lon="17.6526959">
        <ele>20.8057</ele>
        <time>2013-05-22T18:47:28Z</time>
      </trkpt>
      <trkpt lat="59.835406" lon="17.6527024">
        <ele>21.2864</ele>
        <time>2013-05-22T18:47:29Z</time>
      </trkpt>
      <trkpt lat="59.8353872" lon="17.6527036">
        <ele>21.2864</ele>
        <time>2013-05-22T18:47:30Z</time>
      </trkpt>
      <trkpt lat="59.8353634" lon="17.6527083">
        <ele>20.8057</ele>
        <time>2013-05-22T18:47:31Z</time>
      </trkpt>
      <trkpt lat="59.8353442" lon="17.6527134">
        <ele>20.8057</ele>
        <time>2013-05-22T18:47:32Z</time>
      </trkpt>
      <trkpt lat="59.8353286" lon="17.6527181">
        <ele>20.8057</ele>
        <time>2013-05-22T18:47:33Z</time>
      </trkpt>
      <trkpt lat="59.8353093" lon="17.6527265">
        <ele>20.8057</ele>
        <time>2013-05-22T18:47:34Z</time>
      </trkpt>
      <trkpt lat="59.8352835" lon="17.6527347">
        <ele>20.325</ele>
        <time>2013-05-22T18:47:35Z</time>
      </trkpt>
      <trkpt lat="59.8352567" lon="17.6527389">
        <ele>19.8444</ele>
        <time>2013-05-22T18:47:36Z</time>
      </trkpt>
      <trkpt lat="59.8352386" lon="17.6527395">
        <ele>19.8444</ele>
        <time>2013-05-22T18:47:37Z</time>
      </trkpt>
      <trkpt lat="59.8352174" lon="17.6527415">
        <ele>19.8444</ele>
        <time>2013-05-22T18:47:38Z</time>
      </trkpt>
      <trkpt lat="59.8351954" lon="17.6527454">
        <ele>19.3638</ele>
        <time>2013-05-22T18:47:39Z</time>
      </trkpt>
      <trkpt lat="59.8351781" lon="17.6527455">
        <ele>19.3638</ele>
        <time>2013-05-22T18:47:40Z</time>
      </trkpt>
      <trkpt lat="59.8351572" lon="17.6527514">
        <ele>19.3638</ele>
        <time>2013-05-22T18:47:41Z</time>
      </trkpt>
      <trkpt lat="59.8351333" lon="17.6527616">
        <ele>19.3638</ele>
        <time>2013-05-22T18:47:42Z</time>
      </trkpt>
      <trkpt lat="59.8351101" lon="17.6527708">
        <ele>19.8444</ele>
        <time>2013-05-22T18:47:43Z</time>
      </trkpt>
      <trkpt lat="59.8350894" lon="17.6527815">
        <ele>20.325</ele>
        <time>2013-05-22T18:47:44Z</time>
      </trkpt>
      <trkpt lat="59.835064" lon="17.652785">
        <ele>19.8444</ele>
        <time>2013-05-22T18:47:45Z</time>
      </trkpt>
      <trkpt lat="59.8350408" lon="17.6527871">
        <ele>19.3638</ele>
        <time>2013-05-22T18:47:46Z</time>
      </trkpt>
      <trkpt lat="59.8350193" lon="17.6527905">
        <ele>19.8444</ele>
        <time>2013-05-22T18:47:47Z</time>
      </trkpt>
      <trkpt lat="59.8349957" lon="17.6527948">
        <ele>19.8444</ele>
        <time>2013-05-22T18:47:48Z</time>
      </trkpt>
      <trkpt lat="59.8349718" lon="17.6527963">
        <ele>19.3638</ele>
        <time>2013-05-22T18:47:49Z</time>
      </trkpt>
      <trkpt lat="59.8349477" lon="17.6527989">
        <ele>18.8831</ele>
        <time>2013-05-22T18:47:50Z</time>
      </trkpt>
      <trkpt lat="59.8349255" lon="17.6527999">
        <ele>18.8831</ele>
        <time>2013-05-22T18:47:51Z</time>
      </trkpt>
      <trkpt lat="59.8349029" lon="17.6528046">
        <ele>18.4023</ele>
        <time>2013-05-22T18:47:52Z</time>
      </trkpt>
      <trkpt lat="59.8348806" lon="17.6528141">
        <ele>18.4023</ele>
        <time>2013-05-22T18:47:53Z</time>
      </trkpt>
      <trkpt lat="59.8348562" lon="17.6528248">
        <ele>18.8831</ele>
        <time>2013-05-22T18:47:54Z</time>
      </trkpt>
      <trkpt lat="59.8348314" lon="17.6528332">
        <ele>18.8831</ele>
        <time>2013-05-22T18:47:55Z</time>
      </trkpt>
      <trkpt lat="59.8348077" lon="17.6528398">
        <ele>18.8831</ele>
        <time>2013-05-22T18:47:56Z</time>
      </trkpt>
      <trkpt lat="59.8347843" lon="17.6528446">
        <ele>18.4023</ele>
        <time>2013-05-22T18:47:57Z</time>
      </trkpt>
      <trkpt lat="59.834761" lon="17.6528497">
        <ele>18.4023</ele>
        <time>2013-05-22T18:47:58Z</time>
      </trkpt>
      <trkpt lat="59.8347371" lon="17.6528573">
        <ele>18.4023</ele>
        <time>2013-05-22T18:47:59Z</time>
      </trkpt>
      <trkpt lat="59.8347117" lon="17.6528609">
        <ele>18.4023</ele>
        <time>2013-05-22T18:48:00Z</time>
      </trkpt>
      <trkpt lat="59.8346856" lon="17.6528647">
        <ele>17.9218</ele>
        <time>2013-05-22T18:48:01Z</time>
      </trkpt>
      <trkpt lat="59.8346626" lon="17.6528688">
        <ele>17.4412</ele>
        <time>2013-05-22T18:48:02Z</time>
      </trkpt>
      <trkpt lat="59.8346354" lon="17.6528765">
        <ele>16.4797</ele>
        <time>2013-05-22T18:48:03Z</time>
      </trkpt>
      <trkpt lat="59.8346076" lon="17.652885">
        <ele>16.9604</ele>
        <time>2013-05-22T18:48:04Z</time>
      </trkpt>
      <trkpt lat="59.8345854" lon="17.652889">
        <ele>16.9604</ele>
        <time>2013-05-22T18:48:05Z</time>
      </trkpt>
      <trkpt lat="59.8345605" lon="17.6528897">
        <ele>17.4412</ele>
        <time>2013-05-22T18:48:06Z</time>
      </trkpt>
      <trkpt lat="59.834534" lon="17.652897">
        <ele>16.9604</ele>
        <time>2013-05-22T18:48:07Z</time>
      </trkpt>
      <trkpt lat="59.8345154" lon="17.6528969">
        <ele>17.4412</ele>
        <time>2013-05-22T18:48:08Z</time>
      </trkpt>
      <trkpt lat="59.834495" lon="17.6528939">
        <ele>17.9218</ele>
        <time>2013-05-22T18:48:09Z</time>
      </trkpt>
      <trkpt lat="59.8344729" lon="17.6528926">
        <ele>17.9218</ele>
        <time>2013-05-22T18:48:10Z</time>
      </trkpt>
      <trkpt lat="59.8344479" lon="17.6528959">
        <ele>18.4023</ele>
        <time>2013-05-22T18:48:11Z</time>
      </trkpt>
      <trkpt lat="59.8344222" lon="17.6528967">
        <ele>18.8831</ele>
        <time>2013-05-22T18:48:12Z</time>
      </trkpt>
      <trkpt lat="59.8343981" lon="17.6528887">
        <ele>18.8831</ele>
        <time>2013-05-22T18:48:13Z</time>
      </trkpt>
      <trkpt lat="59.8343731" lon="17.6528863">
        <ele>19.3638</ele>
        <time>2013-05-22T18:48:14Z</time>
      </trkpt>
      <trkpt lat="59.8343496" lon="17.6528833">
        <ele>19.8444</ele>
        <time>2013-05-22T18:48:15Z</time>
      </trkpt>
      <trkpt lat="59.8343306" lon="17.6528775">
        <ele>19.8444</ele>
        <time>2013-05-22T18:48:16Z</time>
      </trkpt>
      <trkpt lat="59.8343097" lon="17.6528744">
        <ele>19.8444</ele>
        <time>2013-05-22T18:48:17Z</time>
      </trkpt>
      <trkpt lat="59.8342997" lon="17.6528693">
        <ele>20.325</ele>
        <time>2013-05-22T18:48:18Z</time>
      </trkpt>
      <trkpt lat="59.8342888" lon="17.6528768">
        <ele>20.325</ele>
        <time>2013-05-22T18:48:19Z</time>
      </trkpt>
      <trkpt lat="59.8342663" lon="17.6528772">
        <ele>19.8444</ele>
        <time>2013-05-22T18:48:20Z</time>
      </trkpt>
      <trkpt lat="59.8342357" lon="17.6528714">
        <ele>20.325</ele>
        <time>2013-05-22T18:48:21Z</time>
      </trkpt>
      <trkpt lat="59.8342109" lon="17.6528622">
        <ele>21.2864</ele>
        <time>2013-05-22T18:48:22Z</time>
      </trkpt>
      <trkpt lat="59.8341874" lon="17.6528569">
        <ele>21.767</ele>
        <time>2013-05-22T18:48:23Z</time>
      </trkpt>
      <trkpt lat="59.8341593" lon="17.6528483">
        <ele>21.2864</ele>
        <time>2013-05-22T18:48:24Z</time>
      </trkpt>
      <trkpt lat="59.8341348" lon="17.6528299">
        <ele>21.2864</ele>
        <time>2013-05-22T18:48:25Z</time>
      </trkpt>
      <trkpt lat="59.834116" lon="17.652814">
        <ele>21.767</ele>
        <time>2013-05-22T18:48:26Z</time>
      </trkpt>
      <trkpt lat="59.8340935" lon="17.6528011">
        <ele>22.2476</ele>
        <time>2013-05-22T18:48:27Z</time>
      </trkpt>
      <trkpt lat="59.8340713" lon="17.6527881">
        <ele>22.7283</ele>
        <time>2013-05-22T18:48:28Z</time>
      </trkpt>
      <trkpt lat="59.8340497" lon="17.6527757">
        <ele>22.7283</ele>
        <time>2013-05-22T18:48:29Z</time>
      </trkpt>
      <trkpt lat="59.8340262" lon="17.6527607">
        <ele>22.7283</ele>
        <time>2013-05-22T18:48:30Z</time>
      </trkpt>
      <trkpt lat="59.8340078" lon="17.6527447">
        <ele>22.7283</ele>
        <time>2013-05-22T18:48:31Z</time>
      </trkpt>
      <trkpt lat="59.8339894" lon="17.6527207">
        <ele>23.209</ele>
        <time>2013-05-22T18:48:32Z</time>
      </trkpt>
      <trkpt lat="59.8339684" lon="17.6526959">
        <ele>23.6896</ele>
        <time>2013-05-22T18:48:33Z</time>
      </trkpt>
      <trkpt lat="59.8339469" lon="17.6526834">
        <ele>24.1703</ele>
        <time>2013-05-22T18:48:34Z</time>
      </trkpt>
      <trkpt lat="59.833928" lon="17.6526763">
        <ele>25.1317</ele>
        <time>2013-05-22T18:48:35Z</time>
      </trkpt>
      <trkpt lat="59.8339011" lon="17.6526789">
        <ele>25.1317</ele>
        <time>2013-05-22T18:48:36Z</time>
      </trkpt>
      <trkpt lat="59.8338834" lon="17.6526663">
        <ele>26.0929</ele>
        <time>2013-05-22T18:48:37Z</time>
      </trkpt>
      <trkpt lat="59.8338684" lon="17.652659">
        <ele>27.0543</ele>
        <time>2013-05-22T18:48:38Z</time>
      </trkpt>
      <trkpt lat="59.8338518" lon="17.6526555">
        <ele>28.0155</ele>
        <time>2013-05-22T18:48:39Z</time>
      </trkpt>
      <trkpt lat="59.8338345" lon="17.6526496">
        <ele>28.0155</ele>
        <time>2013-05-22T18:48:40Z</time>
      </trkpt>
      <trkpt lat="59.8338169" lon="17.6526436">
        <ele>28.4962</ele>
        <time>2013-05-22T18:48:41Z</time>
      </trkpt>
      <trkpt lat="59.8338021" lon="17.6526435">
        <ele>29.4575</ele>
        <time>2013-05-22T18:48:42Z</time>
      </trkpt>
      <trkpt lat="59.833789" lon="17.6526418">
        <ele>28.9769</ele>
        <time>2013-05-22T18:48:43Z</time>
      </trkpt>
      <trkpt lat="59.8337809" lon="17.6526362">
        <ele>28.9769</ele>
        <time>2013-05-22T18:48:44Z</time>
      </trkpt>
      <trkpt lat="59.8337561" lon="17.652646">
        <ele>28.4962</ele>
        <time>2013-05-22T18:48:45Z</time>
      </trkpt>
      <trkpt lat="59.833726" lon="17.6526435">
        <ele>29.4575</ele>
        <time>2013-05-22T18:48:46Z</time>
      </trkpt>
      <trkpt lat="59.8337071" lon="17.6526285">
        <ele>29.9381</ele>
        <time>2013-05-22T18:48:47Z</time>
      </trkpt>
      <trkpt lat="59.8336907" lon="17.6526224">
        <ele>30.4188</ele>
        <time>2013-05-22T18:48:48Z</time>
      </trkpt>
      <trkpt lat="59.8336709" lon="17.6526282">
        <ele>30.8995</ele>
        <time>2013-05-22T18:48:49Z</time>
      </trkpt>
      <trkpt lat="59.833631" lon="17.6526596">
        <ele>30.4188</ele>
        <time>2013-05-22T18:48:50Z</time>
      </trkpt>
      <trkpt lat="59.8336239" lon="17.6526466">
        <ele>31.3801</ele>
        <time>2013-05-22T18:48:51Z</time>
      </trkpt>
      <trkpt lat="59.8335871" lon="17.6526648">
        <ele>30.8995</ele>
        <time>2013-05-22T18:48:52Z</time>
      </trkpt>
      <trkpt lat="59.8335476" lon="17.6526885">
        <ele>29.9381</ele>
        <time>2013-05-22T18:48:53Z</time>
      </trkpt>
      <trkpt lat="59.8335227" lon="17.6526959">
        <ele>30.8995</ele>
        <time>2013-05-22T18:48:54Z</time>
      </trkpt>
      <trkpt lat="59.8334996" lon="17.6526891">
        <ele>30.8995</ele>
        <time>2013-05-22T18:48:55Z</time>
      </trkpt>
      <trkpt lat="59.8334875" lon="17.6526887">
        <ele>31.3801</ele>
        <time>2013-05-22T18:48:56Z</time>
      </trkpt>
      <trkpt lat="59.8334706" lon="17.6526928">
        <ele>30.8995</ele>
        <time>2013-05-22T18:48:57Z</time>
      </trkpt>
      <trkpt lat="59.8334286" lon="17.6527176">
        <ele>30.4188</ele>
        <time>2013-05-22T18:48:58Z</time>
      </trkpt>
      <trkpt lat="59.8333913" lon="17.6527441">
        <ele>30.4188</ele>
        <time>2013-05-22T18:48:59Z</time>
      </trkpt>
      <trkpt lat="59.8333695" lon="17.6527487">
        <ele>31.8607</ele>
        <time>2013-05-22T18:49:00Z</time>
      </trkpt>
      <trkpt lat="59.8333561" lon="17.6527561">
        <ele>31.3801</ele>
        <time>2013-05-22T18:49:01Z</time>
      </trkpt>
      <trkpt lat="59.8333437" lon="17.6527613">
        <ele>31.3801</ele>
        <time>2013-05-22T18:49:02Z</time>
      </trkpt>
      <trkpt lat="59.8333229" lon="17.6527798">
        <ele>31.3801</ele>
        <time>2013-05-22T18:49:03Z</time>
      </trkpt>
      <trkpt lat="59.833302" lon="17.6527895">
        <ele>31.8607</ele>
        <time>2013-05-22T18:49:04Z</time>
      </trkpt>
      <trkpt lat="59.8332845" lon="17.6528014">
        <ele>33.3029</ele>
        <time>2013-05-22T18:49:05Z</time>
      </trkpt>
      <trkpt lat="59.83327" lon="17.6528143">
        <ele>33.3029</ele>
        <time>2013-05-22T18:49:06Z</time>
      </trkpt>
      <trkpt lat="59.8332568" lon="17.6528125">
        <ele>31.8607</ele>
        <time>2013-05-22T18:49:07Z</time>
      </trkpt>
      <trkpt lat="59.8332364" lon="17.6528088">
        <ele>31.8607</ele>
        <time>2013-05-22T18:49:08Z</time>
      </trkpt>
      <trkpt lat="59.8332153" lon="17.6528124">
        <ele>32.3416</ele>
        <time>2013-05-22T18:49:09Z</time>
      </trkpt>
      <trkpt lat="59.8331907" lon="17.652827">
        <ele>33.3029</ele>
        <time>2013-05-22T18:49:10Z</time>
      </trkpt>
      <trkpt lat="59.8331637" lon="17.6528378">
        <ele>33.3029</ele>
        <time>2013-05-22T18:49:11Z</time>
      </trkpt>
      <trkpt lat="59.8331332" lon="17.6528517">
        <ele>32.8223</ele>
        <time>2013-05-22T18:49:12Z</time>
      </trkpt>
      <trkpt lat="59.8331106" lon="17.6528571">
        <ele>33.7834</ele>
        <time>2013-05-22T18:49:13Z</time>
      </trkpt>
      <trkpt lat="59.8330746" lon="17.6528815">
        <ele>33.3029</ele>
        <time>2013-05-22T18:49:14Z</time>
      </trkpt>
      <trkpt lat="59.8330525" lon="17.6528856">
        <ele>32.8223</ele>
        <time>2013-05-22T18:49:15Z</time>
      </trkpt>
      <trkpt lat="59.8330302" lon="17.6528907">
        <ele>33.7834</ele>
        <time>2013-05-22T18:49:16Z</time>
      </trkpt>
      <trkpt lat="59.8330195" lon="17.6528884">
        <ele>33.7834</ele>
        <time>2013-05-22T18:49:17Z</time>
      </trkpt>
      <trkpt lat="59.8330059" lon="17.6528902">
        <ele>33.7834</ele>
        <time>2013-05-22T18:49:18Z</time>
      </trkpt>
      <trkpt lat="59.8329884" lon="17.6529015">
        <ele>33.7834</ele>
        <time>2013-05-22T18:49:19Z</time>
      </trkpt>
      <trkpt lat="59.8329693" lon="17.6529144">
        <ele>33.7834</ele>
        <time>2013-05-22T18:49:20Z</time>
      </trkpt>
      <trkpt lat="59.8329583" lon="17.6529172">
        <ele>33.7834</ele>
        <time>2013-05-22T18:49:21Z</time>
      </trkpt>
      <trkpt lat="59.8329405" lon="17.6529315">
        <ele>33.7834</ele>
        <time>2013-05-22T18:49:22Z</time>
      </trkpt>
      <trkpt lat="59.8329133" lon="17.6529462">
        <ele>33.3029</ele>
        <time>2013-05-22T18:49:23Z</time>
      </trkpt>
      <trkpt lat="59.8328873" lon="17.6529616">
        <ele>33.3029</ele>
        <time>2013-05-22T18:49:24Z</time>
      </trkpt>
      <trkpt lat="59.8328604" lon="17.6529697">
        <ele>32.8223</ele>
        <time>2013-05-22T18:49:25Z</time>
      </trkpt>
      <trkpt lat="59.8328389" lon="17.6529736">
        <ele>32.3416</ele>
        <time>2013-05-22T18:49:26Z</time>
      </trkpt>
      <trkpt lat="59.8328184" lon="17.6529802">
        <ele>32.3416</ele>
        <time>2013-05-22T18:49:27Z</time>
      </trkpt>
      <trkpt lat="59.8327978" lon="17.6529835">
        <ele>31.8607</ele>
        <time>2013-05-22T18:49:28Z</time>
      </trkpt>
      <trkpt lat="59.8327791" lon="17.6529918">
        <ele>32.3416</ele>
        <time>2013-05-22T18:49:29Z</time>
      </trkpt>
      <trkpt lat="59.8327529" lon="17.6530101">
        <ele>31.3801</ele>
        <time>2013-05-22T18:49:30Z</time>
      </trkpt>
      <trkpt lat="59.8327417" lon="17.6530274">
        <ele>31.8607</ele>
        <time>2013-05-22T18:49:31Z</time>
      </trkpt>
      <trkpt lat="59.8327327" lon="17.6530298">
        <ele>31.8607</ele>
        <time>2013-05-22T18:49:32Z</time>
      </trkpt>
      <trkpt lat="59.8327169" lon="17.6530352">
        <ele>32.3416</ele>
        <time>2013-05-22T18:49:33Z</time>
      </trkpt>
      <trkpt lat="59.8326939" lon="17.6530521">
        <ele>32.3416</ele>
        <time>2013-05-22T18:49:34Z</time>
      </trkpt>
      <trkpt lat="59.8326515" lon="17.6531005">
        <ele>32.3416</ele>
        <time>2013-05-22T18:49:35Z</time>
      </trkpt>
      <trkpt lat="59.832631" lon="17.6531161">
        <ele>31.8607</ele>
        <time>2013-05-22T18:49:36Z</time>
      </trkpt>
      <trkpt lat="59.8326046" lon="17.6531501">
        <ele>32.3416</ele>
        <time>2013-05-22T18:49:37Z</time>
      </trkpt>
      <trkpt lat="59.8325778" lon="17.6531725">
        <ele>32.3416</ele>
        <time>2013-05-22T18:49:38Z</time>
      </trkpt>
      <trkpt lat="59.8325583" lon="17.6531953">
        <ele>32.8223</ele>
        <time>2013-05-22T18:49:39Z</time>
      </trkpt>
      <trkpt lat="59.8325414" lon="17.653206">
        <ele>32.8223</ele>
        <time>2013-05-22T18:49:40Z</time>
      </trkpt>
      <trkpt lat="59.8325222" lon="17.6532127">
        <ele>32.3416</ele>
        <time>2013-05-22T18:49:41Z</time>
      </trkpt>
      <trkpt lat="59.8325032" lon="17.6532322">
        <ele>31.8607</ele>
        <time>2013-05-22T18:49:42Z</time>
      </trkpt>
      <trkpt lat="59.8324834" lon="17.653244">
        <ele>31.8607</ele>
        <time>2013-05-22T18:49:43Z</time>
      </trkpt>
      <trkpt lat="59.8324656" lon="17.6532547">
        <ele>31.3801</ele>
        <time>2013-05-22T18:49:44Z</time>
      </trkpt>
      <trkpt lat="59.8324487" lon="17.6532657">
        <ele>31.3801</ele>
        <time>2013-05-22T18:49:45Z</time>
      </trkpt>
      <trkpt lat="59.8324302" lon="17.6532808">
        <ele>30.4188</ele>
        <time>2013-05-22T18:49:46Z</time>
      </trkpt>
      <trkpt lat="59.8324134" lon="17.653293">
        <ele>29.9381</ele>
        <time>2013-05-22T18:49:47Z</time>
      </trkpt>
      <trkpt lat="59.8323926" lon="17.6533072">
        <ele>29.9381</ele>
        <time>2013-05-22T18:49:48Z</time>
      </trkpt>
      <trkpt lat="59.8323801" lon="17.6533253">
        <ele>29.9381</ele>
        <time>2013-05-22T18:49:49Z</time>
      </trkpt>
      <trkpt lat="59.8323702" lon="17.6533313">
        <ele>29.4575</ele>
        <time>2013-05-22T18:49:50Z</time>
      </trkpt>
      <trkpt lat="59.8323569" lon="17.6533419">
        <ele>30.4188</ele>
        <time>2013-05-22T18:49:51Z</time>
      </trkpt>
      <trkpt lat="59.8323469" lon="17.6533546">
        <ele>30.4188</ele>
        <time>2013-05-22T18:49:52Z</time>
      </trkpt>
      <trkpt lat="59.8323311" lon="17.6533705">
        <ele>30.4188</ele>
        <time>2013-05-22T18:49:53Z</time>
      </trkpt>
      <trkpt lat="59.8323153" lon="17.6533792">
        <ele>30.4188</ele>
        <time>2013-05-22T18:49:54Z</time>
      </trkpt>
      <trkpt lat="59.8322967" lon="17.6534025">
        <ele>30.4188</ele>
        <time>2013-05-22T18:49:55Z</time>
      </trkpt>
      <trkpt lat="59.8322797" lon="17.6534242">
        <ele>30.8995</ele>
        <time>2013-05-22T18:49:56Z</time>
      </trkpt>
      <trkpt lat="59.8322624" lon="17.6534407">
        <ele>30.4188</ele>
        <time>2013-05-22T18:49:57Z</time>
      </trkpt>
      <trkpt lat="59.8322458" lon="17.6534579">
        <ele>29.9381</ele>
        <time>2013-05-22T18:49:58Z</time>
      </trkpt>
      <trkpt lat="59.8322236" lon="17.6534813">
        <ele>29.4575</ele>
        <time>2013-05-22T18:49:59Z</time>
      </trkpt>
      <trkpt lat="59.8322114" lon="17.6534926">
        <ele>29.4575</ele>
        <time>2013-05-22T18:50:00Z</time>
      </trkpt>
      <trkpt lat="59.832178" lon="17.6535325">
        <ele>28.4962</ele>
        <time>2013-05-22T18:50:01Z</time>
      </trkpt>
      <trkpt lat="59.8321515" lon="17.6535613">
        <ele>28.4962</ele>
        <time>2013-05-22T18:50:02Z</time>
      </trkpt>
      <trkpt lat="59.8321205" lon="17.653595">
        <ele>27.5349</ele>
        <time>2013-05-22T18:50:03Z</time>
      </trkpt>
      <trkpt lat="59.8320957" lon="17.6536356">
        <ele>27.5349</ele>
        <time>2013-05-22T18:50:04Z</time>
      </trkpt>
      <trkpt lat="59.8320663" lon="17.6536692">
        <ele>27.0543</ele>
        <time>2013-05-22T18:50:05Z</time>
      </trkpt>
      <trkpt lat="59.8320396" lon="17.653692">
        <ele>27.0543</ele>
        <time>2013-05-22T18:50:06Z</time>
      </trkpt>
      <trkpt lat="59.8320217" lon="17.653708">
        <ele>27.0543</ele>
        <time>2013-05-22T18:50:07Z</time>
      </trkpt>
      <trkpt lat="59.8320046" lon="17.6537216">
        <ele>26.5736</ele>
        <time>2013-05-22T18:50:08Z</time>
      </trkpt>
      <trkpt lat="59.8319829" lon="17.6537338">
        <ele>26.5736</ele>
        <time>2013-05-22T18:50:09Z</time>
      </trkpt>
      <trkpt lat="59.8319652" lon="17.6537444">
        <ele>26.5736</ele>
        <time>2013-05-22T18:50:10Z</time>
      </trkpt>
      <trkpt lat="59.8319426" lon="17.6537547">
        <ele>26.0929</ele>
        <time>2013-05-22T18:50:11Z</time>
      </trkpt>
      <trkpt lat="59.8319279" lon="17.6537589">
        <ele>26.0929</ele>
        <time>2013-05-22T18:50:12Z</time>
      </trkpt>
      <trkpt lat="59.8319096" lon="17.6537709">
        <ele>26.5736</ele>
        <time>2013-05-22T18:50:13Z</time>
      </trkpt>
      <trkpt lat="59.8318906" lon="17.653783">
        <ele>26.0929</ele>
        <time>2013-05-22T18:50:14Z</time>
      </trkpt>
      <trkpt lat="59.8318692" lon="17.6537941">
        <ele>25.6123</ele>
        <time>2013-05-22T18:50:15Z</time>
      </trkpt>
      <trkpt lat="59.8318415" lon="17.6538122">
        <ele>25.6123</ele>
        <time>2013-05-22T18:50:16Z</time>
      </trkpt>
      <trkpt lat="59.8318252" lon="17.6538288">
        <ele>26.0929</ele>
        <time>2013-05-22T18:50:17Z</time>
      </trkpt>
      <trkpt lat="59.8318062" lon="17.6538436">
        <ele>26.5736</ele>
        <time>2013-05-22T18:50:18Z</time>
      </trkpt>
      <trkpt lat="59.8317886" lon="17.6538592">
        <ele>27.0543</ele>
        <time>2013-05-22T18:50:19Z</time>
      </trkpt>
      <trkpt lat="59.8317732" lon="17.6538759">
        <ele>27.5349</ele>
        <time>2013-05-22T18:50:20Z</time>
      </trkpt>
      <trkpt lat="59.8317576" lon="17.6538898">
        <ele>28.0155</ele>
        <time>2013-05-22T18:50:21Z</time>
      </trkpt>
      <trkpt lat="59.831744" lon="17.6539045">
        <ele>27.5349</ele>
        <time>2013-05-22T18:50:22Z</time>
      </trkpt>
      <trkpt lat="59.8317311" lon="17.653923">
        <ele>27.5349</ele>
        <time>2013-05-22T18:50:23Z</time>
      </trkpt>
      <trkpt lat="59.8317162" lon="17.6539496">
        <ele>27.5349</ele>
        <time>2013-05-22T18:50:24Z</time>
      </trkpt>
      <trkpt lat="59.831705" lon="17.6539728">
        <ele>27.5349</ele>
        <time>2013-05-22T18:50:25Z</time>
      </trkpt>
      <trkpt lat="59.8316851" lon="17.6540085">
        <ele>28.0155</ele>
        <time>2013-05-22T18:50:26Z</time>
      </trkpt>
      <trkpt lat="59.8316575" lon="17.6540681">
        <ele>27.5349</ele>
        <time>2013-05-22T18:50:27Z</time>
      </trkpt>
      <trkpt lat="59.8316301" lon="17.6541252">
        <ele>27.0543</ele>
        <time>2013-05-22T18:50:28Z</time>
      </trkpt>
      <trkpt lat="59.8316191" lon="17.6541612">
        <ele>26.5736</ele>
        <time>2013-05-22T18:50:29Z</time>
      </trkpt>
      <trkpt lat="59.8315975" lon="17.6542085">
        <ele>26.0929</ele>
        <time>2013-05-22T18:50:30Z</time>
      </trkpt>
      <trkpt lat="59.8315779" lon="17.6542593">
        <ele>25.6123</ele>
        <time>2013-05-22T18:50:31Z</time>
      </trkpt>
      <trkpt lat="59.8315596" lon="17.6543028">
        <ele>25.6123</ele>
        <time>2013-05-22T18:50:32Z</time>
      </trkpt>
      <trkpt lat="59.8315473" lon="17.6543448">
        <ele>25.1317</ele>
        <time>2013-05-22T18:50:33Z</time>
      </trkpt>
      <trkpt lat="59.8315398" lon="17.6543847">
        <ele>25.1317</ele>
        <time>2013-05-22T18:50:34Z</time>
      </trkpt>
      <trkpt lat="59.8315297" lon="17.6544236">
        <ele>24.651</ele>
        <time>2013-05-22T18:50:35Z</time>
      </trkpt>
      <trkpt lat="59.8315172" lon="17.654467">
        <ele>24.1703</ele>
        <time>2013-05-22T18:50:36Z</time>
      </trkpt>
      <trkpt lat="59.831509" lon="17.654511">
        <ele>23.6896</ele>
        <time>2013-05-22T18:50:37Z</time>
      </trkpt>
      <trkpt lat="59.8314929" lon="17.6545426">
        <ele>22.2476</ele>
        <time>2013-05-22T18:50:38Z</time>
      </trkpt>
      <trkpt lat="59.8314814" lon="17.6545772">
        <ele>22.2476</ele>
        <time>2013-05-22T18:50:39Z</time>
      </trkpt>
      <trkpt lat="59.8314654" lon="17.6546151">
        <ele>21.767</ele>
        <time>2013-05-22T18:50:40Z</time>
      </trkpt>
      <trkpt lat="59.8314524" lon="17.6546497">
        <ele>21.2864</ele>
        <time>2013-05-22T18:50:41Z</time>
      </trkpt>
      <trkpt lat="59.8314473" lon="17.6546857">
        <ele>21.767</ele>
        <time>2013-05-22T18:50:42Z</time>
      </trkpt>
      <trkpt lat="59.8314442" lon="17.6547312">
        <ele>22.2476</ele>
        <time>2013-05-22T18:50:43Z</time>
      </trkpt>
      <trkpt lat="59.8314307" lon="17.6547694">
        <ele>22.7283</ele>
        <time>2013-05-22T18:50:44Z</time>
      </trkpt>
      <trkpt lat="59.8314157" lon="17.6548043">
        <ele>22.7283</ele>
        <time>2013-05-22T18:50:45Z</time>
      </trkpt>
      <trkpt lat="59.8314058" lon="17.6548429">
        <ele>23.209</ele>
        <time>2013-05-22T18:50:46Z</time>
      </trkpt>
      <trkpt lat="59.831402" lon="17.654887">
        <ele>24.1703</ele>
        <time>2013-05-22T18:50:47Z</time>
      </trkpt>
      <trkpt lat="59.8313992" lon="17.6549353">
        <ele>24.1703</ele>
        <time>2013-05-22T18:50:48Z</time>
      </trkpt>
      <trkpt lat="59.8313985" lon="17.6549756">
        <ele>23.6896</ele>
        <time>2013-05-22T18:50:49Z</time>
      </trkpt>
      <trkpt lat="59.8314053" lon="17.6550161">
        <ele>24.1703</ele>
        <time>2013-05-22T18:50:50Z</time>
      </trkpt>
      <trkpt lat="59.831411" lon="17.6550565">
        <ele>23.6896</ele>
        <time>2013-05-22T18:50:51Z</time>
      </trkpt>
      <trkpt lat="59.8314191" lon="17.6550964">
        <ele>24.1703</ele>
        <time>2013-05-22T18:50:52Z</time>
      </trkpt>
      <trkpt lat="59.8314353" lon="17.6551305">
        <ele>25.1317</ele>
        <time>2013-05-22T18:50:53Z</time>
      </trkpt>
      <trkpt lat="59.8314497" lon="17.6551599">
        <ele>27.0543</ele>
        <time>2013-05-22T18:50:54Z</time>
      </trkpt>
      <trkpt lat="59.8314626" lon="17.6551822">
        <ele>28.4962</ele>
        <time>2013-05-22T18:50:55Z</time>
      </trkpt>
      <trkpt lat="59.8314641" lon="17.6551913">
        <ele>28.9769</ele>
        <time>2013-05-22T18:50:56Z</time>
      </trkpt>
      <trkpt lat="59.8314737" lon="17.6552088">
        <ele>29.9381</ele>
        <time>2013-05-22T18:50:57Z</time>
      </trkpt>
      <trkpt lat="59.8314819" lon="17.6552306">
        <ele>30.4188</ele>
        <time>2013-05-22T18:50:58Z</time>
      </trkpt>
      <trkpt lat="59.8314841" lon="17.6552513">
        <ele>30.4188</ele>
        <time>2013-05-22T18:50:59Z</time>
      </trkpt>
      <trkpt lat="59.8314839" lon="17.6552544">
        <ele>29.9381</ele>
        <time>2013-05-22T18:51:00Z</time>
      </trkpt>
      <trkpt lat="59.8314845" lon="17.6552581">
        <ele>29.4575</ele>
        <time>2013-05-22T18:51:01Z</time>
      </trkpt>
      <trkpt lat="59.8314928" lon="17.6553308">
        <ele>29.4575</ele>
        <time>2013-05-22T18:51:05Z</time>
      </trkpt>
      <trkpt lat="59.831497" lon="17.6553611">
        <ele>29.4575</ele>
        <time>2013-05-22T18:51:06Z</time>
      </trkpt>
      <trkpt lat="59.8315012" lon="17.6553927">
        <ele>28.9769</ele>
        <time>2013-05-22T18:51:07Z</time>
      </trkpt>
      <trkpt lat="59.8315058" lon="17.655428">
        <ele>28.9769</ele>
        <time>2013-05-22T18:51:08Z</time>
      </trkpt>
      <trkpt lat="59.8315119" lon="17.6554704">
        <ele>28.9769</ele>
        <time>2013-05-22T18:51:09Z</time>
      </trkpt>
      <trkpt lat="59.8315224" lon="17.6555117">
        <ele>28.9769</ele>
        <time>2013-05-22T18:51:10Z</time>
      </trkpt>
      <trkpt lat="59.8315356" lon="17.655544">
        <ele>28.0155</ele>
        <time>2013-05-22T18:51:11Z</time>
      </trkpt>
      <trkpt lat="59.8315424" lon="17.6555907">
        <ele>27.0543</ele>
        <time>2013-05-22T18:51:12Z</time>
      </trkpt>
      <trkpt lat="59.831557" lon="17.6556461">
        <ele>27.5349</ele>
        <time>2013-05-22T18:51:13Z</time>
      </trkpt>
      <trkpt lat="59.8315724" lon="17.6557164">
        <ele>27.0543</ele>
        <time>2013-05-22T18:51:14Z</time>
      </trkpt>
      <trkpt lat="59.8315739" lon="17.6557894">
        <ele>26.5736</ele>
        <time>2013-05-22T18:51:15Z</time>
      </trkpt>
      <trkpt lat="59.831575" lon="17.6558698">
        <ele>25.6123</ele>
        <time>2013-05-22T18:51:16Z</time>
      </trkpt>
      <trkpt lat="59.8315731" lon="17.655941">
        <ele>25.6123</ele>
        <time>2013-05-22T18:51:17Z</time>
      </trkpt>
      <trkpt lat="59.8315779" lon="17.656003">
        <ele>26.0929</ele>
        <time>2013-05-22T18:51:18Z</time>
      </trkpt>
      <trkpt lat="59.8315844" lon="17.6560636">
        <ele>26.5736</ele>
        <time>2013-05-22T18:51:19Z</time>
      </trkpt>
      <trkpt lat="59.8315924" lon="17.6561219">
        <ele>26.5736</ele>
        <time>2013-05-22T18:51:20Z</time>
      </trkpt>
      <trkpt lat="59.8316063" lon="17.6561769">
        <ele>27.5349</ele>
        <time>2013-05-22T18:51:21Z</time>
      </trkpt>
      <trkpt lat="59.8316029" lon="17.6562271">
        <ele>27.0543</ele>
        <time>2013-05-22T18:51:22Z</time>
      </trkpt>
      <trkpt lat="59.8316001" lon="17.6562812">
        <ele>28.4962</ele>
        <time>2013-05-22T18:51:23Z</time>
      </trkpt>
      <trkpt lat="59.831591" lon="17.6563283">
        <ele>28.0155</ele>
        <time>2013-05-22T18:51:24Z</time>
      </trkpt>
      <trkpt lat="59.8315887" lon="17.6563747">
        <ele>28.0155</ele>
        <time>2013-05-22T18:51:25Z</time>
      </trkpt>
      <trkpt lat="59.8315955" lon="17.6564243">
        <ele>27.5349</ele>
        <time>2013-05-22T18:51:26Z</time>
      </trkpt>
      <trkpt lat="59.8316002" lon="17.6564721">
        <ele>28.0155</ele>
        <time>2013-05-22T18:51:27Z</time>
      </trkpt>
      <trkpt lat="59.8315938" lon="17.6565176">
        <ele>27.5349</ele>
        <time>2013-05-22T18:51:28Z</time>
      </trkpt>
      <trkpt lat="59.831583" lon="17.656554">
        <ele>28.0155</ele>
        <time>2013-05-22T18:51:29Z</time>
      </trkpt>
      <trkpt lat="59.831585" lon="17.656603">
        <ele>27.0543</ele>
        <time>2013-05-22T18:51:30Z</time>
      </trkpt>
      <trkpt lat="59.8315887" lon="17.6566473">
        <ele>26.5736</ele>
        <time>2013-05-22T18:51:31Z</time>
      </trkpt>
      <trkpt lat="59.8315954" lon="17.6566896">
        <ele>27.5349</ele>
        <time>2013-05-22T18:51:32Z</time>
      </trkpt>
      <trkpt lat="59.8315985" lon="17.6567269">
        <ele>27.5349</ele>
        <time>2013-05-22T18:51:33Z</time>
      </trkpt>
      <trkpt lat="59.8316006" lon="17.6567675">
        <ele>27.5349</ele>
        <time>2013-05-22T18:51:34Z</time>
      </trkpt>
      <trkpt lat="59.8315975" lon="17.6568075">
        <ele>26.0929</ele>
        <time>2013-05-22T18:51:35Z</time>
      </trkpt>
      <trkpt lat="59.8315965" lon="17.656845">
        <ele>24.651</ele>
        <time>2013-05-22T18:51:36Z</time>
      </trkpt>
      <trkpt lat="59.8316093" lon="17.6568883">
        <ele>24.1703</ele>
        <time>2013-05-22T18:51:37Z</time>
      </trkpt>
      <trkpt lat="59.8316231" lon="17.656928">
        <ele>23.209</ele>
        <time>2013-05-22T18:51:38Z</time>
      </trkpt>
      <trkpt lat="59.8316414" lon="17.6569649">
        <ele>22.7283</ele>
        <time>2013-05-22T18:51:39Z</time>
      </trkpt>
      <trkpt lat="59.8316651" lon="17.6569973">
        <ele>22.2476</ele>
        <time>2013-05-22T18:51:40Z</time>
      </trkpt>
      <trkpt lat="59.8316814" lon="17.6570266">
        <ele>21.2864</ele>
        <time>2013-05-22T18:51:41Z</time>
      </trkpt>
      <trkpt lat="59.8316975" lon="17.6570513">
        <ele>21.767</ele>
        <time>2013-05-22T18:51:42Z</time>
      </trkpt>
      <trkpt lat="59.8317034" lon="17.6570798">
        <ele>20.8057</ele>
        <time>2013-05-22T18:51:43Z</time>
      </trkpt>
      <trkpt lat="59.831705" lon="17.6571237">
        <ele>19.8444</ele>
        <time>2013-05-22T18:51:44Z</time>
      </trkpt>
      <trkpt lat="59.8317259" lon="17.6571621">
        <ele>19.8444</ele>
        <time>2013-05-22T18:51:45Z</time>
      </trkpt>
      <trkpt lat="59.8317512" lon="17.6571956">
        <ele>18.8831</ele>
        <time>2013-05-22T18:51:46Z</time>
      </trkpt>
      <trkpt lat="59.8317679" lon="17.6572288">
        <ele>16.9604</ele>
        <time>2013-05-22T18:51:47Z</time>
      </trkpt>
      <trkpt lat="59.831785" lon="17.6572597">
        <ele>15.0377</ele>
        <time>2013-05-22T18:51:48Z</time>
      </trkpt>
      <trkpt lat="59.8318043" lon="17.6572907">
        <ele>14.557</ele>
        <time>2013-05-22T18:51:49Z</time>
      </trkpt>
      <trkpt lat="59.8318219" lon="17.6573299">
        <ele>15.0377</ele>
        <time>2013-05-22T18:51:50Z</time>
      </trkpt>
      <trkpt lat="59.8318381" lon="17.6573664">
        <ele>14.557</ele>
        <time>2013-05-22T18:51:51Z</time>
      </trkpt>
      <trkpt lat="59.831849" lon="17.6573989">
        <ele>14.557</ele>
        <time>2013-05-22T18:51:52Z</time>
      </trkpt>
      <trkpt lat="59.8318607" lon="17.6574352">
        <ele>14.0764</ele>
        <time>2013-05-22T18:51:53Z</time>
      </trkpt>
      <trkpt lat="59.8318768" lon="17.6574652">
        <ele>15.0377</ele>
        <time>2013-05-22T18:51:54Z</time>
      </trkpt>
      <trkpt lat="59.8318922" lon="17.6574873">
        <ele>15.5184</ele>
        <time>2013-05-22T18:51:55Z</time>
      </trkpt>
      <trkpt lat="59.8319025" lon="17.6575235">
        <ele>15.0377</ele>
        <time>2013-05-22T18:51:56Z</time>
      </trkpt>
      <trkpt lat="59.8319109" lon="17.6575658">
        <ele>15.0377</ele>
        <time>2013-05-22T18:51:57Z</time>
      </trkpt>
      <trkpt lat="59.8319254" lon="17.6576095">
        <ele>15.999</ele>
        <time>2013-05-22T18:51:58Z</time>
      </trkpt>
      <trkpt lat="59.8319382" lon="17.6576393">
        <ele>15.0377</ele>
        <time>2013-05-22T18:51:59Z</time>
      </trkpt>
      <trkpt lat="59.8319547" lon="17.6576885">
        <ele>14.557</ele>
        <time>2013-05-22T18:52:00Z</time>
      </trkpt>
      <trkpt lat="59.8319616" lon="17.6577561">
        <ele>15.0377</ele>
        <time>2013-05-22T18:52:01Z</time>
      </trkpt>
      <trkpt lat="59.8319746" lon="17.6578272">
        <ele>15.999</ele>
        <time>2013-05-22T18:52:02Z</time>
      </trkpt>
      <trkpt lat="59.832004" lon="17.6578751">
        <ele>17.4412</ele>
        <time>2013-05-22T18:52:03Z</time>
      </trkpt>
      <trkpt lat="59.8320278" lon="17.6578956">
        <ele>16.9604</ele>
        <time>2013-05-22T18:52:04Z</time>
      </trkpt>
      <trkpt lat="59.8320542" lon="17.6579272">
        <ele>16.4797</ele>
        <time>2013-05-22T18:52:05Z</time>
      </trkpt>
      <trkpt lat="59.8320818" lon="17.6579566">
        <ele>17.4412</ele>
        <time>2013-05-22T18:52:06Z</time>
      </trkpt>
      <trkpt lat="59.8321066" lon="17.657989">
        <ele>17.4412</ele>
        <time>2013-05-22T18:52:07Z</time>
      </trkpt>
      <trkpt lat="59.8321211" lon="17.6580167">
        <ele>16.9604</ele>
        <time>2013-05-22T18:52:08Z</time>
      </trkpt>
      <trkpt lat="59.8321394" lon="17.6580526">
        <ele>15.5184</ele>
        <time>2013-05-22T18:52:09Z</time>
      </trkpt>
      <trkpt lat="59.8321533" lon="17.6580911">
        <ele>15.5184</ele>
        <time>2013-05-22T18:52:10Z</time>
      </trkpt>
      <trkpt lat="59.8321806" lon="17.6581386">
        <ele>15.999</ele>
        <time>2013-05-22T18:52:11Z</time>
      </trkpt>
      <trkpt lat="59.8322118" lon="17.6581702">
        <ele>16.4797</ele>
        <time>2013-05-22T18:52:12Z</time>
      </trkpt>
      <trkpt lat="59.8322253" lon="17.6582039">
        <ele>15.0377</ele>
        <time>2013-05-22T18:52:13Z</time>
      </trkpt>
      <trkpt lat="59.8322461" lon="17.6582381">
        <ele>14.557</ele>
        <time>2013-05-22T18:52:14Z</time>
      </trkpt>
      <trkpt lat="59.8322551" lon="17.6582765">
        <ele>14.0764</ele>
        <time>2013-05-22T18:52:15Z</time>
      </trkpt>
      <trkpt lat="59.8322595" lon="17.6583235">
        <ele>11.6732</ele>
        <time>2013-05-22T18:52:16Z</time>
      </trkpt>
      <trkpt lat="59.8322838" lon="17.6583729">
        <ele>13.1151</ele>
        <time>2013-05-22T18:52:17Z</time>
      </trkpt>
      <trkpt lat="59.8323025" lon="17.6584163">
        <ele>13.1151</ele>
        <time>2013-05-22T18:52:18Z</time>
      </trkpt>
      <trkpt lat="59.8323217" lon="17.658458">
        <ele>13.5958</ele>
        <time>2013-05-22T18:52:19Z</time>
      </trkpt>
      <trkpt lat="59.8323449" lon="17.658493">
        <ele>14.557</ele>
        <time>2013-05-22T18:52:20Z</time>
      </trkpt>
      <trkpt lat="59.8323595" lon="17.6585283">
        <ele>13.5958</ele>
        <time>2013-05-22T18:52:21Z</time>
      </trkpt>
      <trkpt lat="59.83238" lon="17.6585613">
        <ele>13.5958</ele>
        <time>2013-05-22T18:52:22Z</time>
      </trkpt>
      <trkpt lat="59.8323931" lon="17.6585976">
        <ele>12.1538</ele>
        <time>2013-05-22T18:52:23Z</time>
      </trkpt>
      <trkpt lat="59.8324075" lon="17.6586348">
        <ele>10.7118</ele>
        <time>2013-05-22T18:52:24Z</time>
      </trkpt>
      <trkpt lat="59.8324171" lon="17.6586763">
        <ele>9.2699</ele>
        <time>2013-05-22T18:52:25Z</time>
      </trkpt>
      <trkpt lat="59.8324367" lon="17.6587176">
        <ele>10.2312</ele>
        <time>2013-05-22T18:52:26Z</time>
      </trkpt>
      <trkpt lat="59.8324532" lon="17.658756">
        <ele>9.75061</ele>
        <time>2013-05-22T18:52:27Z</time>
      </trkpt>
      <trkpt lat="59.8324704" lon="17.6587949">
        <ele>9.2699</ele>
        <time>2013-05-22T18:52:28Z</time>
      </trkpt>
      <trkpt lat="59.8324848" lon="17.6588243">
        <ele>8.30859</ele>
        <time>2013-05-22T18:52:29Z</time>
      </trkpt>
      <trkpt lat="59.8324968" lon="17.65885">
        <ele>8.78918</ele>
        <time>2013-05-22T18:52:30Z</time>
      </trkpt>
      <trkpt lat="59.8325117" lon="17.6588871">
        <ele>9.75061</ele>
        <time>2013-05-22T18:52:31Z</time>
      </trkpt>
      <trkpt lat="59.8325279" lon="17.6589212">
        <ele>10.2312</ele>
        <time>2013-05-22T18:52:32Z</time>
      </trkpt>
      <trkpt lat="59.8325381" lon="17.6589621">
        <ele>8.78918</ele>
        <time>2013-05-22T18:52:33Z</time>
      </trkpt>
      <trkpt lat="59.8325485" lon="17.6590005">
        <ele>8.30859</ele>
        <time>2013-05-22T18:52:34Z</time>
      </trkpt>
      <trkpt lat="59.8325678" lon="17.6590348">
        <ele>8.78918</ele>
        <time>2013-05-22T18:52:35Z</time>
      </trkpt>
      <trkpt lat="59.8325785" lon="17.6590701">
        <ele>7.82788</ele>
        <time>2013-05-22T18:52:36Z</time>
      </trkpt>
      <trkpt lat="59.8325963" lon="17.6591078">
        <ele>8.30859</ele>
        <time>2013-05-22T18:52:37Z</time>
      </trkpt>
      <trkpt lat="59.8326203" lon="17.6591431">
        <ele>9.75061</ele>
        <time>2013-05-22T18:52:38Z</time>
      </trkpt>
      <trkpt lat="59.8326273" lon="17.6591756">
        <ele>9.2699</ele>
        <time>2013-05-22T18:52:39Z</time>
      </trkpt>
      <trkpt lat="59.8326324" lon="17.6592129">
        <ele>8.78918</ele>
        <time>2013-05-22T18:52:40Z</time>
      </trkpt>
      <trkpt lat="59.8326299" lon="17.659263">
        <ele>7.82788</ele>
        <time>2013-05-22T18:52:41Z</time>
      </trkpt>
      <trkpt lat="59.8326157" lon="17.6593124">
        <ele>6.38586</ele>
        <time>2013-05-22T18:52:42Z</time>
      </trkpt>
      <trkpt lat="59.8325947" lon="17.659355">
        <ele>4.94385</ele>
        <time>2013-05-22T18:52:43Z</time>
      </trkpt>
      <trkpt lat="59.8325755" lon="17.6593933">
        <ele>4.94385</ele>
        <time>2013-05-22T18:52:44Z</time>
      </trkpt>
      <trkpt lat="59.8325568" lon="17.6594253">
        <ele>4.46326</ele>
        <time>2013-05-22T18:52:45Z</time>
      </trkpt>
      <trkpt lat="59.8325376" lon="17.6594486">
        <ele>4.46326</ele>
        <time>2013-05-22T18:52:46Z</time>
      </trkpt>
      <trkpt lat="59.8325225" lon="17.6594741">
        <ele>4.94385</ele>
        <time>2013-05-22T18:52:47Z</time>
      </trkpt>
      <trkpt lat="59.832503" lon="17.6594928">
        <ele>4.46326</ele>
        <time>2013-05-22T18:52:48Z</time>
      </trkpt>
      <trkpt lat="59.8324857" lon="17.6595223">
        <ele>4.94385</ele>
        <time>2013-05-22T18:52:49Z</time>
      </trkpt>
      <trkpt lat="59.8324651" lon="17.6595596">
        <ele>4.46326</ele>
        <time>2013-05-22T18:52:50Z</time>
      </trkpt>
      <trkpt lat="59.8324442" lon="17.6595866">
        <ele>3.98267</ele>
        <time>2013-05-22T18:52:51Z</time>
      </trkpt>
      <trkpt lat="59.832423" lon="17.6596154">
        <ele>4.46326</ele>
        <time>2013-05-22T18:52:52Z</time>
      </trkpt>
      <trkpt lat="59.8324017" lon="17.6596456">
        <ele>4.46326</ele>
        <time>2013-05-22T18:52:53Z</time>
      </trkpt>
      <trkpt lat="59.8323789" lon="17.6596731">
        <ele>3.50195</ele>
        <time>2013-05-22T18:52:54Z</time>
      </trkpt>
      <trkpt lat="59.83236" lon="17.659704">
        <ele>3.02124</ele>
        <time>2013-05-22T18:52:55Z</time>
      </trkpt>
      <trkpt lat="59.8323424" lon="17.6597279">
        <ele>2.06006</ele>
        <time>2013-05-22T18:52:56Z</time>
      </trkpt>
      <trkpt lat="59.83232" lon="17.6597563">
        <ele>1.57935</ele>
        <time>2013-05-22T18:52:57Z</time>
      </trkpt>
      <trkpt lat="59.832299" lon="17.6597875">
        <ele>1.57935</ele>
        <time>2013-05-22T18:52:58Z</time>
      </trkpt>
      <trkpt lat="59.8322824" lon="17.6598181">
        <ele>1.57935</ele>
        <time>2013-05-22T18:52:59Z</time>
      </trkpt>
      <trkpt lat="59.8322683" lon="17.6598485">
        <ele>2.06006</ele>
        <time>2013-05-22T18:53:00Z</time>
      </trkpt>
      <trkpt lat="59.8322507" lon="17.6598696">
        <ele>1.57935</ele>
        <time>2013-05-22T18:53:01Z</time>
      </trkpt>
      <trkpt lat="59.8322394" lon="17.6598924">
        <ele>1.57935</ele>
        <time>2013-05-22T18:53:02Z</time>
      </trkpt>
      <trkpt lat="59.8322256" lon="17.659915">
        <ele>2.06006</ele>
        <time>2013-05-22T18:53:03Z</time>
      </trkpt>
      <trkpt lat="59.832206" lon="17.659934">
        <ele>1.09863</ele>
        <time>2013-05-22T18:53:04Z</time>
      </trkpt>
      <trkpt lat="59.8321925" lon="17.6599539">
        <ele>1.09863</ele>
        <time>2013-05-22T18:53:05Z</time>
      </trkpt>
      <trkpt lat="59.8321792" lon="17.6599746">
        <ele>1.09863</ele>
        <time>2013-05-22T18:53:06Z</time>
      </trkpt>
      <trkpt lat="59.8321579" lon="17.6599958">
        <ele>0.618042</ele>
        <time>2013-05-22T18:53:07Z</time>
      </trkpt>
      <trkpt lat="59.8321396" lon="17.660018">
        <ele>0.137451</ele>
        <time>2013-05-22T18:53:08Z</time>
      </trkpt>
      <trkpt lat="59.8321251" lon="17.6600501">
        <ele>1.09863</ele>
        <time>2013-05-22T18:53:09Z</time>
      </trkpt>
      <trkpt lat="59.8321059" lon="17.6600795">
        <ele>1.09863</ele>
        <time>2013-05-22T18:53:10Z</time>
      </trkpt>
      <trkpt lat="59.8320835" lon="17.6601127">
        <ele>0.618042</ele>
        <time>2013-05-22T18:53:11Z</time>
      </trkpt>
      <trkpt lat="59.8320686" lon="17.6601457">
        <ele>1.09863</ele>
        <time>2013-05-22T18:53:12Z</time>
      </trkpt>
      <trkpt lat="59.8320537" lon="17.6601786">
        <ele>1.57935</ele>
        <time>2013-05-22T18:53:13Z</time>
      </trkpt>
      <trkpt lat="59.8320362" lon="17.6602081">
        <ele>1.57935</ele>
        <time>2013-05-22T18:53:14Z</time>
      </trkpt>
      <trkpt lat="59.8320251" lon="17.660254">
        <ele>3.02124</ele>
        <time>2013-05-22T18:53:15Z</time>
      </trkpt>
      <trkpt lat="59.8320082" lon="17.6602885">
        <ele>3.98267</ele>
        <time>2013-05-22T18:53:16Z</time>
      </trkpt>
      <trkpt lat="59.8319849" lon="17.6603034">
        <ele>3.50195</ele>
        <time>2013-05-22T18:53:17Z</time>
      </trkpt>
      <trkpt lat="59.8319633" lon="17.6603252">
        <ele>3.50195</ele>
        <time>2013-05-22T18:53:18Z</time>
      </trkpt>
      <trkpt lat="59.8319371" lon="17.6603437">
        <ele>3.02124</ele>
        <time>2013-05-22T18:53:19Z</time>
      </trkpt>
      <trkpt lat="59.8319132" lon="17.6603628">
        <ele>3.50195</ele>
        <time>2013-05-22T18:53:20Z</time>
      </trkpt>
      <trkpt lat="59.831888" lon="17.6603867">
        <ele>3.02124</ele>
        <time>2013-05-22T18:53:21Z</time>
      </trkpt>
      <trkpt lat="59.8318652" lon="17.6604039">
        <ele>3.50195</ele>
        <time>2013-05-22T18:53:22Z</time>
      </trkpt>
      <trkpt lat="59.8318443" lon="17.6604178">
        <ele>3.50195</ele>
        <time>2013-05-22T18:53:23Z</time>
      </trkpt>
      <trkpt lat="59.8318245" lon="17.6604401">
        <ele>3.50195</ele>
        <time>2013-05-22T18:53:24Z</time>
      </trkpt>
      <trkpt lat="59.8318006" lon="17.6604599">
        <ele>3.98267</ele>
        <time>2013-05-22T18:53:25Z</time>
      </trkpt>
      <trkpt lat="59.831776" lon="17.6604715">
        <ele>3.98267</ele>
        <time>2013-05-22T18:53:26Z</time>
      </trkpt>
      <trkpt lat="59.8317539" lon="17.6604926">
        <ele>3.50195</ele>
        <time>2013-05-22T18:53:27Z</time>
      </trkpt>
      <trkpt lat="59.8317304" lon="17.6605079">
        <ele>3.02124</ele>
        <time>2013-05-22T18:53:28Z</time>
      </trkpt>
      <trkpt lat="59.8317078" lon="17.6605268">
        <ele>2.54065</ele>
        <time>2013-05-22T18:53:29Z</time>
      </trkpt>
      <trkpt lat="59.8316833" lon="17.6605485">
        <ele>2.54065</ele>
        <time>2013-05-22T18:53:30Z</time>
      </trkpt>
      <trkpt lat="59.8316613" lon="17.6605634">
        <ele>2.54065</ele>
        <time>2013-05-22T18:53:31Z</time>
      </trkpt>
      <trkpt lat="59.831641" lon="17.6605795">
        <ele>2.54065</ele>
        <time>2013-05-22T18:53:32Z</time>
      </trkpt>
      <trkpt lat="59.8316191" lon="17.6606002">
        <ele>1.57935</ele>
        <time>2013-05-22T18:53:33Z</time>
      </trkpt>
      <trkpt lat="59.831598" lon="17.6606257">
        <ele>2.54065</ele>
        <time>2013-05-22T18:53:34Z</time>
      </trkpt>
      <trkpt lat="59.8315767" lon="17.6606464">
        <ele>2.06006</ele>
        <time>2013-05-22T18:53:35Z</time>
      </trkpt>
      <trkpt lat="59.8315563" lon="17.6606711">
        <ele>2.54065</ele>
        <time>2013-05-22T18:53:36Z</time>
      </trkpt>
      <trkpt lat="59.8315348" lon="17.6606971">
        <ele>3.02124</ele>
        <time>2013-05-22T18:53:37Z</time>
      </trkpt>
      <trkpt lat="59.8315145" lon="17.6607262">
        <ele>3.02124</ele>
        <time>2013-05-22T18:53:38Z</time>
      </trkpt>
      <trkpt lat="59.8314965" lon="17.6607612">
        <ele>3.50195</ele>
        <time>2013-05-22T18:53:39Z</time>
      </trkpt>
      <trkpt lat="59.8314768" lon="17.6607965">
        <ele>3.98267</ele>
        <time>2013-05-22T18:53:40Z</time>
      </trkpt>
      <trkpt lat="59.8314618" lon="17.6608261">
        <ele>4.46326</ele>
        <time>2013-05-22T18:53:41Z</time>
      </trkpt>
      <trkpt lat="59.831447" lon="17.6608576">
        <ele>4.46326</ele>
        <time>2013-05-22T18:53:42Z</time>
      </trkpt>
      <trkpt lat="59.8314275" lon="17.6608877">
        <ele>4.46326</ele>
        <time>2013-05-22T18:53:43Z</time>
      </trkpt>
      <trkpt lat="59.8314103" lon="17.6609203">
        <ele>4.94385</ele>
        <time>2013-05-22T18:53:44Z</time>
      </trkpt>
      <trkpt lat="59.8313973" lon="17.660955">
        <ele>5.90527</ele>
        <time>2013-05-22T18:53:45Z</time>
      </trkpt>
      <trkpt lat="59.8313821" lon="17.6609949">
        <ele>5.90527</ele>
        <time>2013-05-22T18:53:46Z</time>
      </trkpt>
      <trkpt lat="59.8313695" lon="17.6610307">
        <ele>6.38586</ele>
        <time>2013-05-22T18:53:47Z</time>
      </trkpt>
      <trkpt lat="59.831355" lon="17.661065">
        <ele>5.90527</ele>
        <time>2013-05-22T18:53:48Z</time>
      </trkpt>
      <trkpt lat="59.8313399" lon="17.6611028">
        <ele>5.90527</ele>
        <time>2013-05-22T18:53:49Z</time>
      </trkpt>
      <trkpt lat="59.8313214" lon="17.6611411">
        <ele>6.38586</ele>
        <time>2013-05-22T18:53:50Z</time>
      </trkpt>
      <trkpt lat="59.8313064" lon="17.6611751">
        <ele>6.86646</ele>
        <time>2013-05-22T18:53:51Z</time>
      </trkpt>
      <trkpt lat="59.8312916" lon="17.6612058">
        <ele>6.86646</ele>
        <time>2013-05-22T18:53:52Z</time>
      </trkpt>
      <trkpt lat="59.8312715" lon="17.6612331">
        <ele>6.38586</ele>
        <time>2013-05-22T18:53:53Z</time>
      </trkpt>
      <trkpt lat="59.8312562" lon="17.6612586">
        <ele>5.90527</ele>
        <time>2013-05-22T18:53:54Z</time>
      </trkpt>
      <trkpt lat="59.8312396" lon="17.6612928">
        <ele>6.86646</ele>
        <time>2013-05-22T18:53:55Z</time>
      </trkpt>
      <trkpt lat="59.8312188" lon="17.6613239">
        <ele>6.38586</ele>
        <time>2013-05-22T18:53:56Z</time>
      </trkpt>
      <trkpt lat="59.8312013" lon="17.6613492">
        <ele>6.38586</ele>
        <time>2013-05-22T18:53:57Z</time>
      </trkpt>
      <trkpt lat="59.8311876" lon="17.6613696">
        <ele>5.90527</ele>
        <time>2013-05-22T18:53:58Z</time>
      </trkpt>
      <trkpt lat="59.8311741" lon="17.6614037">
        <ele>6.38586</ele>
        <time>2013-05-22T18:53:59Z</time>
      </trkpt>
      <trkpt lat="59.8311628" lon="17.661429">
        <ele>6.86646</ele>
        <time>2013-05-22T18:54:00Z</time>
      </trkpt>
      <trkpt lat="59.8311476" lon="17.6614574">
        <ele>7.82788</ele>
        <time>2013-05-22T18:54:01Z</time>
      </trkpt>
      <trkpt lat="59.8311318" lon="17.661486">
        <ele>7.82788</ele>
        <time>2013-05-22T18:54:02Z</time>
      </trkpt>
      <trkpt lat="59.8311157" lon="17.6615093">
        <ele>8.30859</ele>
        <time>2013-05-22T18:54:03Z</time>
      </trkpt>
      <trkpt lat="59.8310953" lon="17.6615395">
        <ele>7.82788</ele>
        <time>2013-05-22T18:54:04Z</time>
      </trkpt>
      <trkpt lat="59.8310783" lon="17.6615689">
        <ele>7.82788</ele>
        <time>2013-05-22T18:54:05Z</time>
      </trkpt>
      <trkpt lat="59.8310608" lon="17.6615973">
        <ele>8.78918</ele>
        <time>2013-05-22T18:54:06Z</time>
      </trkpt>
      <trkpt lat="59.8310406" lon="17.661618">
        <ele>8.78918</ele>
        <time>2013-05-22T18:54:07Z</time>
      </trkpt>
      <trkpt lat="59.8310226" lon="17.6616417">
        <ele>9.2699</ele>
        <time>2013-05-22T18:54:08Z</time>
      </trkpt>
      <trkpt lat="59.8310039" lon="17.6616687">
        <ele>9.75061</ele>
        <time>2013-05-22T18:54:09Z</time>
      </trkpt>
      <trkpt lat="59.8309785" lon="17.6616947">
        <ele>9.2699</ele>
        <time>2013-05-22T18:54:10Z</time>
      </trkpt>
      <trkpt lat="59.8309546" lon="17.6617244">
        <ele>9.2699</ele>
        <time>2013-05-22T18:54:11Z</time>
      </trkpt>
      <trkpt lat="59.8309366" lon="17.6617408">
        <ele>8.30859</ele>
        <time>2013-05-22T18:54:12Z</time>
      </trkpt>
      <trkpt lat="59.8309194" lon="17.6617595">
        <ele>7.82788</ele>
        <time>2013-05-22T18:54:13Z</time>
      </trkpt>
      <trkpt lat="59.8309011" lon="17.6617826">
        <ele>8.30859</ele>
        <time>2013-05-22T18:54:14Z</time>
      </trkpt>
      <trkpt lat="59.8308837" lon="17.6618009">
        <ele>8.78918</ele>
        <time>2013-05-22T18:54:15Z</time>
      </trkpt>
      <trkpt lat="59.830866" lon="17.6618124">
        <ele>7.82788</ele>
        <time>2013-05-22T18:54:16Z</time>
      </trkpt>
      <trkpt lat="59.8308513" lon="17.6618282">
        <ele>7.34717</ele>
        <time>2013-05-22T18:54:17Z</time>
      </trkpt>
      <trkpt lat="59.8308301" lon="17.6618564">
        <ele>6.38586</ele>
        <time>2013-05-22T18:54:18Z</time>
      </trkpt>
      <trkpt lat="59.8308097" lon="17.6618765">
        <ele>5.42456</ele>
        <time>2013-05-22T18:54:19Z</time>
      </trkpt>
      <trkpt lat="59.8307908" lon="17.6618871">
        <ele>5.90527</ele>
        <time>2013-05-22T18:54:20Z</time>
      </trkpt>
      <trkpt lat="59.8307702" lon="17.6618982">
        <ele>5.42456</ele>
        <time>2013-05-22T18:54:21Z</time>
      </trkpt>
      <trkpt lat="59.8307488" lon="17.661913">
        <ele>4.94385</ele>
        <time>2013-05-22T18:54:22Z</time>
      </trkpt>
      <trkpt lat="59.8307289" lon="17.6619284">
        <ele>4.94385</ele>
        <time>2013-05-22T18:54:23Z</time>
      </trkpt>
      <trkpt lat="59.830711" lon="17.6619506">
        <ele>5.42456</ele>
        <time>2013-05-22T18:54:24Z</time>
      </trkpt>
      <trkpt lat="59.8306894" lon="17.661967">
        <ele>5.90527</ele>
        <time>2013-05-22T18:54:25Z</time>
      </trkpt>
      <trkpt lat="59.8306656" lon="17.6619761">
        <ele>6.38586</ele>
        <time>2013-05-22T18:54:26Z</time>
      </trkpt>
      <trkpt lat="59.8306402" lon="17.6619862">
        <ele>6.38586</ele>
        <time>2013-05-22T18:54:27Z</time>
      </trkpt>
      <trkpt lat="59.8306143" lon="17.6620051">
        <ele>5.90527</ele>
        <time>2013-05-22T18:54:28Z</time>
      </trkpt>
      <trkpt lat="59.8305868" lon="17.6620256">
        <ele>5.90527</ele>
        <time>2013-05-22T18:54:29Z</time>
      </trkpt>
      <trkpt lat="59.8305609" lon="17.6620439">
        <ele>5.42456</ele>
        <time>2013-05-22T18:54:30Z</time>
      </trkpt>
      <trkpt lat="59.8305313" lon="17.6620622">
        <ele>5.42456</ele>
        <time>2013-05-22T18:54:31Z</time>
      </trkpt>
      <trkpt lat="59.8304973" lon="17.662079">
        <ele>4.94385</ele>
        <time>2013-05-22T18:54:32Z</time>
      </trkpt>
      <trkpt lat="59.8304675" lon="17.6620943">
        <ele>4.46326</ele>
        <time>2013-05-22T18:54:33Z</time>
      </trkpt>
      <trkpt lat="59.8304448" lon="17.6621108">
        <ele>4.94385</ele>
        <time>2013-05-22T18:54:34Z</time>
      </trkpt>
      <trkpt lat="59.8304238" lon="17.6621173">
        <ele>4.94385</ele>
        <time>2013-05-22T18:54:35Z</time>
      </trkpt>
      <trkpt lat="59.8304064" lon="17.6621283">
        <ele>3.98267</ele>
        <time>2013-05-22T18:54:36Z</time>
      </trkpt>
      <trkpt lat="59.8303895" lon="17.6621491">
        <ele>4.46326</ele>
        <time>2013-05-22T18:54:37Z</time>
      </trkpt>
      <trkpt lat="59.8303687" lon="17.662165">
        <ele>4.94385</ele>
        <time>2013-05-22T18:54:38Z</time>
      </trkpt>
      <trkpt lat="59.8303504" lon="17.662175">
        <ele>5.42456</ele>
        <time>2013-05-22T18:54:39Z</time>
      </trkpt>
      <trkpt lat="59.8303318" lon="17.6621833">
        <ele>5.42456</ele>
        <time>2013-05-22T18:54:40Z</time>
      </trkpt>
      <trkpt lat="59.8303046" lon="17.6621922">
        <ele>5.42456</ele>
        <time>2013-05-22T18:54:41Z</time>
      </trkpt>
      <trkpt lat="59.8302854" lon="17.6621999">
        <ele>5.90527</ele>
        <time>2013-05-22T18:54:42Z</time>
      </trkpt>
      <trkpt lat="59.8302714" lon="17.662209">
        <ele>6.86646</ele>
        <time>2013-05-22T18:54:43Z</time>
      </trkpt>
      <trkpt lat="59.8302566" lon="17.6622154">
        <ele>6.38586</ele>
        <time>2013-05-22T18:54:44Z</time>
      </trkpt>
      <trkpt lat="59.8302376" lon="17.6622294">
        <ele>6.86646</ele>
        <time>2013-05-22T18:54:45Z</time>
      </trkpt>
      <trkpt lat="59.8302204" lon="17.6622329">
        <ele>6.86646</ele>
        <time>2013-05-22T18:54:46Z</time>
      </trkpt>
      <trkpt lat="59.8301989" lon="17.6622412">
        <ele>7.34717</ele>
        <time>2013-05-22T18:54:47Z</time>
      </trkpt>
      <trkpt lat="59.8301776" lon="17.6622469">
        <ele>7.82788</ele>
        <time>2013-05-22T18:54:48Z</time>
      </trkpt>
      <trkpt lat="59.8301584" lon="17.6622556">
        <ele>7.82788</ele>
        <time>2013-05-22T18:54:49Z</time>
      </trkpt>
      <trkpt lat="59.8301412" lon="17.6622744">
        <ele>7.82788</ele>
        <time>2013-05-22T18:54:50Z</time>
      </trkpt>
      <trkpt lat="59.8301212" lon="17.6622923">
        <ele>8.30859</ele>
        <time>2013-05-22T18:54:51Z</time>
      </trkpt>
      <trkpt lat="59.8301003" lon="17.6623065">
        <ele>8.78918</ele>
        <time>2013-05-22T18:54:52Z</time>
      </trkpt>
      <trkpt lat="59.8300842" lon="17.6623185">
        <ele>9.2699</ele>
        <time>2013-05-22T18:54:53Z</time>
      </trkpt>
      <trkpt lat="59.8300688" lon="17.6623271">
        <ele>9.75061</ele>
        <time>2013-05-22T18:54:54Z</time>
      </trkpt>
      <trkpt lat="59.8300471" lon="17.662335">
        <ele>9.2699</ele>
        <time>2013-05-22T18:54:55Z</time>
      </trkpt>
      <trkpt lat="59.8300268" lon="17.6623485">
        <ele>9.2699</ele>
        <time>2013-05-22T18:54:56Z</time>
      </trkpt>
      <trkpt lat="59.8300061" lon="17.662363">
        <ele>9.75061</ele>
        <time>2013-05-22T18:54:57Z</time>
      </trkpt>
      <trkpt lat="59.8299859" lon="17.6623753">
        <ele>9.75061</ele>
        <time>2013-05-22T18:54:58Z</time>
      </trkpt>
      <trkpt lat="59.8299681" lon="17.6623863">
        <ele>9.75061</ele>
        <time>2013-05-22T18:54:59Z</time>
      </trkpt>
      <trkpt lat="59.8299481" lon="17.6623993">
        <ele>9.75061</ele>
        <time>2013-05-22T18:55:00Z</time>
      </trkpt>
      <trkpt lat="59.8299238" lon="17.6624142">
        <ele>9.2699</ele>
        <time>2013-05-22T18:55:01Z</time>
      </trkpt>
      <trkpt lat="59.829907" lon="17.6624231">
        <ele>9.2699</ele>
        <time>2013-05-22T18:55:02Z</time>
      </trkpt>
      <trkpt lat="59.8298907" lon="17.6624336">
        <ele>9.75061</ele>
        <time>2013-05-22T18:55:03Z</time>
      </trkpt>
      <trkpt lat="59.829871" lon="17.6624449">
        <ele>10.2312</ele>
        <time>2013-05-22T18:55:04Z</time>
      </trkpt>
      <trkpt lat="59.8298518" lon="17.6624527">
        <ele>9.75061</ele>
        <time>2013-05-22T18:55:05Z</time>
      </trkpt>
      <trkpt lat="59.8298367" lon="17.6624503">
        <ele>9.75061</ele>
        <time>2013-05-22T18:55:06Z</time>
      </trkpt>
      <trkpt lat="59.8298208" lon="17.6624485">
        <ele>9.2699</ele>
        <time>2013-05-22T18:55:07Z</time>
      </trkpt>
      <trkpt lat="59.8297987" lon="17.6624578">
        <ele>8.78918</ele>
        <time>2013-05-22T18:55:08Z</time>
      </trkpt>
      <trkpt lat="59.8297709" lon="17.6624771">
        <ele>9.2699</ele>
        <time>2013-05-22T18:55:09Z</time>
      </trkpt>
      <trkpt lat="59.8297462" lon="17.662492">
        <ele>9.2699</ele>
        <time>2013-05-22T18:55:10Z</time>
      </trkpt>
      <trkpt lat="59.8297259" lon="17.6625016">
        <ele>9.2699</ele>
        <time>2013-05-22T18:55:11Z</time>
      </trkpt>
      <trkpt lat="59.8297053" lon="17.6625173">
        <ele>8.78918</ele>
        <time>2013-05-22T18:55:12Z</time>
      </trkpt>
      <trkpt lat="59.8296876" lon="17.6625322">
        <ele>8.78918</ele>
        <time>2013-05-22T18:55:13Z</time>
      </trkpt>
      <trkpt lat="59.8296637" lon="17.6625433">
        <ele>8.78918</ele>
        <time>2013-05-22T18:55:14Z</time>
      </trkpt>
      <trkpt lat="59.8296433" lon="17.6625521">
        <ele>8.78918</ele>
        <time>2013-05-22T18:55:15Z</time>
      </trkpt>
      <trkpt lat="59.8296288" lon="17.6625578">
        <ele>9.2699</ele>
        <time>2013-05-22T18:55:16Z</time>
      </trkpt>
      <trkpt lat="59.8296098" lon="17.6625635">
        <ele>9.2699</ele>
        <time>2013-05-22T18:55:17Z</time>
      </trkpt>
      <trkpt lat="59.8295928" lon="17.6625614">
        <ele>8.78918</ele>
        <time>2013-05-22T18:55:18Z</time>
      </trkpt>
      <trkpt lat="59.8295726" lon="17.6625749">
        <ele>9.75061</ele>
        <time>2013-05-22T18:55:19Z</time>
      </trkpt>
      <trkpt lat="59.8295549" lon="17.6625873">
        <ele>10.2312</ele>
        <time>2013-05-22T18:55:20Z</time>
      </trkpt>
      <trkpt lat="59.8295342" lon="17.6625966">
        <ele>10.2312</ele>
        <time>2013-05-22T18:55:21Z</time>
      </trkpt>
      <trkpt lat="59.8295129" lon="17.6626112">
        <ele>10.2312</ele>
        <time>2013-05-22T18:55:22Z</time>
      </trkpt>
      <trkpt lat="59.8294973" lon="17.6626211">
        <ele>10.7118</ele>
        <time>2013-05-22T18:55:23Z</time>
      </trkpt>
      <trkpt lat="59.8294747" lon="17.6626348">
        <ele>11.1925</ele>
        <time>2013-05-22T18:55:24Z</time>
      </trkpt>
      <trkpt lat="59.8294579" lon="17.6626396">
        <ele>11.1925</ele>
        <time>2013-05-22T18:55:25Z</time>
      </trkpt>
      <trkpt lat="59.8294395" lon="17.6626469">
        <ele>11.1925</ele>
        <time>2013-05-22T18:55:26Z</time>
      </trkpt>
      <trkpt lat="59.8294193" lon="17.6626542">
        <ele>11.1925</ele>
        <time>2013-05-22T18:55:27Z</time>
      </trkpt>
      <trkpt lat="59.8294006" lon="17.6626603">
        <ele>11.1925</ele>
        <time>2013-05-22T18:55:28Z</time>
      </trkpt>
      <trkpt lat="59.8293784" lon="17.6626727">
        <ele>10.7118</ele>
        <time>2013-05-22T18:55:29Z</time>
      </trkpt>
      <trkpt lat="59.8293488" lon="17.6626964">
        <ele>9.75061</ele>
        <time>2013-05-22T18:55:30Z</time>
      </trkpt>
      <trkpt lat="59.8293249" lon="17.6627038">
        <ele>9.75061</ele>
        <time>2013-05-22T18:55:31Z</time>
      </trkpt>
      <trkpt lat="59.8292991" lon="17.662712">
        <ele>9.2699</ele>
        <time>2013-05-22T18:55:32Z</time>
      </trkpt>
      <trkpt lat="59.8292766" lon="17.662721">
        <ele>9.2699</ele>
        <time>2013-05-22T18:55:33Z</time>
      </trkpt>
      <trkpt lat="59.8292554" lon="17.6627323">
        <ele>9.2699</ele>
        <time>2013-05-22T18:55:34Z</time>
      </trkpt>
      <trkpt lat="59.8292297" lon="17.6627482">
        <ele>8.78918</ele>
        <time>2013-05-22T18:55:35Z</time>
      </trkpt>
      <trkpt lat="59.829203" lon="17.6627674">
        <ele>8.30859</ele>
        <time>2013-05-22T18:55:36Z</time>
      </trkpt>
      <trkpt lat="59.8291814" lon="17.6627801">
        <ele>8.30859</ele>
        <time>2013-05-22T18:55:37Z</time>
      </trkpt>
      <trkpt lat="59.8291555" lon="17.6627888">
        <ele>7.82788</ele>
        <time>2013-05-22T18:55:38Z</time>
      </trkpt>
      <trkpt lat="59.8291336" lon="17.6627955">
        <ele>7.34717</ele>
        <time>2013-05-22T18:55:39Z</time>
      </trkpt>
      <trkpt lat="59.8291142" lon="17.6628096">
        <ele>7.34717</ele>
        <time>2013-05-22T18:55:40Z</time>
      </trkpt>
      <trkpt lat="59.8290909" lon="17.6628359">
        <ele>7.34717</ele>
        <time>2013-05-22T18:55:41Z</time>
      </trkpt>
      <trkpt lat="59.8290602" lon="17.6628581">
        <ele>7.34717</ele>
        <time>2013-05-22T18:55:42Z</time>
      </trkpt>
      <trkpt lat="59.829029" lon="17.6628764">
        <ele>6.86646</ele>
        <time>2013-05-22T18:55:43Z</time>
      </trkpt>
      <trkpt lat="59.8289985" lon="17.6628969">
        <ele>7.34717</ele>
        <time>2013-05-22T18:55:44Z</time>
      </trkpt>
      <trkpt lat="59.8289681" lon="17.6629157">
        <ele>7.82788</ele>
        <time>2013-05-22T18:55:45Z</time>
      </trkpt>
      <trkpt lat="59.828945" lon="17.6629245">
        <ele>7.34717</ele>
        <time>2013-05-22T18:55:46Z</time>
      </trkpt>
      <trkpt lat="59.8289264" lon="17.6629245">
        <ele>6.86646</ele>
        <time>2013-05-22T18:55:47Z</time>
      </trkpt>
      <trkpt lat="59.8289052" lon="17.6629353">
        <ele>7.34717</ele>
        <time>2013-05-22T18:55:48Z</time>
      </trkpt>
      <trkpt lat="59.8288765" lon="17.662957">
        <ele>7.34717</ele>
        <time>2013-05-22T18:55:49Z</time>
      </trkpt>
      <trkpt lat="59.8288505" lon="17.6629758">
        <ele>6.86646</ele>
        <time>2013-05-22T18:55:50Z</time>
      </trkpt>
      <trkpt lat="59.8288277" lon="17.6629945">
        <ele>6.86646</ele>
        <time>2013-05-22T18:55:51Z</time>
      </trkpt>
      <trkpt lat="59.8288037" lon="17.6630099">
        <ele>7.34717</ele>
        <time>2013-05-22T18:55:52Z</time>
      </trkpt>
      <trkpt lat="59.8287796" lon="17.6630204">
        <ele>7.34717</ele>
        <time>2013-05-22T18:55:53Z</time>
      </trkpt>
      <trkpt lat="59.8287603" lon="17.6630302">
        <ele>6.86646</ele>
        <time>2013-05-22T18:55:54Z</time>
      </trkpt>
      <trkpt lat="59.8287378" lon="17.6630457">
        <ele>6.86646</ele>
        <time>2013-05-22T18:55:55Z</time>
      </trkpt>
      <trkpt lat="59.8287153" lon="17.663067">
        <ele>6.86646</ele>
        <time>2013-05-22T18:55:56Z</time>
      </trkpt>
      <trkpt lat="59.828693" lon="17.6630815">
        <ele>6.38586</ele>
        <time>2013-05-22T18:55:57Z</time>
      </trkpt>
      <trkpt lat="59.8286733" lon="17.6631007">
        <ele>5.90527</ele>
        <time>2013-05-22T18:55:58Z</time>
      </trkpt>
      <trkpt lat="59.8286515" lon="17.6631177">
        <ele>5.42456</ele>
        <time>2013-05-22T18:55:59Z</time>
      </trkpt>
      <trkpt lat="59.8286287" lon="17.6631332">
        <ele>5.90527</ele>
        <time>2013-05-22T18:56:00Z</time>
      </trkpt>
      <trkpt lat="59.8286105" lon="17.6631436">
        <ele>4.94385</ele>
        <time>2013-05-22T18:56:01Z</time>
      </trkpt>
      <trkpt lat="59.8285868" lon="17.6631623">
        <ele>5.42456</ele>
        <time>2013-05-22T18:56:02Z</time>
      </trkpt>
      <trkpt lat="59.8285625" lon="17.6631747">
        <ele>5.42456</ele>
        <time>2013-05-22T18:56:03Z</time>
      </trkpt>
      <trkpt lat="59.828539" lon="17.6631906">
        <ele>5.90527</ele>
        <time>2013-05-22T18:56:04Z</time>
      </trkpt>
      <trkpt lat="59.8285162" lon="17.6632136">
        <ele>5.90527</ele>
        <time>2013-05-22T18:56:05Z</time>
      </trkpt>
      <trkpt lat="59.8284904" lon="17.6632358">
        <ele>5.42456</ele>
        <time>2013-05-22T18:56:06Z</time>
      </trkpt>
      <trkpt lat="59.8284645" lon="17.6632577">
        <ele>5.90527</ele>
        <time>2013-05-22T18:56:07Z</time>
      </trkpt>
      <trkpt lat="59.8284407" lon="17.6632797">
        <ele>5.90527</ele>
        <time>2013-05-22T18:56:08Z</time>
      </trkpt>
      <trkpt lat="59.8284149" lon="17.6633033">
        <ele>6.38586</ele>
        <time>2013-05-22T18:56:09Z</time>
      </trkpt>
      <trkpt lat="59.8283894" lon="17.6633216">
        <ele>6.86646</ele>
        <time>2013-05-22T18:56:10Z</time>
      </trkpt>
      <trkpt lat="59.8283661" lon="17.6633401">
        <ele>6.86646</ele>
        <time>2013-05-22T18:56:11Z</time>
      </trkpt>
      <trkpt lat="59.8283385" lon="17.6633555">
        <ele>6.38586</ele>
        <time>2013-05-22T18:56:12Z</time>
      </trkpt>
      <trkpt lat="59.8283154" lon="17.6633722">
        <ele>6.38586</ele>
        <time>2013-05-22T18:56:13Z</time>
      </trkpt>
      <trkpt lat="59.8282972" lon="17.6633867">
        <ele>5.90527</ele>
        <time>2013-05-22T18:56:14Z</time>
      </trkpt>
      <trkpt lat="59.8282749" lon="17.6633984">
        <ele>5.90527</ele>
        <time>2013-05-22T18:56:15Z</time>
      </trkpt>
      <trkpt lat="59.8282531" lon="17.6634035">
        <ele>5.90527</ele>
        <time>2013-05-22T18:56:16Z</time>
      </trkpt>
      <trkpt lat="59.8282326" lon="17.6634109">
        <ele>5.42456</ele>
        <time>2013-05-22T18:56:17Z</time>
      </trkpt>
      <trkpt lat="59.8282112" lon="17.663425">
        <ele>5.42456</ele>
        <time>2013-05-22T18:56:18Z</time>
      </trkpt>
      <trkpt lat="59.8281889" lon="17.663439">
        <ele>5.42456</ele>
        <time>2013-05-22T18:56:19Z</time>
      </trkpt>
      <trkpt lat="59.8281667" lon="17.6634525">
        <ele>4.46326</ele>
        <time>2013-05-22T18:56:20Z</time>
      </trkpt>
      <trkpt lat="59.8281458" lon="17.6634708">
        <ele>4.46326</ele>
        <time>2013-05-22T18:56:21Z</time>
      </trkpt>
      <trkpt lat="59.8281222" lon="17.6634861">
        <ele>3.98267</ele>
        <time>2013-05-22T18:56:22Z</time>
      </trkpt>
      <trkpt lat="59.8281009" lon="17.6635036">
        <ele>3.50195</ele>
        <time>2013-05-22T18:56:23Z</time>
      </trkpt>
      <trkpt lat="59.8280832" lon="17.6635217">
        <ele>3.50195</ele>
        <time>2013-05-22T18:56:24Z</time>
      </trkpt>
      <trkpt lat="59.828062" lon="17.6635327">
        <ele>3.50195</ele>
        <time>2013-05-22T18:56:25Z</time>
      </trkpt>
      <trkpt lat="59.828037" lon="17.6635406">
        <ele>3.02124</ele>
        <time>2013-05-22T18:56:26Z</time>
      </trkpt>
      <trkpt lat="59.8280145" lon="17.6635566">
        <ele>3.02124</ele>
        <time>2013-05-22T18:56:27Z</time>
      </trkpt>
      <trkpt lat="59.8279963" lon="17.6635715">
        <ele>3.02124</ele>
        <time>2013-05-22T18:56:28Z</time>
      </trkpt>
      <trkpt lat="59.8279758" lon="17.6635854">
        <ele>3.02124</ele>
        <time>2013-05-22T18:56:29Z</time>
      </trkpt>
      <trkpt lat="59.8279558" lon="17.663599">
        <ele>3.02124</ele>
        <time>2013-05-22T18:56:30Z</time>
      </trkpt>
      <trkpt lat="59.8279351" lon="17.6636133">
        <ele>3.02124</ele>
        <time>2013-05-22T18:56:31Z</time>
      </trkpt>
      <trkpt lat="59.8279103" lon="17.6636264">
        <ele>3.02124</ele>
        <time>2013-05-22T18:56:32Z</time>
      </trkpt>
      <trkpt lat="59.8278883" lon="17.6636374">
        <ele>3.02124</ele>
        <time>2013-05-22T18:56:33Z</time>
      </trkpt>
      <trkpt lat="59.8278674" lon="17.6636475">
        <ele>3.02124</ele>
        <time>2013-05-22T18:56:34Z</time>
      </trkpt>
      <trkpt lat="59.8278467" lon="17.66366">
        <ele>3.02124</ele>
        <time>2013-05-22T18:56:35Z</time>
      </trkpt>
      <trkpt lat="59.8278253" lon="17.6636695">
        <ele>2.06006</ele>
        <time>2013-05-22T18:56:36Z</time>
      </trkpt>
      <trkpt lat="59.8278016" lon="17.6636832">
        <ele>2.54065</ele>
        <time>2013-05-22T18:56:37Z</time>
      </trkpt>
      <trkpt lat="59.8277778" lon="17.6636958">
        <ele>2.06006</ele>
        <time>2013-05-22T18:56:38Z</time>
      </trkpt>
      <trkpt lat="59.8277542" lon="17.6637109">
        <ele>2.06006</ele>
        <time>2013-05-22T18:56:39Z</time>
      </trkpt>
      <trkpt lat="59.8277336" lon="17.6637294">
        <ele>2.54065</ele>
        <time>2013-05-22T18:56:40Z</time>
      </trkpt>
      <trkpt lat="59.8277125" lon="17.6637413">
        <ele>3.02124</ele>
        <time>2013-05-22T18:56:41Z</time>
      </trkpt>
      <trkpt lat="59.827693" lon="17.663755">
        <ele>2.54065</ele>
        <time>2013-05-22T18:56:42Z</time>
      </trkpt>
      <trkpt lat="59.827673" lon="17.6637741">
        <ele>2.54065</ele>
        <time>2013-05-22T18:56:43Z</time>
      </trkpt>
      <trkpt lat="59.8276502" lon="17.663792">
        <ele>2.54065</ele>
        <time>2013-05-22T18:56:44Z</time>
      </trkpt>
      <trkpt lat="59.8276275" lon="17.6638041">
        <ele>2.54065</ele>
        <time>2013-05-22T18:56:45Z</time>
      </trkpt>
      <trkpt lat="59.8276077" lon="17.6638132">
        <ele>2.54065</ele>
        <time>2013-05-22T18:56:46Z</time>
      </trkpt>
      <trkpt lat="59.8275849" lon="17.6638274">
        <ele>2.54065</ele>
        <time>2013-05-22T18:56:47Z</time>
      </trkpt>
      <trkpt lat="59.8275607" lon="17.6638419">
        <ele>2.54065</ele>
        <time>2013-05-22T18:56:48Z</time>
      </trkpt>
      <trkpt lat="59.8275389" lon="17.6638545">
        <ele>2.54065</ele>
        <time>2013-05-22T18:56:49Z</time>
      </trkpt>
      <trkpt lat="59.827516" lon="17.6638721">
        <ele>2.06006</ele>
        <time>2013-05-22T18:56:50Z</time>
      </trkpt>
      <trkpt lat="59.8274925" lon="17.6638917">
        <ele>1.57935</ele>
        <time>2013-05-22T18:56:51Z</time>
      </trkpt>
      <trkpt lat="59.8274699" lon="17.6639085">
        <ele>1.09863</ele>
        <time>2013-05-22T18:56:52Z</time>
      </trkpt>
      <trkpt lat="59.8274472" lon="17.6639243">
        <ele>1.09863</ele>
        <time>2013-05-22T18:56:53Z</time>
      </trkpt>
      <trkpt lat="59.8274264" lon="17.6639382">
        <ele>1.09863</ele>
        <time>2013-05-22T18:56:54Z</time>
      </trkpt>
      <trkpt lat="59.8274076" lon="17.6639484">
        <ele>1.09863</ele>
        <time>2013-05-22T18:56:55Z</time>
      </trkpt>
      <trkpt lat="59.8273867" lon="17.6639615">
        <ele>0.618042</ele>
        <time>2013-05-22T18:56:56Z</time>
      </trkpt>
      <trkpt lat="59.8273651" lon="17.6639754">
        <ele>0.618042</ele>
        <time>2013-05-22T18:56:57Z</time>
      </trkpt>
      <trkpt lat="59.8273472" lon="17.6639961">
        <ele>0.618042</ele>
        <time>2013-05-22T18:56:58Z</time>
      </trkpt>
      <trkpt lat="59.8273306" lon="17.6640092">
        <ele>0.618042</ele>
        <time>2013-05-22T18:56:59Z</time>
      </trkpt>
      <trkpt lat="59.8273109" lon="17.6640272">
        <ele>1.09863</ele>
        <time>2013-05-22T18:57:00Z</time>
      </trkpt>
      <trkpt lat="59.8272897" lon="17.664057">
        <ele>0.618042</ele>
        <time>2013-05-22T18:57:01Z</time>
      </trkpt>
      <trkpt lat="59.8272743" lon="17.6640818">
        <ele>1.09863</ele>
        <time>2013-05-22T18:57:02Z</time>
      </trkpt>
      <trkpt lat="59.8272571" lon="17.6641069">
        <ele>2.06006</ele>
        <time>2013-05-22T18:57:03Z</time>
      </trkpt>
      <trkpt lat="59.8272384" lon="17.6641344">
        <ele>2.54065</ele>
        <time>2013-05-22T18:57:04Z</time>
      </trkpt>
      <trkpt lat="59.8272212" lon="17.6641582">
        <ele>2.54065</ele>
        <time>2013-05-22T18:57:05Z</time>
      </trkpt>
      <trkpt lat="59.8272009" lon="17.6641789">
        <ele>3.02124</ele>
        <time>2013-05-22T18:57:06Z</time>
      </trkpt>
      <trkpt lat="59.8271793" lon="17.6641973">
        <ele>3.50195</ele>
        <time>2013-05-22T18:57:07Z</time>
      </trkpt>
      <trkpt lat="59.8271589" lon="17.6642204">
        <ele>3.50195</ele>
        <time>2013-05-22T18:57:08Z</time>
      </trkpt>
      <trkpt lat="59.8271354" lon="17.6642395">
        <ele>3.50195</ele>
        <time>2013-05-22T18:57:09Z</time>
      </trkpt>
      <trkpt lat="59.8271156" lon="17.6642584">
        <ele>3.98267</ele>
        <time>2013-05-22T18:57:10Z</time>
      </trkpt>
      <trkpt lat="59.827096" lon="17.6642717">
        <ele>3.98267</ele>
        <time>2013-05-22T18:57:11Z</time>
      </trkpt>
      <trkpt lat="59.8270747" lon="17.6642942">
        <ele>3.98267</ele>
        <time>2013-05-22T18:57:12Z</time>
      </trkpt>
      <trkpt lat="59.8270539" lon="17.6643118">
        <ele>3.98267</ele>
        <time>2013-05-22T18:57:13Z</time>
      </trkpt>
      <trkpt lat="59.8270336" lon="17.664329">
        <ele>4.46326</ele>
        <time>2013-05-22T18:57:14Z</time>
      </trkpt>
      <trkpt lat="59.8270126" lon="17.6643481">
        <ele>4.46326</ele>
        <time>2013-05-22T18:57:15Z</time>
      </trkpt>
      <trkpt lat="59.8269923" lon="17.6643678">
        <ele>4.46326</ele>
        <time>2013-05-22T18:57:16Z</time>
      </trkpt>
      <trkpt lat="59.8269737" lon="17.664387">
        <ele>4.46326</ele>
        <time>2013-05-22T18:57:17Z</time>
      </trkpt>
      <trkpt lat="59.8269539" lon="17.6644081">
        <ele>4.94385</ele>
        <time>2013-05-22T18:57:18Z</time>
      </trkpt>
      <trkpt lat="59.8269348" lon="17.6644288">
        <ele>4.94385</ele>
        <time>2013-05-22T18:57:19Z</time>
      </trkpt>
      <trkpt lat="59.8269168" lon="17.664449">
        <ele>4.94385</ele>
        <time>2013-05-22T18:57:20Z</time>
      </trkpt>
      <trkpt lat="59.8268955" lon="17.6644692">
        <ele>4.94385</ele>
        <time>2013-05-22T18:57:21Z</time>
      </trkpt>
      <trkpt lat="59.8268748" lon="17.664492">
        <ele>4.94385</ele>
        <time>2013-05-22T18:57:22Z</time>
      </trkpt>
      <trkpt lat="59.8268546" lon="17.664517">
        <ele>5.42456</ele>
        <time>2013-05-22T18:57:23Z</time>
      </trkpt>
      <trkpt lat="59.8268337" lon="17.66454">
        <ele>5.42456</ele>
        <time>2013-05-22T18:57:24Z</time>
      </trkpt>
      <trkpt lat="59.8268117" lon="17.6645582">
        <ele>5.42456</ele>
        <time>2013-05-22T18:57:25Z</time>
      </trkpt>
      <trkpt lat="59.8267893" lon="17.6645832">
        <ele>5.90527</ele>
        <time>2013-05-22T18:57:26Z</time>
      </trkpt>
      <trkpt lat="59.826766" lon="17.664613">
        <ele>6.38586</ele>
        <time>2013-05-22T18:57:27Z</time>
      </trkpt>
      <trkpt lat="59.826749" lon="17.6646215">
        <ele>5.42456</ele>
        <time>2013-05-22T18:57:28Z</time>
      </trkpt>
      <trkpt lat="59.8267353" lon="17.6646433">
        <ele>5.90527</ele>
        <time>2013-05-22T18:57:29Z</time>
      </trkpt>
      <trkpt lat="59.8267184" lon="17.6646645">
        <ele>5.42456</ele>
        <time>2013-05-22T18:57:30Z</time>
      </trkpt>
      <trkpt lat="59.8266894" lon="17.6646872">
        <ele>5.42456</ele>
        <time>2013-05-22T18:57:31Z</time>
      </trkpt>
      <trkpt lat="59.8266687" lon="17.6647102">
        <ele>5.90527</ele>
        <time>2013-05-22T18:57:32Z</time>
      </trkpt>
      <trkpt lat="59.8266453" lon="17.6647325">
        <ele>5.42456</ele>
        <time>2013-05-22T18:57:33Z</time>
      </trkpt>
      <trkpt lat="59.8266181" lon="17.6647589">
        <ele>4.94385</ele>
        <time>2013-05-22T18:57:34Z</time>
      </trkpt>
      <trkpt lat="59.826594" lon="17.6647862">
        <ele>4.46326</ele>
        <time>2013-05-22T18:57:35Z</time>
      </trkpt>
      <trkpt lat="59.8265724" lon="17.6648096">
        <ele>4.46326</ele>
        <time>2013-05-22T18:57:36Z</time>
      </trkpt>
      <trkpt lat="59.826553" lon="17.6648226">
        <ele>3.50195</ele>
        <time>2013-05-22T18:57:37Z</time>
      </trkpt>
      <trkpt lat="59.826537" lon="17.6648408">
        <ele>3.98267</ele>
        <time>2013-05-22T18:57:38Z</time>
      </trkpt>
      <trkpt lat="59.8265187" lon="17.6648629">
        <ele>4.46326</ele>
        <time>2013-05-22T18:57:39Z</time>
      </trkpt>
      <trkpt lat="59.8264964" lon="17.6648824">
        <ele>4.46326</ele>
        <time>2013-05-22T18:57:40Z</time>
      </trkpt>
      <trkpt lat="59.8264728" lon="17.6648995">
        <ele>3.98267</ele>
        <time>2013-05-22T18:57:41Z</time>
      </trkpt>
      <trkpt lat="59.8264468" lon="17.6649225">
        <ele>3.50195</ele>
        <time>2013-05-22T18:57:42Z</time>
      </trkpt>
      <trkpt lat="59.8264193" lon="17.6649497">
        <ele>3.02124</ele>
        <time>2013-05-22T18:57:43Z</time>
      </trkpt>
      <trkpt lat="59.8263915" lon="17.6649757">
        <ele>2.54065</ele>
        <time>2013-05-22T18:57:44Z</time>
      </trkpt>
      <trkpt lat="59.8263629" lon="17.6650005">
        <ele>2.54065</ele>
        <time>2013-05-22T18:57:45Z</time>
      </trkpt>
      <trkpt lat="59.826336" lon="17.6650213">
        <ele>2.06006</ele>
        <time>2013-05-22T18:57:46Z</time>
      </trkpt>
      <trkpt lat="59.8263137" lon="17.6650499">
        <ele>2.06006</ele>
        <time>2013-05-22T18:57:47Z</time>
      </trkpt>
      <trkpt lat="59.826291" lon="17.6650711">
        <ele>1.57935</ele>
        <time>2013-05-22T18:57:48Z</time>
      </trkpt>
      <trkpt lat="59.8262706" lon="17.6650899">
        <ele>1.57935</ele>
        <time>2013-05-22T18:57:49Z</time>
      </trkpt>
      <trkpt lat="59.8262509" lon="17.6651142">
        <ele>1.57935</ele>
        <time>2013-05-22T18:57:50Z</time>
      </trkpt>
      <trkpt lat="59.8262261" lon="17.665139">
        <ele>1.09863</ele>
        <time>2013-05-22T18:57:51Z</time>
      </trkpt>
      <trkpt lat="59.826205" lon="17.6651663">
        <ele>1.57935</ele>
        <time>2013-05-22T18:57:52Z</time>
      </trkpt>
      <trkpt lat="59.8261836" lon="17.6651804">
        <ele>1.09863</ele>
        <time>2013-05-22T18:57:53Z</time>
      </trkpt>
      <trkpt lat="59.8261625" lon="17.665197">
        <ele>1.09863</ele>
        <time>2013-05-22T18:57:54Z</time>
      </trkpt>
      <trkpt lat="59.8261453" lon="17.6652168">
        <ele>1.09863</ele>
        <time>2013-05-22T18:57:55Z</time>
      </trkpt>
      <trkpt lat="59.8261288" lon="17.66524">
        <ele>1.09863</ele>
        <time>2013-05-22T18:57:56Z</time>
      </trkpt>
      <trkpt lat="59.8261105" lon="17.6652593">
        <ele>1.57935</ele>
        <time>2013-05-22T18:57:57Z</time>
      </trkpt>
      <trkpt lat="59.8260872" lon="17.6652752">
        <ele>1.57935</ele>
        <time>2013-05-22T18:57:58Z</time>
      </trkpt>
      <trkpt lat="59.8260668" lon="17.6652913">
        <ele>1.09863</ele>
        <time>2013-05-22T18:57:59Z</time>
      </trkpt>
      <trkpt lat="59.826046" lon="17.6653042">
        <ele>1.09863</ele>
        <time>2013-05-22T18:58:00Z</time>
      </trkpt>
      <trkpt lat="59.8260247" lon="17.6653172">
        <ele>1.09863</ele>
        <time>2013-05-22T18:58:01Z</time>
      </trkpt>
      <trkpt lat="59.8260043" lon="17.6653295">
        <ele>0.137451</ele>
        <time>2013-05-22T18:58:02Z</time>
      </trkpt>
      <trkpt lat="59.8259862" lon="17.6653555">
        <ele>0.618042</ele>
        <time>2013-05-22T18:58:03Z</time>
      </trkpt>
      <trkpt lat="59.8259682" lon="17.6653764">
        <ele>0.137451</ele>
        <time>2013-05-22T18:58:04Z</time>
      </trkpt>
      <trkpt lat="59.8259516" lon="17.665395">
        <ele>0.137451</ele>
        <time>2013-05-22T18:58:05Z</time>
      </trkpt>
      <trkpt lat="59.8259294" lon="17.6654177">
        <ele>0</ele>
        <time>2013-05-22T18:58:06Z</time>
      </trkpt>
      <trkpt lat="59.8259064" lon="17.6654401">
        <ele>0</ele>
        <time>2013-05-22T18:58:07Z</time>
      </trkpt>
      <trkpt lat="59.8258873" lon="17.6654602">
        <ele>0</ele>
        <time>2013-05-22T18:58:08Z</time>
      </trkpt>
      <trkpt lat="59.8258672" lon="17.6654838">
        <ele>0</ele>
        <time>2013-05-22T18:58:09Z</time>
      </trkpt>
      <trkpt lat="59.8258455" lon="17.6655025">
        <ele>0</ele>
        <time>2013-05-22T18:58:10Z</time>
      </trkpt>
      <trkpt lat="59.825828" lon="17.6655191">
        <ele>0</ele>
        <time>2013-05-22T18:58:11Z</time>
      </trkpt>
      <trkpt lat="59.8258077" lon="17.6655362">
        <ele>0</ele>
        <time>2013-05-22T18:58:12Z</time>
      </trkpt>
      <trkpt lat="59.8257864" lon="17.6655596">
        <ele>0</ele>
        <time>2013-05-22T18:58:13Z</time>
      </trkpt>
      <trkpt lat="59.8257678" lon="17.6655809">
        <ele>0</ele>
        <time>2013-05-22T18:58:14Z</time>
      </trkpt>
      <trkpt lat="59.8257492" lon="17.6656031">
        <ele>0</ele>
        <time>2013-05-22T18:58:15Z</time>
      </trkpt>
      <trkpt lat="59.8257274" lon="17.6656265">
        <ele>0</ele>
        <time>2013-05-22T18:58:16Z</time>
      </trkpt>
      <trkpt lat="59.8257051" lon="17.6656477">
        <ele>0</ele>
        <time>2013-05-22T18:58:17Z</time>
      </trkpt>
      <trkpt lat="59.825692" lon="17.6656652">
        <ele>0</ele>
        <time>2013-05-22T18:58:18Z</time>
      </trkpt>
      <trkpt lat="59.8256855" lon="17.6656772">
        <ele>0</ele>
        <time>2013-05-22T18:58:19Z</time>
      </trkpt>
      <trkpt lat="59.8256712" lon="17.6656938">
        <ele>0</ele>
        <time>2013-05-22T18:58:20Z</time>
      </trkpt>
      <trkpt lat="59.8256548" lon="17.6657083">
        <ele>0</ele>
        <time>2013-05-22T18:58:21Z</time>
      </trkpt>
      <trkpt lat="59.8256336" lon="17.665734">
        <ele>0</ele>
        <time>2013-05-22T18:58:22Z</time>
      </trkpt>
      <trkpt lat="59.825613" lon="17.6657539">
        <ele>0</ele>
        <time>2013-05-22T18:58:23Z</time>
      </trkpt>
      <trkpt lat="59.8255982" lon="17.6657714">
        <ele>0</ele>
        <time>2013-05-22T18:58:24Z</time>
      </trkpt>
      <trkpt lat="59.8255766" lon="17.6657962">
        <ele>0</ele>
        <time>2013-05-22T18:58:25Z</time>
      </trkpt>
      <trkpt lat="59.8255526" lon="17.6658174">
        <ele>0</ele>
        <time>2013-05-22T18:58:26Z</time>
      </trkpt>
      <trkpt lat="59.825527" lon="17.6658435">
        <ele>0</ele>
        <time>2013-05-22T18:58:27Z</time>
      </trkpt>
      <trkpt lat="59.8255018" lon="17.6658757">
        <ele>0</ele>
        <time>2013-05-22T18:58:28Z</time>
      </trkpt>
      <trkpt lat="59.8254766" lon="17.6659013">
        <ele>0</ele>
        <time>2013-05-22T18:58:29Z</time>
      </trkpt>
      <trkpt lat="59.8254513" lon="17.6659244">
        <ele>0</ele>
        <time>2013-05-22T18:58:30Z</time>
      </trkpt>
      <trkpt lat="59.825427" lon="17.6659506">
        <ele>0</ele>
        <time>2013-05-22T18:58:31Z</time>
      </trkpt>
      <trkpt lat="59.8254071" lon="17.66597">
        <ele>0</ele>
        <time>2013-05-22T18:58:32Z</time>
      </trkpt>
      <trkpt lat="59.8253822" lon="17.6659873">
        <ele>0</ele>
        <time>2013-05-22T18:58:33Z</time>
      </trkpt>
      <trkpt lat="59.8253565" lon="17.6660057">
        <ele>0</ele>
        <time>2013-05-22T18:58:34Z</time>
      </trkpt>
      <trkpt lat="59.8253306" lon="17.6660339">
        <ele>0</ele>
        <time>2013-05-22T18:58:35Z</time>
      </trkpt>
      <trkpt lat="59.8253113" lon="17.6660543">
        <ele>0</ele>
        <time>2013-05-22T18:58:36Z</time>
      </trkpt>
      <trkpt lat="59.8252877" lon="17.666076">
        <ele>0</ele>
        <time>2013-05-22T18:58:37Z</time>
      </trkpt>
      <trkpt lat="59.8252666" lon="17.6660911">
        <ele>0</ele>
        <time>2013-05-22T18:58:38Z</time>
      </trkpt>
      <trkpt lat="59.8252475" lon="17.6661093">
        <ele>0</ele>
        <time>2013-05-22T18:58:39Z</time>
      </trkpt>
      <trkpt lat="59.8252258" lon="17.6661257">
        <ele>0</ele>
        <time>2013-05-22T18:58:40Z</time>
      </trkpt>
      <trkpt lat="59.8252047" lon="17.66613">
        <ele>0</ele>
        <time>2013-05-22T18:58:41Z</time>
      </trkpt>
      <trkpt lat="59.8251808" lon="17.6661398">
        <ele>0</ele>
        <time>2013-05-22T18:58:42Z</time>
      </trkpt>
      <trkpt lat="59.825157" lon="17.6661534">
        <ele>0</ele>
        <time>2013-05-22T18:58:43Z</time>
      </trkpt>
      <trkpt lat="59.8251352" lon="17.666175">
        <ele>0</ele>
        <time>2013-05-22T18:58:44Z</time>
      </trkpt>
      <trkpt lat="59.8251155" lon="17.6661948">
        <ele>0</ele>
        <time>2013-05-22T18:58:45Z</time>
      </trkpt>
      <trkpt lat="59.8250974" lon="17.6662211">
        <ele>0</ele>
        <time>2013-05-22T18:58:46Z</time>
      </trkpt>
      <trkpt lat="59.8250747" lon="17.6662425">
        <ele>0</ele>
        <time>2013-05-22T18:58:47Z</time>
      </trkpt>
      <trkpt lat="59.825054" lon="17.6662631">
        <ele>0</ele>
        <time>2013-05-22T18:58:48Z</time>
      </trkpt>
      <trkpt lat="59.8250384" lon="17.6662828">
        <ele>0</ele>
        <time>2013-05-22T18:58:49Z</time>
      </trkpt>
      <trkpt lat="59.8250211" lon="17.6663015">
        <ele>0</ele>
        <time>2013-05-22T18:58:50Z</time>
      </trkpt>
      <trkpt lat="59.825004" lon="17.6663227">
        <ele>0</ele>
        <time>2013-05-22T18:58:51Z</time>
      </trkpt>
      <trkpt lat="59.8249876" lon="17.6663479">
        <ele>0</ele>
        <time>2013-05-22T18:58:52Z</time>
      </trkpt>
      <trkpt lat="59.824969" lon="17.666375">
        <ele>0</ele>
        <time>2013-05-22T18:58:53Z</time>
      </trkpt>
      <trkpt lat="59.8249496" lon="17.6663961">
        <ele>0</ele>
        <time>2013-05-22T18:58:54Z</time>
      </trkpt>
      <trkpt lat="59.8249342" lon="17.6664188">
        <ele>0</ele>
        <time>2013-05-22T18:58:55Z</time>
      </trkpt>
      <trkpt lat="59.8249141" lon="17.6664393">
        <ele>0</ele>
        <time>2013-05-22T18:58:56Z</time>
      </trkpt>
      <trkpt lat="59.8248954" lon="17.6664649">
        <ele>0</ele>
        <time>2013-05-22T18:58:57Z</time>
      </trkpt>
      <trkpt lat="59.8248758" lon="17.6664796">
        <ele>0</ele>
        <time>2013-05-22T18:58:58Z</time>
      </trkpt>
      <trkpt lat="59.8248572" lon="17.6664974">
        <ele>0</ele>
        <time>2013-05-22T18:58:59Z</time>
      </trkpt>
      <trkpt lat="59.8248352" lon="17.6665186">
        <ele>0</ele>
        <time>2013-05-22T18:59:00Z</time>
      </trkpt>
      <trkpt lat="59.8248162" lon="17.6665367">
        <ele>0</ele>
        <time>2013-05-22T18:59:01Z</time>
      </trkpt>
      <trkpt lat="59.8247961" lon="17.6665535">
        <ele>0</ele>
        <time>2013-05-22T18:59:02Z</time>
      </trkpt>
      <trkpt lat="59.8247735" lon="17.6665677">
        <ele>0</ele>
        <time>2013-05-22T18:59:03Z</time>
      </trkpt>
      <trkpt lat="59.8247523" lon="17.6665841">
        <ele>0.137451</ele>
        <time>2013-05-22T18:59:04Z</time>
      </trkpt>
      <trkpt lat="59.8247332" lon="17.666603">
        <ele>0.137451</ele>
        <time>2013-05-22T18:59:05Z</time>
      </trkpt>
      <trkpt lat="59.8247105" lon="17.6666165">
        <ele>0.137451</ele>
        <time>2013-05-22T18:59:06Z</time>
      </trkpt>
      <trkpt lat="59.8246908" lon="17.6666308">
        <ele>0.618042</ele>
        <time>2013-05-22T18:59:07Z</time>
      </trkpt>
      <trkpt lat="59.8246726" lon="17.6666453">
        <ele>1.09863</ele>
        <time>2013-05-22T18:59:08Z</time>
      </trkpt>
      <trkpt lat="59.8246561" lon="17.6666578">
        <ele>1.57935</ele>
        <time>2013-05-22T18:59:09Z</time>
      </trkpt>
      <trkpt lat="59.8246375" lon="17.6666665">
        <ele>1.57935</ele>
        <time>2013-05-22T18:59:10Z</time>
      </trkpt>
      <trkpt lat="59.8246191" lon="17.6666814">
        <ele>1.57935</ele>
        <time>2013-05-22T18:59:11Z</time>
      </trkpt>
      <trkpt lat="59.8245969" lon="17.6666894">
        <ele>2.54065</ele>
        <time>2013-05-22T18:59:12Z</time>
      </trkpt>
      <trkpt lat="59.8245736" lon="17.6666934">
        <ele>2.54065</ele>
        <time>2013-05-22T18:59:13Z</time>
      </trkpt>
      <trkpt lat="59.8245549" lon="17.6667023">
        <ele>3.02124</ele>
        <time>2013-05-22T18:59:14Z</time>
      </trkpt>
      <trkpt lat="59.8245334" lon="17.6667056">
        <ele>3.50195</ele>
        <time>2013-05-22T18:59:15Z</time>
      </trkpt>
      <trkpt lat="59.8245132" lon="17.6667081">
        <ele>3.02124</ele>
        <time>2013-05-22T18:59:16Z</time>
      </trkpt>
      <trkpt lat="59.8244924" lon="17.6667178">
        <ele>3.50195</ele>
        <time>2013-05-22T18:59:17Z</time>
      </trkpt>
      <trkpt lat="59.8244716" lon="17.6667225">
        <ele>3.98267</ele>
        <time>2013-05-22T18:59:18Z</time>
      </trkpt>
      <trkpt lat="59.8244531" lon="17.6667235">
        <ele>3.50195</ele>
        <time>2013-05-22T18:59:19Z</time>
      </trkpt>
      <trkpt lat="59.8244374" lon="17.6667355">
        <ele>3.98267</ele>
        <time>2013-05-22T18:59:20Z</time>
      </trkpt>
      <trkpt lat="59.8244167" lon="17.6667439">
        <ele>4.46326</ele>
        <time>2013-05-22T18:59:21Z</time>
      </trkpt>
      <trkpt lat="59.8243902" lon="17.6667366">
        <ele>4.46326</ele>
        <time>2013-05-22T18:59:22Z</time>
      </trkpt>
      <trkpt lat="59.824365" lon="17.6667327">
        <ele>3.98267</ele>
        <time>2013-05-22T18:59:23Z</time>
      </trkpt>
      <trkpt lat="59.8243366" lon="17.6667365">
        <ele>3.98267</ele>
        <time>2013-05-22T18:59:24Z</time>
      </trkpt>
      <trkpt lat="59.8243091" lon="17.6667443">
        <ele>4.46326</ele>
        <time>2013-05-22T18:59:25Z</time>
      </trkpt>
      <trkpt lat="59.8242871" lon="17.6667546">
        <ele>4.46326</ele>
        <time>2013-05-22T18:59:26Z</time>
      </trkpt>
      <trkpt lat="59.8242643" lon="17.6667623">
        <ele>4.46326</ele>
        <time>2013-05-22T18:59:27Z</time>
      </trkpt>
      <trkpt lat="59.8242421" lon="17.6667701">
        <ele>4.94385</ele>
        <time>2013-05-22T18:59:28Z</time>
      </trkpt>
      <trkpt lat="59.8242183" lon="17.6667775">
        <ele>4.46326</ele>
        <time>2013-05-22T18:59:29Z</time>
      </trkpt>
      <trkpt lat="59.8241935" lon="17.666782">
        <ele>4.46326</ele>
        <time>2013-05-22T18:59:30Z</time>
      </trkpt>
      <trkpt lat="59.8241728" lon="17.6667902">
        <ele>4.46326</ele>
        <time>2013-05-22T18:59:31Z</time>
      </trkpt>
      <trkpt lat="59.8241498" lon="17.6668035">
        <ele>4.46326</ele>
        <time>2013-05-22T18:59:32Z</time>
      </trkpt>
      <trkpt lat="59.8241287" lon="17.6668152">
        <ele>4.46326</ele>
        <time>2013-05-22T18:59:33Z</time>
      </trkpt>
      <trkpt lat="59.8241086" lon="17.666825">
        <ele>3.98267</ele>
        <time>2013-05-22T18:59:34Z</time>
      </trkpt>
      <trkpt lat="59.8240887" lon="17.6668417">
        <ele>4.46326</ele>
        <time>2013-05-22T18:59:35Z</time>
      </trkpt>
      <trkpt lat="59.8240662" lon="17.6668527">
        <ele>4.46326</ele>
        <time>2013-05-22T18:59:36Z</time>
      </trkpt>
      <trkpt lat="59.8240464" lon="17.6668648">
        <ele>4.46326</ele>
        <time>2013-05-22T18:59:37Z</time>
      </trkpt>
      <trkpt lat="59.8240265" lon="17.6668781">
        <ele>4.46326</ele>
        <time>2013-05-22T18:59:38Z</time>
      </trkpt>
      <trkpt lat="59.8240074" lon="17.666897">
        <ele>4.46326</ele>
        <time>2013-05-22T18:59:39Z</time>
      </trkpt>
      <trkpt lat="59.8239864" lon="17.6669115">
        <ele>4.46326</ele>
        <time>2013-05-22T18:59:40Z</time>
      </trkpt>
      <trkpt lat="59.823966" lon="17.6669232">
        <ele>3.98267</ele>
        <time>2013-05-22T18:59:41Z</time>
      </trkpt>
      <trkpt lat="59.8239433" lon="17.666938">
        <ele>3.50195</ele>
        <time>2013-05-22T18:59:42Z</time>
      </trkpt>
      <trkpt lat="59.8239207" lon="17.6669536">
        <ele>3.50195</ele>
        <time>2013-05-22T18:59:43Z</time>
      </trkpt>
      <trkpt lat="59.8239005" lon="17.6669712">
        <ele>3.50195</ele>
        <time>2013-05-22T18:59:44Z</time>
      </trkpt>
      <trkpt lat="59.8238808" lon="17.6669925">
        <ele>3.50195</ele>
        <time>2013-05-22T18:59:45Z</time>
      </trkpt>
      <trkpt lat="59.8238605" lon="17.6670096">
        <ele>3.98267</ele>
        <time>2013-05-22T18:59:46Z</time>
      </trkpt>
      <trkpt lat="59.82384" lon="17.6670183">
        <ele>3.98267</ele>
        <time>2013-05-22T18:59:47Z</time>
      </trkpt>
      <trkpt lat="59.8238188" lon="17.6670292">
        <ele>3.98267</ele>
        <time>2013-05-22T18:59:48Z</time>
      </trkpt>
      <trkpt lat="59.8237931" lon="17.6670453">
        <ele>4.46326</ele>
        <time>2013-05-22T18:59:49Z</time>
      </trkpt>
      <trkpt lat="59.8237696" lon="17.6670611">
        <ele>4.46326</ele>
        <time>2013-05-22T18:59:50Z</time>
      </trkpt>
      <trkpt lat="59.8237481" lon="17.6670763">
        <ele>3.98267</ele>
        <time>2013-05-22T18:59:51Z</time>
      </trkpt>
      <trkpt lat="59.8237242" lon="17.6670892">
        <ele>3.98267</ele>
        <time>2013-05-22T18:59:52Z</time>
      </trkpt>
      <trkpt lat="59.8237012" lon="17.6671005">
        <ele>3.50195</ele>
        <time>2013-05-22T18:59:53Z</time>
      </trkpt>
      <trkpt lat="59.8236828" lon="17.6671169">
        <ele>3.50195</ele>
        <time>2013-05-22T18:59:54Z</time>
      </trkpt>
      <trkpt lat="59.8236622" lon="17.6671328">
        <ele>3.98267</ele>
        <time>2013-05-22T18:59:55Z</time>
      </trkpt>
      <trkpt lat="59.823643" lon="17.6671448">
        <ele>4.46326</ele>
        <time>2013-05-22T18:59:56Z</time>
      </trkpt>
      <trkpt lat="59.8236261" lon="17.6671586">
        <ele>4.94385</ele>
        <time>2013-05-22T18:59:57Z</time>
      </trkpt>
      <trkpt lat="59.8236134" lon="17.667166">
        <ele>4.94385</ele>
        <time>2013-05-22T18:59:58Z</time>
      </trkpt>
      <trkpt lat="59.8235973" lon="17.6671805">
        <ele>4.94385</ele>
        <time>2013-05-22T18:59:59Z</time>
      </trkpt>
      <trkpt lat="59.8235756" lon="17.6671976">
        <ele>4.46326</ele>
        <time>2013-05-22T19:00:00Z</time>
      </trkpt>
      <trkpt lat="59.8235544" lon="17.6672184">
        <ele>5.42456</ele>
        <time>2013-05-22T19:00:01Z</time>
      </trkpt>
      <trkpt lat="59.8235325" lon="17.6672411">
        <ele>5.90527</ele>
        <time>2013-05-22T19:00:02Z</time>
      </trkpt>
      <trkpt lat="59.8235072" lon="17.6672606">
        <ele>5.90527</ele>
        <time>2013-05-22T19:00:03Z</time>
      </trkpt>
      <trkpt lat="59.8234807" lon="17.6672842">
        <ele>5.90527</ele>
        <time>2013-05-22T19:00:04Z</time>
      </trkpt>
      <trkpt lat="59.8234564" lon="17.6673113">
        <ele>6.38586</ele>
        <time>2013-05-22T19:00:05Z</time>
      </trkpt>
      <trkpt lat="59.8234361" lon="17.6673291">
        <ele>6.86646</ele>
        <time>2013-05-22T19:00:06Z</time>
      </trkpt>
      <trkpt lat="59.823417" lon="17.6673349">
        <ele>6.38586</ele>
        <time>2013-05-22T19:00:07Z</time>
      </trkpt>
      <trkpt lat="59.8234015" lon="17.6673466">
        <ele>7.34717</ele>
        <time>2013-05-22T19:00:08Z</time>
      </trkpt>
      <trkpt lat="59.8233856" lon="17.6673539">
        <ele>7.82788</ele>
        <time>2013-05-22T19:00:09Z</time>
      </trkpt>
      <trkpt lat="59.8233648" lon="17.6673757">
        <ele>8.30859</ele>
        <time>2013-05-22T19:00:10Z</time>
      </trkpt>
      <trkpt lat="59.8233456" lon="17.6673934">
        <ele>8.30859</ele>
        <time>2013-05-22T19:00:11Z</time>
      </trkpt>
      <trkpt lat="59.8233203" lon="17.6674085">
        <ele>7.82788</ele>
        <time>2013-05-22T19:00:12Z</time>
      </trkpt>
      <trkpt lat="59.8233015" lon="17.6674153">
        <ele>7.82788</ele>
        <time>2013-05-22T19:00:13Z</time>
      </trkpt>
      <trkpt lat="59.8232793" lon="17.6674234">
        <ele>7.82788</ele>
        <time>2013-05-22T19:00:14Z</time>
      </trkpt>
      <trkpt lat="59.8232542" lon="17.6674326">
        <ele>7.82788</ele>
        <time>2013-05-22T19:00:15Z</time>
      </trkpt>
      <trkpt lat="59.8232255" lon="17.6674431">
        <ele>8.30859</ele>
        <time>2013-05-22T19:00:16Z</time>
      </trkpt>
      <trkpt lat="59.8232005" lon="17.667454">
        <ele>8.30859</ele>
        <time>2013-05-22T19:00:17Z</time>
      </trkpt>
      <trkpt lat="59.8231754" lon="17.6674559">
        <ele>7.82788</ele>
        <time>2013-05-22T19:00:18Z</time>
      </trkpt>
      <trkpt lat="59.8231547" lon="17.6674593">
        <ele>7.82788</ele>
        <time>2013-05-22T19:00:19Z</time>
      </trkpt>
      <trkpt lat="59.8231369" lon="17.6674674">
        <ele>8.30859</ele>
        <time>2013-05-22T19:00:20Z</time>
      </trkpt>
      <trkpt lat="59.8231174" lon="17.6674701">
        <ele>8.30859</ele>
        <time>2013-05-22T19:00:21Z</time>
      </trkpt>
      <trkpt lat="59.8230989" lon="17.66747">
        <ele>7.82788</ele>
        <time>2013-05-22T19:00:22Z</time>
      </trkpt>
      <trkpt lat="59.823076" lon="17.6674738">
        <ele>7.34717</ele>
        <time>2013-05-22T19:00:23Z</time>
      </trkpt>
      <trkpt lat="59.8230513" lon="17.6674868">
        <ele>7.82788</ele>
        <time>2013-05-22T19:00:24Z</time>
      </trkpt>
      <trkpt lat="59.8230258" lon="17.6674973">
        <ele>7.34717</ele>
        <time>2013-05-22T19:00:25Z</time>
      </trkpt>
      <trkpt lat="59.8230037" lon="17.6675062">
        <ele>7.82788</ele>
        <time>2013-05-22T19:00:26Z</time>
      </trkpt>
      <trkpt lat="59.8229797" lon="17.6675184">
        <ele>7.82788</ele>
        <time>2013-05-22T19:00:27Z</time>
      </trkpt>
      <trkpt lat="59.8229568" lon="17.6675279">
        <ele>7.82788</ele>
        <time>2013-05-22T19:00:28Z</time>
      </trkpt>
      <trkpt lat="59.8229349" lon="17.6675421">
        <ele>8.78918</ele>
        <time>2013-05-22T19:00:29Z</time>
      </trkpt>
      <trkpt lat="59.8229064" lon="17.6675556">
        <ele>8.30859</ele>
        <time>2013-05-22T19:00:30Z</time>
      </trkpt>
      <trkpt lat="59.8228774" lon="17.6675647">
        <ele>8.30859</ele>
        <time>2013-05-22T19:00:31Z</time>
      </trkpt>
      <trkpt lat="59.8228509" lon="17.6675698">
        <ele>8.30859</ele>
        <time>2013-05-22T19:00:32Z</time>
      </trkpt>
      <trkpt lat="59.822825" lon="17.6675735">
        <ele>8.78918</ele>
        <time>2013-05-22T19:00:33Z</time>
      </trkpt>
      <trkpt lat="59.8228027" lon="17.6675784">
        <ele>8.78918</ele>
        <time>2013-05-22T19:00:34Z</time>
      </trkpt>
      <trkpt lat="59.8227804" lon="17.667588">
        <ele>9.2699</ele>
        <time>2013-05-22T19:00:35Z</time>
      </trkpt>
      <trkpt lat="59.8227576" lon="17.6675933">
        <ele>9.2699</ele>
        <time>2013-05-22T19:00:36Z</time>
      </trkpt>
      <trkpt lat="59.8227351" lon="17.6675921">
        <ele>9.2699</ele>
        <time>2013-05-22T19:00:37Z</time>
      </trkpt>
      <trkpt lat="59.822714" lon="17.6675882">
        <ele>8.30859</ele>
        <time>2013-05-22T19:00:38Z</time>
      </trkpt>
      <trkpt lat="59.8226923" lon="17.6675896">
        <ele>8.78918</ele>
        <time>2013-05-22T19:00:39Z</time>
      </trkpt>
      <trkpt lat="59.8226696" lon="17.6675896">
        <ele>8.78918</ele>
        <time>2013-05-22T19:00:40Z</time>
      </trkpt>
      <trkpt lat="59.8226487" lon="17.6675883">
        <ele>8.78918</ele>
        <time>2013-05-22T19:00:41Z</time>
      </trkpt>
      <trkpt lat="59.8226267" lon="17.6675888">
        <ele>8.30859</ele>
        <time>2013-05-22T19:00:42Z</time>
      </trkpt>
      <trkpt lat="59.8226053" lon="17.6675874">
        <ele>8.78918</ele>
        <time>2013-05-22T19:00:43Z</time>
      </trkpt>
      <trkpt lat="59.8225803" lon="17.6675807">
        <ele>8.30859</ele>
        <time>2013-05-22T19:00:44Z</time>
      </trkpt>
      <trkpt lat="59.8225603" lon="17.6675805">
        <ele>9.2699</ele>
        <time>2013-05-22T19:00:45Z</time>
      </trkpt>
      <trkpt lat="59.8225385" lon="17.6675794">
        <ele>9.75061</ele>
        <time>2013-05-22T19:00:46Z</time>
      </trkpt>
      <trkpt lat="59.822516" lon="17.6675768">
        <ele>9.2699</ele>
        <time>2013-05-22T19:00:47Z</time>
      </trkpt>
      <trkpt lat="59.8224944" lon="17.6675799">
        <ele>10.2312</ele>
        <time>2013-05-22T19:00:48Z</time>
      </trkpt>
      <trkpt lat="59.8224728" lon="17.6675812">
        <ele>10.2312</ele>
        <time>2013-05-22T19:00:49Z</time>
      </trkpt>
      <trkpt lat="59.8224529" lon="17.667583">
        <ele>10.7118</ele>
        <time>2013-05-22T19:00:50Z</time>
      </trkpt>
      <trkpt lat="59.8224344" lon="17.6675864">
        <ele>11.1925</ele>
        <time>2013-05-22T19:00:51Z</time>
      </trkpt>
      <trkpt lat="59.8224188" lon="17.6675952">
        <ele>11.6732</ele>
        <time>2013-05-22T19:00:52Z</time>
      </trkpt>
      <trkpt lat="59.8223981" lon="17.6675968">
        <ele>11.6732</ele>
        <time>2013-05-22T19:00:53Z</time>
      </trkpt>
      <trkpt lat="59.822377" lon="17.6675923">
        <ele>12.1538</ele>
        <time>2013-05-22T19:00:54Z</time>
      </trkpt>
      <trkpt lat="59.8223578" lon="17.6675859">
        <ele>12.1538</ele>
        <time>2013-05-22T19:00:55Z</time>
      </trkpt>
      <trkpt lat="59.8223379" lon="17.6675808">
        <ele>12.6344</ele>
        <time>2013-05-22T19:00:56Z</time>
      </trkpt>
      <trkpt lat="59.8223161" lon="17.6675835">
        <ele>12.6344</ele>
        <time>2013-05-22T19:00:57Z</time>
      </trkpt>
      <trkpt lat="59.822294" lon="17.6675892">
        <ele>13.1151</ele>
        <time>2013-05-22T19:00:58Z</time>
      </trkpt>
      <trkpt lat="59.8222708" lon="17.6676">
        <ele>13.5958</ele>
        <time>2013-05-22T19:00:59Z</time>
      </trkpt>
      <trkpt lat="59.8222456" lon="17.6676129">
        <ele>14.0764</ele>
        <time>2013-05-22T19:01:00Z</time>
      </trkpt>
      <trkpt lat="59.822221" lon="17.6676233">
        <ele>14.557</ele>
        <time>2013-05-22T19:01:01Z</time>
      </trkpt>
      <trkpt lat="59.8221975" lon="17.667632">
        <ele>14.0764</ele>
        <time>2013-05-22T19:01:02Z</time>
      </trkpt>
      <trkpt lat="59.8221723" lon="17.6676364">
        <ele>14.557</ele>
        <time>2013-05-22T19:01:03Z</time>
      </trkpt>
      <trkpt lat="59.8221487" lon="17.6676476">
        <ele>15.0377</ele>
        <time>2013-05-22T19:01:04Z</time>
      </trkpt>
      <trkpt lat="59.8221228" lon="17.6676529">
        <ele>14.557</ele>
        <time>2013-05-22T19:01:05Z</time>
      </trkpt>
      <trkpt lat="59.8220971" lon="17.6676483">
        <ele>14.557</ele>
        <time>2013-05-22T19:01:06Z</time>
      </trkpt>
      <trkpt lat="59.8220719" lon="17.6676436">
        <ele>14.0764</ele>
        <time>2013-05-22T19:01:07Z</time>
      </trkpt>
      <trkpt lat="59.8220504" lon="17.6676503">
        <ele>13.5958</ele>
        <time>2013-05-22T19:01:08Z</time>
      </trkpt>
      <trkpt lat="59.8220282" lon="17.6676591">
        <ele>13.5958</ele>
        <time>2013-05-22T19:01:09Z</time>
      </trkpt>
      <trkpt lat="59.822006" lon="17.6676642">
        <ele>14.0764</ele>
        <time>2013-05-22T19:01:10Z</time>
      </trkpt>
      <trkpt lat="59.8219859" lon="17.6676677">
        <ele>14.0764</ele>
        <time>2013-05-22T19:01:11Z</time>
      </trkpt>
      <trkpt lat="59.8219664" lon="17.6676751">
        <ele>14.557</ele>
        <time>2013-05-22T19:01:12Z</time>
      </trkpt>
      <trkpt lat="59.8219416" lon="17.6676783">
        <ele>14.557</ele>
        <time>2013-05-22T19:01:13Z</time>
      </trkpt>
      <trkpt lat="59.8219178" lon="17.6676822">
        <ele>14.0764</ele>
        <time>2013-05-22T19:01:14Z</time>
      </trkpt>
      <trkpt lat="59.8218931" lon="17.6676906">
        <ele>14.0764</ele>
        <time>2013-05-22T19:01:15Z</time>
      </trkpt>
      <trkpt lat="59.8218711" lon="17.6676985">
        <ele>14.0764</ele>
        <time>2013-05-22T19:01:16Z</time>
      </trkpt>
      <trkpt lat="59.8218476" lon="17.6677006">
        <ele>14.0764</ele>
        <time>2013-05-22T19:01:17Z</time>
      </trkpt>
      <trkpt lat="59.8218269" lon="17.6677047">
        <ele>14.0764</ele>
        <time>2013-05-22T19:01:18Z</time>
      </trkpt>
      <trkpt lat="59.8218022" lon="17.6677094">
        <ele>14.0764</ele>
        <time>2013-05-22T19:01:19Z</time>
      </trkpt>
      <trkpt lat="59.8217758" lon="17.6677105">
        <ele>14.0764</ele>
        <time>2013-05-22T19:01:20Z</time>
      </trkpt>
      <trkpt lat="59.8217504" lon="17.6677147">
        <ele>14.0764</ele>
        <time>2013-05-22T19:01:21Z</time>
      </trkpt>
      <trkpt lat="59.8217248" lon="17.6677283">
        <ele>14.0764</ele>
        <time>2013-05-22T19:01:22Z</time>
      </trkpt>
      <trkpt lat="59.8217007" lon="17.6677393">
        <ele>14.0764</ele>
        <time>2013-05-22T19:01:23Z</time>
      </trkpt>
      <trkpt lat="59.8216776" lon="17.6677451">
        <ele>14.0764</ele>
        <time>2013-05-22T19:01:24Z</time>
      </trkpt>
      <trkpt lat="59.8216572" lon="17.6677555">
        <ele>14.0764</ele>
        <time>2013-05-22T19:01:25Z</time>
      </trkpt>
      <trkpt lat="59.8216359" lon="17.6677669">
        <ele>14.557</ele>
        <time>2013-05-22T19:01:26Z</time>
      </trkpt>
      <trkpt lat="59.8216154" lon="17.6677752">
        <ele>14.557</ele>
        <time>2013-05-22T19:01:27Z</time>
      </trkpt>
      <trkpt lat="59.8215962" lon="17.6677862">
        <ele>15.0377</ele>
        <time>2013-05-22T19:01:28Z</time>
      </trkpt>
      <trkpt lat="59.8215764" lon="17.6677892">
        <ele>15.0377</ele>
        <time>2013-05-22T19:01:29Z</time>
      </trkpt>
      <trkpt lat="59.8215495" lon="17.6677872">
        <ele>14.557</ele>
        <time>2013-05-22T19:01:30Z</time>
      </trkpt>
      <trkpt lat="59.8215271" lon="17.667788">
        <ele>14.0764</ele>
        <time>2013-05-22T19:01:31Z</time>
      </trkpt>
      <trkpt lat="59.8215071" lon="17.6677948">
        <ele>14.0764</ele>
        <time>2013-05-22T19:01:32Z</time>
      </trkpt>
      <trkpt lat="59.821489" lon="17.6677993">
        <ele>14.0764</ele>
        <time>2013-05-22T19:01:33Z</time>
      </trkpt>
      <trkpt lat="59.8214714" lon="17.6677943">
        <ele>14.0764</ele>
        <time>2013-05-22T19:01:34Z</time>
      </trkpt>
      <trkpt lat="59.8214476" lon="17.6678016">
        <ele>13.5958</ele>
        <time>2013-05-22T19:01:35Z</time>
      </trkpt>
      <trkpt lat="59.8214248" lon="17.667809">
        <ele>13.1151</ele>
        <time>2013-05-22T19:01:36Z</time>
      </trkpt>
      <trkpt lat="59.8214025" lon="17.6678174">
        <ele>13.1151</ele>
        <time>2013-05-22T19:01:37Z</time>
      </trkpt>
      <trkpt lat="59.8213803" lon="17.6678279">
        <ele>13.1151</ele>
        <time>2013-05-22T19:01:38Z</time>
      </trkpt>
      <trkpt lat="59.8213585" lon="17.6678394">
        <ele>13.1151</ele>
        <time>2013-05-22T19:01:39Z</time>
      </trkpt>
      <trkpt lat="59.8213372" lon="17.6678493">
        <ele>13.1151</ele>
        <time>2013-05-22T19:01:40Z</time>
      </trkpt>
      <trkpt lat="59.8213158" lon="17.6678648">
        <ele>12.6344</ele>
        <time>2013-05-22T19:01:41Z</time>
      </trkpt>
      <trkpt lat="59.8212916" lon="17.6678761">
        <ele>12.1538</ele>
        <time>2013-05-22T19:01:42Z</time>
      </trkpt>
      <trkpt lat="59.8212689" lon="17.667885">
        <ele>12.1538</ele>
        <time>2013-05-22T19:01:43Z</time>
      </trkpt>
      <trkpt lat="59.8212444" lon="17.6678928">
        <ele>11.6732</ele>
        <time>2013-05-22T19:01:44Z</time>
      </trkpt>
      <trkpt lat="59.8212191" lon="17.6679037">
        <ele>11.1925</ele>
        <time>2013-05-22T19:01:45Z</time>
      </trkpt>
      <trkpt lat="59.8211948" lon="17.6679099">
        <ele>11.1925</ele>
        <time>2013-05-22T19:01:46Z</time>
      </trkpt>
      <trkpt lat="59.8211718" lon="17.6679146">
        <ele>10.7118</ele>
        <time>2013-05-22T19:01:47Z</time>
      </trkpt>
      <trkpt lat="59.8211497" lon="17.667924">
        <ele>10.7118</ele>
        <time>2013-05-22T19:01:48Z</time>
      </trkpt>
      <trkpt lat="59.8211278" lon="17.6679296">
        <ele>10.2312</ele>
        <time>2013-05-22T19:01:49Z</time>
      </trkpt>
      <trkpt lat="59.8211068" lon="17.6679451">
        <ele>10.2312</ele>
        <time>2013-05-22T19:01:50Z</time>
      </trkpt>
      <trkpt lat="59.8210829" lon="17.6679596">
        <ele>10.2312</ele>
        <time>2013-05-22T19:01:51Z</time>
      </trkpt>
      <trkpt lat="59.8210602" lon="17.667971">
        <ele>10.2312</ele>
        <time>2013-05-22T19:01:52Z</time>
      </trkpt>
      <trkpt lat="59.8210443" lon="17.6679822">
        <ele>10.7118</ele>
        <time>2013-05-22T19:01:53Z</time>
      </trkpt>
      <trkpt lat="59.8210219" lon="17.667996">
        <ele>10.7118</ele>
        <time>2013-05-22T19:01:54Z</time>
      </trkpt>
      <trkpt lat="59.821" lon="17.6680041">
        <ele>10.2312</ele>
        <time>2013-05-22T19:01:55Z</time>
      </trkpt>
      <trkpt lat="59.8209841" lon="17.6680097">
        <ele>10.2312</ele>
        <time>2013-05-22T19:01:56Z</time>
      </trkpt>
      <trkpt lat="59.8209637" lon="17.6680182">
        <ele>10.2312</ele>
        <time>2013-05-22T19:01:57Z</time>
      </trkpt>
      <trkpt lat="59.8209408" lon="17.6680267">
        <ele>10.2312</ele>
        <time>2013-05-22T19:01:58Z</time>
      </trkpt>
      <trkpt lat="59.8209185" lon="17.6680374">
        <ele>10.2312</ele>
        <time>2013-05-22T19:01:59Z</time>
      </trkpt>
      <trkpt lat="59.8208972" lon="17.6680513">
        <ele>10.2312</ele>
        <time>2013-05-22T19:02:00Z</time>
      </trkpt>
      <trkpt lat="59.8208742" lon="17.6680647">
        <ele>10.2312</ele>
        <time>2013-05-22T19:02:01Z</time>
      </trkpt>
      <trkpt lat="59.8208513" lon="17.6680745">
        <ele>10.2312</ele>
        <time>2013-05-22T19:02:02Z</time>
      </trkpt>
      <trkpt lat="59.8208301" lon="17.6680881">
        <ele>10.7118</ele>
        <time>2013-05-22T19:02:03Z</time>
      </trkpt>
      <trkpt lat="59.8208083" lon="17.6681026">
        <ele>11.1925</ele>
        <time>2013-05-22T19:02:04Z</time>
      </trkpt>
      <trkpt lat="59.820783" lon="17.6681148">
        <ele>10.7118</ele>
        <time>2013-05-22T19:02:05Z</time>
      </trkpt>
      <trkpt lat="59.8207621" lon="17.6681285">
        <ele>11.1925</ele>
        <time>2013-05-22T19:02:06Z</time>
      </trkpt>
      <trkpt lat="59.8207426" lon="17.6681435">
        <ele>11.6732</ele>
        <time>2013-05-22T19:02:07Z</time>
      </trkpt>
      <trkpt lat="59.8207217" lon="17.6681571">
        <ele>11.1925</ele>
        <time>2013-05-22T19:02:08Z</time>
      </trkpt>
      <trkpt lat="59.8206997" lon="17.6681739">
        <ele>11.1925</ele>
        <time>2013-05-22T19:02:09Z</time>
      </trkpt>
      <trkpt lat="59.8206789" lon="17.6681917">
        <ele>11.6732</ele>
        <time>2013-05-22T19:02:10Z</time>
      </trkpt>
      <trkpt lat="59.8206576" lon="17.6682031">
        <ele>11.6732</ele>
        <time>2013-05-22T19:02:11Z</time>
      </trkpt>
      <trkpt lat="59.8206384" lon="17.668212">
        <ele>11.6732</ele>
        <time>2013-05-22T19:02:12Z</time>
      </trkpt>
      <trkpt lat="59.8206162" lon="17.6682217">
        <ele>11.6732</ele>
        <time>2013-05-22T19:02:13Z</time>
      </trkpt>
      <trkpt lat="59.8205955" lon="17.6682313">
        <ele>11.1925</ele>
        <time>2013-05-22T19:02:14Z</time>
      </trkpt>
      <trkpt lat="59.8205741" lon="17.6682392">
        <ele>11.1925</ele>
        <time>2013-05-22T19:02:15Z</time>
      </trkpt>
      <trkpt lat="59.8205483" lon="17.6682517">
        <ele>11.1925</ele>
        <time>2013-05-22T19:02:16Z</time>
      </trkpt>
      <trkpt lat="59.8205265" lon="17.6682667">
        <ele>11.6732</ele>
        <time>2013-05-22T19:02:17Z</time>
      </trkpt>
      <trkpt lat="59.8205077" lon="17.6682778">
        <ele>11.6732</ele>
        <time>2013-05-22T19:02:18Z</time>
      </trkpt>
      <trkpt lat="59.8204861" lon="17.6682902">
        <ele>11.6732</ele>
        <time>2013-05-22T19:02:19Z</time>
      </trkpt>
      <trkpt lat="59.8204669" lon="17.6683025">
        <ele>12.1538</ele>
        <time>2013-05-22T19:02:20Z</time>
      </trkpt>
      <trkpt lat="59.8204457" lon="17.6683148">
        <ele>12.1538</ele>
        <time>2013-05-22T19:02:21Z</time>
      </trkpt>
      <trkpt lat="59.8204212" lon="17.6683264">
        <ele>12.1538</ele>
        <time>2013-05-22T19:02:22Z</time>
      </trkpt>
      <trkpt lat="59.8203968" lon="17.6683371">
        <ele>12.1538</ele>
        <time>2013-05-22T19:02:23Z</time>
      </trkpt>
      <trkpt lat="59.8203764" lon="17.6683477">
        <ele>12.1538</ele>
        <time>2013-05-22T19:02:24Z</time>
      </trkpt>
      <trkpt lat="59.8203554" lon="17.6683594">
        <ele>12.1538</ele>
        <time>2013-05-22T19:02:25Z</time>
      </trkpt>
      <trkpt lat="59.8203333" lon="17.6683672">
        <ele>11.6732</ele>
        <time>2013-05-22T19:02:26Z</time>
      </trkpt>
      <trkpt lat="59.8203084" lon="17.6683764">
        <ele>11.1925</ele>
        <time>2013-05-22T19:02:27Z</time>
      </trkpt>
      <trkpt lat="59.8202857" lon="17.6683881">
        <ele>10.7118</ele>
        <time>2013-05-22T19:02:28Z</time>
      </trkpt>
      <trkpt lat="59.8202637" lon="17.6684004">
        <ele>10.7118</ele>
        <time>2013-05-22T19:02:29Z</time>
      </trkpt>
      <trkpt lat="59.82024" lon="17.6684154">
        <ele>10.2312</ele>
        <time>2013-05-22T19:02:30Z</time>
      </trkpt>
      <trkpt lat="59.8202168" lon="17.6684316">
        <ele>9.75061</ele>
        <time>2013-05-22T19:02:31Z</time>
      </trkpt>
      <trkpt lat="59.8201946" lon="17.6684494">
        <ele>9.2699</ele>
        <time>2013-05-22T19:02:32Z</time>
      </trkpt>
      <trkpt lat="59.8201717" lon="17.6684621">
        <ele>9.2699</ele>
        <time>2013-05-22T19:02:33Z</time>
      </trkpt>
      <trkpt lat="59.8201479" lon="17.6684797">
        <ele>8.78918</ele>
        <time>2013-05-22T19:02:34Z</time>
      </trkpt>
      <trkpt lat="59.8201272" lon="17.668503">
        <ele>8.78918</ele>
        <time>2013-05-22T19:02:35Z</time>
      </trkpt>
      <trkpt lat="59.8201068" lon="17.6685222">
        <ele>8.78918</ele>
        <time>2013-05-22T19:02:36Z</time>
      </trkpt>
      <trkpt lat="59.8200868" lon="17.6685362">
        <ele>9.2699</ele>
        <time>2013-05-22T19:02:37Z</time>
      </trkpt>
      <trkpt lat="59.8200613" lon="17.6685476">
        <ele>9.2699</ele>
        <time>2013-05-22T19:02:38Z</time>
      </trkpt>
      <trkpt lat="59.820035" lon="17.6685594">
        <ele>9.2699</ele>
        <time>2013-05-22T19:02:39Z</time>
      </trkpt>
      <trkpt lat="59.8200112" lon="17.6685678">
        <ele>8.78918</ele>
        <time>2013-05-22T19:02:40Z</time>
      </trkpt>
      <trkpt lat="59.8199912" lon="17.6685839">
        <ele>8.78918</ele>
        <time>2013-05-22T19:02:41Z</time>
      </trkpt>
      <trkpt lat="59.8199651" lon="17.668602">
        <ele>8.30859</ele>
        <time>2013-05-22T19:02:42Z</time>
      </trkpt>
      <trkpt lat="59.8199422" lon="17.6686164">
        <ele>8.78918</ele>
        <time>2013-05-22T19:02:43Z</time>
      </trkpt>
      <trkpt lat="59.8199197" lon="17.6686257">
        <ele>8.78918</ele>
        <time>2013-05-22T19:02:44Z</time>
      </trkpt>
      <trkpt lat="59.8198959" lon="17.6686349">
        <ele>8.78918</ele>
        <time>2013-05-22T19:02:45Z</time>
      </trkpt>
      <trkpt lat="59.8198733" lon="17.668645">
        <ele>9.2699</ele>
        <time>2013-05-22T19:02:46Z</time>
      </trkpt>
      <trkpt lat="59.8198485" lon="17.6686548">
        <ele>9.2699</ele>
        <time>2013-05-22T19:02:47Z</time>
      </trkpt>
      <trkpt lat="59.819823" lon="17.668662">
        <ele>8.78918</ele>
        <time>2013-05-22T19:02:48Z</time>
      </trkpt>
      <trkpt lat="59.8197993" lon="17.6686708">
        <ele>8.78918</ele>
        <time>2013-05-22T19:02:49Z</time>
      </trkpt>
      <trkpt lat="59.8197768" lon="17.668682">
        <ele>8.30859</ele>
        <time>2013-05-22T19:02:50Z</time>
      </trkpt>
      <trkpt lat="59.819753" lon="17.6687002">
        <ele>8.78918</ele>
        <time>2013-05-22T19:02:51Z</time>
      </trkpt>
      <trkpt lat="59.819727" lon="17.6687086">
        <ele>8.30859</ele>
        <time>2013-05-22T19:02:52Z</time>
      </trkpt>
      <trkpt lat="59.8197001" lon="17.6687167">
        <ele>7.82788</ele>
        <time>2013-05-22T19:02:53Z</time>
      </trkpt>
      <trkpt lat="59.8196775" lon="17.6687214">
        <ele>7.34717</ele>
        <time>2013-05-22T19:02:54Z</time>
      </trkpt>
      <trkpt lat="59.819655" lon="17.6687173">
        <ele>6.86646</ele>
        <time>2013-05-22T19:02:55Z</time>
      </trkpt>
      <trkpt lat="59.8196351" lon="17.6687139">
        <ele>6.86646</ele>
        <time>2013-05-22T19:02:56Z</time>
      </trkpt>
      <trkpt lat="59.8196181" lon="17.6687184">
        <ele>6.86646</ele>
        <time>2013-05-22T19:02:57Z</time>
      </trkpt>
      <trkpt lat="59.8195983" lon="17.6687204">
        <ele>6.86646</ele>
        <time>2013-05-22T19:02:58Z</time>
      </trkpt>
      <trkpt lat="59.8195742" lon="17.668716">
        <ele>6.38586</ele>
        <time>2013-05-22T19:02:59Z</time>
      </trkpt>
      <trkpt lat="59.8195507" lon="17.6687079">
        <ele>6.38586</ele>
        <time>2013-05-22T19:03:00Z</time>
      </trkpt>
      <trkpt lat="59.819532" lon="17.6687034">
        <ele>6.38586</ele>
        <time>2013-05-22T19:03:01Z</time>
      </trkpt>
      <trkpt lat="59.8195118" lon="17.6686952">
        <ele>6.38586</ele>
        <time>2013-05-22T19:03:02Z</time>
      </trkpt>
      <trkpt lat="59.8194917" lon="17.6686936">
        <ele>6.38586</ele>
        <time>2013-05-22T19:03:03Z</time>
      </trkpt>
      <trkpt lat="59.819473" lon="17.6686939">
        <ele>6.86646</ele>
        <time>2013-05-22T19:03:04Z</time>
      </trkpt>
      <trkpt lat="59.8194548" lon="17.6686924">
        <ele>6.86646</ele>
        <time>2013-05-22T19:03:05Z</time>
      </trkpt>
      <trkpt lat="59.819436" lon="17.6686937">
        <ele>6.86646</ele>
        <time>2013-05-22T19:03:06Z</time>
      </trkpt>
      <trkpt lat="59.8194103" lon="17.6687056">
        <ele>7.34717</ele>
        <time>2013-05-22T19:03:07Z</time>
      </trkpt>
      <trkpt lat="59.8193841" lon="17.6687084">
        <ele>6.38586</ele>
        <time>2013-05-22T19:03:08Z</time>
      </trkpt>
      <trkpt lat="59.8193619" lon="17.6687232">
        <ele>6.86646</ele>
        <time>2013-05-22T19:03:09Z</time>
      </trkpt>
      <trkpt lat="59.819344" lon="17.6687313">
        <ele>6.38586</ele>
        <time>2013-05-22T19:03:10Z</time>
      </trkpt>
      <trkpt lat="59.8193235" lon="17.66873">
        <ele>6.38586</ele>
        <time>2013-05-22T19:03:11Z</time>
      </trkpt>
      <trkpt lat="59.8193003" lon="17.6687226">
        <ele>5.90527</ele>
        <time>2013-05-22T19:03:12Z</time>
      </trkpt>
      <trkpt lat="59.8192788" lon="17.6687206">
        <ele>5.90527</ele>
        <time>2013-05-22T19:03:13Z</time>
      </trkpt>
      <trkpt lat="59.819257" lon="17.6687211">
        <ele>5.42456</ele>
        <time>2013-05-22T19:03:14Z</time>
      </trkpt>
      <trkpt lat="59.8192316" lon="17.6687295">
        <ele>5.42456</ele>
        <time>2013-05-22T19:03:15Z</time>
      </trkpt>
      <trkpt lat="59.8192075" lon="17.6687458">
        <ele>5.42456</ele>
        <time>2013-05-22T19:03:16Z</time>
      </trkpt>
      <trkpt lat="59.8191828" lon="17.6687592">
        <ele>5.42456</ele>
        <time>2013-05-22T19:03:17Z</time>
      </trkpt>
      <trkpt lat="59.8191565" lon="17.6687721">
        <ele>5.42456</ele>
        <time>2013-05-22T19:03:18Z</time>
      </trkpt>
      <trkpt lat="59.8191339" lon="17.6687768">
        <ele>5.42456</ele>
        <time>2013-05-22T19:03:19Z</time>
      </trkpt>
      <trkpt lat="59.8191149" lon="17.6687795">
        <ele>4.94385</ele>
        <time>2013-05-22T19:03:20Z</time>
      </trkpt>
      <trkpt lat="59.819093" lon="17.6687848">
        <ele>4.94385</ele>
        <time>2013-05-22T19:03:21Z</time>
      </trkpt>
      <trkpt lat="59.8190694" lon="17.668792">
        <ele>4.46326</ele>
        <time>2013-05-22T19:03:22Z</time>
      </trkpt>
      <trkpt lat="59.8190459" lon="17.6687971">
        <ele>4.46326</ele>
        <time>2013-05-22T19:03:23Z</time>
      </trkpt>
      <trkpt lat="59.819022" lon="17.6687986">
        <ele>3.98267</ele>
        <time>2013-05-22T19:03:24Z</time>
      </trkpt>
      <trkpt lat="59.8189985" lon="17.6687982">
        <ele>3.50195</ele>
        <time>2013-05-22T19:03:25Z</time>
      </trkpt>
      <trkpt lat="59.8189694" lon="17.6688096">
        <ele>3.50195</ele>
        <time>2013-05-22T19:03:26Z</time>
      </trkpt>
      <trkpt lat="59.8189464" lon="17.6688091">
        <ele>3.50195</ele>
        <time>2013-05-22T19:03:27Z</time>
      </trkpt>
      <trkpt lat="59.8189247" lon="17.6688105">
        <ele>3.98267</ele>
        <time>2013-05-22T19:03:28Z</time>
      </trkpt>
      <trkpt lat="59.818906" lon="17.6688168">
        <ele>3.98267</ele>
        <time>2013-05-22T19:03:29Z</time>
      </trkpt>
      <trkpt lat="59.818885" lon="17.6688133">
        <ele>3.50195</ele>
        <time>2013-05-22T19:03:30Z</time>
      </trkpt>
      <trkpt lat="59.8188647" lon="17.6688086">
        <ele>3.50195</ele>
        <time>2013-05-22T19:03:31Z</time>
      </trkpt>
      <trkpt lat="59.8188486" lon="17.6688123">
        <ele>3.50195</ele>
        <time>2013-05-22T19:03:32Z</time>
      </trkpt>
      <trkpt lat="59.8188311" lon="17.6688122">
        <ele>3.50195</ele>
        <time>2013-05-22T19:03:33Z</time>
      </trkpt>
      <trkpt lat="59.8188138" lon="17.6688107">
        <ele>3.50195</ele>
        <time>2013-05-22T19:03:34Z</time>
      </trkpt>
      <trkpt lat="59.818791" lon="17.6688133">
        <ele>3.02124</ele>
        <time>2013-05-22T19:03:35Z</time>
      </trkpt>
      <trkpt lat="59.8187669" lon="17.6688122">
        <ele>2.54065</ele>
        <time>2013-05-22T19:03:36Z</time>
      </trkpt>
      <trkpt lat="59.8187409" lon="17.668819">
        <ele>3.02124</ele>
        <time>2013-05-22T19:03:37Z</time>
      </trkpt>
      <trkpt lat="59.8187144" lon="17.6688252">
        <ele>3.50195</ele>
        <time>2013-05-22T19:03:38Z</time>
      </trkpt>
      <trkpt lat="59.8186924" lon="17.6688318">
        <ele>3.02124</ele>
        <time>2013-05-22T19:03:39Z</time>
      </trkpt>
      <trkpt lat="59.8186727" lon="17.6688357">
        <ele>2.54065</ele>
        <time>2013-05-22T19:03:40Z</time>
      </trkpt>
      <trkpt lat="59.8186524" lon="17.6688443">
        <ele>2.54065</ele>
        <time>2013-05-22T19:03:41Z</time>
      </trkpt>
      <trkpt lat="59.8186335" lon="17.6688526">
        <ele>3.02124</ele>
        <time>2013-05-22T19:03:42Z</time>
      </trkpt>
      <trkpt lat="59.8186064" lon="17.668861">
        <ele>3.50195</ele>
        <time>2013-05-22T19:03:43Z</time>
      </trkpt>
      <trkpt lat="59.8185805" lon="17.6688542">
        <ele>3.02124</ele>
        <time>2013-05-22T19:03:44Z</time>
      </trkpt>
      <trkpt lat="59.8185555" lon="17.6688449">
        <ele>3.02124</ele>
        <time>2013-05-22T19:03:45Z</time>
      </trkpt>
      <trkpt lat="59.8185322" lon="17.6688376">
        <ele>2.54065</ele>
        <time>2013-05-22T19:03:46Z</time>
      </trkpt>
      <trkpt lat="59.8185103" lon="17.6688365">
        <ele>3.02124</ele>
        <time>2013-05-22T19:03:47Z</time>
      </trkpt>
      <trkpt lat="59.8184855" lon="17.6688293">
        <ele>3.02124</ele>
        <time>2013-05-22T19:03:48Z</time>
      </trkpt>
      <trkpt lat="59.8184614" lon="17.6688283">
        <ele>3.02124</ele>
        <time>2013-05-22T19:03:49Z</time>
      </trkpt>
      <trkpt lat="59.8184429" lon="17.6688283">
        <ele>3.50195</ele>
        <time>2013-05-22T19:03:50Z</time>
      </trkpt>
      <trkpt lat="59.8184183" lon="17.6688219">
        <ele>3.50195</ele>
        <time>2013-05-22T19:03:51Z</time>
      </trkpt>
      <trkpt lat="59.8183897" lon="17.6688055">
        <ele>3.50195</ele>
        <time>2013-05-22T19:03:52Z</time>
      </trkpt>
      <trkpt lat="59.8183659" lon="17.6687887">
        <ele>3.98267</ele>
        <time>2013-05-22T19:03:53Z</time>
      </trkpt>
      <trkpt lat="59.8183369" lon="17.6687703">
        <ele>3.50195</ele>
        <time>2013-05-22T19:03:54Z</time>
      </trkpt>
      <trkpt lat="59.8183115" lon="17.6687532">
        <ele>3.98267</ele>
        <time>2013-05-22T19:03:55Z</time>
      </trkpt>
      <trkpt lat="59.8182899" lon="17.6687366">
        <ele>4.46326</ele>
        <time>2013-05-22T19:03:56Z</time>
      </trkpt>
      <trkpt lat="59.8182691" lon="17.6687207">
        <ele>4.94385</ele>
        <time>2013-05-22T19:03:57Z</time>
      </trkpt>
      <trkpt lat="59.8182519" lon="17.6687033">
        <ele>5.42456</ele>
        <time>2013-05-22T19:03:58Z</time>
      </trkpt>
      <trkpt lat="59.8182287" lon="17.6686942">
        <ele>5.42456</ele>
        <time>2013-05-22T19:03:59Z</time>
      </trkpt>
      <trkpt lat="59.8182065" lon="17.6686838">
        <ele>5.90527</ele>
        <time>2013-05-22T19:04:00Z</time>
      </trkpt>
      <trkpt lat="59.8181803" lon="17.6686725">
        <ele>5.42456</ele>
        <time>2013-05-22T19:04:01Z</time>
      </trkpt>
      <trkpt lat="59.818157" lon="17.6686501">
        <ele>5.42456</ele>
        <time>2013-05-22T19:04:02Z</time>
      </trkpt>
      <trkpt lat="59.8181432" lon="17.6686325">
        <ele>5.90527</ele>
        <time>2013-05-22T19:04:03Z</time>
      </trkpt>
      <trkpt lat="59.818124" lon="17.6686335">
        <ele>6.38586</ele>
        <time>2013-05-22T19:04:04Z</time>
      </trkpt>
      <trkpt lat="59.8181054" lon="17.6686269">
        <ele>6.38586</ele>
        <time>2013-05-22T19:04:05Z</time>
      </trkpt>
      <trkpt lat="59.8180796" lon="17.6686267">
        <ele>6.86646</ele>
        <time>2013-05-22T19:04:06Z</time>
      </trkpt>
      <trkpt lat="59.8180586" lon="17.6686092">
        <ele>7.34717</ele>
        <time>2013-05-22T19:04:07Z</time>
      </trkpt>
      <trkpt lat="59.8180399" lon="17.668591">
        <ele>7.34717</ele>
        <time>2013-05-22T19:04:08Z</time>
      </trkpt>
      <trkpt lat="59.8180183" lon="17.6685772">
        <ele>7.34717</ele>
        <time>2013-05-22T19:04:09Z</time>
      </trkpt>
      <trkpt lat="59.8180012" lon="17.6685629">
        <ele>7.82788</ele>
        <time>2013-05-22T19:04:10Z</time>
      </trkpt>
      <trkpt lat="59.8179748" lon="17.6685513">
        <ele>8.30859</ele>
        <time>2013-05-22T19:04:11Z</time>
      </trkpt>
      <trkpt lat="59.8179472" lon="17.6685407">
        <ele>8.30859</ele>
        <time>2013-05-22T19:04:12Z</time>
      </trkpt>
      <trkpt lat="59.8179281" lon="17.6685237">
        <ele>8.78918</ele>
        <time>2013-05-22T19:04:13Z</time>
      </trkpt>
      <trkpt lat="59.8179052" lon="17.6685142">
        <ele>8.78918</ele>
        <time>2013-05-22T19:04:14Z</time>
      </trkpt>
      <trkpt lat="59.8178821" lon="17.6685054">
        <ele>8.30859</ele>
        <time>2013-05-22T19:04:15Z</time>
      </trkpt>
      <trkpt lat="59.817854" lon="17.6684912">
        <ele>7.82788</ele>
        <time>2013-05-22T19:04:16Z</time>
      </trkpt>
      <trkpt lat="59.8178277" lon="17.6684758">
        <ele>7.34717</ele>
        <time>2013-05-22T19:04:17Z</time>
      </trkpt>
      <trkpt lat="59.8178066" lon="17.6684639">
        <ele>7.34717</ele>
        <time>2013-05-22T19:04:18Z</time>
      </trkpt>
      <trkpt lat="59.8177855" lon="17.6684454">
        <ele>6.86646</ele>
        <time>2013-05-22T19:04:19Z</time>
      </trkpt>
      <trkpt lat="59.8177605" lon="17.668437">
        <ele>6.86646</ele>
        <time>2013-05-22T19:04:20Z</time>
      </trkpt>
      <trkpt lat="59.8177355" lon="17.6684336">
        <ele>6.86646</ele>
        <time>2013-05-22T19:04:21Z</time>
      </trkpt>
      <trkpt lat="59.8177112" lon="17.6684254">
        <ele>5.90527</ele>
        <time>2013-05-22T19:04:22Z</time>
      </trkpt>
      <trkpt lat="59.8176899" lon="17.6684232">
        <ele>5.90527</ele>
        <time>2013-05-22T19:04:23Z</time>
      </trkpt>
      <trkpt lat="59.8176672" lon="17.6684259">
        <ele>5.42456</ele>
        <time>2013-05-22T19:04:24Z</time>
      </trkpt>
      <trkpt lat="59.8176432" lon="17.6684319">
        <ele>5.42456</ele>
        <time>2013-05-22T19:04:25Z</time>
      </trkpt>
      <trkpt lat="59.8176162" lon="17.6684367">
        <ele>5.42456</ele>
        <time>2013-05-22T19:04:26Z</time>
      </trkpt>
      <trkpt lat="59.8175863" lon="17.6684409">
        <ele>4.94385</ele>
        <time>2013-05-22T19:04:27Z</time>
      </trkpt>
      <trkpt lat="59.8175581" lon="17.6684377">
        <ele>4.46326</ele>
        <time>2013-05-22T19:04:28Z</time>
      </trkpt>
      <trkpt lat="59.8175359" lon="17.668432">
        <ele>3.98267</ele>
        <time>2013-05-22T19:04:29Z</time>
      </trkpt>
      <trkpt lat="59.8175169" lon="17.6684268">
        <ele>4.46326</ele>
        <time>2013-05-22T19:04:30Z</time>
      </trkpt>
      <trkpt lat="59.8175003" lon="17.6684078">
        <ele>4.46326</ele>
        <time>2013-05-22T19:04:31Z</time>
      </trkpt>
      <trkpt lat="59.8174796" lon="17.6683862">
        <ele>3.50195</ele>
        <time>2013-05-22T19:04:32Z</time>
      </trkpt>
      <trkpt lat="59.8174598" lon="17.6683647">
        <ele>3.02124</ele>
        <time>2013-05-22T19:04:33Z</time>
      </trkpt>
      <trkpt lat="59.8174453" lon="17.6683412">
        <ele>3.02124</ele>
        <time>2013-05-22T19:04:34Z</time>
      </trkpt>
      <trkpt lat="59.81743" lon="17.6683212">
        <ele>3.02124</ele>
        <time>2013-05-22T19:04:35Z</time>
      </trkpt>
      <trkpt lat="59.8174111" lon="17.6683">
        <ele>2.06006</ele>
        <time>2013-05-22T19:04:36Z</time>
      </trkpt>
      <trkpt lat="59.8173878" lon="17.6682795">
        <ele>1.57935</ele>
        <time>2013-05-22T19:04:37Z</time>
      </trkpt>
      <trkpt lat="59.8173687" lon="17.6682694">
        <ele>2.06006</ele>
        <time>2013-05-22T19:04:38Z</time>
      </trkpt>
      <trkpt lat="59.817353" lon="17.6682604">
        <ele>2.06006</ele>
        <time>2013-05-22T19:04:39Z</time>
      </trkpt>
      <trkpt lat="59.8173331" lon="17.6682528">
        <ele>2.06006</ele>
        <time>2013-05-22T19:04:40Z</time>
      </trkpt>
      <trkpt lat="59.8173124" lon="17.668245">
        <ele>2.54065</ele>
        <time>2013-05-22T19:04:41Z</time>
      </trkpt>
      <trkpt lat="59.8172946" lon="17.6682378">
        <ele>3.02124</ele>
        <time>2013-05-22T19:04:42Z</time>
      </trkpt>
      <trkpt lat="59.8172771" lon="17.6682313">
        <ele>3.98267</ele>
        <time>2013-05-22T19:04:43Z</time>
      </trkpt>
      <trkpt lat="59.8172609" lon="17.6682269">
        <ele>4.46326</ele>
        <time>2013-05-22T19:04:44Z</time>
      </trkpt>
      <trkpt lat="59.8172368" lon="17.6682244">
        <ele>4.94385</ele>
        <time>2013-05-22T19:04:45Z</time>
      </trkpt>
      <trkpt lat="59.8172117" lon="17.6682223">
        <ele>5.42456</ele>
        <time>2013-05-22T19:04:46Z</time>
      </trkpt>
      <trkpt lat="59.81719" lon="17.66822">
        <ele>5.90527</ele>
        <time>2013-05-22T19:04:47Z</time>
      </trkpt>
      <trkpt lat="59.8171622" lon="17.6682348">
        <ele>5.90527</ele>
        <time>2013-05-22T19:04:48Z</time>
      </trkpt>
      <trkpt lat="59.8171402" lon="17.668246">
        <ele>5.90527</ele>
        <time>2013-05-22T19:04:49Z</time>
      </trkpt>
      <trkpt lat="59.817114" lon="17.668259">
        <ele>5.90527</ele>
        <time>2013-05-22T19:04:50Z</time>
      </trkpt>
      <trkpt lat="59.8170912" lon="17.66826">
        <ele>6.38586</ele>
        <time>2013-05-22T19:04:51Z</time>
      </trkpt>
      <trkpt lat="59.8170611" lon="17.6682698">
        <ele>6.86646</ele>
        <time>2013-05-22T19:04:52Z</time>
      </trkpt>
      <trkpt lat="59.817035" lon="17.6682725">
        <ele>6.86646</ele>
        <time>2013-05-22T19:04:53Z</time>
      </trkpt>
      <trkpt lat="59.8170119" lon="17.6682714">
        <ele>6.86646</ele>
        <time>2013-05-22T19:04:54Z</time>
      </trkpt>
      <trkpt lat="59.8169847" lon="17.6682734">
        <ele>7.34717</ele>
        <time>2013-05-22T19:04:55Z</time>
      </trkpt>
      <trkpt lat="59.8169646" lon="17.6682738">
        <ele>7.34717</ele>
        <time>2013-05-22T19:04:56Z</time>
      </trkpt>
      <trkpt lat="59.8169433" lon="17.6682774">
        <ele>7.82788</ele>
        <time>2013-05-22T19:04:57Z</time>
      </trkpt>
      <trkpt lat="59.8169208" lon="17.6682767">
        <ele>8.30859</ele>
        <time>2013-05-22T19:04:58Z</time>
      </trkpt>
      <trkpt lat="59.8168996" lon="17.6682703">
        <ele>8.78918</ele>
        <time>2013-05-22T19:04:59Z</time>
      </trkpt>
      <trkpt lat="59.8168766" lon="17.6682709">
        <ele>8.78918</ele>
        <time>2013-05-22T19:05:00Z</time>
      </trkpt>
      <trkpt lat="59.8168614" lon="17.66826">
        <ele>9.2699</ele>
        <time>2013-05-22T19:05:01Z</time>
      </trkpt>
      <trkpt lat="59.8168479" lon="17.6682507">
        <ele>9.2699</ele>
        <time>2013-05-22T19:05:02Z</time>
      </trkpt>
      <trkpt lat="59.8168294" lon="17.6682415">
        <ele>9.75061</ele>
        <time>2013-05-22T19:05:03Z</time>
      </trkpt>
      <trkpt lat="59.8168078" lon="17.6682304">
        <ele>10.2312</ele>
        <time>2013-05-22T19:05:04Z</time>
      </trkpt>
      <trkpt lat="59.8167808" lon="17.668221">
        <ele>10.2312</ele>
        <time>2013-05-22T19:05:05Z</time>
      </trkpt>
      <trkpt lat="59.8167524" lon="17.668216">
        <ele>11.1925</ele>
        <time>2013-05-22T19:05:06Z</time>
      </trkpt>
      <trkpt lat="59.8167181" lon="17.668215">
        <ele>11.1925</ele>
        <time>2013-05-22T19:05:07Z</time>
      </trkpt>
      <trkpt lat="59.8166874" lon="17.6682098">
        <ele>11.6732</ele>
        <time>2013-05-22T19:05:08Z</time>
      </trkpt>
      <trkpt lat="59.8166658" lon="17.6682094">
        <ele>12.6344</ele>
        <time>2013-05-22T19:05:09Z</time>
      </trkpt>
      <trkpt lat="59.8166457" lon="17.6681987">
        <ele>12.6344</ele>
        <time>2013-05-22T19:05:10Z</time>
      </trkpt>
      <trkpt lat="59.8166244" lon="17.6681821">
        <ele>13.5958</ele>
        <time>2013-05-22T19:05:11Z</time>
      </trkpt>
      <trkpt lat="59.8166078" lon="17.6681704">
        <ele>13.5958</ele>
        <time>2013-05-22T19:05:12Z</time>
      </trkpt>
      <trkpt lat="59.8165906" lon="17.6681622">
        <ele>13.5958</ele>
        <time>2013-05-22T19:05:13Z</time>
      </trkpt>
      <trkpt lat="59.8165748" lon="17.6681538">
        <ele>14.0764</ele>
        <time>2013-05-22T19:05:14Z</time>
      </trkpt>
      <trkpt lat="59.8165504" lon="17.668159">
        <ele>15.0377</ele>
        <time>2013-05-22T19:05:15Z</time>
      </trkpt>
      <trkpt lat="59.8165164" lon="17.6681659">
        <ele>15.5184</ele>
        <time>2013-05-22T19:05:16Z</time>
      </trkpt>
      <trkpt lat="59.8164985" lon="17.6681451">
        <ele>15.999</ele>
        <time>2013-05-22T19:05:17Z</time>
      </trkpt>
      <trkpt lat="59.8164804" lon="17.6681315">
        <ele>16.4797</ele>
        <time>2013-05-22T19:05:18Z</time>
      </trkpt>
      <trkpt lat="59.8164504" lon="17.6681285">
        <ele>16.4797</ele>
        <time>2013-05-22T19:05:19Z</time>
      </trkpt>
      <trkpt lat="59.8164292" lon="17.6681089">
        <ele>16.4797</ele>
        <time>2013-05-22T19:05:20Z</time>
      </trkpt>
      <trkpt lat="59.8164053" lon="17.668107">
        <ele>15.999</ele>
        <time>2013-05-22T19:05:21Z</time>
      </trkpt>
      <trkpt lat="59.8163862" lon="17.6681001">
        <ele>16.4797</ele>
        <time>2013-05-22T19:05:22Z</time>
      </trkpt>
      <trkpt lat="59.8163612" lon="17.6680932">
        <ele>15.999</ele>
        <time>2013-05-22T19:05:23Z</time>
      </trkpt>
      <trkpt lat="59.8163274" lon="17.6680931">
        <ele>15.5184</ele>
        <time>2013-05-22T19:05:24Z</time>
      </trkpt>
      <trkpt lat="59.8162966" lon="17.6680915">
        <ele>15.999</ele>
        <time>2013-05-22T19:05:25Z</time>
      </trkpt>
      <trkpt lat="59.8162689" lon="17.6680848">
        <ele>15.999</ele>
        <time>2013-05-22T19:05:26Z</time>
      </trkpt>
      <trkpt lat="59.8162388" lon="17.6680765">
        <ele>15.5184</ele>
        <time>2013-05-22T19:05:27Z</time>
      </trkpt>
      <trkpt lat="59.8162126" lon="17.6680637">
        <ele>15.5184</ele>
        <time>2013-05-22T19:05:28Z</time>
      </trkpt>
      <trkpt lat="59.8161922" lon="17.6680486">
        <ele>15.0377</ele>
        <time>2013-05-22T19:05:29Z</time>
      </trkpt>
      <trkpt lat="59.816171" lon="17.6680373">
        <ele>14.557</ele>
        <time>2013-05-22T19:05:30Z</time>
      </trkpt>
      <trkpt lat="59.8161479" lon="17.6680274">
        <ele>14.0764</ele>
        <time>2013-05-22T19:05:31Z</time>
      </trkpt>
      <trkpt lat="59.8161328" lon="17.6680162">
        <ele>13.5958</ele>
        <time>2013-05-22T19:05:32Z</time>
      </trkpt>
      <trkpt lat="59.8161173" lon="17.6680041">
        <ele>13.1151</ele>
        <time>2013-05-22T19:05:33Z</time>
      </trkpt>
      <trkpt lat="59.8160976" lon="17.6679949">
        <ele>13.5958</ele>
        <time>2013-05-22T19:05:34Z</time>
      </trkpt>
      <trkpt lat="59.8160839" lon="17.6679839">
        <ele>13.1151</ele>
        <time>2013-05-22T19:05:35Z</time>
      </trkpt>
      <trkpt lat="59.8160639" lon="17.6679786">
        <ele>13.5958</ele>
        <time>2013-05-22T19:05:36Z</time>
      </trkpt>
      <trkpt lat="59.8160367" lon="17.6679725">
        <ele>13.5958</ele>
        <time>2013-05-22T19:05:37Z</time>
      </trkpt>
      <trkpt lat="59.8160167" lon="17.6679632">
        <ele>13.5958</ele>
        <time>2013-05-22T19:05:38Z</time>
      </trkpt>
      <trkpt lat="59.8159918" lon="17.667962">
        <ele>13.1151</ele>
        <time>2013-05-22T19:05:39Z</time>
      </trkpt>
      <trkpt lat="59.8159704" lon="17.6679539">
        <ele>13.5958</ele>
        <time>2013-05-22T19:05:40Z</time>
      </trkpt>
      <trkpt lat="59.8159488" lon="17.6679373">
        <ele>14.0764</ele>
        <time>2013-05-22T19:05:41Z</time>
      </trkpt>
      <trkpt lat="59.8159256" lon="17.6679275">
        <ele>14.0764</ele>
        <time>2013-05-22T19:05:42Z</time>
      </trkpt>
      <trkpt lat="59.8159076" lon="17.6679099">
        <ele>14.0764</ele>
        <time>2013-05-22T19:05:43Z</time>
      </trkpt>
      <trkpt lat="59.8158919" lon="17.6678917">
        <ele>13.1151</ele>
        <time>2013-05-22T19:05:44Z</time>
      </trkpt>
      <trkpt lat="59.8158665" lon="17.6678798">
        <ele>13.1151</ele>
        <time>2013-05-22T19:05:45Z</time>
      </trkpt>
      <trkpt lat="59.8158453" lon="17.6678687">
        <ele>13.1151</ele>
        <time>2013-05-22T19:05:46Z</time>
      </trkpt>
      <trkpt lat="59.8158192" lon="17.6678661">
        <ele>13.1151</ele>
        <time>2013-05-22T19:05:47Z</time>
      </trkpt>
      <trkpt lat="59.8157903" lon="17.6678606">
        <ele>12.6344</ele>
        <time>2013-05-22T19:05:48Z</time>
      </trkpt>
      <trkpt lat="59.8157671" lon="17.6678549">
        <ele>12.6344</ele>
        <time>2013-05-22T19:05:49Z</time>
      </trkpt>
      <trkpt lat="59.8157415" lon="17.6678494">
        <ele>13.1151</ele>
        <time>2013-05-22T19:05:50Z</time>
      </trkpt>
      <trkpt lat="59.8157158" lon="17.6678409">
        <ele>13.5958</ele>
        <time>2013-05-22T19:05:51Z</time>
      </trkpt>
      <trkpt lat="59.8156926" lon="17.66783">
        <ele>14.0764</ele>
        <time>2013-05-22T19:05:52Z</time>
      </trkpt>
      <trkpt lat="59.8156762" lon="17.6678207">
        <ele>13.5958</ele>
        <time>2013-05-22T19:05:53Z</time>
      </trkpt>
      <trkpt lat="59.8156539" lon="17.6678188">
        <ele>14.557</ele>
        <time>2013-05-22T19:05:54Z</time>
      </trkpt>
      <trkpt lat="59.8156241" lon="17.6678041">
        <ele>14.0764</ele>
        <time>2013-05-22T19:05:55Z</time>
      </trkpt>
      <trkpt lat="59.8155972" lon="17.6677917">
        <ele>14.0764</ele>
        <time>2013-05-22T19:05:56Z</time>
      </trkpt>
      <trkpt lat="59.815575" lon="17.6677757">
        <ele>14.557</ele>
        <time>2013-05-22T19:05:57Z</time>
      </trkpt>
      <trkpt lat="59.815556" lon="17.6677581">
        <ele>14.557</ele>
        <time>2013-05-22T19:05:58Z</time>
      </trkpt>
      <trkpt lat="59.8155324" lon="17.6677529">
        <ele>13.5958</ele>
        <time>2013-05-22T19:05:59Z</time>
      </trkpt>
      <trkpt lat="59.8155071" lon="17.6677476">
        <ele>13.5958</ele>
        <time>2013-05-22T19:06:00Z</time>
      </trkpt>
      <trkpt lat="59.815478" lon="17.6677486">
        <ele>13.5958</ele>
        <time>2013-05-22T19:06:01Z</time>
      </trkpt>
      <trkpt lat="59.8154563" lon="17.6677446">
        <ele>14.0764</ele>
        <time>2013-05-22T19:06:02Z</time>
      </trkpt>
      <trkpt lat="59.8154302" lon="17.6677315">
        <ele>14.0764</ele>
        <time>2013-05-22T19:06:03Z</time>
      </trkpt>
      <trkpt lat="59.8154053" lon="17.6677161">
        <ele>13.1151</ele>
        <time>2013-05-22T19:06:04Z</time>
      </trkpt>
      <trkpt lat="59.8153846" lon="17.6676986">
        <ele>12.6344</ele>
        <time>2013-05-22T19:06:05Z</time>
      </trkpt>
      <trkpt lat="59.8153608" lon="17.6676795">
        <ele>12.6344</ele>
        <time>2013-05-22T19:06:06Z</time>
      </trkpt>
      <trkpt lat="59.8153354" lon="17.667661">
        <ele>12.1538</ele>
        <time>2013-05-22T19:06:07Z</time>
      </trkpt>
      <trkpt lat="59.8153123" lon="17.6676478">
        <ele>12.1538</ele>
        <time>2013-05-22T19:06:08Z</time>
      </trkpt>
      <trkpt lat="59.8152882" lon="17.6676291">
        <ele>12.1538</ele>
        <time>2013-05-22T19:06:09Z</time>
      </trkpt>
      <trkpt lat="59.8152639" lon="17.6676167">
        <ele>11.1925</ele>
        <time>2013-05-22T19:06:10Z</time>
      </trkpt>
      <trkpt lat="59.8152404" lon="17.6676108">
        <ele>11.1925</ele>
        <time>2013-05-22T19:06:11Z</time>
      </trkpt>
      <trkpt lat="59.8152141" lon="17.6676035">
        <ele>11.1925</ele>
        <time>2013-05-22T19:06:12Z</time>
      </trkpt>
      <trkpt lat="59.8151895" lon="17.6675859">
        <ele>10.2312</ele>
        <time>2013-05-22T19:06:13Z</time>
      </trkpt>
      <trkpt lat="59.8151661" lon="17.6675613">
        <ele>9.75061</ele>
        <time>2013-05-22T19:06:14Z</time>
      </trkpt>
      <trkpt lat="59.8151392" lon="17.6675408">
        <ele>9.2699</ele>
        <time>2013-05-22T19:06:15Z</time>
      </trkpt>
      <trkpt lat="59.8151221" lon="17.6675079">
        <ele>8.78918</ele>
        <time>2013-05-22T19:06:16Z</time>
      </trkpt>
      <trkpt lat="59.8151004" lon="17.6674818">
        <ele>8.30859</ele>
        <time>2013-05-22T19:06:17Z</time>
      </trkpt>
      <trkpt lat="59.8150844" lon="17.6674489">
        <ele>8.30859</ele>
        <time>2013-05-22T19:06:18Z</time>
      </trkpt>
      <trkpt lat="59.8150702" lon="17.6674178">
        <ele>7.82788</ele>
        <time>2013-05-22T19:06:19Z</time>
      </trkpt>
      <trkpt lat="59.8150563" lon="17.667381">
        <ele>7.34717</ele>
        <time>2013-05-22T19:06:20Z</time>
      </trkpt>
      <trkpt lat="59.815044" lon="17.6673384">
        <ele>6.86646</ele>
        <time>2013-05-22T19:06:21Z</time>
      </trkpt>
      <trkpt lat="59.8150304" lon="17.6672929">
        <ele>6.86646</ele>
        <time>2013-05-22T19:06:22Z</time>
      </trkpt>
      <trkpt lat="59.8150197" lon="17.6672493">
        <ele>6.38586</ele>
        <time>2013-05-22T19:06:23Z</time>
      </trkpt>
      <trkpt lat="59.8150123" lon="17.6672049">
        <ele>5.90527</ele>
        <time>2013-05-22T19:06:24Z</time>
      </trkpt>
      <trkpt lat="59.8150088" lon="17.6671589">
        <ele>5.42456</ele>
        <time>2013-05-22T19:06:25Z</time>
      </trkpt>
      <trkpt lat="59.8150072" lon="17.6671119">
        <ele>5.90527</ele>
        <time>2013-05-22T19:06:26Z</time>
      </trkpt>
      <trkpt lat="59.8150064" lon="17.6670628">
        <ele>5.90527</ele>
        <time>2013-05-22T19:06:27Z</time>
      </trkpt>
      <trkpt lat="59.8150047" lon="17.6670174">
        <ele>5.90527</ele>
        <time>2013-05-22T19:06:28Z</time>
      </trkpt>
      <trkpt lat="59.8150033" lon="17.6669748">
        <ele>5.42456</ele>
        <time>2013-05-22T19:06:29Z</time>
      </trkpt>
      <trkpt lat="59.8150034" lon="17.6669257">
        <ele>5.42456</ele>
        <time>2013-05-22T19:06:30Z</time>
      </trkpt>
      <trkpt lat="59.8150021" lon="17.6668826">
        <ele>4.94385</ele>
        <time>2013-05-22T19:06:31Z</time>
      </trkpt>
      <trkpt lat="59.8150028" lon="17.6668396">
        <ele>4.46326</ele>
        <time>2013-05-22T19:06:32Z</time>
      </trkpt>
      <trkpt lat="59.8150051" lon="17.6667933">
        <ele>4.46326</ele>
        <time>2013-05-22T19:06:33Z</time>
      </trkpt>
      <trkpt lat="59.8150057" lon="17.6667428">
        <ele>4.46326</ele>
        <time>2013-05-22T19:06:34Z</time>
      </trkpt>
      <trkpt lat="59.8150061" lon="17.6666937">
        <ele>3.98267</ele>
        <time>2013-05-22T19:06:35Z</time>
      </trkpt>
      <trkpt lat="59.815004" lon="17.6666426">
        <ele>3.98267</ele>
        <time>2013-05-22T19:06:36Z</time>
      </trkpt>
      <trkpt lat="59.8150086" lon="17.6665934">
        <ele>3.98267</ele>
        <time>2013-05-22T19:06:37Z</time>
      </trkpt>
      <trkpt lat="59.8150138" lon="17.6665462">
        <ele>3.98267</ele>
        <time>2013-05-22T19:06:38Z</time>
      </trkpt>
      <trkpt lat="59.8150149" lon="17.6665017">
        <ele>3.98267</ele>
        <time>2013-05-22T19:06:39Z</time>
      </trkpt>
      <trkpt lat="59.8150155" lon="17.6664556">
        <ele>4.94385</ele>
        <time>2013-05-22T19:06:40Z</time>
      </trkpt>
      <trkpt lat="59.8150176" lon="17.6664075">
        <ele>4.94385</ele>
        <time>2013-05-22T19:06:41Z</time>
      </trkpt>
      <trkpt lat="59.8150165" lon="17.6663619">
        <ele>4.94385</ele>
        <time>2013-05-22T19:06:42Z</time>
      </trkpt>
      <trkpt lat="59.8150139" lon="17.6663164">
        <ele>4.94385</ele>
        <time>2013-05-22T19:06:43Z</time>
      </trkpt>
      <trkpt lat="59.8150132" lon="17.6662727">
        <ele>4.94385</ele>
        <time>2013-05-22T19:06:44Z</time>
      </trkpt>
      <trkpt lat="59.8150164" lon="17.6662346">
        <ele>5.90527</ele>
        <time>2013-05-22T19:06:45Z</time>
      </trkpt>
      <trkpt lat="59.8150155" lon="17.6661927">
        <ele>6.38586</ele>
        <time>2013-05-22T19:06:46Z</time>
      </trkpt>
      <trkpt lat="59.8150166" lon="17.6661537">
        <ele>6.86646</ele>
        <time>2013-05-22T19:06:47Z</time>
      </trkpt>
      <trkpt lat="59.8150171" lon="17.6661133">
        <ele>7.34717</ele>
        <time>2013-05-22T19:06:48Z</time>
      </trkpt>
      <trkpt lat="59.8150163" lon="17.6660695">
        <ele>7.34717</ele>
        <time>2013-05-22T19:06:49Z</time>
      </trkpt>
      <trkpt lat="59.8150147" lon="17.6660299">
        <ele>7.82788</ele>
        <time>2013-05-22T19:06:50Z</time>
      </trkpt>
      <trkpt lat="59.8150113" lon="17.665988">
        <ele>7.82788</ele>
        <time>2013-05-22T19:06:51Z</time>
      </trkpt>
      <trkpt lat="59.8150121" lon="17.6659426">
        <ele>7.82788</ele>
        <time>2013-05-22T19:06:52Z</time>
      </trkpt>
      <trkpt lat="59.8150108" lon="17.6659044">
        <ele>8.30859</ele>
        <time>2013-05-22T19:06:53Z</time>
      </trkpt>
      <trkpt lat="59.8150085" lon="17.6658635">
        <ele>8.30859</ele>
        <time>2013-05-22T19:06:54Z</time>
      </trkpt>
      <trkpt lat="59.8150088" lon="17.6658211">
        <ele>9.2699</ele>
        <time>2013-05-22T19:06:55Z</time>
      </trkpt>
      <trkpt lat="59.8150081" lon="17.6657797">
        <ele>9.75061</ele>
        <time>2013-05-22T19:06:56Z</time>
      </trkpt>
      <trkpt lat="59.8150087" lon="17.6657395">
        <ele>9.2699</ele>
        <time>2013-05-22T19:06:57Z</time>
      </trkpt>
      <trkpt lat="59.8150128" lon="17.6656981">
        <ele>10.2312</ele>
        <time>2013-05-22T19:06:58Z</time>
      </trkpt>
      <trkpt lat="59.8150228" lon="17.6656632">
        <ele>11.6732</ele>
        <time>2013-05-22T19:06:59Z</time>
      </trkpt>
      <trkpt lat="59.8150422" lon="17.6656463">
        <ele>12.6344</ele>
        <time>2013-05-22T19:07:00Z</time>
      </trkpt>
      <trkpt lat="59.8150701" lon="17.6656377">
        <ele>13.5958</ele>
        <time>2013-05-22T19:07:01Z</time>
      </trkpt>
      <trkpt lat="59.8150915" lon="17.6656279">
        <ele>14.557</ele>
        <time>2013-05-22T19:07:02Z</time>
      </trkpt>
      <trkpt lat="59.8151133" lon="17.6656151">
        <ele>14.557</ele>
        <time>2013-05-22T19:07:03Z</time>
      </trkpt>
      <trkpt lat="59.8151375" lon="17.6656016">
        <ele>14.557</ele>
        <time>2013-05-22T19:07:04Z</time>
      </trkpt>
      <trkpt lat="59.8151639" lon="17.6655917">
        <ele>15.0377</ele>
        <time>2013-05-22T19:07:05Z</time>
      </trkpt>
      <trkpt lat="59.8151833" lon="17.6655897">
        <ele>15.0377</ele>
        <time>2013-05-22T19:07:06Z</time>
      </trkpt>
      <trkpt lat="59.8151984" lon="17.6655897">
        <ele>14.0764</ele>
        <time>2013-05-22T19:07:07Z</time>
      </trkpt>
      <trkpt lat="59.8152144" lon="17.6655932">
        <ele>14.0764</ele>
        <time>2013-05-22T19:07:08Z</time>
      </trkpt>
      <trkpt lat="59.8152381" lon="17.6655928">
        <ele>14.0764</ele>
        <time>2013-05-22T19:07:09Z</time>
      </trkpt>
      <trkpt lat="59.8152609" lon="17.6655927">
        <ele>13.5958</ele>
        <time>2013-05-22T19:07:10Z</time>
      </trkpt>
      <trkpt lat="59.8152796" lon="17.6655922">
        <ele>13.1151</ele>
        <time>2013-05-22T19:07:11Z</time>
      </trkpt>
      <trkpt lat="59.8152972" lon="17.6655918">
        <ele>12.1538</ele>
        <time>2013-05-22T19:07:12Z</time>
      </trkpt>
      <trkpt lat="59.8153178" lon="17.6655907">
        <ele>12.1538</ele>
        <time>2013-05-22T19:07:13Z</time>
      </trkpt>
      <trkpt lat="59.8153314" lon="17.6655892">
        <ele>11.1925</ele>
        <time>2013-05-22T19:07:14Z</time>
      </trkpt>
      <trkpt lat="59.8153387" lon="17.665597">
        <ele>10.7118</ele>
        <time>2013-05-22T19:07:15Z</time>
      </trkpt>
      <trkpt lat="59.815349" lon="17.6656081">
        <ele>10.7118</ele>
        <time>2013-05-22T19:07:16Z</time>
      </trkpt>
      <trkpt lat="59.8153542" lon="17.6656109">
        <ele>10.7118</ele>
        <time>2013-05-22T19:07:17Z</time>
      </trkpt>
      <trkpt lat="59.8153675" lon="17.665615">
        <ele>10.2312</ele>
        <time>2013-05-22T19:07:18Z</time>
      </trkpt>
      <trkpt lat="59.8153835" lon="17.6656187">
        <ele>9.2699</ele>
        <time>2013-05-22T19:07:19Z</time>
      </trkpt>
      <trkpt lat="59.8153982" lon="17.6656218">
        <ele>8.78918</ele>
        <time>2013-05-22T19:07:20Z</time>
      </trkpt>
      <trkpt lat="59.8154138" lon="17.6656202">
        <ele>7.34717</ele>
        <time>2013-05-22T19:07:21Z</time>
      </trkpt>
      <trkpt lat="59.8154314" lon="17.6656228">
        <ele>6.38586</ele>
        <time>2013-05-22T19:07:22Z</time>
      </trkpt>
      <trkpt lat="59.8154516" lon="17.6656283">
        <ele>6.86646</ele>
        <time>2013-05-22T19:07:23Z</time>
      </trkpt>
      <trkpt lat="59.8154744" lon="17.6656244">
        <ele>6.38586</ele>
        <time>2013-05-22T19:07:24Z</time>
      </trkpt>
      <trkpt lat="59.815493" lon="17.6656226">
        <ele>6.38586</ele>
        <time>2013-05-22T19:07:25Z</time>
      </trkpt>
      <trkpt lat="59.8155105" lon="17.6656187">
        <ele>4.94385</ele>
        <time>2013-05-22T19:07:26Z</time>
      </trkpt>
      <trkpt lat="59.8155344" lon="17.6656162">
        <ele>4.94385</ele>
        <time>2013-05-22T19:07:27Z</time>
      </trkpt>
      <trkpt lat="59.8155619" lon="17.6656176">
        <ele>5.42456</ele>
        <time>2013-05-22T19:07:28Z</time>
      </trkpt>
      <trkpt lat="59.8155796" lon="17.6656195">
        <ele>5.42456</ele>
        <time>2013-05-22T19:07:29Z</time>
      </trkpt>
      <trkpt lat="59.8155952" lon="17.6656228">
        <ele>4.94385</ele>
        <time>2013-05-22T19:07:30Z</time>
      </trkpt>
      <trkpt lat="59.8156149" lon="17.66563">
        <ele>4.94385</ele>
        <time>2013-05-22T19:07:31Z</time>
      </trkpt>
      <trkpt lat="59.8156318" lon="17.6656331">
        <ele>4.94385</ele>
        <time>2013-05-22T19:07:32Z</time>
      </trkpt>
      <trkpt lat="59.8156521" lon="17.665627">
        <ele>4.94385</ele>
        <time>2013-05-22T19:07:33Z</time>
      </trkpt>
      <trkpt lat="59.8156715" lon="17.6656255">
        <ele>4.94385</ele>
        <time>2013-05-22T19:07:34Z</time>
      </trkpt>
      <trkpt lat="59.8156848" lon="17.6656336">
        <ele>4.46326</ele>
        <time>2013-05-22T19:07:35Z</time>
      </trkpt>
      <trkpt lat="59.8157042" lon="17.6656345">
        <ele>3.98267</ele>
        <time>2013-05-22T19:07:36Z</time>
      </trkpt>
      <trkpt lat="59.8157241" lon="17.6656358">
        <ele>3.50195</ele>
        <time>2013-05-22T19:07:37Z</time>
      </trkpt>
      <trkpt lat="59.8157469" lon="17.665643">
        <ele>3.98267</ele>
        <time>2013-05-22T19:07:38Z</time>
      </trkpt>
      <trkpt lat="59.815768" lon="17.6656421">
        <ele>3.50195</ele>
        <time>2013-05-22T19:07:39Z</time>
      </trkpt>
      <trkpt lat="59.8157925" lon="17.6656389">
        <ele>3.02124</ele>
        <time>2013-05-22T19:07:40Z</time>
      </trkpt>
      <trkpt lat="59.8158164" lon="17.6656409">
        <ele>3.02124</ele>
        <time>2013-05-22T19:07:41Z</time>
      </trkpt>
      <trkpt lat="59.8158401" lon="17.6656414">
        <ele>3.50195</ele>
        <time>2013-05-22T19:07:42Z</time>
      </trkpt>
      <trkpt lat="59.8158578" lon="17.6656446">
        <ele>3.98267</ele>
        <time>2013-05-22T19:07:43Z</time>
      </trkpt>
      <trkpt lat="59.8158764" lon="17.6656472">
        <ele>3.98267</ele>
        <time>2013-05-22T19:07:44Z</time>
      </trkpt>
      <trkpt lat="59.815896" lon="17.6656498">
        <ele>4.46326</ele>
        <time>2013-05-22T19:07:45Z</time>
      </trkpt>
      <trkpt lat="59.8159239" lon="17.665643">
        <ele>5.42456</ele>
        <time>2013-05-22T19:07:46Z</time>
      </trkpt>
      <trkpt lat="59.8159459" lon="17.6656472">
        <ele>6.38586</ele>
        <time>2013-05-22T19:07:47Z</time>
      </trkpt>
      <trkpt lat="59.815972" lon="17.6656574">
        <ele>7.82788</ele>
        <time>2013-05-22T19:07:48Z</time>
      </trkpt>
      <trkpt lat="59.8159959" lon="17.6656606">
        <ele>9.75061</ele>
        <time>2013-05-22T19:07:49Z</time>
      </trkpt>
      <trkpt lat="59.816014" lon="17.665662">
        <ele>11.6732</ele>
        <time>2013-05-22T19:07:50Z</time>
      </trkpt>
      <trkpt lat="59.8160256" lon="17.6656579">
        <ele>12.1538</ele>
        <time>2013-05-22T19:07:51Z</time>
      </trkpt>
      <trkpt lat="59.8160383" lon="17.665656">
        <ele>11.6732</ele>
        <time>2013-05-22T19:07:52Z</time>
      </trkpt>
      <trkpt lat="59.8160673" lon="17.665655">
        <ele>13.5958</ele>
        <time>2013-05-22T19:07:53Z</time>
      </trkpt>
      <trkpt lat="59.8160929" lon="17.6656561">
        <ele>13.5958</ele>
        <time>2013-05-22T19:07:54Z</time>
      </trkpt>
      <trkpt lat="59.8161114" lon="17.6656561">
        <ele>14.0764</ele>
        <time>2013-05-22T19:07:55Z</time>
      </trkpt>
      <trkpt lat="59.8161342" lon="17.6656475">
        <ele>15.0377</ele>
        <time>2013-05-22T19:07:56Z</time>
      </trkpt>
      <trkpt lat="59.8161524" lon="17.6656399">
        <ele>15.0377</ele>
        <time>2013-05-22T19:07:57Z</time>
      </trkpt>
      <trkpt lat="59.816174" lon="17.6656289">
        <ele>15.0377</ele>
        <time>2013-05-22T19:07:58Z</time>
      </trkpt>
      <trkpt lat="59.8161966" lon="17.6656151">
        <ele>15.999</ele>
        <time>2013-05-22T19:07:59Z</time>
      </trkpt>
      <trkpt lat="59.8162115" lon="17.6656098">
        <ele>15.999</ele>
        <time>2013-05-22T19:08:00Z</time>
      </trkpt>
      <trkpt lat="59.8162286" lon="17.665596">
        <ele>15.5184</ele>
        <time>2013-05-22T19:08:01Z</time>
      </trkpt>
      <trkpt lat="59.8162509" lon="17.6655824">
        <ele>15.999</ele>
        <time>2013-05-22T19:08:02Z</time>
      </trkpt>
      <trkpt lat="59.8162752" lon="17.6655812">
        <ele>16.9604</ele>
        <time>2013-05-22T19:08:03Z</time>
      </trkpt>
      <trkpt lat="59.8162984" lon="17.6655786">
        <ele>17.4412</ele>
        <time>2013-05-22T19:08:04Z</time>
      </trkpt>
      <trkpt lat="59.8163185" lon="17.6655721">
        <ele>16.9604</ele>
        <time>2013-05-22T19:08:05Z</time>
      </trkpt>
      <trkpt lat="59.8163315" lon="17.6655695">
        <ele>16.9604</ele>
        <time>2013-05-22T19:08:06Z</time>
      </trkpt>
      <trkpt lat="59.8163512" lon="17.6655496">
        <ele>15.999</ele>
        <time>2013-05-22T19:08:07Z</time>
      </trkpt>
      <trkpt lat="59.8163669" lon="17.6655358">
        <ele>16.4797</ele>
        <time>2013-05-22T19:08:08Z</time>
      </trkpt>
      <trkpt lat="59.8163777" lon="17.665526">
        <ele>15.5184</ele>
        <time>2013-05-22T19:08:09Z</time>
      </trkpt>
      <trkpt lat="59.8163913" lon="17.6655173">
        <ele>15.5184</ele>
        <time>2013-05-22T19:08:10Z</time>
      </trkpt>
      <trkpt lat="59.8164042" lon="17.6654957">
        <ele>15.5184</ele>
        <time>2013-05-22T19:08:11Z</time>
      </trkpt>
      <trkpt lat="59.8164201" lon="17.665468">
        <ele>15.999</ele>
        <time>2013-05-22T19:08:12Z</time>
      </trkpt>
      <trkpt lat="59.8164347" lon="17.6654424">
        <ele>15.999</ele>
        <time>2013-05-22T19:08:13Z</time>
      </trkpt>
      <trkpt lat="59.8164514" lon="17.6654198">
        <ele>16.9604</ele>
        <time>2013-05-22T19:08:14Z</time>
      </trkpt>
      <trkpt lat="59.8164643" lon="17.6653999">
        <ele>16.9604</ele>
        <time>2013-05-22T19:08:15Z</time>
      </trkpt>
      <trkpt lat="59.8164807" lon="17.6653804">
        <ele>16.9604</ele>
        <time>2013-05-22T19:08:16Z</time>
      </trkpt>
      <trkpt lat="59.8165" lon="17.6653618">
        <ele>17.4412</ele>
        <time>2013-05-22T19:08:17Z</time>
      </trkpt>
      <trkpt lat="59.8165198" lon="17.6653435">
        <ele>17.9218</ele>
        <time>2013-05-22T19:08:18Z</time>
      </trkpt>
      <trkpt lat="59.816538" lon="17.665321">
        <ele>17.9218</ele>
        <time>2013-05-22T19:08:19Z</time>
      </trkpt>
      <trkpt lat="59.8165544" lon="17.6653007">
        <ele>17.9218</ele>
        <time>2013-05-22T19:08:20Z</time>
      </trkpt>
      <trkpt lat="59.8165715" lon="17.6652769">
        <ele>18.4023</ele>
        <time>2013-05-22T19:08:21Z</time>
      </trkpt>
      <trkpt lat="59.8165892" lon="17.6652564">
        <ele>18.8831</ele>
        <time>2013-05-22T19:08:22Z</time>
      </trkpt>
      <trkpt lat="59.8166117" lon="17.6652373">
        <ele>19.3638</ele>
        <time>2013-05-22T19:08:23Z</time>
      </trkpt>
      <trkpt lat="59.8166335" lon="17.665211">
        <ele>19.3638</ele>
        <time>2013-05-22T19:08:24Z</time>
      </trkpt>
      <trkpt lat="59.8166517" lon="17.6651929">
        <ele>18.8831</ele>
        <time>2013-05-22T19:08:25Z</time>
      </trkpt>
      <trkpt lat="59.8166729" lon="17.6651711">
        <ele>20.325</ele>
        <time>2013-05-22T19:08:26Z</time>
      </trkpt>
      <trkpt lat="59.8166818" lon="17.6651539">
        <ele>20.8057</ele>
        <time>2013-05-22T19:08:27Z</time>
      </trkpt>
      <trkpt lat="59.8166922" lon="17.6651426">
        <ele>20.8057</ele>
        <time>2013-05-22T19:08:28Z</time>
      </trkpt>
      <trkpt lat="59.8167117" lon="17.6651259">
        <ele>21.2864</ele>
        <time>2013-05-22T19:08:29Z</time>
      </trkpt>
      <trkpt lat="59.8167294" lon="17.6651091">
        <ele>21.767</ele>
        <time>2013-05-22T19:08:30Z</time>
      </trkpt>
      <trkpt lat="59.8167445" lon="17.6650888">
        <ele>21.767</ele>
        <time>2013-05-22T19:08:31Z</time>
      </trkpt>
      <trkpt lat="59.8167558" lon="17.665078">
        <ele>21.767</ele>
        <time>2013-05-22T19:08:32Z</time>
      </trkpt>
      <trkpt lat="59.8167741" lon="17.6650556">
        <ele>22.2476</ele>
        <time>2013-05-22T19:08:33Z</time>
      </trkpt>
      <trkpt lat="59.8167887" lon="17.6650318">
        <ele>20.8057</ele>
        <time>2013-05-22T19:08:34Z</time>
      </trkpt>
      <trkpt lat="59.8168146" lon="17.6650048">
        <ele>20.8057</ele>
        <time>2013-05-22T19:08:35Z</time>
      </trkpt>
      <trkpt lat="59.816842" lon="17.6649796">
        <ele>21.767</ele>
        <time>2013-05-22T19:08:36Z</time>
      </trkpt>
      <trkpt lat="59.8168604" lon="17.664958">
        <ele>23.209</ele>
        <time>2013-05-22T19:08:37Z</time>
      </trkpt>
      <trkpt lat="59.8168787" lon="17.6649397">
        <ele>24.1703</ele>
        <time>2013-05-22T19:08:38Z</time>
      </trkpt>
      <trkpt lat="59.8169023" lon="17.6649107">
        <ele>25.1317</ele>
        <time>2013-05-22T19:08:39Z</time>
      </trkpt>
      <trkpt lat="59.8169222" lon="17.6648799">
        <ele>25.1317</ele>
        <time>2013-05-22T19:08:40Z</time>
      </trkpt>
      <trkpt lat="59.8169484" lon="17.6648563">
        <ele>27.5349</ele>
        <time>2013-05-22T19:08:41Z</time>
      </trkpt>
      <trkpt lat="59.8169712" lon="17.664826">
        <ele>28.0155</ele>
        <time>2013-05-22T19:08:42Z</time>
      </trkpt>
      <trkpt lat="59.8169881" lon="17.6648059">
        <ele>28.4962</ele>
        <time>2013-05-22T19:08:43Z</time>
      </trkpt>
      <trkpt lat="59.8169966" lon="17.6647852">
        <ele>28.0155</ele>
        <time>2013-05-22T19:08:44Z</time>
      </trkpt>
      <trkpt lat="59.8170145" lon="17.6647529">
        <ele>28.0155</ele>
        <time>2013-05-22T19:08:45Z</time>
      </trkpt>
      <trkpt lat="59.8170357" lon="17.6647122">
        <ele>28.0155</ele>
        <time>2013-05-22T19:08:46Z</time>
      </trkpt>
      <trkpt lat="59.8170455" lon="17.6646811">
        <ele>27.0543</ele>
        <time>2013-05-22T19:08:47Z</time>
      </trkpt>
      <trkpt lat="59.8170532" lon="17.6646531">
        <ele>27.5349</ele>
        <time>2013-05-22T19:08:48Z</time>
      </trkpt>
      <trkpt lat="59.8170673" lon="17.6646284">
        <ele>27.0543</ele>
        <time>2013-05-22T19:08:49Z</time>
      </trkpt>
      <trkpt lat="59.8170816" lon="17.6645994">
        <ele>26.0929</ele>
        <time>2013-05-22T19:08:50Z</time>
      </trkpt>
      <trkpt lat="59.8170933" lon="17.6645723">
        <ele>25.1317</ele>
        <time>2013-05-22T19:08:51Z</time>
      </trkpt>
      <trkpt lat="59.817104" lon="17.6645521">
        <ele>25.6123</ele>
        <time>2013-05-22T19:08:52Z</time>
      </trkpt>
      <trkpt lat="59.8171206" lon="17.6645297">
        <ele>26.5736</ele>
        <time>2013-05-22T19:08:53Z</time>
      </trkpt>
      <trkpt lat="59.817138" lon="17.6645107">
        <ele>26.0929</ele>
        <time>2013-05-22T19:08:54Z</time>
      </trkpt>
      <trkpt lat="59.8171486" lon="17.6644828">
        <ele>26.5736</ele>
        <time>2013-05-22T19:08:55Z</time>
      </trkpt>
      <trkpt lat="59.817164" lon="17.6644516">
        <ele>27.5349</ele>
        <time>2013-05-22T19:08:56Z</time>
      </trkpt>
      <trkpt lat="59.8171812" lon="17.6644226">
        <ele>28.4962</ele>
        <time>2013-05-22T19:08:57Z</time>
      </trkpt>
      <trkpt lat="59.8172033" lon="17.6643838">
        <ele>30.8995</ele>
        <time>2013-05-22T19:08:58Z</time>
      </trkpt>
      <trkpt lat="59.8172326" lon="17.6643499">
        <ele>33.3029</ele>
        <time>2013-05-22T19:08:59Z</time>
      </trkpt>
      <trkpt lat="59.8172629" lon="17.6643245">
        <ele>34.7449</ele>
        <time>2013-05-22T19:09:00Z</time>
      </trkpt>
      <trkpt lat="59.8172853" lon="17.6642971">
        <ele>36.1868</ele>
        <time>2013-05-22T19:09:01Z</time>
      </trkpt>
      <trkpt lat="59.8173128" lon="17.6642801">
        <ele>38.5901</ele>
        <time>2013-05-22T19:09:02Z</time>
      </trkpt>
      <trkpt lat="59.8173376" lon="17.6642593">
        <ele>40.5128</ele>
        <time>2013-05-22T19:09:03Z</time>
      </trkpt>
      <trkpt lat="59.8173522" lon="17.664246">
        <ele>40.9934</ele>
        <time>2013-05-22T19:09:04Z</time>
      </trkpt>
      <trkpt lat="59.8173675" lon="17.6642388">
        <ele>40.0321</ele>
        <time>2013-05-22T19:09:05Z</time>
      </trkpt>
      <trkpt lat="59.8173839" lon="17.6642356">
        <ele>39.5513</ele>
        <time>2013-05-22T19:09:06Z</time>
      </trkpt>
      <trkpt lat="59.8173919" lon="17.6642331">
        <ele>39.5513</ele>
        <time>2013-05-22T19:09:07Z</time>
      </trkpt>
      <trkpt lat="59.8174092" lon="17.6642231">
        <ele>39.5513</ele>
        <time>2013-05-22T19:09:08Z</time>
      </trkpt>
      <trkpt lat="59.8174329" lon="17.6642062">
        <ele>40.9934</ele>
        <time>2013-05-22T19:09:09Z</time>
      </trkpt>
      <trkpt lat="59.8174597" lon="17.6641914">
        <ele>41.9547</ele>
        <time>2013-05-22T19:09:10Z</time>
      </trkpt>
      <trkpt lat="59.8174815" lon="17.6641839">
        <ele>42.4354</ele>
        <time>2013-05-22T19:09:11Z</time>
      </trkpt>
      <trkpt lat="59.8174998" lon="17.664175">
        <ele>42.4354</ele>
        <time>2013-05-22T19:09:12Z</time>
      </trkpt>
      <trkpt lat="59.8175116" lon="17.6641646">
        <ele>41.9547</ele>
        <time>2013-05-22T19:09:13Z</time>
      </trkpt>
      <trkpt lat="59.817532" lon="17.6641515">
        <ele>42.4354</ele>
        <time>2013-05-22T19:09:14Z</time>
      </trkpt>
      <trkpt lat="59.8175511" lon="17.6641422">
        <ele>41.9547</ele>
        <time>2013-05-22T19:09:15Z</time>
      </trkpt>
      <trkpt lat="59.8175708" lon="17.664136">
        <ele>41.9547</ele>
        <time>2013-05-22T19:09:16Z</time>
      </trkpt>
      <trkpt lat="59.8175889" lon="17.6641233">
        <ele>41.474</ele>
        <time>2013-05-22T19:09:17Z</time>
      </trkpt>
      <trkpt lat="59.8176096" lon="17.6641097">
        <ele>41.9547</ele>
        <time>2013-05-22T19:09:18Z</time>
      </trkpt>
      <trkpt lat="59.8176268" lon="17.6640972">
        <ele>41.474</ele>
        <time>2013-05-22T19:09:19Z</time>
      </trkpt>
      <trkpt lat="59.8176459" lon="17.6640878">
        <ele>40.5128</ele>
        <time>2013-05-22T19:09:20Z</time>
      </trkpt>
      <trkpt lat="59.8176697" lon="17.6640786">
        <ele>41.474</ele>
        <time>2013-05-22T19:09:21Z</time>
      </trkpt>
      <trkpt lat="59.8176895" lon="17.6640656">
        <ele>42.4354</ele>
        <time>2013-05-22T19:09:22Z</time>
      </trkpt>
      <trkpt lat="59.817709" lon="17.6640608">
        <ele>42.4354</ele>
        <time>2013-05-22T19:09:23Z</time>
      </trkpt>
      <trkpt lat="59.8177232" lon="17.6640625">
        <ele>41.9547</ele>
        <time>2013-05-22T19:09:24Z</time>
      </trkpt>
      <trkpt lat="59.8177448" lon="17.6640583">
        <ele>41.9547</ele>
        <time>2013-05-22T19:09:25Z</time>
      </trkpt>
      <trkpt lat="59.8177645" lon="17.6640589">
        <ele>41.9547</ele>
        <time>2013-05-22T19:09:26Z</time>
      </trkpt>
      <trkpt lat="59.8177837" lon="17.6640573">
        <ele>41.9547</ele>
        <time>2013-05-22T19:09:27Z</time>
      </trkpt>
      <trkpt lat="59.8178063" lon="17.6640486">
        <ele>42.4354</ele>
        <time>2013-05-22T19:09:28Z</time>
      </trkpt>
      <trkpt lat="59.8178251" lon="17.6640384">
        <ele>43.3966</ele>
        <time>2013-05-22T19:09:29Z</time>
      </trkpt>
      <trkpt lat="59.8178355" lon="17.6640263">
        <ele>43.3966</ele>
        <time>2013-05-22T19:09:30Z</time>
      </trkpt>
      <trkpt lat="59.8178503" lon="17.6640238">
        <ele>43.8773</ele>
        <time>2013-05-22T19:09:31Z</time>
      </trkpt>
      <trkpt lat="59.817864" lon="17.6640258">
        <ele>44.358</ele>
        <time>2013-05-22T19:09:32Z</time>
      </trkpt>
      <trkpt lat="59.8178829" lon="17.6640263">
        <ele>43.8773</ele>
        <time>2013-05-22T19:09:33Z</time>
      </trkpt>
      <trkpt lat="59.8179063" lon="17.6640274">
        <ele>43.8773</ele>
        <time>2013-05-22T19:09:34Z</time>
      </trkpt>
      <trkpt lat="59.8179281" lon="17.6640335">
        <ele>43.8773</ele>
        <time>2013-05-22T19:09:35Z</time>
      </trkpt>
      <trkpt lat="59.8179488" lon="17.6640306">
        <ele>43.8773</ele>
        <time>2013-05-22T19:09:36Z</time>
      </trkpt>
      <trkpt lat="59.8179698" lon="17.664034">
        <ele>43.8773</ele>
        <time>2013-05-22T19:09:37Z</time>
      </trkpt>
      <trkpt lat="59.817991" lon="17.6640315">
        <ele>44.358</ele>
        <time>2013-05-22T19:09:38Z</time>
      </trkpt>
      <trkpt lat="59.818009" lon="17.6640275">
        <ele>43.8773</ele>
        <time>2013-05-22T19:09:39Z</time>
      </trkpt>
      <trkpt lat="59.8180228" lon="17.6640173">
        <ele>42.916</ele>
        <time>2013-05-22T19:09:40Z</time>
      </trkpt>
      <trkpt lat="59.8180414" lon="17.6640067">
        <ele>42.916</ele>
        <time>2013-05-22T19:09:41Z</time>
      </trkpt>
      <trkpt lat="59.8180578" lon="17.6639972">
        <ele>42.916</ele>
        <time>2013-05-22T19:09:42Z</time>
      </trkpt>
      <trkpt lat="59.8180748" lon="17.6639937">
        <ele>42.916</ele>
        <time>2013-05-22T19:09:43Z</time>
      </trkpt>
      <trkpt lat="59.8180981" lon="17.6639863">
        <ele>43.3966</ele>
        <time>2013-05-22T19:09:44Z</time>
      </trkpt>
      <trkpt lat="59.8181229" lon="17.6639844">
        <ele>44.8386</ele>
        <time>2013-05-22T19:09:45Z</time>
      </trkpt>
      <trkpt lat="59.8181427" lon="17.6639745">
        <ele>43.8773</ele>
        <time>2013-05-22T19:09:46Z</time>
      </trkpt>
      <trkpt lat="59.818168" lon="17.6639648">
        <ele>45.7999</ele>
        <time>2013-05-22T19:09:47Z</time>
      </trkpt>
      <trkpt lat="59.8181951" lon="17.6639679">
        <ele>46.7612</ele>
        <time>2013-05-22T19:09:48Z</time>
      </trkpt>
      <trkpt lat="59.8182178" lon="17.6639646">
        <ele>47.2418</ele>
        <time>2013-05-22T19:09:49Z</time>
      </trkpt>
      <trkpt lat="59.818241" lon="17.66396">
        <ele>47.7225</ele>
        <time>2013-05-22T19:09:50Z</time>
      </trkpt>
      <trkpt lat="59.8182632" lon="17.6639523">
        <ele>48.2034</ele>
        <time>2013-05-22T19:09:51Z</time>
      </trkpt>
      <trkpt lat="59.8182876" lon="17.6639529">
        <ele>49.1646</ele>
        <time>2013-05-22T19:09:52Z</time>
      </trkpt>
      <trkpt lat="59.818311" lon="17.6639538">
        <ele>48.684</ele>
        <time>2013-05-22T19:09:53Z</time>
      </trkpt>
      <trkpt lat="59.8183282" lon="17.6639544">
        <ele>48.684</ele>
        <time>2013-05-22T19:09:54Z</time>
      </trkpt>
      <trkpt lat="59.8183453" lon="17.6639503">
        <ele>48.684</ele>
        <time>2013-05-22T19:09:55Z</time>
      </trkpt>
      <trkpt lat="59.8183649" lon="17.6639449">
        <ele>48.2034</ele>
        <time>2013-05-22T19:09:56Z</time>
      </trkpt>
      <trkpt lat="59.8183888" lon="17.6639518">
        <ele>48.684</ele>
        <time>2013-05-22T19:09:57Z</time>
      </trkpt>
      <trkpt lat="59.81841" lon="17.6639605">
        <ele>48.684</ele>
        <time>2013-05-22T19:09:58Z</time>
      </trkpt>
      <trkpt lat="59.8184303" lon="17.6639626">
        <ele>48.2034</ele>
        <time>2013-05-22T19:09:59Z</time>
      </trkpt>
      <trkpt lat="59.8184487" lon="17.6639594">
        <ele>47.7225</ele>
        <time>2013-05-22T19:10:00Z</time>
      </trkpt>
      <trkpt lat="59.8184684" lon="17.6639605">
        <ele>47.2418</ele>
        <time>2013-05-22T19:10:01Z</time>
      </trkpt>
      <trkpt lat="59.8184908" lon="17.6639709">
        <ele>46.7612</ele>
        <time>2013-05-22T19:10:02Z</time>
      </trkpt>
      <trkpt lat="59.8185108" lon="17.6639808">
        <ele>46.2806</ele>
        <time>2013-05-22T19:10:03Z</time>
      </trkpt>
      <trkpt lat="59.8185294" lon="17.6639823">
        <ele>45.3192</ele>
        <time>2013-05-22T19:10:04Z</time>
      </trkpt>
      <trkpt lat="59.8185446" lon="17.6639853">
        <ele>44.358</ele>
        <time>2013-05-22T19:10:05Z</time>
      </trkpt>
      <trkpt lat="59.8185618" lon="17.6639862">
        <ele>43.3966</ele>
        <time>2013-05-22T19:10:06Z</time>
      </trkpt>
      <trkpt lat="59.8185896" lon="17.6639893">
        <ele>43.8773</ele>
        <time>2013-05-22T19:10:07Z</time>
      </trkpt>
      <trkpt lat="59.8186166" lon="17.6639953">
        <ele>45.3192</ele>
        <time>2013-05-22T19:10:08Z</time>
      </trkpt>
      <trkpt lat="59.8186436" lon="17.6639958">
        <ele>46.7612</ele>
        <time>2013-05-22T19:10:09Z</time>
      </trkpt>
      <trkpt lat="59.8186672" lon="17.6639891">
        <ele>46.2806</ele>
        <time>2013-05-22T19:10:10Z</time>
      </trkpt>
      <trkpt lat="59.8186892" lon="17.6639845">
        <ele>46.2806</ele>
        <time>2013-05-22T19:10:11Z</time>
      </trkpt>
      <trkpt lat="59.8187059" lon="17.6639818">
        <ele>44.8386</ele>
        <time>2013-05-22T19:10:12Z</time>
      </trkpt>
      <trkpt lat="59.8187274" lon="17.6639796">
        <ele>44.8386</ele>
        <time>2013-05-22T19:10:13Z</time>
      </trkpt>
      <trkpt lat="59.8187499" lon="17.6639752">
        <ele>45.3192</ele>
        <time>2013-05-22T19:10:14Z</time>
      </trkpt>
      <trkpt lat="59.8187772" lon="17.6639715">
        <ele>46.7612</ele>
        <time>2013-05-22T19:10:15Z</time>
      </trkpt>
      <trkpt lat="59.8188005" lon="17.6639704">
        <ele>47.7225</ele>
        <time>2013-05-22T19:10:16Z</time>
      </trkpt>
      <trkpt lat="59.8188201" lon="17.6639637">
        <ele>47.2418</ele>
        <time>2013-05-22T19:10:17Z</time>
      </trkpt>
      <trkpt lat="59.8188379" lon="17.66397">
        <ele>46.7612</ele>
        <time>2013-05-22T19:10:18Z</time>
      </trkpt>
      <trkpt lat="59.8188616" lon="17.6639735">
        <ele>46.7612</ele>
        <time>2013-05-22T19:10:19Z</time>
      </trkpt>
      <trkpt lat="59.8188806" lon="17.6639746">
        <ele>46.7612</ele>
        <time>2013-05-22T19:10:20Z</time>
      </trkpt>
      <trkpt lat="59.8188916" lon="17.6639705">
        <ele>44.8386</ele>
        <time>2013-05-22T19:10:21Z</time>
      </trkpt>
      <trkpt lat="59.8189056" lon="17.6639775">
        <ele>43.3966</ele>
        <time>2013-05-22T19:10:22Z</time>
      </trkpt>
      <trkpt lat="59.818928" lon="17.6639738">
        <ele>43.8773</ele>
        <time>2013-05-22T19:10:23Z</time>
      </trkpt>
      <trkpt lat="59.8189492" lon="17.6639714">
        <ele>43.8773</ele>
        <time>2013-05-22T19:10:24Z</time>
      </trkpt>
      <trkpt lat="59.8189737" lon="17.6639686">
        <ele>44.358</ele>
        <time>2013-05-22T19:10:25Z</time>
      </trkpt>
      <trkpt lat="59.8189933" lon="17.6639664">
        <ele>44.358</ele>
        <time>2013-05-22T19:10:26Z</time>
      </trkpt>
      <trkpt lat="59.8190236" lon="17.6639492">
        <ele>45.3192</ele>
        <time>2013-05-22T19:10:27Z</time>
      </trkpt>
      <trkpt lat="59.8190436" lon="17.6639295">
        <ele>45.7999</ele>
        <time>2013-05-22T19:10:28Z</time>
      </trkpt>
      <trkpt lat="59.8190635" lon="17.6639108">
        <ele>45.7999</ele>
        <time>2013-05-22T19:10:29Z</time>
      </trkpt>
      <trkpt lat="59.8190699" lon="17.6638999">
        <ele>44.358</ele>
        <time>2013-05-22T19:10:30Z</time>
      </trkpt>
      <trkpt lat="59.8190787" lon="17.6638942">
        <ele>43.8773</ele>
        <time>2013-05-22T19:10:31Z</time>
      </trkpt>
      <trkpt lat="59.8190943" lon="17.6638818">
        <ele>43.3966</ele>
        <time>2013-05-22T19:10:32Z</time>
      </trkpt>
      <trkpt lat="59.8191243" lon="17.6638764">
        <ele>44.8386</ele>
        <time>2013-05-22T19:10:33Z</time>
      </trkpt>
      <trkpt lat="59.8191453" lon="17.663875">
        <ele>44.8386</ele>
        <time>2013-05-22T19:10:34Z</time>
      </trkpt>
      <trkpt lat="59.8191631" lon="17.6638776">
        <ele>45.3192</ele>
        <time>2013-05-22T19:10:35Z</time>
      </trkpt>
      <trkpt lat="59.8191834" lon="17.6638843">
        <ele>45.3192</ele>
        <time>2013-05-22T19:10:36Z</time>
      </trkpt>
      <trkpt lat="59.819194" lon="17.6638845">
        <ele>44.358</ele>
        <time>2013-05-22T19:10:37Z</time>
      </trkpt>
      <trkpt lat="59.8192191" lon="17.6638646">
        <ele>44.8386</ele>
        <time>2013-05-22T19:10:38Z</time>
      </trkpt>
      <trkpt lat="59.8192403" lon="17.6638591">
        <ele>44.8386</ele>
        <time>2013-05-22T19:10:39Z</time>
      </trkpt>
      <trkpt lat="59.8192637" lon="17.6638667">
        <ele>45.7999</ele>
        <time>2013-05-22T19:10:40Z</time>
      </trkpt>
      <trkpt lat="59.8192885" lon="17.6638715">
        <ele>46.7612</ele>
        <time>2013-05-22T19:10:41Z</time>
      </trkpt>
      <trkpt lat="59.8193144" lon="17.6638749">
        <ele>48.2034</ele>
        <time>2013-05-22T19:10:42Z</time>
      </trkpt>
      <trkpt lat="59.8193365" lon="17.6638796">
        <ele>48.2034</ele>
        <time>2013-05-22T19:10:43Z</time>
      </trkpt>
      <trkpt lat="59.8193544" lon="17.6638859">
        <ele>48.684</ele>
        <time>2013-05-22T19:10:44Z</time>
      </trkpt>
      <trkpt lat="59.8193733" lon="17.6638839">
        <ele>49.1646</ele>
        <time>2013-05-22T19:10:45Z</time>
      </trkpt>
      <trkpt lat="59.8194009" lon="17.6638791">
        <ele>50.126</ele>
        <time>2013-05-22T19:10:46Z</time>
      </trkpt>
      <trkpt lat="59.8194297" lon="17.6638765">
        <ele>51.0872</ele>
        <time>2013-05-22T19:10:47Z</time>
      </trkpt>
      <trkpt lat="59.8194658" lon="17.6638709">
        <ele>53.4905</ele>
        <time>2013-05-22T19:10:48Z</time>
      </trkpt>
      <trkpt lat="59.8194895" lon="17.6638635">
        <ele>53.0098</ele>
        <time>2013-05-22T19:10:49Z</time>
      </trkpt>
      <trkpt lat="59.8195087" lon="17.6638524">
        <ele>53.9712</ele>
        <time>2013-05-22T19:10:50Z</time>
      </trkpt>
      <trkpt lat="59.8195283" lon="17.6638482">
        <ele>54.9324</ele>
        <time>2013-05-22T19:10:51Z</time>
      </trkpt>
      <trkpt lat="59.8195416" lon="17.6638549">
        <ele>54.9324</ele>
        <time>2013-05-22T19:10:52Z</time>
      </trkpt>
      <trkpt lat="59.8195584" lon="17.6638595">
        <ele>55.4131</ele>
        <time>2013-05-22T19:10:53Z</time>
      </trkpt>
      <trkpt lat="59.8195818" lon="17.6638601">
        <ele>56.8551</ele>
        <time>2013-05-22T19:10:54Z</time>
      </trkpt>
      <trkpt lat="59.8195981" lon="17.6638632">
        <ele>55.8938</ele>
        <time>2013-05-22T19:10:55Z</time>
      </trkpt>
      <trkpt lat="59.8196222" lon="17.6638518">
        <ele>55.8938</ele>
        <time>2013-05-22T19:10:56Z</time>
      </trkpt>
      <trkpt lat="59.8196439" lon="17.6638428">
        <ele>55.4131</ele>
        <time>2013-05-22T19:10:57Z</time>
      </trkpt>
      <trkpt lat="59.8196712" lon="17.6638351">
        <ele>54.9324</ele>
        <time>2013-05-22T19:10:58Z</time>
      </trkpt>
      <trkpt lat="59.8196911" lon="17.6638449">
        <ele>55.8938</ele>
        <time>2013-05-22T19:10:59Z</time>
      </trkpt>
      <trkpt lat="59.8197085" lon="17.6638446">
        <ele>55.4131</ele>
        <time>2013-05-22T19:11:00Z</time>
      </trkpt>
      <trkpt lat="59.8197234" lon="17.6638455">
        <ele>55.8938</ele>
        <time>2013-05-22T19:11:01Z</time>
      </trkpt>
      <trkpt lat="59.8197454" lon="17.6638481">
        <ele>55.8938</ele>
        <time>2013-05-22T19:11:02Z</time>
      </trkpt>
      <trkpt lat="59.8197687" lon="17.6638412">
        <ele>56.8551</ele>
        <time>2013-05-22T19:11:03Z</time>
      </trkpt>
      <trkpt lat="59.819791" lon="17.6638327">
        <ele>57.3358</ele>
        <time>2013-05-22T19:11:04Z</time>
      </trkpt>
      <trkpt lat="59.8198121" lon="17.6638259">
        <ele>56.8551</ele>
        <time>2013-05-22T19:11:05Z</time>
      </trkpt>
      <trkpt lat="59.8198208" lon="17.6638353">
        <ele>55.8938</ele>
        <time>2013-05-22T19:11:06Z</time>
      </trkpt>
      <trkpt lat="59.8198252" lon="17.6638528">
        <ele>54.9324</ele>
        <time>2013-05-22T19:11:07Z</time>
      </trkpt>
      <trkpt lat="59.8198389" lon="17.6638567">
        <ele>54.9324</ele>
        <time>2013-05-22T19:11:08Z</time>
      </trkpt>
      <trkpt lat="59.8198517" lon="17.6638573">
        <ele>53.4905</ele>
        <time>2013-05-22T19:11:09Z</time>
      </trkpt>
      <trkpt lat="59.8198739" lon="17.6638621">
        <ele>52.5292</ele>
        <time>2013-05-22T19:11:10Z</time>
      </trkpt>
      <trkpt lat="59.8198939" lon="17.6638756">
        <ele>51.5679</ele>
        <time>2013-05-22T19:11:11Z</time>
      </trkpt>
      <trkpt lat="59.8199092" lon="17.6638941">
        <ele>50.6066</ele>
        <time>2013-05-22T19:11:12Z</time>
      </trkpt>
      <trkpt lat="59.8199298" lon="17.6639091">
        <ele>49.6453</ele>
        <time>2013-05-22T19:11:13Z</time>
      </trkpt>
      <trkpt lat="59.8199505" lon="17.6639207">
        <ele>49.1646</ele>
        <time>2013-05-22T19:11:14Z</time>
      </trkpt>
      <trkpt lat="59.819971" lon="17.6639287">
        <ele>47.2418</ele>
        <time>2013-05-22T19:11:15Z</time>
      </trkpt>
      <trkpt lat="59.8199907" lon="17.6639339">
        <ele>47.2418</ele>
        <time>2013-05-22T19:11:16Z</time>
      </trkpt>
      <trkpt lat="59.8200045" lon="17.6639391">
        <ele>46.2806</ele>
        <time>2013-05-22T19:11:17Z</time>
      </trkpt>
      <trkpt lat="59.8200164" lon="17.663943">
        <ele>46.7612</ele>
        <time>2013-05-22T19:11:18Z</time>
      </trkpt>
      <trkpt lat="59.8200354" lon="17.663947">
        <ele>46.7612</ele>
        <time>2013-05-22T19:11:19Z</time>
      </trkpt>
      <trkpt lat="59.8200592" lon="17.6639466">
        <ele>46.7612</ele>
        <time>2013-05-22T19:11:20Z</time>
      </trkpt>
      <trkpt lat="59.820083" lon="17.6639443">
        <ele>46.2806</ele>
        <time>2013-05-22T19:11:21Z</time>
      </trkpt>
      <trkpt lat="59.8201027" lon="17.6639519">
        <ele>45.7999</ele>
        <time>2013-05-22T19:11:22Z</time>
      </trkpt>
      <trkpt lat="59.8201223" lon="17.6639486">
        <ele>45.7999</ele>
        <time>2013-05-22T19:11:23Z</time>
      </trkpt>
      <trkpt lat="59.8201494" lon="17.663945">
        <ele>46.2806</ele>
        <time>2013-05-22T19:11:24Z</time>
      </trkpt>
      <trkpt lat="59.8201711" lon="17.6639462">
        <ele>46.2806</ele>
        <time>2013-05-22T19:11:25Z</time>
      </trkpt>
      <trkpt lat="59.8201955" lon="17.6639471">
        <ele>46.7612</ele>
        <time>2013-05-22T19:11:26Z</time>
      </trkpt>
      <trkpt lat="59.8202104" lon="17.6639495">
        <ele>46.2806</ele>
        <time>2013-05-22T19:11:27Z</time>
      </trkpt>
      <trkpt lat="59.8202303" lon="17.6639542">
        <ele>46.2806</ele>
        <time>2013-05-22T19:11:28Z</time>
      </trkpt>
      <trkpt lat="59.8202493" lon="17.6639595">
        <ele>46.2806</ele>
        <time>2013-05-22T19:11:29Z</time>
      </trkpt>
      <trkpt lat="59.8202705" lon="17.66397">
        <ele>46.2806</ele>
        <time>2013-05-22T19:11:30Z</time>
      </trkpt>
      <trkpt lat="59.8203015" lon="17.6639621">
        <ele>46.2806</ele>
        <time>2013-05-22T19:11:31Z</time>
      </trkpt>
      <trkpt lat="59.820323" lon="17.6639505">
        <ele>46.2806</ele>
        <time>2013-05-22T19:11:32Z</time>
      </trkpt>
      <trkpt lat="59.820337" lon="17.6639459">
        <ele>44.8386</ele>
        <time>2013-05-22T19:11:33Z</time>
      </trkpt>
      <trkpt lat="59.8203565" lon="17.6639464">
        <ele>44.358</ele>
        <time>2013-05-22T19:11:34Z</time>
      </trkpt>
      <trkpt lat="59.8203751" lon="17.6639467">
        <ele>44.358</ele>
        <time>2013-05-22T19:11:35Z</time>
      </trkpt>
      <trkpt lat="59.8204016" lon="17.6639471">
        <ele>45.3192</ele>
        <time>2013-05-22T19:11:36Z</time>
      </trkpt>
      <trkpt lat="59.8204156" lon="17.6639548">
        <ele>45.7999</ele>
        <time>2013-05-22T19:11:37Z</time>
      </trkpt>
      <trkpt lat="59.8204374" lon="17.6639585">
        <ele>45.7999</ele>
        <time>2013-05-22T19:11:38Z</time>
      </trkpt>
      <trkpt lat="59.8204632" lon="17.6639626">
        <ele>46.7612</ele>
        <time>2013-05-22T19:11:39Z</time>
      </trkpt>
      <trkpt lat="59.820496" lon="17.6639579">
        <ele>48.684</ele>
        <time>2013-05-22T19:11:40Z</time>
      </trkpt>
      <trkpt lat="59.8205212" lon="17.6639526">
        <ele>49.1646</ele>
        <time>2013-05-22T19:11:41Z</time>
      </trkpt>
      <trkpt lat="59.8205447" lon="17.6639593">
        <ele>49.6453</ele>
        <time>2013-05-22T19:11:42Z</time>
      </trkpt>
      <trkpt lat="59.8205654" lon="17.66396">
        <ele>49.6453</ele>
        <time>2013-05-22T19:11:43Z</time>
      </trkpt>
      <trkpt lat="59.8206018" lon="17.6639614">
        <ele>51.5679</ele>
        <time>2013-05-22T19:11:44Z</time>
      </trkpt>
      <trkpt lat="59.8206369" lon="17.6639619">
        <ele>53.9712</ele>
        <time>2013-05-22T19:11:45Z</time>
      </trkpt>
      <trkpt lat="59.8206678" lon="17.6639619">
        <ele>55.8938</ele>
        <time>2013-05-22T19:11:46Z</time>
      </trkpt>
      <trkpt lat="59.8206948" lon="17.6639519">
        <ele>56.8551</ele>
        <time>2013-05-22T19:11:47Z</time>
      </trkpt>
      <trkpt lat="59.8207264" lon="17.6639476">
        <ele>58.2971</ele>
        <time>2013-05-22T19:11:48Z</time>
      </trkpt>
      <trkpt lat="59.8207482" lon="17.6639466">
        <ele>59.2584</ele>
        <time>2013-05-22T19:11:49Z</time>
      </trkpt>
      <trkpt lat="59.8207701" lon="17.6639381">
        <ele>59.2584</ele>
        <time>2013-05-22T19:11:50Z</time>
      </trkpt>
      <trkpt lat="59.8207988" lon="17.6639238">
        <ele>60.7003</ele>
        <time>2013-05-22T19:11:51Z</time>
      </trkpt>
      <trkpt lat="59.8208296" lon="17.6639059">
        <ele>62.1423</ele>
        <time>2013-05-22T19:11:52Z</time>
      </trkpt>
      <trkpt lat="59.8208658" lon="17.6638927">
        <ele>64.5457</ele>
        <time>2013-05-22T19:11:53Z</time>
      </trkpt>
      <trkpt lat="59.8208954" lon="17.6638922">
        <ele>65.9877</ele>
        <time>2013-05-22T19:11:54Z</time>
      </trkpt>
      <trkpt lat="59.8209151" lon="17.6638818">
        <ele>65.5071</ele>
        <time>2013-05-22T19:11:55Z</time>
      </trkpt>
      <trkpt lat="59.8209394" lon="17.6638771">
        <ele>65.9877</ele>
        <time>2013-05-22T19:11:56Z</time>
      </trkpt>
      <trkpt lat="59.8209538" lon="17.6638756">
        <ele>65.0264</ele>
        <time>2013-05-22T19:11:57Z</time>
      </trkpt>
      <trkpt lat="59.8209768" lon="17.663872">
        <ele>66.4683</ele>
        <time>2013-05-22T19:11:58Z</time>
      </trkpt>
      <trkpt lat="59.8209923" lon="17.6638642">
        <ele>65.5071</ele>
        <time>2013-05-22T19:11:59Z</time>
      </trkpt>
      <trkpt lat="59.8210093" lon="17.6638554">
        <ele>65.0264</ele>
        <time>2013-05-22T19:12:00Z</time>
      </trkpt>
      <trkpt lat="59.8210326" lon="17.6638524">
        <ele>65.0264</ele>
        <time>2013-05-22T19:12:01Z</time>
      </trkpt>
      <trkpt lat="59.8210497" lon="17.663843">
        <ele>64.0651</ele>
        <time>2013-05-22T19:12:02Z</time>
      </trkpt>
      <trkpt lat="59.8210725" lon="17.6638408">
        <ele>64.5457</ele>
        <time>2013-05-22T19:12:03Z</time>
      </trkpt>
      <trkpt lat="59.8210896" lon="17.6638362">
        <ele>62.1423</ele>
        <time>2013-05-22T19:12:04Z</time>
      </trkpt>
      <trkpt lat="59.821116" lon="17.6638382">
        <ele>62.6229</ele>
        <time>2013-05-22T19:12:05Z</time>
      </trkpt>
      <trkpt lat="59.821141" lon="17.6638345">
        <ele>62.1423</ele>
        <time>2013-05-22T19:12:06Z</time>
      </trkpt>
      <trkpt lat="59.8211573" lon="17.6638211">
        <ele>59.7391</ele>
        <time>2013-05-22T19:12:07Z</time>
      </trkpt>
      <trkpt lat="59.8211635" lon="17.6638103">
        <ele>56.8551</ele>
        <time>2013-05-22T19:12:08Z</time>
      </trkpt>
      <trkpt lat="59.8211829" lon="17.6638072">
        <ele>55.8938</ele>
        <time>2013-05-22T19:12:09Z</time>
      </trkpt>
      <trkpt lat="59.8212063" lon="17.6637969">
        <ele>56.3745</ele>
        <time>2013-05-22T19:12:10Z</time>
      </trkpt>
      <trkpt lat="59.8212378" lon="17.663805">
        <ele>58.2971</ele>
        <time>2013-05-22T19:12:11Z</time>
      </trkpt>
      <trkpt lat="59.8212652" lon="17.6637956">
        <ele>57.3358</ele>
        <time>2013-05-22T19:12:12Z</time>
      </trkpt>
      <trkpt lat="59.8212849" lon="17.6637935">
        <ele>56.3745</ele>
        <time>2013-05-22T19:12:13Z</time>
      </trkpt>
      <trkpt lat="59.8213044" lon="17.6637938">
        <ele>55.4131</ele>
        <time>2013-05-22T19:12:14Z</time>
      </trkpt>
      <trkpt lat="59.8213288" lon="17.6637984">
        <ele>54.4518</ele>
        <time>2013-05-22T19:12:15Z</time>
      </trkpt>
      <trkpt lat="59.8213704" lon="17.6638217">
        <ele>57.3358</ele>
        <time>2013-05-22T19:12:16Z</time>
      </trkpt>
      <trkpt lat="59.8213909" lon="17.6638299">
        <ele>56.3745</ele>
        <time>2013-05-22T19:12:17Z</time>
      </trkpt>
      <trkpt lat="59.8214056" lon="17.6638343">
        <ele>54.4518</ele>
        <time>2013-05-22T19:12:18Z</time>
      </trkpt>
      <trkpt lat="59.8214358" lon="17.6638347">
        <ele>55.4131</ele>
        <time>2013-05-22T19:12:19Z</time>
      </trkpt>
      <trkpt lat="59.8214572" lon="17.6638331">
        <ele>54.4518</ele>
        <time>2013-05-22T19:12:20Z</time>
      </trkpt>
      <trkpt lat="59.8214761" lon="17.6638278">
        <ele>53.9712</ele>
        <time>2013-05-22T19:12:21Z</time>
      </trkpt>
      <trkpt lat="59.8214883" lon="17.66383">
        <ele>53.4905</ele>
        <time>2013-05-22T19:12:22Z</time>
      </trkpt>
      <trkpt lat="59.821517" lon="17.6638415">
        <ele>55.8938</ele>
        <time>2013-05-22T19:12:23Z</time>
      </trkpt>
      <trkpt lat="59.8215652" lon="17.6638491">
        <ele>56.3745</ele>
        <time>2013-05-22T19:12:24Z</time>
      </trkpt>
      <trkpt lat="59.8215937" lon="17.6638486">
        <ele>57.3358</ele>
        <time>2013-05-22T19:12:25Z</time>
      </trkpt>
      <trkpt lat="59.8216253" lon="17.6638528">
        <ele>58.7777</ele>
        <time>2013-05-22T19:12:26Z</time>
      </trkpt>
      <trkpt lat="59.8216561" lon="17.6638586">
        <ele>58.7777</ele>
        <time>2013-05-22T19:12:27Z</time>
      </trkpt>
      <trkpt lat="59.8216821" lon="17.6638606">
        <ele>58.7777</ele>
        <time>2013-05-22T19:12:28Z</time>
      </trkpt>
      <trkpt lat="59.8217014" lon="17.6638628">
        <ele>57.3358</ele>
        <time>2013-05-22T19:12:29Z</time>
      </trkpt>
      <trkpt lat="59.8217289" lon="17.6638777">
        <ele>58.2971</ele>
        <time>2013-05-22T19:12:30Z</time>
      </trkpt>
      <trkpt lat="59.8217576" lon="17.6638916">
        <ele>57.8165</ele>
        <time>2013-05-22T19:12:31Z</time>
      </trkpt>
      <trkpt lat="59.8217756" lon="17.6638961">
        <ele>57.3358</ele>
        <time>2013-05-22T19:12:32Z</time>
      </trkpt>
      <trkpt lat="59.8218017" lon="17.6638876">
        <ele>56.8551</ele>
        <time>2013-05-22T19:12:33Z</time>
      </trkpt>
      <trkpt lat="59.8218247" lon="17.663889">
        <ele>54.9324</ele>
        <time>2013-05-22T19:12:34Z</time>
      </trkpt>
      <trkpt lat="59.8218463" lon="17.6638985">
        <ele>53.4905</ele>
        <time>2013-05-22T19:12:35Z</time>
      </trkpt>
      <trkpt lat="59.8218695" lon="17.6639004">
        <ele>53.0098</ele>
        <time>2013-05-22T19:12:36Z</time>
      </trkpt>
      <trkpt lat="59.821889" lon="17.663893">
        <ele>51.5679</ele>
        <time>2013-05-22T19:12:37Z</time>
      </trkpt>
      <trkpt lat="59.8219199" lon="17.6638797">
        <ele>53.4905</ele>
        <time>2013-05-22T19:12:38Z</time>
      </trkpt>
      <trkpt lat="59.8219392" lon="17.6638787">
        <ele>51.5679</ele>
        <time>2013-05-22T19:12:39Z</time>
      </trkpt>
      <trkpt lat="59.821967" lon="17.6638744">
        <ele>50.6066</ele>
        <time>2013-05-22T19:12:40Z</time>
      </trkpt>
      <trkpt lat="59.8219935" lon="17.6638651">
        <ele>50.6066</ele>
        <time>2013-05-22T19:12:41Z</time>
      </trkpt>
      <trkpt lat="59.8220272" lon="17.6638472">
        <ele>51.5679</ele>
        <time>2013-05-22T19:12:42Z</time>
      </trkpt>
      <trkpt lat="59.8220542" lon="17.6638267">
        <ele>51.5679</ele>
        <time>2013-05-22T19:12:43Z</time>
      </trkpt>
      <trkpt lat="59.8220649" lon="17.6638233">
        <ele>50.126</ele>
        <time>2013-05-22T19:12:44Z</time>
      </trkpt>
      <trkpt lat="59.8220826" lon="17.663816">
        <ele>49.6453</ele>
        <time>2013-05-22T19:12:45Z</time>
      </trkpt>
      <trkpt lat="59.8220944" lon="17.6638094">
        <ele>47.7225</ele>
        <time>2013-05-22T19:12:46Z</time>
      </trkpt>
      <trkpt lat="59.8221179" lon="17.663813">
        <ele>48.2034</ele>
        <time>2013-05-22T19:12:47Z</time>
      </trkpt>
      <trkpt lat="59.8221469" lon="17.6638077">
        <ele>47.2418</ele>
        <time>2013-05-22T19:12:48Z</time>
      </trkpt>
      <trkpt lat="59.8221825" lon="17.6637894">
        <ele>46.7612</ele>
        <time>2013-05-22T19:12:49Z</time>
      </trkpt>
      <trkpt lat="59.8222172" lon="17.6637633">
        <ele>46.2806</ele>
        <time>2013-05-22T19:12:50Z</time>
      </trkpt>
      <trkpt lat="59.8222478" lon="17.6637575">
        <ele>46.7612</ele>
        <time>2013-05-22T19:12:51Z</time>
      </trkpt>
      <trkpt lat="59.8222645" lon="17.663763">
        <ele>46.2806</ele>
        <time>2013-05-22T19:12:52Z</time>
      </trkpt>
      <trkpt lat="59.8222873" lon="17.6637658">
        <ele>46.2806</ele>
        <time>2013-05-22T19:12:53Z</time>
      </trkpt>
      <trkpt lat="59.8223049" lon="17.6637625">
        <ele>45.3192</ele>
        <time>2013-05-22T19:12:54Z</time>
      </trkpt>
      <trkpt lat="59.8223262" lon="17.6637648">
        <ele>44.8386</ele>
        <time>2013-05-22T19:12:55Z</time>
      </trkpt>
      <trkpt lat="59.8223559" lon="17.6637584">
        <ele>45.7999</ele>
        <time>2013-05-22T19:12:56Z</time>
      </trkpt>
      <trkpt lat="59.8223779" lon="17.66375">
        <ele>43.8773</ele>
        <time>2013-05-22T19:12:57Z</time>
      </trkpt>
      <trkpt lat="59.822398" lon="17.663745">
        <ele>42.916</ele>
        <time>2013-05-22T19:12:58Z</time>
      </trkpt>
      <trkpt lat="59.8224199" lon="17.6637388">
        <ele>43.3966</ele>
        <time>2013-05-22T19:12:59Z</time>
      </trkpt>
      <trkpt lat="59.8224374" lon="17.6637402">
        <ele>43.3966</ele>
        <time>2013-05-22T19:13:00Z</time>
      </trkpt>
      <trkpt lat="59.8224478" lon="17.6637357">
        <ele>42.916</ele>
        <time>2013-05-22T19:13:01Z</time>
      </trkpt>
      <trkpt lat="59.8224664" lon="17.6637336">
        <ele>42.4354</ele>
        <time>2013-05-22T19:13:02Z</time>
      </trkpt>
      <trkpt lat="59.8224824" lon="17.6637246">
        <ele>41.9547</ele>
        <time>2013-05-22T19:13:03Z</time>
      </trkpt>
      <trkpt lat="59.822499" lon="17.6637285">
        <ele>41.9547</ele>
        <time>2013-05-22T19:13:04Z</time>
      </trkpt>
      <trkpt lat="59.8225276" lon="17.6637249">
        <ele>43.3966</ele>
        <time>2013-05-22T19:13:05Z</time>
      </trkpt>
      <trkpt lat="59.8225564" lon="17.6637181">
        <ele>44.358</ele>
        <time>2013-05-22T19:13:06Z</time>
      </trkpt>
      <trkpt lat="59.8225876" lon="17.6637025">
        <ele>45.3192</ele>
        <time>2013-05-22T19:13:07Z</time>
      </trkpt>
      <trkpt lat="59.8226235" lon="17.6636939">
        <ele>45.7999</ele>
        <time>2013-05-22T19:13:08Z</time>
      </trkpt>
      <trkpt lat="59.8226621" lon="17.6636906">
        <ele>47.2418</ele>
        <time>2013-05-22T19:13:09Z</time>
      </trkpt>
      <trkpt lat="59.8226981" lon="17.6636894">
        <ele>49.1646</ele>
        <time>2013-05-22T19:13:10Z</time>
      </trkpt>
      <trkpt lat="59.8227308" lon="17.663687">
        <ele>51.0872</ele>
        <time>2013-05-22T19:13:11Z</time>
      </trkpt>
      <trkpt lat="59.8227535" lon="17.6636745">
        <ele>51.0872</ele>
        <time>2013-05-22T19:13:12Z</time>
      </trkpt>
      <trkpt lat="59.8227746" lon="17.6636715">
        <ele>51.0872</ele>
        <time>2013-05-22T19:13:13Z</time>
      </trkpt>
      <trkpt lat="59.8228102" lon="17.6636689">
        <ele>52.5292</ele>
        <time>2013-05-22T19:13:14Z</time>
      </trkpt>
      <trkpt lat="59.8228209" lon="17.6636529">
        <ele>51.5679</ele>
        <time>2013-05-22T19:13:15Z</time>
      </trkpt>
      <trkpt lat="59.8228375" lon="17.6636451">
        <ele>51.5679</ele>
        <time>2013-05-22T19:13:16Z</time>
      </trkpt>
      <trkpt lat="59.8228559" lon="17.6636381">
        <ele>50.6066</ele>
        <time>2013-05-22T19:13:17Z</time>
      </trkpt>
      <trkpt lat="59.8228762" lon="17.6636347">
        <ele>51.0872</ele>
        <time>2013-05-22T19:13:18Z</time>
      </trkpt>
      <trkpt lat="59.8228947" lon="17.6636245">
        <ele>50.6066</ele>
        <time>2013-05-22T19:13:19Z</time>
      </trkpt>
      <trkpt lat="59.8229249" lon="17.6636093">
        <ele>51.5679</ele>
        <time>2013-05-22T19:13:20Z</time>
      </trkpt>
      <trkpt lat="59.8229602" lon="17.663598">
        <ele>53.9712</ele>
        <time>2013-05-22T19:13:21Z</time>
      </trkpt>
      <trkpt lat="59.8229855" lon="17.6635951">
        <ele>55.4131</ele>
        <time>2013-05-22T19:13:22Z</time>
      </trkpt>
      <trkpt lat="59.8230063" lon="17.6635907">
        <ele>54.9324</ele>
        <time>2013-05-22T19:13:23Z</time>
      </trkpt>
      <trkpt lat="59.8230301" lon="17.6635894">
        <ele>54.9324</ele>
        <time>2013-05-22T19:13:24Z</time>
      </trkpt>
      <trkpt lat="59.8230558" lon="17.6635761">
        <ele>55.8938</ele>
        <time>2013-05-22T19:13:25Z</time>
      </trkpt>
      <trkpt lat="59.8230897" lon="17.6635765">
        <ele>59.2584</ele>
        <time>2013-05-22T19:13:26Z</time>
      </trkpt>
      <trkpt lat="59.8231131" lon="17.6635809">
        <ele>60.7003</ele>
        <time>2013-05-22T19:13:27Z</time>
      </trkpt>
      <trkpt lat="59.8231332" lon="17.6635886">
        <ele>62.1423</ele>
        <time>2013-05-22T19:13:28Z</time>
      </trkpt>
      <trkpt lat="59.8231451" lon="17.6635897">
        <ele>60.7003</ele>
        <time>2013-05-22T19:13:29Z</time>
      </trkpt>
      <trkpt lat="59.8231618" lon="17.6635895">
        <ele>60.2197</ele>
        <time>2013-05-22T19:13:30Z</time>
      </trkpt>
      <trkpt lat="59.8231891" lon="17.6635675">
        <ele>60.7003</ele>
        <time>2013-05-22T19:13:31Z</time>
      </trkpt>
      <trkpt lat="59.8232268" lon="17.6635436">
        <ele>63.1036</ele>
        <time>2013-05-22T19:13:32Z</time>
      </trkpt>
      <trkpt lat="59.8232687" lon="17.663531">
        <ele>65.5071</ele>
        <time>2013-05-22T19:13:33Z</time>
      </trkpt>
      <trkpt lat="59.8232993" lon="17.6635299">
        <ele>65.5071</ele>
        <time>2013-05-22T19:13:34Z</time>
      </trkpt>
      <trkpt lat="59.8233305" lon="17.6635387">
        <ele>64.5457</ele>
        <time>2013-05-22T19:13:35Z</time>
      </trkpt>
      <trkpt lat="59.8233495" lon="17.6635549">
        <ele>62.1423</ele>
        <time>2013-05-22T19:13:36Z</time>
      </trkpt>
      <trkpt lat="59.8233668" lon="17.6635718">
        <ele>61.181</ele>
        <time>2013-05-22T19:13:37Z</time>
      </trkpt>
      <trkpt lat="59.8233837" lon="17.6635889">
        <ele>61.6617</ele>
        <time>2013-05-22T19:13:38Z</time>
      </trkpt>
      <trkpt lat="59.8233967" lon="17.6636069">
        <ele>60.7003</ele>
        <time>2013-05-22T19:13:39Z</time>
      </trkpt>
      <trkpt lat="59.8234139" lon="17.6636207">
        <ele>58.2971</ele>
        <time>2013-05-22T19:13:40Z</time>
      </trkpt>
      <trkpt lat="59.823436" lon="17.6636286">
        <ele>56.8551</ele>
        <time>2013-05-22T19:13:41Z</time>
      </trkpt>
      <trkpt lat="59.8234522" lon="17.663639">
        <ele>54.4518</ele>
        <time>2013-05-22T19:13:42Z</time>
      </trkpt>
      <trkpt lat="59.8234687" lon="17.6636496">
        <ele>52.0486</ele>
        <time>2013-05-22T19:13:43Z</time>
      </trkpt>
      <trkpt lat="59.8234905" lon="17.6636465">
        <ele>49.6453</ele>
        <time>2013-05-22T19:13:44Z</time>
      </trkpt>
      <trkpt lat="59.8235108" lon="17.6636635">
        <ele>50.126</ele>
        <time>2013-05-22T19:13:45Z</time>
      </trkpt>
      <trkpt lat="59.8235298" lon="17.6636741">
        <ele>49.1646</ele>
        <time>2013-05-22T19:13:46Z</time>
      </trkpt>
      <trkpt lat="59.8235531" lon="17.6636731">
        <ele>47.7225</ele>
        <time>2013-05-22T19:13:47Z</time>
      </trkpt>
      <trkpt lat="59.8235765" lon="17.6636802">
        <ele>47.2418</ele>
        <time>2013-05-22T19:13:48Z</time>
      </trkpt>
      <trkpt lat="59.8236004" lon="17.6636958">
        <ele>46.2806</ele>
        <time>2013-05-22T19:13:49Z</time>
      </trkpt>
      <trkpt lat="59.8236226" lon="17.6637104">
        <ele>46.2806</ele>
        <time>2013-05-22T19:13:50Z</time>
      </trkpt>
      <trkpt lat="59.8236533" lon="17.6637211">
        <ele>45.7999</ele>
        <time>2013-05-22T19:13:51Z</time>
      </trkpt>
      <trkpt lat="59.8236766" lon="17.663728">
        <ele>44.358</ele>
        <time>2013-05-22T19:13:52Z</time>
      </trkpt>
      <trkpt lat="59.8236968" lon="17.6637249">
        <ele>42.4354</ele>
        <time>2013-05-22T19:13:53Z</time>
      </trkpt>
      <trkpt lat="59.823718" lon="17.6637276">
        <ele>42.4354</ele>
        <time>2013-05-22T19:13:54Z</time>
      </trkpt>
      <trkpt lat="59.8237352" lon="17.6637281">
        <ele>42.4354</ele>
        <time>2013-05-22T19:13:55Z</time>
      </trkpt>
      <trkpt lat="59.8237522" lon="17.663725">
        <ele>41.9547</ele>
        <time>2013-05-22T19:13:56Z</time>
      </trkpt>
      <trkpt lat="59.8237776" lon="17.6637254">
        <ele>42.916</ele>
        <time>2013-05-22T19:13:57Z</time>
      </trkpt>
      <trkpt lat="59.8238004" lon="17.6637259">
        <ele>43.3966</ele>
        <time>2013-05-22T19:13:58Z</time>
      </trkpt>
      <trkpt lat="59.8238121" lon="17.6637286">
        <ele>41.9547</ele>
        <time>2013-05-22T19:13:59Z</time>
      </trkpt>
      <trkpt lat="59.8238318" lon="17.6637364">
        <ele>41.9547</ele>
        <time>2013-05-22T19:14:00Z</time>
      </trkpt>
      <trkpt lat="59.823848" lon="17.6637388">
        <ele>40.0321</ele>
        <time>2013-05-22T19:14:01Z</time>
      </trkpt>
      <trkpt lat="59.8238673" lon="17.6637418">
        <ele>40.0321</ele>
        <time>2013-05-22T19:14:02Z</time>
      </trkpt>
      <trkpt lat="59.8238839" lon="17.6637348">
        <ele>40.5128</ele>
        <time>2013-05-22T19:14:03Z</time>
      </trkpt>
      <trkpt lat="59.8239231" lon="17.6637329">
        <ele>44.358</ele>
        <time>2013-05-22T19:14:04Z</time>
      </trkpt>
      <trkpt lat="59.8239589" lon="17.6637374">
        <ele>46.7612</ele>
        <time>2013-05-22T19:14:05Z</time>
      </trkpt>
      <trkpt lat="59.8239813" lon="17.6637363">
        <ele>45.7999</ele>
        <time>2013-05-22T19:14:06Z</time>
      </trkpt>
      <trkpt lat="59.8240144" lon="17.6637331">
        <ele>45.7999</ele>
        <time>2013-05-22T19:14:07Z</time>
      </trkpt>
      <trkpt lat="59.8240475" lon="17.6637361">
        <ele>48.684</ele>
        <time>2013-05-22T19:14:08Z</time>
      </trkpt>
      <trkpt lat="59.8240667" lon="17.6637299">
        <ele>49.1646</ele>
        <time>2013-05-22T19:14:09Z</time>
      </trkpt>
      <trkpt lat="59.8240999" lon="17.6637353">
        <ele>52.0486</ele>
        <time>2013-05-22T19:14:10Z</time>
      </trkpt>
      <trkpt lat="59.8241319" lon="17.66373">
        <ele>53.0098</ele>
        <time>2013-05-22T19:14:11Z</time>
      </trkpt>
      <trkpt lat="59.8241619" lon="17.6637298">
        <ele>53.9712</ele>
        <time>2013-05-22T19:14:12Z</time>
      </trkpt>
      <trkpt lat="59.8241947" lon="17.6637208">
        <ele>55.4131</ele>
        <time>2013-05-22T19:14:13Z</time>
      </trkpt>
      <trkpt lat="59.8242239" lon="17.6637195">
        <ele>56.3745</ele>
        <time>2013-05-22T19:14:14Z</time>
      </trkpt>
      <trkpt lat="59.8242475" lon="17.6637158">
        <ele>56.8551</ele>
        <time>2013-05-22T19:14:15Z</time>
      </trkpt>
      <trkpt lat="59.8242728" lon="17.6637197">
        <ele>57.3358</ele>
        <time>2013-05-22T19:14:16Z</time>
      </trkpt>
      <trkpt lat="59.8242975" lon="17.6637244">
        <ele>58.7777</ele>
        <time>2013-05-22T19:14:17Z</time>
      </trkpt>
      <trkpt lat="59.8243205" lon="17.6637145">
        <ele>60.2197</ele>
        <time>2013-05-22T19:14:18Z</time>
      </trkpt>
      <trkpt lat="59.8243401" lon="17.6636993">
        <ele>59.2584</ele>
        <time>2013-05-22T19:14:19Z</time>
      </trkpt>
      <trkpt lat="59.8243686" lon="17.6636778">
        <ele>57.3358</ele>
        <time>2013-05-22T19:14:20Z</time>
      </trkpt>
      <trkpt lat="59.8243975" lon="17.6636626">
        <ele>57.8165</ele>
        <time>2013-05-22T19:14:21Z</time>
      </trkpt>
      <trkpt lat="59.8244224" lon="17.6636532">
        <ele>57.8165</ele>
        <time>2013-05-22T19:14:22Z</time>
      </trkpt>
      <trkpt lat="59.8244504" lon="17.6636501">
        <ele>58.2971</ele>
        <time>2013-05-22T19:14:23Z</time>
      </trkpt>
      <trkpt lat="59.8244757" lon="17.6636487">
        <ele>58.2971</ele>
        <time>2013-05-22T19:14:24Z</time>
      </trkpt>
      <trkpt lat="59.8245016" lon="17.663647">
        <ele>58.7777</ele>
        <time>2013-05-22T19:14:25Z</time>
      </trkpt>
      <trkpt lat="59.8245314" lon="17.6636356">
        <ele>58.7777</ele>
        <time>2013-05-22T19:14:26Z</time>
      </trkpt>
      <trkpt lat="59.8245492" lon="17.6636293">
        <ele>57.3358</ele>
        <time>2013-05-22T19:14:27Z</time>
      </trkpt>
      <trkpt lat="59.8245633" lon="17.6636161">
        <ele>55.8938</ele>
        <time>2013-05-22T19:14:28Z</time>
      </trkpt>
      <trkpt lat="59.824583" lon="17.6636053">
        <ele>54.4518</ele>
        <time>2013-05-22T19:14:29Z</time>
      </trkpt>
      <trkpt lat="59.8245984" lon="17.6635895">
        <ele>53.0098</ele>
        <time>2013-05-22T19:14:30Z</time>
      </trkpt>
      <trkpt lat="59.8246134" lon="17.6635698">
        <ele>51.0872</ele>
        <time>2013-05-22T19:14:31Z</time>
      </trkpt>
      <trkpt lat="59.82463" lon="17.6635561">
        <ele>50.126</ele>
        <time>2013-05-22T19:14:32Z</time>
      </trkpt>
      <trkpt lat="59.8246411" lon="17.6635447">
        <ele>48.2034</ele>
        <time>2013-05-22T19:14:33Z</time>
      </trkpt>
      <trkpt lat="59.8246557" lon="17.663528">
        <ele>46.7612</ele>
        <time>2013-05-22T19:14:34Z</time>
      </trkpt>
      <trkpt lat="59.8246661" lon="17.6635103">
        <ele>44.8386</ele>
        <time>2013-05-22T19:14:35Z</time>
      </trkpt>
      <trkpt lat="59.8246758" lon="17.6634968">
        <ele>43.8773</ele>
        <time>2013-05-22T19:14:36Z</time>
      </trkpt>
      <trkpt lat="59.8247022" lon="17.6634776">
        <ele>45.3192</ele>
        <time>2013-05-22T19:14:37Z</time>
      </trkpt>
      <trkpt lat="59.8247141" lon="17.6634621">
        <ele>43.3966</ele>
        <time>2013-05-22T19:14:38Z</time>
      </trkpt>
      <trkpt lat="59.8247393" lon="17.6634493">
        <ele>43.8773</ele>
        <time>2013-05-22T19:14:39Z</time>
      </trkpt>
      <trkpt lat="59.824753" lon="17.6634316">
        <ele>41.9547</ele>
        <time>2013-05-22T19:14:40Z</time>
      </trkpt>
      <trkpt lat="59.8247802" lon="17.6634063">
        <ele>42.4354</ele>
        <time>2013-05-22T19:14:41Z</time>
      </trkpt>
      <trkpt lat="59.8248064" lon="17.6633874">
        <ele>43.3966</ele>
        <time>2013-05-22T19:14:42Z</time>
      </trkpt>
      <trkpt lat="59.8248165" lon="17.6633679">
        <ele>42.4354</ele>
        <time>2013-05-22T19:14:43Z</time>
      </trkpt>
      <trkpt lat="59.8248313" lon="17.6633466">
        <ele>41.474</ele>
        <time>2013-05-22T19:14:44Z</time>
      </trkpt>
      <trkpt lat="59.8248595" lon="17.6633187">
        <ele>42.4354</ele>
        <time>2013-05-22T19:14:45Z</time>
      </trkpt>
      <trkpt lat="59.8248877" lon="17.6632924">
        <ele>43.3966</ele>
        <time>2013-05-22T19:14:46Z</time>
      </trkpt>
      <trkpt lat="59.8249198" lon="17.6632623">
        <ele>45.3192</ele>
        <time>2013-05-22T19:14:47Z</time>
      </trkpt>
      <trkpt lat="59.8249444" lon="17.663241">
        <ele>44.8386</ele>
        <time>2013-05-22T19:14:48Z</time>
      </trkpt>
      <trkpt lat="59.8249605" lon="17.6632156">
        <ele>42.916</ele>
        <time>2013-05-22T19:14:49Z</time>
      </trkpt>
      <trkpt lat="59.8249731" lon="17.663183">
        <ele>41.474</ele>
        <time>2013-05-22T19:14:50Z</time>
      </trkpt>
      <trkpt lat="59.8249844" lon="17.663158">
        <ele>40.0321</ele>
        <time>2013-05-22T19:14:51Z</time>
      </trkpt>
      <trkpt lat="59.8249949" lon="17.6631312">
        <ele>38.1094</ele>
        <time>2013-05-22T19:14:52Z</time>
      </trkpt>
      <trkpt lat="59.8250126" lon="17.6631058">
        <ele>37.6287</ele>
        <time>2013-05-22T19:14:53Z</time>
      </trkpt>
      <trkpt lat="59.8250502" lon="17.6630887">
        <ele>40.9934</ele>
        <time>2013-05-22T19:14:54Z</time>
      </trkpt>
      <trkpt lat="59.8250726" lon="17.6630752">
        <ele>40.9934</ele>
        <time>2013-05-22T19:14:55Z</time>
      </trkpt>
      <trkpt lat="59.8250902" lon="17.6630545">
        <ele>40.9934</ele>
        <time>2013-05-22T19:14:56Z</time>
      </trkpt>
      <trkpt lat="59.8251067" lon="17.6630365">
        <ele>40.0321</ele>
        <time>2013-05-22T19:14:57Z</time>
      </trkpt>
      <trkpt lat="59.8251151" lon="17.6630243">
        <ele>39.5513</ele>
        <time>2013-05-22T19:14:58Z</time>
      </trkpt>
      <trkpt lat="59.825119" lon="17.6630002">
        <ele>37.1481</ele>
        <time>2013-05-22T19:14:59Z</time>
      </trkpt>
      <trkpt lat="59.8251467" lon="17.662971">
        <ele>38.1094</ele>
        <time>2013-05-22T19:15:00Z</time>
      </trkpt>
      <trkpt lat="59.8251685" lon="17.6629484">
        <ele>37.6287</ele>
        <time>2013-05-22T19:15:01Z</time>
      </trkpt>
      <trkpt lat="59.8251834" lon="17.6629223">
        <ele>37.1481</ele>
        <time>2013-05-22T19:15:02Z</time>
      </trkpt>
      <trkpt lat="59.8252032" lon="17.6628872">
        <ele>37.1481</ele>
        <time>2013-05-22T19:15:03Z</time>
      </trkpt>
      <trkpt lat="59.8252211" lon="17.6628537">
        <ele>36.1868</ele>
        <time>2013-05-22T19:15:04Z</time>
      </trkpt>
      <trkpt lat="59.8252534" lon="17.6628161">
        <ele>38.5901</ele>
        <time>2013-05-22T19:15:05Z</time>
      </trkpt>
      <trkpt lat="59.8252859" lon="17.6627878">
        <ele>41.474</ele>
        <time>2013-05-22T19:15:06Z</time>
      </trkpt>
      <trkpt lat="59.8253197" lon="17.6627598">
        <ele>43.8773</ele>
        <time>2013-05-22T19:15:07Z</time>
      </trkpt>
      <trkpt lat="59.8253461" lon="17.6627324">
        <ele>45.7999</ele>
        <time>2013-05-22T19:15:08Z</time>
      </trkpt>
      <trkpt lat="59.82536" lon="17.6627044">
        <ele>44.8386</ele>
        <time>2013-05-22T19:15:09Z</time>
      </trkpt>
      <trkpt lat="59.8253719" lon="17.6626837">
        <ele>43.8773</ele>
        <time>2013-05-22T19:15:10Z</time>
      </trkpt>
      <trkpt lat="59.8253814" lon="17.6626697">
        <ele>43.8773</ele>
        <time>2013-05-22T19:15:11Z</time>
      </trkpt>
      <trkpt lat="59.8253835" lon="17.6626427">
        <ele>41.474</ele>
        <time>2013-05-22T19:15:12Z</time>
      </trkpt>
      <trkpt lat="59.8253951" lon="17.6626188">
        <ele>41.474</ele>
        <time>2013-05-22T19:15:13Z</time>
      </trkpt>
      <trkpt lat="59.8254117" lon="17.6625973">
        <ele>41.9547</ele>
        <time>2013-05-22T19:15:14Z</time>
      </trkpt>
      <trkpt lat="59.8254368" lon="17.6625741">
        <ele>42.4354</ele>
        <time>2013-05-22T19:15:15Z</time>
      </trkpt>
      <trkpt lat="59.8254607" lon="17.6625542">
        <ele>44.358</ele>
        <time>2013-05-22T19:15:16Z</time>
      </trkpt>
      <trkpt lat="59.8254776" lon="17.6625337">
        <ele>44.8386</ele>
        <time>2013-05-22T19:15:17Z</time>
      </trkpt>
      <trkpt lat="59.8254915" lon="17.6625058">
        <ele>44.358</ele>
        <time>2013-05-22T19:15:18Z</time>
      </trkpt>
      <trkpt lat="59.8255124" lon="17.6624729">
        <ele>45.3192</ele>
        <time>2013-05-22T19:15:19Z</time>
      </trkpt>
      <trkpt lat="59.8255342" lon="17.6624453">
        <ele>45.7999</ele>
        <time>2013-05-22T19:15:20Z</time>
      </trkpt>
      <trkpt lat="59.8255382" lon="17.6624183">
        <ele>44.358</ele>
        <time>2013-05-22T19:15:21Z</time>
      </trkpt>
      <trkpt lat="59.8255466" lon="17.6623895">
        <ele>44.358</ele>
        <time>2013-05-22T19:15:22Z</time>
      </trkpt>
      <trkpt lat="59.8255559" lon="17.6623551">
        <ele>44.358</ele>
        <time>2013-05-22T19:15:23Z</time>
      </trkpt>
      <trkpt lat="59.8255662" lon="17.6623215">
        <ele>43.8773</ele>
        <time>2013-05-22T19:15:24Z</time>
      </trkpt>
      <trkpt lat="59.825577" lon="17.6622796">
        <ele>43.3966</ele>
        <time>2013-05-22T19:15:25Z</time>
      </trkpt>
      <trkpt lat="59.8255923" lon="17.6622476">
        <ele>42.916</ele>
        <time>2013-05-22T19:15:26Z</time>
      </trkpt>
      <trkpt lat="59.8256009" lon="17.6622154">
        <ele>41.9547</ele>
        <time>2013-05-22T19:15:27Z</time>
      </trkpt>
      <trkpt lat="59.8256103" lon="17.6621779">
        <ele>40.5128</ele>
        <time>2013-05-22T19:15:28Z</time>
      </trkpt>
      <trkpt lat="59.8256248" lon="17.6621434">
        <ele>40.0321</ele>
        <time>2013-05-22T19:15:29Z</time>
      </trkpt>
      <trkpt lat="59.8256399" lon="17.6621108">
        <ele>39.0707</ele>
        <time>2013-05-22T19:15:30Z</time>
      </trkpt>
      <trkpt lat="59.8256502" lon="17.6620786">
        <ele>38.1094</ele>
        <time>2013-05-22T19:15:31Z</time>
      </trkpt>
      <trkpt lat="59.8256589" lon="17.6620538">
        <ele>38.5901</ele>
        <time>2013-05-22T19:15:32Z</time>
      </trkpt>
      <trkpt lat="59.8256719" lon="17.6620304">
        <ele>38.5901</ele>
        <time>2013-05-22T19:15:33Z</time>
      </trkpt>
      <trkpt lat="59.8256802" lon="17.6619999">
        <ele>37.6287</ele>
        <time>2013-05-22T19:15:34Z</time>
      </trkpt>
      <trkpt lat="59.8256842" lon="17.6619727">
        <ele>36.6675</ele>
        <time>2013-05-22T19:15:35Z</time>
      </trkpt>
      <trkpt lat="59.8256989" lon="17.6619543">
        <ele>37.1481</ele>
        <time>2013-05-22T19:15:36Z</time>
      </trkpt>
      <trkpt lat="59.8257081" lon="17.6619324">
        <ele>36.1868</ele>
        <time>2013-05-22T19:15:37Z</time>
      </trkpt>
      <trkpt lat="59.8257222" lon="17.6619052">
        <ele>34.7449</ele>
        <time>2013-05-22T19:15:38Z</time>
      </trkpt>
      <trkpt lat="59.8257434" lon="17.6618849">
        <ele>35.7061</ele>
        <time>2013-05-22T19:15:39Z</time>
      </trkpt>
      <trkpt lat="59.8257569" lon="17.6618577">
        <ele>35.7061</ele>
        <time>2013-05-22T19:15:40Z</time>
      </trkpt>
      <trkpt lat="59.8257666" lon="17.6618256">
        <ele>34.2642</ele>
        <time>2013-05-22T19:15:41Z</time>
      </trkpt>
      <trkpt lat="59.8257838" lon="17.6617973">
        <ele>33.7834</ele>
        <time>2013-05-22T19:15:42Z</time>
      </trkpt>
      <trkpt lat="59.8258098" lon="17.6617817">
        <ele>35.7061</ele>
        <time>2013-05-22T19:15:43Z</time>
      </trkpt>
      <trkpt lat="59.8258391" lon="17.6617651">
        <ele>37.6287</ele>
        <time>2013-05-22T19:15:44Z</time>
      </trkpt>
      <trkpt lat="59.8258707" lon="17.6617386">
        <ele>40.0321</ele>
        <time>2013-05-22T19:15:45Z</time>
      </trkpt>
      <trkpt lat="59.8258993" lon="17.6617061">
        <ele>40.5128</ele>
        <time>2013-05-22T19:15:46Z</time>
      </trkpt>
      <trkpt lat="59.8259273" lon="17.6616865">
        <ele>42.916</ele>
        <time>2013-05-22T19:15:47Z</time>
      </trkpt>
      <trkpt lat="59.8259434" lon="17.6616658">
        <ele>43.3966</ele>
        <time>2013-05-22T19:15:48Z</time>
      </trkpt>
      <trkpt lat="59.8259644" lon="17.6616454">
        <ele>42.916</ele>
        <time>2013-05-22T19:15:49Z</time>
      </trkpt>
      <trkpt lat="59.8259825" lon="17.6616258">
        <ele>42.4354</ele>
        <time>2013-05-22T19:15:50Z</time>
      </trkpt>
      <trkpt lat="59.8260002" lon="17.6616071">
        <ele>42.916</ele>
        <time>2013-05-22T19:15:51Z</time>
      </trkpt>
      <trkpt lat="59.8260122" lon="17.6615879">
        <ele>42.4354</ele>
        <time>2013-05-22T19:15:52Z</time>
      </trkpt>
      <trkpt lat="59.8260263" lon="17.661573">
        <ele>41.474</ele>
        <time>2013-05-22T19:15:53Z</time>
      </trkpt>
      <trkpt lat="59.8260423" lon="17.661559">
        <ele>41.474</ele>
        <time>2013-05-22T19:15:54Z</time>
      </trkpt>
      <trkpt lat="59.8260563" lon="17.6615394">
        <ele>40.5128</ele>
        <time>2013-05-22T19:15:55Z</time>
      </trkpt>
      <trkpt lat="59.8260738" lon="17.6615216">
        <ele>39.0707</ele>
        <time>2013-05-22T19:15:56Z</time>
      </trkpt>
      <trkpt lat="59.8260918" lon="17.6615041">
        <ele>39.0707</ele>
        <time>2013-05-22T19:15:57Z</time>
      </trkpt>
      <trkpt lat="59.826131" lon="17.6614876">
        <ele>42.916</ele>
        <time>2013-05-22T19:15:58Z</time>
      </trkpt>
      <trkpt lat="59.8261515" lon="17.661469">
        <ele>42.4354</ele>
        <time>2013-05-22T19:15:59Z</time>
      </trkpt>
      <trkpt lat="59.8261677" lon="17.6614499">
        <ele>41.9547</ele>
        <time>2013-05-22T19:16:00Z</time>
      </trkpt>
      <trkpt lat="59.8261868" lon="17.6614219">
        <ele>40.5128</ele>
        <time>2013-05-22T19:16:01Z</time>
      </trkpt>
      <trkpt lat="59.8262113" lon="17.6614099">
        <ele>40.5128</ele>
        <time>2013-05-22T19:16:02Z</time>
      </trkpt>
      <trkpt lat="59.8262367" lon="17.6614007">
        <ele>41.474</ele>
        <time>2013-05-22T19:16:03Z</time>
      </trkpt>
      <trkpt lat="59.8262524" lon="17.6613877">
        <ele>40.5128</ele>
        <time>2013-05-22T19:16:04Z</time>
      </trkpt>
      <trkpt lat="59.8262687" lon="17.6613797">
        <ele>40.0321</ele>
        <time>2013-05-22T19:16:05Z</time>
      </trkpt>
      <trkpt lat="59.8262832" lon="17.6613675">
        <ele>39.0707</ele>
        <time>2013-05-22T19:16:06Z</time>
      </trkpt>
      <trkpt lat="59.8262946" lon="17.6613498">
        <ele>38.1094</ele>
        <time>2013-05-22T19:16:07Z</time>
      </trkpt>
      <trkpt lat="59.8263089" lon="17.6613237">
        <ele>37.1481</ele>
        <time>2013-05-22T19:16:08Z</time>
      </trkpt>
      <trkpt lat="59.8263272" lon="17.6613037">
        <ele>36.1868</ele>
        <time>2013-05-22T19:16:09Z</time>
      </trkpt>
      <trkpt lat="59.8263509" lon="17.6612879">
        <ele>35.7061</ele>
        <time>2013-05-22T19:16:10Z</time>
      </trkpt>
      <trkpt lat="59.8263729" lon="17.6612665">
        <ele>35.2255</ele>
        <time>2013-05-22T19:16:11Z</time>
      </trkpt>
      <trkpt lat="59.8263882" lon="17.6612434">
        <ele>34.7449</ele>
        <time>2013-05-22T19:16:12Z</time>
      </trkpt>
      <trkpt lat="59.826405" lon="17.6612234">
        <ele>34.2642</ele>
        <time>2013-05-22T19:16:13Z</time>
      </trkpt>
      <trkpt lat="59.8264323" lon="17.6612047">
        <ele>35.7061</ele>
        <time>2013-05-22T19:16:14Z</time>
      </trkpt>
      <trkpt lat="59.8264516" lon="17.6611741">
        <ele>34.7449</ele>
        <time>2013-05-22T19:16:15Z</time>
      </trkpt>
      <trkpt lat="59.826467" lon="17.6611481">
        <ele>34.7449</ele>
        <time>2013-05-22T19:16:16Z</time>
      </trkpt>
      <trkpt lat="59.8264819" lon="17.6611222">
        <ele>33.7834</ele>
        <time>2013-05-22T19:16:17Z</time>
      </trkpt>
      <trkpt lat="59.8265024" lon="17.6610974">
        <ele>35.2255</ele>
        <time>2013-05-22T19:16:18Z</time>
      </trkpt>
      <trkpt lat="59.826522" lon="17.661066">
        <ele>34.7449</ele>
        <time>2013-05-22T19:16:19Z</time>
      </trkpt>
      <trkpt lat="59.8265583" lon="17.6610385">
        <ele>37.6287</ele>
        <time>2013-05-22T19:16:20Z</time>
      </trkpt>
      <trkpt lat="59.8265655" lon="17.6610058">
        <ele>35.2255</ele>
        <time>2013-05-22T19:16:21Z</time>
      </trkpt>
      <trkpt lat="59.8265795" lon="17.6609764">
        <ele>33.7834</ele>
        <time>2013-05-22T19:16:22Z</time>
      </trkpt>
      <trkpt lat="59.8265976" lon="17.6609513">
        <ele>33.3029</ele>
        <time>2013-05-22T19:16:23Z</time>
      </trkpt>
      <trkpt lat="59.8266171" lon="17.6609272">
        <ele>33.3029</ele>
        <time>2013-05-22T19:16:24Z</time>
      </trkpt>
      <trkpt lat="59.8266396" lon="17.6609015">
        <ele>33.3029</ele>
        <time>2013-05-22T19:16:25Z</time>
      </trkpt>
      <trkpt lat="59.8266639" lon="17.6608772">
        <ele>33.7834</ele>
        <time>2013-05-22T19:16:26Z</time>
      </trkpt>
      <trkpt lat="59.8266883" lon="17.660854">
        <ele>34.7449</ele>
        <time>2013-05-22T19:16:27Z</time>
      </trkpt>
      <trkpt lat="59.8267101" lon="17.6608302">
        <ele>35.7061</ele>
        <time>2013-05-22T19:16:28Z</time>
      </trkpt>
      <trkpt lat="59.8267286" lon="17.6608059">
        <ele>36.1868</ele>
        <time>2013-05-22T19:16:29Z</time>
      </trkpt>
      <trkpt lat="59.8267452" lon="17.66078">
        <ele>35.7061</ele>
        <time>2013-05-22T19:16:30Z</time>
      </trkpt>
      <trkpt lat="59.8267629" lon="17.6607619">
        <ele>36.1868</ele>
        <time>2013-05-22T19:16:31Z</time>
      </trkpt>
      <trkpt lat="59.8267862" lon="17.6607386">
        <ele>37.6287</ele>
        <time>2013-05-22T19:16:32Z</time>
      </trkpt>
      <trkpt lat="59.8268077" lon="17.6607133">
        <ele>38.5901</ele>
        <time>2013-05-22T19:16:33Z</time>
      </trkpt>
      <trkpt lat="59.8268259" lon="17.6606919">
        <ele>39.0707</ele>
        <time>2013-05-22T19:16:34Z</time>
      </trkpt>
      <trkpt lat="59.8268368" lon="17.6606672">
        <ele>37.1481</ele>
        <time>2013-05-22T19:16:35Z</time>
      </trkpt>
      <trkpt lat="59.8268456" lon="17.6606528">
        <ele>35.7061</ele>
        <time>2013-05-22T19:16:36Z</time>
      </trkpt>
      <trkpt lat="59.8268618" lon="17.6606343">
        <ele>35.2255</ele>
        <time>2013-05-22T19:16:37Z</time>
      </trkpt>
      <trkpt lat="59.8268783" lon="17.6606137">
        <ele>36.1868</ele>
        <time>2013-05-22T19:16:38Z</time>
      </trkpt>
      <trkpt lat="59.8268904" lon="17.6605878">
        <ele>36.1868</ele>
        <time>2013-05-22T19:16:39Z</time>
      </trkpt>
      <trkpt lat="59.8268991" lon="17.6605519">
        <ele>33.7834</ele>
        <time>2013-05-22T19:16:40Z</time>
      </trkpt>
      <trkpt lat="59.8269171" lon="17.66052">
        <ele>33.7834</ele>
        <time>2013-05-22T19:16:41Z</time>
      </trkpt>
      <trkpt lat="59.8269329" lon="17.6604903">
        <ele>33.3029</ele>
        <time>2013-05-22T19:16:42Z</time>
      </trkpt>
      <trkpt lat="59.8269528" lon="17.6604607">
        <ele>33.3029</ele>
        <time>2013-05-22T19:16:43Z</time>
      </trkpt>
      <trkpt lat="59.8269759" lon="17.6604315">
        <ele>33.7834</ele>
        <time>2013-05-22T19:16:44Z</time>
      </trkpt>
      <trkpt lat="59.8269918" lon="17.6604063">
        <ele>33.3029</ele>
        <time>2013-05-22T19:16:45Z</time>
      </trkpt>
      <trkpt lat="59.8270028" lon="17.6603708">
        <ele>33.3029</ele>
        <time>2013-05-22T19:16:46Z</time>
      </trkpt>
      <trkpt lat="59.8270146" lon="17.6603406">
        <ele>32.8223</ele>
        <time>2013-05-22T19:16:47Z</time>
      </trkpt>
      <trkpt lat="59.827039" lon="17.6603149">
        <ele>34.2642</ele>
        <time>2013-05-22T19:16:48Z</time>
      </trkpt>
      <trkpt lat="59.8270525" lon="17.6602794">
        <ele>33.7834</ele>
        <time>2013-05-22T19:16:49Z</time>
      </trkpt>
      <trkpt lat="59.8270643" lon="17.6602563">
        <ele>35.2255</ele>
        <time>2013-05-22T19:16:50Z</time>
      </trkpt>
      <trkpt lat="59.8270929" lon="17.660239">
        <ele>38.5901</ele>
        <time>2013-05-22T19:16:51Z</time>
      </trkpt>
      <trkpt lat="59.827118" lon="17.6602157">
        <ele>40.9934</ele>
        <time>2013-05-22T19:16:52Z</time>
      </trkpt>
      <trkpt lat="59.8271301" lon="17.6601799">
        <ele>40.9934</ele>
        <time>2013-05-22T19:16:53Z</time>
      </trkpt>
      <trkpt lat="59.827142" lon="17.6601496">
        <ele>40.5128</ele>
        <time>2013-05-22T19:16:54Z</time>
      </trkpt>
      <trkpt lat="59.8271579" lon="17.6601241">
        <ele>41.474</ele>
        <time>2013-05-22T19:16:55Z</time>
      </trkpt>
      <trkpt lat="59.8271677" lon="17.6600997">
        <ele>41.9547</ele>
        <time>2013-05-22T19:16:56Z</time>
      </trkpt>
      <trkpt lat="59.8271825" lon="17.6600805">
        <ele>41.9547</ele>
        <time>2013-05-22T19:16:57Z</time>
      </trkpt>
      <trkpt lat="59.8272089" lon="17.6600538">
        <ele>42.916</ele>
        <time>2013-05-22T19:16:58Z</time>
      </trkpt>
      <trkpt lat="59.8272395" lon="17.6600259">
        <ele>44.8386</ele>
        <time>2013-05-22T19:16:59Z</time>
      </trkpt>
      <trkpt lat="59.8272741" lon="17.6599921">
        <ele>45.7999</ele>
        <time>2013-05-22T19:17:00Z</time>
      </trkpt>
      <trkpt lat="59.8273112" lon="17.6599745">
        <ele>49.6453</ele>
        <time>2013-05-22T19:17:01Z</time>
      </trkpt>
      <trkpt lat="59.827318" lon="17.6599527">
        <ele>50.126</ele>
        <time>2013-05-22T19:17:02Z</time>
      </trkpt>
      <trkpt lat="59.8273309" lon="17.6599411">
        <ele>51.0872</ele>
        <time>2013-05-22T19:17:03Z</time>
      </trkpt>
      <trkpt lat="59.8273463" lon="17.6599299">
        <ele>51.0872</ele>
        <time>2013-05-22T19:17:04Z</time>
      </trkpt>
      <trkpt lat="59.8273636" lon="17.6599154">
        <ele>50.126</ele>
        <time>2013-05-22T19:17:05Z</time>
      </trkpt>
      <trkpt lat="59.8273803" lon="17.659905">
        <ele>50.126</ele>
        <time>2013-05-22T19:17:06Z</time>
      </trkpt>
      <trkpt lat="59.8274093" lon="17.6599111">
        <ele>53.4905</ele>
        <time>2013-05-22T19:17:07Z</time>
      </trkpt>
      <trkpt lat="59.8274302" lon="17.65991">
        <ele>53.9712</ele>
        <time>2013-05-22T19:17:08Z</time>
      </trkpt>
      <trkpt lat="59.8274374" lon="17.6599082">
        <ele>53.4905</ele>
        <time>2013-05-22T19:17:09Z</time>
      </trkpt>
      <trkpt lat="59.8274618" lon="17.6598973">
        <ele>53.9712</ele>
        <time>2013-05-22T19:17:10Z</time>
      </trkpt>
      <trkpt lat="59.8274824" lon="17.6598869">
        <ele>54.4518</ele>
        <time>2013-05-22T19:17:11Z</time>
      </trkpt>
      <trkpt lat="59.8274937" lon="17.6598665">
        <ele>52.5292</ele>
        <time>2013-05-22T19:17:12Z</time>
      </trkpt>
      <trkpt lat="59.8275119" lon="17.6598439">
        <ele>53.4905</ele>
        <time>2013-05-22T19:17:13Z</time>
      </trkpt>
      <trkpt lat="59.827528" lon="17.6598254">
        <ele>52.0486</ele>
        <time>2013-05-22T19:17:14Z</time>
      </trkpt>
      <trkpt lat="59.8275407" lon="17.659804">
        <ele>50.126</ele>
        <time>2013-05-22T19:17:15Z</time>
      </trkpt>
      <trkpt lat="59.8275627" lon="17.6597968">
        <ele>50.126</ele>
        <time>2013-05-22T19:17:16Z</time>
      </trkpt>
      <trkpt lat="59.8275847" lon="17.6597751">
        <ele>49.1646</ele>
        <time>2013-05-22T19:17:17Z</time>
      </trkpt>
      <trkpt lat="59.8276026" lon="17.6597536">
        <ele>48.2034</ele>
        <time>2013-05-22T19:17:18Z</time>
      </trkpt>
      <trkpt lat="59.8276246" lon="17.6597398">
        <ele>48.684</ele>
        <time>2013-05-22T19:17:19Z</time>
      </trkpt>
      <trkpt lat="59.8276435" lon="17.6597222">
        <ele>47.2418</ele>
        <time>2013-05-22T19:17:20Z</time>
      </trkpt>
      <trkpt lat="59.8276637" lon="17.6597059">
        <ele>46.7612</ele>
        <time>2013-05-22T19:17:21Z</time>
      </trkpt>
      <trkpt lat="59.8276892" lon="17.6596931">
        <ele>49.1646</ele>
        <time>2013-05-22T19:17:22Z</time>
      </trkpt>
      <trkpt lat="59.827708" lon="17.6596801">
        <ele>50.126</ele>
        <time>2013-05-22T19:17:23Z</time>
      </trkpt>
      <trkpt lat="59.8277252" lon="17.6596702">
        <ele>52.0486</ele>
        <time>2013-05-22T19:17:24Z</time>
      </trkpt>
      <trkpt lat="59.8277553" lon="17.6596558">
        <ele>54.9324</ele>
        <time>2013-05-22T19:17:25Z</time>
      </trkpt>
      <trkpt lat="59.8277795" lon="17.6596344">
        <ele>55.4131</ele>
        <time>2013-05-22T19:17:26Z</time>
      </trkpt>
      <trkpt lat="59.8278092" lon="17.6596068">
        <ele>56.8551</ele>
        <time>2013-05-22T19:17:27Z</time>
      </trkpt>
      <trkpt lat="59.8278388" lon="17.6595787">
        <ele>57.3358</ele>
        <time>2013-05-22T19:17:28Z</time>
      </trkpt>
      <trkpt lat="59.8278673" lon="17.6595575">
        <ele>58.7777</ele>
        <time>2013-05-22T19:17:29Z</time>
      </trkpt>
      <trkpt lat="59.8278943" lon="17.6595368">
        <ele>60.2197</ele>
        <time>2013-05-22T19:17:30Z</time>
      </trkpt>
      <trkpt lat="59.8279237" lon="17.6595251">
        <ele>61.6617</ele>
        <time>2013-05-22T19:17:31Z</time>
      </trkpt>
      <trkpt lat="59.8279516" lon="17.6595148">
        <ele>62.6229</ele>
        <time>2013-05-22T19:17:32Z</time>
      </trkpt>
      <trkpt lat="59.8279749" lon="17.6595067">
        <ele>61.6617</ele>
        <time>2013-05-22T19:17:33Z</time>
      </trkpt>
      <trkpt lat="59.827996" lon="17.6594978">
        <ele>61.181</ele>
        <time>2013-05-22T19:17:34Z</time>
      </trkpt>
      <trkpt lat="59.8280112" lon="17.6594885">
        <ele>60.2197</ele>
        <time>2013-05-22T19:17:35Z</time>
      </trkpt>
      <trkpt lat="59.8280186" lon="17.6594723">
        <ele>58.7777</ele>
        <time>2013-05-22T19:17:36Z</time>
      </trkpt>
      <trkpt lat="59.8280352" lon="17.6594497">
        <ele>58.2971</ele>
        <time>2013-05-22T19:17:37Z</time>
      </trkpt>
      <trkpt lat="59.8280497" lon="17.6594288">
        <ele>57.8165</ele>
        <time>2013-05-22T19:17:38Z</time>
      </trkpt>
      <trkpt lat="59.8280553" lon="17.6594102">
        <ele>55.4131</ele>
        <time>2013-05-22T19:17:39Z</time>
      </trkpt>
      <trkpt lat="59.8280623" lon="17.6593868">
        <ele>53.0098</ele>
        <time>2013-05-22T19:17:40Z</time>
      </trkpt>
      <trkpt lat="59.828082" lon="17.6593754">
        <ele>53.0098</ele>
        <time>2013-05-22T19:17:41Z</time>
      </trkpt>
      <trkpt lat="59.8281082" lon="17.65937">
        <ele>53.9712</ele>
        <time>2013-05-22T19:17:42Z</time>
      </trkpt>
      <trkpt lat="59.8281284" lon="17.6593565">
        <ele>53.4905</ele>
        <time>2013-05-22T19:17:43Z</time>
      </trkpt>
      <trkpt lat="59.8281417" lon="17.6593327">
        <ele>52.0486</ele>
        <time>2013-05-22T19:17:44Z</time>
      </trkpt>
      <trkpt lat="59.8281624" lon="17.6593211">
        <ele>51.5679</ele>
        <time>2013-05-22T19:17:45Z</time>
      </trkpt>
      <trkpt lat="59.8281803" lon="17.6592963">
        <ele>51.0872</ele>
        <time>2013-05-22T19:17:46Z</time>
      </trkpt>
      <trkpt lat="59.828192" lon="17.6592648">
        <ele>48.684</ele>
        <time>2013-05-22T19:17:47Z</time>
      </trkpt>
      <trkpt lat="59.8282112" lon="17.6592514">
        <ele>47.7225</ele>
        <time>2013-05-22T19:17:48Z</time>
      </trkpt>
      <trkpt lat="59.8282292" lon="17.6592416">
        <ele>46.2806</ele>
        <time>2013-05-22T19:17:49Z</time>
      </trkpt>
      <trkpt lat="59.8282578" lon="17.6592301">
        <ele>47.2418</ele>
        <time>2013-05-22T19:17:50Z</time>
      </trkpt>
      <trkpt lat="59.8282764" lon="17.6592209">
        <ele>46.7612</ele>
        <time>2013-05-22T19:17:51Z</time>
      </trkpt>
      <trkpt lat="59.828292" lon="17.6592089">
        <ele>46.2806</ele>
        <time>2013-05-22T19:17:52Z</time>
      </trkpt>
      <trkpt lat="59.8283098" lon="17.6591959">
        <ele>45.3192</ele>
        <time>2013-05-22T19:17:53Z</time>
      </trkpt>
      <trkpt lat="59.8283276" lon="17.6591796">
        <ele>44.8386</ele>
        <time>2013-05-22T19:17:54Z</time>
      </trkpt>
      <trkpt lat="59.8283447" lon="17.6591667">
        <ele>44.8386</ele>
        <time>2013-05-22T19:17:55Z</time>
      </trkpt>
      <trkpt lat="59.8283609" lon="17.6591399">
        <ele>42.916</ele>
        <time>2013-05-22T19:17:56Z</time>
      </trkpt>
      <trkpt lat="59.8283739" lon="17.6591211">
        <ele>41.474</ele>
        <time>2013-05-22T19:17:57Z</time>
      </trkpt>
      <trkpt lat="59.8283926" lon="17.6591081">
        <ele>40.5128</ele>
        <time>2013-05-22T19:17:58Z</time>
      </trkpt>
      <trkpt lat="59.8284044" lon="17.6590883">
        <ele>38.1094</ele>
        <time>2013-05-22T19:17:59Z</time>
      </trkpt>
      <trkpt lat="59.8284229" lon="17.6590741">
        <ele>37.6287</ele>
        <time>2013-05-22T19:18:00Z</time>
      </trkpt>
      <trkpt lat="59.8284411" lon="17.6590591">
        <ele>37.1481</ele>
        <time>2013-05-22T19:18:01Z</time>
      </trkpt>
      <trkpt lat="59.8284558" lon="17.6590466">
        <ele>36.6675</ele>
        <time>2013-05-22T19:18:02Z</time>
      </trkpt>
      <trkpt lat="59.8284729" lon="17.6590291">
        <ele>36.6675</ele>
        <time>2013-05-22T19:18:03Z</time>
      </trkpt>
      <trkpt lat="59.8284911" lon="17.6590111">
        <ele>36.6675</ele>
        <time>2013-05-22T19:18:04Z</time>
      </trkpt>
      <trkpt lat="59.8285025" lon="17.6589887">
        <ele>35.2255</ele>
        <time>2013-05-22T19:18:05Z</time>
      </trkpt>
      <trkpt lat="59.828517" lon="17.6589652">
        <ele>33.7834</ele>
        <time>2013-05-22T19:18:06Z</time>
      </trkpt>
      <trkpt lat="59.8285361" lon="17.6589502">
        <ele>32.8223</ele>
        <time>2013-05-22T19:18:07Z</time>
      </trkpt>
      <trkpt lat="59.8285576" lon="17.6589391">
        <ele>33.3029</ele>
        <time>2013-05-22T19:18:08Z</time>
      </trkpt>
      <trkpt lat="59.8285748" lon="17.6589269">
        <ele>32.3416</ele>
        <time>2013-05-22T19:18:09Z</time>
      </trkpt>
      <trkpt lat="59.8285862" lon="17.6589201">
        <ele>31.3801</ele>
        <time>2013-05-22T19:18:10Z</time>
      </trkpt>
      <trkpt lat="59.828597" lon="17.6589088">
        <ele>29.9381</ele>
        <time>2013-05-22T19:18:11Z</time>
      </trkpt>
      <trkpt lat="59.8286047" lon="17.6589108">
        <ele>28.4962</ele>
        <time>2013-05-22T19:18:12Z</time>
      </trkpt>
      <trkpt lat="59.8286145" lon="17.6589047">
        <ele>26.5736</ele>
        <time>2013-05-22T19:18:13Z</time>
      </trkpt>
      <trkpt lat="59.8286296" lon="17.6588823">
        <ele>25.1317</ele>
        <time>2013-05-22T19:18:14Z</time>
      </trkpt>
      <trkpt lat="59.82865" lon="17.6588471">
        <ele>23.6896</ele>
        <time>2013-05-22T19:18:15Z</time>
      </trkpt>
      <trkpt lat="59.8286712" lon="17.6588167">
        <ele>24.1703</ele>
        <time>2013-05-22T19:18:16Z</time>
      </trkpt>
      <trkpt lat="59.8287277" lon="17.6587893">
        <ele>30.4188</ele>
        <time>2013-05-22T19:18:17Z</time>
      </trkpt>
      <trkpt lat="59.8287386" lon="17.6587736">
        <ele>28.0155</ele>
        <time>2013-05-22T19:18:18Z</time>
      </trkpt>
      <trkpt lat="59.8287514" lon="17.6587571">
        <ele>26.5736</ele>
        <time>2013-05-22T19:18:19Z</time>
      </trkpt>
      <trkpt lat="59.8287815" lon="17.6587276">
        <ele>26.0929</ele>
        <time>2013-05-22T19:18:20Z</time>
      </trkpt>
      <trkpt lat="59.8288235" lon="17.6586955">
        <ele>28.4962</ele>
        <time>2013-05-22T19:18:21Z</time>
      </trkpt>
      <trkpt lat="59.8288515" lon="17.6586711">
        <ele>29.9381</ele>
        <time>2013-05-22T19:18:22Z</time>
      </trkpt>
      <trkpt lat="59.8288767" lon="17.6586572">
        <ele>29.9381</ele>
        <time>2013-05-22T19:18:23Z</time>
      </trkpt>
      <trkpt lat="59.8289059" lon="17.658642">
        <ele>29.4575</ele>
        <time>2013-05-22T19:18:24Z</time>
      </trkpt>
      <trkpt lat="59.8289353" lon="17.6586219">
        <ele>28.9769</ele>
        <time>2013-05-22T19:18:25Z</time>
      </trkpt>
      <trkpt lat="59.8289643" lon="17.6586095">
        <ele>28.4962</ele>
        <time>2013-05-22T19:18:26Z</time>
      </trkpt>
      <trkpt lat="59.8290003" lon="17.6585903">
        <ele>30.8995</ele>
        <time>2013-05-22T19:18:27Z</time>
      </trkpt>
      <trkpt lat="59.8290554" lon="17.6585764">
        <ele>36.1868</ele>
        <time>2013-05-22T19:18:28Z</time>
      </trkpt>
      <trkpt lat="59.8290873" lon="17.6585642">
        <ele>36.1868</ele>
        <time>2013-05-22T19:18:29Z</time>
      </trkpt>
      <trkpt lat="59.8291149" lon="17.6585303">
        <ele>33.7834</ele>
        <time>2013-05-22T19:18:30Z</time>
      </trkpt>
      <trkpt lat="59.8291602" lon="17.6585137">
        <ele>37.1481</ele>
        <time>2013-05-22T19:18:31Z</time>
      </trkpt>
      <trkpt lat="59.8291908" lon="17.6585012">
        <ele>37.6287</ele>
        <time>2013-05-22T19:18:32Z</time>
      </trkpt>
      <trkpt lat="59.8292145" lon="17.6584759">
        <ele>37.1481</ele>
        <time>2013-05-22T19:18:33Z</time>
      </trkpt>
      <trkpt lat="59.8292457" lon="17.6584641">
        <ele>37.1481</ele>
        <time>2013-05-22T19:18:34Z</time>
      </trkpt>
      <trkpt lat="59.8292781" lon="17.6584546">
        <ele>37.6287</ele>
        <time>2013-05-22T19:18:35Z</time>
      </trkpt>
      <trkpt lat="59.8293045" lon="17.6584437">
        <ele>37.1481</ele>
        <time>2013-05-22T19:18:36Z</time>
      </trkpt>
      <trkpt lat="59.8293452" lon="17.6584233">
        <ele>40.0321</ele>
        <time>2013-05-22T19:18:37Z</time>
      </trkpt>
      <trkpt lat="59.8293632" lon="17.6584211">
        <ele>40.5128</ele>
        <time>2013-05-22T19:18:38Z</time>
      </trkpt>
      <trkpt lat="59.8293995" lon="17.6584095">
        <ele>42.916</ele>
        <time>2013-05-22T19:18:39Z</time>
      </trkpt>
      <trkpt lat="59.8294361" lon="17.6583943">
        <ele>45.7999</ele>
        <time>2013-05-22T19:18:40Z</time>
      </trkpt>
      <trkpt lat="59.8294791" lon="17.6583819">
        <ele>49.6453</ele>
        <time>2013-05-22T19:18:41Z</time>
      </trkpt>
      <trkpt lat="59.8295156" lon="17.6583674">
        <ele>52.5292</ele>
        <time>2013-05-22T19:18:42Z</time>
      </trkpt>
      <trkpt lat="59.8295379" lon="17.6583482">
        <ele>52.5292</ele>
        <time>2013-05-22T19:18:43Z</time>
      </trkpt>
      <trkpt lat="59.8295656" lon="17.6583236">
        <ele>53.0098</ele>
        <time>2013-05-22T19:18:44Z</time>
      </trkpt>
      <trkpt lat="59.829588" lon="17.6583039">
        <ele>53.9712</ele>
        <time>2013-05-22T19:18:45Z</time>
      </trkpt>
      <trkpt lat="59.8296093" lon="17.6582904">
        <ele>53.9712</ele>
        <time>2013-05-22T19:18:46Z</time>
      </trkpt>
      <trkpt lat="59.829647" lon="17.6582894">
        <ele>54.9324</ele>
        <time>2013-05-22T19:18:47Z</time>
      </trkpt>
      <trkpt lat="59.8296711" lon="17.6582821">
        <ele>53.0098</ele>
        <time>2013-05-22T19:18:48Z</time>
      </trkpt>
      <trkpt lat="59.8297098" lon="17.6582718">
        <ele>53.4905</ele>
        <time>2013-05-22T19:18:49Z</time>
      </trkpt>
      <trkpt lat="59.8297509" lon="17.6582639">
        <ele>55.8938</ele>
        <time>2013-05-22T19:18:50Z</time>
      </trkpt>
      <trkpt lat="59.8297787" lon="17.6582629">
        <ele>57.3358</ele>
        <time>2013-05-22T19:18:51Z</time>
      </trkpt>
      <trkpt lat="59.8298107" lon="17.6582722">
        <ele>58.7777</ele>
        <time>2013-05-22T19:18:52Z</time>
      </trkpt>
      <trkpt lat="59.8298293" lon="17.6582739">
        <ele>57.3358</ele>
        <time>2013-05-22T19:18:53Z</time>
      </trkpt>
      <trkpt lat="59.8298545" lon="17.6582667">
        <ele>57.3358</ele>
        <time>2013-05-22T19:18:54Z</time>
      </trkpt>
      <trkpt lat="59.8298863" lon="17.6582712">
        <ele>59.2584</ele>
        <time>2013-05-22T19:18:55Z</time>
      </trkpt>
      <trkpt lat="59.8299148" lon="17.6582697">
        <ele>59.7391</ele>
        <time>2013-05-22T19:18:56Z</time>
      </trkpt>
      <trkpt lat="59.8299362" lon="17.6582625">
        <ele>59.2584</ele>
        <time>2013-05-22T19:18:57Z</time>
      </trkpt>
      <trkpt lat="59.8299755" lon="17.6582527">
        <ele>61.181</ele>
        <time>2013-05-22T19:18:58Z</time>
      </trkpt>
      <trkpt lat="59.8300187" lon="17.6582451">
        <ele>63.5844</ele>
        <time>2013-05-22T19:18:59Z</time>
      </trkpt>
      <trkpt lat="59.8300432" lon="17.6582247">
        <ele>62.6229</ele>
        <time>2013-05-22T19:19:00Z</time>
      </trkpt>
      <trkpt lat="59.8300668" lon="17.6582104">
        <ele>61.6617</ele>
        <time>2013-05-22T19:19:01Z</time>
      </trkpt>
      <trkpt lat="59.8300844" lon="17.6582044">
        <ele>61.6617</ele>
        <time>2013-05-22T19:19:02Z</time>
      </trkpt>
      <trkpt lat="59.8301082" lon="17.6581859">
        <ele>62.6229</ele>
        <time>2013-05-22T19:19:03Z</time>
      </trkpt>
      <trkpt lat="59.8301253" lon="17.6581638">
        <ele>62.6229</ele>
        <time>2013-05-22T19:19:04Z</time>
      </trkpt>
      <trkpt lat="59.8301639" lon="17.6581242">
        <ele>64.5457</ele>
        <time>2013-05-22T19:19:05Z</time>
      </trkpt>
      <trkpt lat="59.8301946" lon="17.6580951">
        <ele>65.5071</ele>
        <time>2013-05-22T19:19:06Z</time>
      </trkpt>
      <trkpt lat="59.8302262" lon="17.6580616">
        <ele>67.4297</ele>
        <time>2013-05-22T19:19:07Z</time>
      </trkpt>
      <trkpt lat="59.8302361" lon="17.6580377">
        <ele>66.4683</ele>
        <time>2013-05-22T19:19:08Z</time>
      </trkpt>
      <trkpt lat="59.8302509" lon="17.6580201">
        <ele>66.949</ele>
        <time>2013-05-22T19:19:09Z</time>
      </trkpt>
      <trkpt lat="59.830268" lon="17.657993">
        <ele>67.9103</ele>
        <time>2013-05-22T19:19:10Z</time>
      </trkpt>
      <trkpt lat="59.8302905" lon="17.6579708">
        <ele>68.8716</ele>
        <time>2013-05-22T19:19:11Z</time>
      </trkpt>
      <trkpt lat="59.8303119" lon="17.6579469">
        <ele>69.3523</ele>
        <time>2013-05-22T19:19:12Z</time>
      </trkpt>
      <trkpt lat="59.8303266" lon="17.6579245">
        <ele>69.3523</ele>
        <time>2013-05-22T19:19:13Z</time>
      </trkpt>
      <trkpt lat="59.8303408" lon="17.6578986">
        <ele>68.8716</ele>
        <time>2013-05-22T19:19:14Z</time>
      </trkpt>
      <trkpt lat="59.8303509" lon="17.6578658">
        <ele>67.9103</ele>
        <time>2013-05-22T19:19:15Z</time>
      </trkpt>
      <trkpt lat="59.8303551" lon="17.6578277">
        <ele>65.9877</ele>
        <time>2013-05-22T19:19:16Z</time>
      </trkpt>
      <trkpt lat="59.8303603" lon="17.6577879">
        <ele>63.5844</ele>
        <time>2013-05-22T19:19:17Z</time>
      </trkpt>
      <trkpt lat="59.8303651" lon="17.6577424">
        <ele>61.181</ele>
        <time>2013-05-22T19:19:18Z</time>
      </trkpt>
      <trkpt lat="59.830367" lon="17.6576921">
        <ele>57.3358</ele>
        <time>2013-05-22T19:19:19Z</time>
      </trkpt>
      <trkpt lat="59.8303719" lon="17.6576424">
        <ele>54.4518</ele>
        <time>2013-05-22T19:19:20Z</time>
      </trkpt>
      <trkpt lat="59.8303794" lon="17.657589">
        <ele>51.0872</ele>
        <time>2013-05-22T19:19:21Z</time>
      </trkpt>
      <trkpt lat="59.8303936" lon="17.6575441">
        <ele>50.6066</ele>
        <time>2013-05-22T19:19:22Z</time>
      </trkpt>
      <trkpt lat="59.8304079" lon="17.6575049">
        <ele>51.0872</ele>
        <time>2013-05-22T19:19:23Z</time>
      </trkpt>
      <trkpt lat="59.8304127" lon="17.657466">
        <ele>49.1646</ele>
        <time>2013-05-22T19:19:24Z</time>
      </trkpt>
      <trkpt lat="59.8304216" lon="17.6574253">
        <ele>48.684</ele>
        <time>2013-05-22T19:19:25Z</time>
      </trkpt>
      <trkpt lat="59.8304341" lon="17.6573864">
        <ele>49.6453</ele>
        <time>2013-05-22T19:19:26Z</time>
      </trkpt>
      <trkpt lat="59.8304511" lon="17.6573405">
        <ele>52.5292</ele>
        <time>2013-05-22T19:19:27Z</time>
      </trkpt>
      <trkpt lat="59.8304775" lon="17.6572998">
        <ele>55.8938</ele>
        <time>2013-05-22T19:19:28Z</time>
      </trkpt>
      <trkpt lat="59.8304864" lon="17.6572575">
        <ele>56.3745</ele>
        <time>2013-05-22T19:19:29Z</time>
      </trkpt>
      <trkpt lat="59.8304875" lon="17.6571996">
        <ele>53.9712</ele>
        <time>2013-05-22T19:19:30Z</time>
      </trkpt>
      <trkpt lat="59.8304971" lon="17.6571374">
        <ele>52.0486</ele>
        <time>2013-05-22T19:19:31Z</time>
      </trkpt>
      <trkpt lat="59.8304968" lon="17.657088">
        <ele>49.6453</ele>
        <time>2013-05-22T19:19:32Z</time>
      </trkpt>
      <trkpt lat="59.8305013" lon="17.6570579">
        <ele>51.0872</ele>
        <time>2013-05-22T19:19:33Z</time>
      </trkpt>
      <trkpt lat="59.830502" lon="17.6570266">
        <ele>53.0098</ele>
        <time>2013-05-22T19:19:34Z</time>
      </trkpt>
      <trkpt lat="59.8305008" lon="17.6569949">
        <ele>53.4905</ele>
        <time>2013-05-22T19:19:35Z</time>
      </trkpt>
      <trkpt lat="59.8304889" lon="17.6569613">
        <ele>54.4518</ele>
        <time>2013-05-22T19:19:36Z</time>
      </trkpt>
      <trkpt lat="59.830476" lon="17.6569126">
        <ele>53.0098</ele>
        <time>2013-05-22T19:19:37Z</time>
      </trkpt>
      <trkpt lat="59.8304546" lon="17.6568646">
        <ele>51.0872</ele>
        <time>2013-05-22T19:19:38Z</time>
      </trkpt>
      <trkpt lat="59.8304326" lon="17.6568194">
        <ele>49.6453</ele>
        <time>2013-05-22T19:19:39Z</time>
      </trkpt>
      <trkpt lat="59.8304208" lon="17.6567748">
        <ele>49.1646</ele>
        <time>2013-05-22T19:19:40Z</time>
      </trkpt>
      <trkpt lat="59.8304075" lon="17.6567196">
        <ele>48.2034</ele>
        <time>2013-05-22T19:19:41Z</time>
      </trkpt>
      <trkpt lat="59.8303931" lon="17.6566701">
        <ele>46.2806</ele>
        <time>2013-05-22T19:19:42Z</time>
      </trkpt>
      <trkpt lat="59.8303792" lon="17.6566219">
        <ele>45.3192</ele>
        <time>2013-05-22T19:19:43Z</time>
      </trkpt>
      <trkpt lat="59.8303633" lon="17.6565782">
        <ele>43.8773</ele>
        <time>2013-05-22T19:19:44Z</time>
      </trkpt>
      <trkpt lat="59.8303439" lon="17.6565353">
        <ele>41.9547</ele>
        <time>2013-05-22T19:19:45Z</time>
      </trkpt>
      <trkpt lat="59.830332" lon="17.6564913">
        <ele>40.5128</ele>
        <time>2013-05-22T19:19:46Z</time>
      </trkpt>
      <trkpt lat="59.8303176" lon="17.6564457">
        <ele>40.9934</ele>
        <time>2013-05-22T19:19:47Z</time>
      </trkpt>
      <trkpt lat="59.8302993" lon="17.6563995">
        <ele>40.9934</ele>
        <time>2013-05-22T19:19:48Z</time>
      </trkpt>
      <trkpt lat="59.8302832" lon="17.6563562">
        <ele>40.5128</ele>
        <time>2013-05-22T19:19:49Z</time>
      </trkpt>
      <trkpt lat="59.8302609" lon="17.6563166">
        <ele>40.0321</ele>
        <time>2013-05-22T19:19:50Z</time>
      </trkpt>
      <trkpt lat="59.8302413" lon="17.6562815">
        <ele>39.0707</ele>
        <time>2013-05-22T19:19:51Z</time>
      </trkpt>
      <trkpt lat="59.830229" lon="17.6562498">
        <ele>37.6287</ele>
        <time>2013-05-22T19:19:52Z</time>
      </trkpt>
      <trkpt lat="59.8302305" lon="17.6562218">
        <ele>39.0707</ele>
        <time>2013-05-22T19:19:53Z</time>
      </trkpt>
      <trkpt lat="59.8302171" lon="17.6561811">
        <ele>38.5901</ele>
        <time>2013-05-22T19:19:54Z</time>
      </trkpt>
      <trkpt lat="59.8302014" lon="17.6561339">
        <ele>38.5901</ele>
        <time>2013-05-22T19:19:55Z</time>
      </trkpt>
      <trkpt lat="59.8301772" lon="17.6560863">
        <ele>37.6287</ele>
        <time>2013-05-22T19:19:56Z</time>
      </trkpt>
      <trkpt lat="59.8301557" lon="17.6560355">
        <ele>36.6675</ele>
        <time>2013-05-22T19:19:57Z</time>
      </trkpt>
      <trkpt lat="59.8301241" lon="17.6559866">
        <ele>35.7061</ele>
        <time>2013-05-22T19:19:58Z</time>
      </trkpt>
      <trkpt lat="59.8300948" lon="17.6559379">
        <ele>35.7061</ele>
        <time>2013-05-22T19:19:59Z</time>
      </trkpt>
      <trkpt lat="59.830065" lon="17.6558847">
        <ele>35.2255</ele>
        <time>2013-05-22T19:20:00Z</time>
      </trkpt>
      <trkpt lat="59.8300532" lon="17.6558212">
        <ele>35.7061</ele>
        <time>2013-05-22T19:20:01Z</time>
      </trkpt>
      <trkpt lat="59.8300441" lon="17.6557625">
        <ele>36.6675</ele>
        <time>2013-05-22T19:20:02Z</time>
      </trkpt>
      <trkpt lat="59.830031" lon="17.6557051">
        <ele>36.6675</ele>
        <time>2013-05-22T19:20:03Z</time>
      </trkpt>
      <trkpt lat="59.8300156" lon="17.6556517">
        <ele>36.6675</ele>
        <time>2013-05-22T19:20:04Z</time>
      </trkpt>
      <trkpt lat="59.8299885" lon="17.6556035">
        <ele>35.2255</ele>
        <time>2013-05-22T19:20:05Z</time>
      </trkpt>
      <trkpt lat="59.8299641" lon="17.6555593">
        <ele>35.2255</ele>
        <time>2013-05-22T19:20:06Z</time>
      </trkpt>
      <trkpt lat="59.8299459" lon="17.6555047">
        <ele>33.7834</ele>
        <time>2013-05-22T19:20:07Z</time>
      </trkpt>
      <trkpt lat="59.8299409" lon="17.6554533">
        <ele>33.7834</ele>
        <time>2013-05-22T19:20:08Z</time>
      </trkpt>
      <trkpt lat="59.8299222" lon="17.655401">
        <ele>32.3416</ele>
        <time>2013-05-22T19:20:09Z</time>
      </trkpt>
      <trkpt lat="59.8299128" lon="17.6553735">
        <ele>31.8607</ele>
        <time>2013-05-22T19:20:10Z</time>
      </trkpt>
      <trkpt lat="59.8299026" lon="17.6553313">
        <ele>30.4188</ele>
        <time>2013-05-22T19:20:11Z</time>
      </trkpt>
      <trkpt lat="59.8298938" lon="17.6552938">
        <ele>28.9769</ele>
        <time>2013-05-22T19:20:12Z</time>
      </trkpt>
      <trkpt lat="59.829875" lon="17.6552465">
        <ele>28.0155</ele>
        <time>2013-05-22T19:20:13Z</time>
      </trkpt>
      <trkpt lat="59.8298513" lon="17.6551954">
        <ele>27.0543</ele>
        <time>2013-05-22T19:20:14Z</time>
      </trkpt>
      <trkpt lat="59.829831" lon="17.6551501">
        <ele>26.5736</ele>
        <time>2013-05-22T19:20:15Z</time>
      </trkpt>
      <trkpt lat="59.8298168" lon="17.6551087">
        <ele>26.0929</ele>
        <time>2013-05-22T19:20:16Z</time>
      </trkpt>
      <trkpt lat="59.8297975" lon="17.6550667">
        <ele>26.0929</ele>
        <time>2013-05-22T19:20:17Z</time>
      </trkpt>
      <trkpt lat="59.8297806" lon="17.6550281">
        <ele>25.1317</ele>
        <time>2013-05-22T19:20:18Z</time>
      </trkpt>
      <trkpt lat="59.829773" lon="17.6549894">
        <ele>26.0929</ele>
        <time>2013-05-22T19:20:19Z</time>
      </trkpt>
      <trkpt lat="59.8297632" lon="17.6549353">
        <ele>26.5736</ele>
        <time>2013-05-22T19:20:20Z</time>
      </trkpt>
      <trkpt lat="59.8297594" lon="17.6548739">
        <ele>26.0929</ele>
        <time>2013-05-22T19:20:21Z</time>
      </trkpt>
      <trkpt lat="59.8297626" lon="17.6548109">
        <ele>25.6123</ele>
        <time>2013-05-22T19:20:22Z</time>
      </trkpt>
      <trkpt lat="59.8297797" lon="17.6547572">
        <ele>25.6123</ele>
        <time>2013-05-22T19:20:23Z</time>
      </trkpt>
      <trkpt lat="59.8297935" lon="17.654708">
        <ele>24.651</ele>
        <time>2013-05-22T19:20:24Z</time>
      </trkpt>
      <trkpt lat="59.8298113" lon="17.654669">
        <ele>24.1703</ele>
        <time>2013-05-22T19:20:25Z</time>
      </trkpt>
      <trkpt lat="59.8298357" lon="17.6546326">
        <ele>24.651</ele>
        <time>2013-05-22T19:20:26Z</time>
      </trkpt>
      <trkpt lat="59.8298466" lon="17.6545804">
        <ele>24.1703</ele>
        <time>2013-05-22T19:20:27Z</time>
      </trkpt>
      <trkpt lat="59.8298485" lon="17.6545251">
        <ele>24.1703</ele>
        <time>2013-05-22T19:20:28Z</time>
      </trkpt>
      <trkpt lat="59.8298457" lon="17.6544706">
        <ele>23.6896</ele>
        <time>2013-05-22T19:20:29Z</time>
      </trkpt>
      <trkpt lat="59.8298329" lon="17.6544157">
        <ele>22.7283</ele>
        <time>2013-05-22T19:20:30Z</time>
      </trkpt>
      <trkpt lat="59.8298119" lon="17.6543598">
        <ele>20.8057</ele>
        <time>2013-05-22T19:20:31Z</time>
      </trkpt>
      <trkpt lat="59.8297927" lon="17.6543184">
        <ele>19.8444</ele>
        <time>2013-05-22T19:20:32Z</time>
      </trkpt>
      <trkpt lat="59.8297761" lon="17.6542867">
        <ele>18.4023</ele>
        <time>2013-05-22T19:20:33Z</time>
      </trkpt>
      <trkpt lat="59.8297574" lon="17.654253">
        <ele>18.4023</ele>
        <time>2013-05-22T19:20:34Z</time>
      </trkpt>
      <trkpt lat="59.8297475" lon="17.6542347">
        <ele>18.8831</ele>
        <time>2013-05-22T19:20:35Z</time>
      </trkpt>
      <trkpt lat="59.8297301" lon="17.6542173">
        <ele>18.8831</ele>
        <time>2013-05-22T19:20:36Z</time>
      </trkpt>
      <trkpt lat="59.8297124" lon="17.6541913">
        <ele>18.8831</ele>
        <time>2013-05-22T19:20:37Z</time>
      </trkpt>
      <trkpt lat="59.8296875" lon="17.6541593">
        <ele>18.8831</ele>
        <time>2013-05-22T19:20:38Z</time>
      </trkpt>
      <trkpt lat="59.8296611" lon="17.6541215">
        <ele>18.8831</ele>
        <time>2013-05-22T19:20:39Z</time>
      </trkpt>
      <trkpt lat="59.8296341" lon="17.6540904">
        <ele>19.3638</ele>
        <time>2013-05-22T19:20:40Z</time>
      </trkpt>
      <trkpt lat="59.8296093" lon="17.6540655">
        <ele>19.8444</ele>
        <time>2013-05-22T19:20:41Z</time>
      </trkpt>
      <trkpt lat="59.8295832" lon="17.6540309">
        <ele>20.325</ele>
        <time>2013-05-22T19:20:42Z</time>
      </trkpt>
      <trkpt lat="59.829557" lon="17.6540012">
        <ele>20.325</ele>
        <time>2013-05-22T19:20:43Z</time>
      </trkpt>
      <trkpt lat="59.8295337" lon="17.653975">
        <ele>21.2864</ele>
        <time>2013-05-22T19:20:44Z</time>
      </trkpt>
      <trkpt lat="59.8295038" lon="17.6539396">
        <ele>20.8057</ele>
        <time>2013-05-22T19:20:45Z</time>
      </trkpt>
      <trkpt lat="59.829482" lon="17.6539089">
        <ele>21.2864</ele>
        <time>2013-05-22T19:20:46Z</time>
      </trkpt>
      <trkpt lat="59.8294347" lon="17.6538428">
        <ele>21.767</ele>
        <time>2013-05-22T19:20:48Z</time>
      </trkpt>
      <trkpt lat="59.8294138" lon="17.6538085">
        <ele>21.767</ele>
        <time>2013-05-22T19:20:49Z</time>
      </trkpt>
      <trkpt lat="59.829394" lon="17.6537753">
        <ele>22.2476</ele>
        <time>2013-05-22T19:20:50Z</time>
      </trkpt>
      <trkpt lat="59.8293741" lon="17.6537433">
        <ele>22.7283</ele>
        <time>2013-05-22T19:20:51Z</time>
      </trkpt>
      <trkpt lat="59.8293514" lon="17.6537126">
        <ele>23.209</ele>
        <time>2013-05-22T19:20:52Z</time>
      </trkpt>
      <trkpt lat="59.8293322" lon="17.6536791">
        <ele>24.1703</ele>
        <time>2013-05-22T19:20:53Z</time>
      </trkpt>
      <trkpt lat="59.8293115" lon="17.6536427">
        <ele>23.6896</ele>
        <time>2013-05-22T19:20:54Z</time>
      </trkpt>
      <trkpt lat="59.829289" lon="17.65361">
        <ele>23.6896</ele>
        <time>2013-05-22T19:20:55Z</time>
      </trkpt>
      <trkpt lat="59.8292714" lon="17.6535782">
        <ele>23.6896</ele>
        <time>2013-05-22T19:20:56Z</time>
      </trkpt>
      <trkpt lat="59.829252" lon="17.6535475">
        <ele>23.209</ele>
        <time>2013-05-22T19:20:57Z</time>
      </trkpt>
      <trkpt lat="59.8292349" lon="17.6535128">
        <ele>23.209</ele>
        <time>2013-05-22T19:20:58Z</time>
      </trkpt>
      <trkpt lat="59.8292141" lon="17.653475">
        <ele>22.7283</ele>
        <time>2013-05-22T19:20:59Z</time>
      </trkpt>
      <trkpt lat="59.8291892" lon="17.653436">
        <ele>22.7283</ele>
        <time>2013-05-22T19:21:00Z</time>
      </trkpt>
      <trkpt lat="59.829169" lon="17.6534">
        <ele>23.6896</ele>
        <time>2013-05-22T19:21:01Z</time>
      </trkpt>
      <trkpt lat="59.8291533" lon="17.6533704">
        <ele>24.651</ele>
        <time>2013-05-22T19:21:02Z</time>
      </trkpt>
      <trkpt lat="59.8291479" lon="17.6533377">
        <ele>25.6123</ele>
        <time>2013-05-22T19:21:03Z</time>
      </trkpt>
      <trkpt lat="59.8291478" lon="17.6533118">
        <ele>28.0155</ele>
        <time>2013-05-22T19:21:04Z</time>
      </trkpt>
      <trkpt lat="59.8291396" lon="17.6532777">
        <ele>29.4575</ele>
        <time>2013-05-22T19:21:05Z</time>
      </trkpt>
      <trkpt lat="59.8291275" lon="17.653242">
        <ele>30.4188</ele>
        <time>2013-05-22T19:21:06Z</time>
      </trkpt>
      <trkpt lat="59.8291134" lon="17.6532049">
        <ele>30.8995</ele>
        <time>2013-05-22T19:21:07Z</time>
      </trkpt>
      <trkpt lat="59.8291006" lon="17.6531612">
        <ele>31.8607</ele>
        <time>2013-05-22T19:21:08Z</time>
      </trkpt>
      <trkpt lat="59.8290851" lon="17.6531169">
        <ele>31.8607</ele>
        <time>2013-05-22T19:21:09Z</time>
      </trkpt>
      <trkpt lat="59.8290697" lon="17.6530835">
        <ele>32.3416</ele>
        <time>2013-05-22T19:21:10Z</time>
      </trkpt>
      <trkpt lat="59.8290504" lon="17.6530461">
        <ele>31.8607</ele>
        <time>2013-05-22T19:21:11Z</time>
      </trkpt>
      <trkpt lat="59.8290297" lon="17.653004">
        <ele>31.8607</ele>
        <time>2013-05-22T19:21:12Z</time>
      </trkpt>
      <trkpt lat="59.8290158" lon="17.6529631">
        <ele>31.8607</ele>
        <time>2013-05-22T19:21:13Z</time>
      </trkpt>
      <trkpt lat="59.8289965" lon="17.6529175">
        <ele>31.3801</ele>
        <time>2013-05-22T19:21:14Z</time>
      </trkpt>
      <trkpt lat="59.8289722" lon="17.6528736">
        <ele>31.3801</ele>
        <time>2013-05-22T19:21:15Z</time>
      </trkpt>
      <trkpt lat="59.828952" lon="17.6528345">
        <ele>31.3801</ele>
        <time>2013-05-22T19:21:16Z</time>
      </trkpt>
      <trkpt lat="59.8289457" lon="17.6527979">
        <ele>32.3416</ele>
        <time>2013-05-22T19:21:17Z</time>
      </trkpt>
      <trkpt lat="59.828937" lon="17.6527604">
        <ele>30.8995</ele>
        <time>2013-05-22T19:21:18Z</time>
      </trkpt>
      <trkpt lat="59.8289307" lon="17.6527171">
        <ele>30.4188</ele>
        <time>2013-05-22T19:21:19Z</time>
      </trkpt>
      <trkpt lat="59.828923" lon="17.652676">
        <ele>30.4188</ele>
        <time>2013-05-22T19:21:20Z</time>
      </trkpt>
      <trkpt lat="59.8289115" lon="17.6526338">
        <ele>30.4188</ele>
        <time>2013-05-22T19:21:21Z</time>
      </trkpt>
      <trkpt lat="59.8288998" lon="17.6525981">
        <ele>30.4188</ele>
        <time>2013-05-22T19:21:22Z</time>
      </trkpt>
      <trkpt lat="59.8288846" lon="17.6525601">
        <ele>29.9381</ele>
        <time>2013-05-22T19:21:23Z</time>
      </trkpt>
      <trkpt lat="59.8288633" lon="17.6525224">
        <ele>28.9769</ele>
        <time>2013-05-22T19:21:24Z</time>
      </trkpt>
      <trkpt lat="59.8288499" lon="17.6524847">
        <ele>29.4575</ele>
        <time>2013-05-22T19:21:25Z</time>
      </trkpt>
      <trkpt lat="59.8288334" lon="17.6524421">
        <ele>29.4575</ele>
        <time>2013-05-22T19:21:26Z</time>
      </trkpt>
      <trkpt lat="59.8288157" lon="17.6524016">
        <ele>29.4575</ele>
        <time>2013-05-22T19:21:27Z</time>
      </trkpt>
      <trkpt lat="59.8287987" lon="17.6523535">
        <ele>29.9381</ele>
        <time>2013-05-22T19:21:28Z</time>
      </trkpt>
      <trkpt lat="59.8287873" lon="17.6523053">
        <ele>29.9381</ele>
        <time>2013-05-22T19:21:29Z</time>
      </trkpt>
      <trkpt lat="59.8287801" lon="17.652263">
        <ele>29.9381</ele>
        <time>2013-05-22T19:21:30Z</time>
      </trkpt>
      <trkpt lat="59.8287718" lon="17.6522209">
        <ele>30.4188</ele>
        <time>2013-05-22T19:21:31Z</time>
      </trkpt>
      <trkpt lat="59.8287649" lon="17.6521738">
        <ele>29.9381</ele>
        <time>2013-05-22T19:21:32Z</time>
      </trkpt>
      <trkpt lat="59.8287629" lon="17.6521264">
        <ele>29.9381</ele>
        <time>2013-05-22T19:21:33Z</time>
      </trkpt>
      <trkpt lat="59.8287686" lon="17.6520774">
        <ele>30.4188</ele>
        <time>2013-05-22T19:21:34Z</time>
      </trkpt>
      <trkpt lat="59.8287839" lon="17.6520328">
        <ele>31.3801</ele>
        <time>2013-05-22T19:21:35Z</time>
      </trkpt>
      <trkpt lat="59.8287907" lon="17.6519871">
        <ele>29.9381</ele>
        <time>2013-05-22T19:21:36Z</time>
      </trkpt>
      <trkpt lat="59.8288002" lon="17.6519366">
        <ele>29.4575</ele>
        <time>2013-05-22T19:21:37Z</time>
      </trkpt>
      <trkpt lat="59.8288045" lon="17.6518806">
        <ele>29.4575</ele>
        <time>2013-05-22T19:21:38Z</time>
      </trkpt>
      <trkpt lat="59.8288194" lon="17.651828">
        <ele>29.9381</ele>
        <time>2013-05-22T19:21:39Z</time>
      </trkpt>
      <trkpt lat="59.8288314" lon="17.6517701">
        <ele>29.4575</ele>
        <time>2013-05-22T19:21:40Z</time>
      </trkpt>
      <trkpt lat="59.8288411" lon="17.651711">
        <ele>28.0155</ele>
        <time>2013-05-22T19:21:41Z</time>
      </trkpt>
      <trkpt lat="59.8288525" lon="17.6516614">
        <ele>26.5736</ele>
        <time>2013-05-22T19:21:42Z</time>
      </trkpt>
      <trkpt lat="59.8288587" lon="17.6516059">
        <ele>25.6123</ele>
        <time>2013-05-22T19:21:43Z</time>
      </trkpt>
      <trkpt lat="59.8288603" lon="17.6515442">
        <ele>24.1703</ele>
        <time>2013-05-22T19:21:44Z</time>
      </trkpt>
      <trkpt lat="59.8288731" lon="17.6514922">
        <ele>23.209</ele>
        <time>2013-05-22T19:21:45Z</time>
      </trkpt>
      <trkpt lat="59.8288878" lon="17.6514439">
        <ele>21.767</ele>
        <time>2013-05-22T19:21:46Z</time>
      </trkpt>
      <trkpt lat="59.8289053" lon="17.6513965">
        <ele>21.2864</ele>
        <time>2013-05-22T19:21:47Z</time>
      </trkpt>
      <trkpt lat="59.8289235" lon="17.6513589">
        <ele>20.325</ele>
        <time>2013-05-22T19:21:48Z</time>
      </trkpt>
      <trkpt lat="59.8289443" lon="17.6513242">
        <ele>20.325</ele>
        <time>2013-05-22T19:21:49Z</time>
      </trkpt>
      <trkpt lat="59.8289525" lon="17.6512914">
        <ele>21.2864</ele>
        <time>2013-05-22T19:21:50Z</time>
      </trkpt>
      <trkpt lat="59.8289572" lon="17.6512553">
        <ele>20.325</ele>
        <time>2013-05-22T19:21:51Z</time>
      </trkpt>
      <trkpt lat="59.8289598" lon="17.6512175">
        <ele>20.8057</ele>
        <time>2013-05-22T19:21:52Z</time>
      </trkpt>
      <trkpt lat="59.8289711" lon="17.6511775">
        <ele>22.7283</ele>
        <time>2013-05-22T19:21:53Z</time>
      </trkpt>
      <trkpt lat="59.8289863" lon="17.6511357">
        <ele>25.6123</ele>
        <time>2013-05-22T19:21:54Z</time>
      </trkpt>
      <trkpt lat="59.8289889" lon="17.6510972">
        <ele>26.5736</ele>
        <time>2013-05-22T19:21:55Z</time>
      </trkpt>
      <trkpt lat="59.8290053" lon="17.651061">
        <ele>28.4962</ele>
        <time>2013-05-22T19:21:56Z</time>
      </trkpt>
      <trkpt lat="59.8290152" lon="17.6510176">
        <ele>28.9769</ele>
        <time>2013-05-22T19:21:57Z</time>
      </trkpt>
      <trkpt lat="59.8290186" lon="17.6509664">
        <ele>28.4962</ele>
        <time>2013-05-22T19:21:58Z</time>
      </trkpt>
      <trkpt lat="59.8290193" lon="17.6509255">
        <ele>27.0543</ele>
        <time>2013-05-22T19:21:59Z</time>
      </trkpt>
      <trkpt lat="59.8290279" lon="17.6508817">
        <ele>26.5736</ele>
        <time>2013-05-22T19:22:00Z</time>
      </trkpt>
      <trkpt lat="59.8290407" lon="17.6508382">
        <ele>27.0543</ele>
        <time>2013-05-22T19:22:01Z</time>
      </trkpt>
      <trkpt lat="59.8290462" lon="17.6507949">
        <ele>26.5736</ele>
        <time>2013-05-22T19:22:02Z</time>
      </trkpt>
      <trkpt lat="59.8290476" lon="17.6507508">
        <ele>26.0929</ele>
        <time>2013-05-22T19:22:03Z</time>
      </trkpt>
      <trkpt lat="59.8290425" lon="17.6506964">
        <ele>24.1703</ele>
        <time>2013-05-22T19:22:04Z</time>
      </trkpt>
      <trkpt lat="59.8290421" lon="17.650641">
        <ele>23.209</ele>
        <time>2013-05-22T19:22:05Z</time>
      </trkpt>
      <trkpt lat="59.8290447" lon="17.6506011">
        <ele>22.7283</ele>
        <time>2013-05-22T19:22:06Z</time>
      </trkpt>
      <trkpt lat="59.8290486" lon="17.6505623">
        <ele>23.209</ele>
        <time>2013-05-22T19:22:07Z</time>
      </trkpt>
      <trkpt lat="59.829049" lon="17.6505088">
        <ele>22.7283</ele>
        <time>2013-05-22T19:22:08Z</time>
      </trkpt>
      <trkpt lat="59.8290509" lon="17.6504579">
        <ele>22.7283</ele>
        <time>2013-05-22T19:22:09Z</time>
      </trkpt>
      <trkpt lat="59.8290572" lon="17.6504051">
        <ele>23.209</ele>
        <time>2013-05-22T19:22:10Z</time>
      </trkpt>
      <trkpt lat="59.8290631" lon="17.6503509">
        <ele>22.7283</ele>
        <time>2013-05-22T19:22:11Z</time>
      </trkpt>
      <trkpt lat="59.8290671" lon="17.6503022">
        <ele>23.209</ele>
        <time>2013-05-22T19:22:12Z</time>
      </trkpt>
      <trkpt lat="59.8290665" lon="17.6502592">
        <ele>23.209</ele>
        <time>2013-05-22T19:22:13Z</time>
      </trkpt>
      <trkpt lat="59.829055" lon="17.6502105">
        <ele>22.7283</ele>
        <time>2013-05-22T19:22:14Z</time>
      </trkpt>
      <trkpt lat="59.8290505" lon="17.6501725">
        <ele>23.6896</ele>
        <time>2013-05-22T19:22:15Z</time>
      </trkpt>
      <trkpt lat="59.8290389" lon="17.6501189">
        <ele>23.209</ele>
        <time>2013-05-22T19:22:16Z</time>
      </trkpt>
      <trkpt lat="59.8290359" lon="17.650067">
        <ele>22.2476</ele>
        <time>2013-05-22T19:22:17Z</time>
      </trkpt>
      <trkpt lat="59.8290398" lon="17.6500188">
        <ele>24.1703</ele>
        <time>2013-05-22T19:22:18Z</time>
      </trkpt>
      <trkpt lat="59.8290357" lon="17.6499731">
        <ele>24.651</ele>
        <time>2013-05-22T19:22:19Z</time>
      </trkpt>
      <trkpt lat="59.8290316" lon="17.6499226">
        <ele>24.651</ele>
        <time>2013-05-22T19:22:20Z</time>
      </trkpt>
      <trkpt lat="59.8290267" lon="17.6498757">
        <ele>24.651</ele>
        <time>2013-05-22T19:22:21Z</time>
      </trkpt>
      <trkpt lat="59.8290264" lon="17.6498225">
        <ele>24.1703</ele>
        <time>2013-05-22T19:22:22Z</time>
      </trkpt>
      <trkpt lat="59.829029" lon="17.6497681">
        <ele>23.6896</ele>
        <time>2013-05-22T19:22:23Z</time>
      </trkpt>
      <trkpt lat="59.8290192" lon="17.6497106">
        <ele>22.7283</ele>
        <time>2013-05-22T19:22:24Z</time>
      </trkpt>
      <trkpt lat="59.8290091" lon="17.6496578">
        <ele>21.2864</ele>
        <time>2013-05-22T19:22:25Z</time>
      </trkpt>
      <trkpt lat="59.8290032" lon="17.6496078">
        <ele>19.8444</ele>
        <time>2013-05-22T19:22:26Z</time>
      </trkpt>
      <trkpt lat="59.8290036" lon="17.6495615">
        <ele>19.3638</ele>
        <time>2013-05-22T19:22:27Z</time>
      </trkpt>
      <trkpt lat="59.8289981" lon="17.6495122">
        <ele>18.4023</ele>
        <time>2013-05-22T19:22:28Z</time>
      </trkpt>
      <trkpt lat="59.829" lon="17.6494712">
        <ele>17.9218</ele>
        <time>2013-05-22T19:22:29Z</time>
      </trkpt>
      <trkpt lat="59.8290036" lon="17.6494313">
        <ele>17.4412</ele>
        <time>2013-05-22T19:22:30Z</time>
      </trkpt>
      <trkpt lat="59.829009" lon="17.6493997">
        <ele>18.4023</ele>
        <time>2013-05-22T19:22:31Z</time>
      </trkpt>
      <trkpt lat="59.8290098" lon="17.6493733">
        <ele>18.4023</ele>
        <time>2013-05-22T19:22:32Z</time>
      </trkpt>
      <trkpt lat="59.829011" lon="17.6493351">
        <ele>18.4023</ele>
        <time>2013-05-22T19:22:33Z</time>
      </trkpt>
      <trkpt lat="59.8290074" lon="17.6492842">
        <ele>18.8831</ele>
        <time>2013-05-22T19:22:34Z</time>
      </trkpt>
      <trkpt lat="59.8289979" lon="17.649229">
        <ele>18.4023</ele>
        <time>2013-05-22T19:22:35Z</time>
      </trkpt>
      <trkpt lat="59.8289882" lon="17.6491719">
        <ele>18.4023</ele>
        <time>2013-05-22T19:22:36Z</time>
      </trkpt>
      <trkpt lat="59.8289743" lon="17.64911">
        <ele>17.4412</ele>
        <time>2013-05-22T19:22:37Z</time>
      </trkpt>
      <trkpt lat="59.8289633" lon="17.6490553">
        <ele>16.9604</ele>
        <time>2013-05-22T19:22:38Z</time>
      </trkpt>
      <trkpt lat="59.8289504" lon="17.6490196">
        <ele>16.9604</ele>
        <time>2013-05-22T19:22:39Z</time>
      </trkpt>
      <trkpt lat="59.8289303" lon="17.6489863">
        <ele>15.999</ele>
        <time>2013-05-22T19:22:40Z</time>
      </trkpt>
      <trkpt lat="59.8289176" lon="17.6489508">
        <ele>15.999</ele>
        <time>2013-05-22T19:22:41Z</time>
      </trkpt>
      <trkpt lat="59.8289105" lon="17.6489108">
        <ele>16.9604</ele>
        <time>2013-05-22T19:22:42Z</time>
      </trkpt>
      <trkpt lat="59.8288976" lon="17.648873">
        <ele>16.9604</ele>
        <time>2013-05-22T19:22:43Z</time>
      </trkpt>
      <trkpt lat="59.8288883" lon="17.6488326">
        <ele>17.4412</ele>
        <time>2013-05-22T19:22:44Z</time>
      </trkpt>
      <trkpt lat="59.8288822" lon="17.6487835">
        <ele>16.9604</ele>
        <time>2013-05-22T19:22:45Z</time>
      </trkpt>
      <trkpt lat="59.8288796" lon="17.6487379">
        <ele>18.8831</ele>
        <time>2013-05-22T19:22:46Z</time>
      </trkpt>
      <trkpt lat="59.8288737" lon="17.648697">
        <ele>19.8444</ele>
        <time>2013-05-22T19:22:47Z</time>
      </trkpt>
      <trkpt lat="59.8288696" lon="17.6486622">
        <ele>19.3638</ele>
        <time>2013-05-22T19:22:48Z</time>
      </trkpt>
      <trkpt lat="59.8288692" lon="17.6486218">
        <ele>18.8831</ele>
        <time>2013-05-22T19:22:49Z</time>
      </trkpt>
      <trkpt lat="59.8288717" lon="17.6485822">
        <ele>18.8831</ele>
        <time>2013-05-22T19:22:50Z</time>
      </trkpt>
      <trkpt lat="59.8288813" lon="17.6485356">
        <ele>19.3638</ele>
        <time>2013-05-22T19:22:51Z</time>
      </trkpt>
      <trkpt lat="59.8288898" lon="17.6484859">
        <ele>20.325</ele>
        <time>2013-05-22T19:22:52Z</time>
      </trkpt>
      <trkpt lat="59.8288883" lon="17.6484348">
        <ele>20.325</ele>
        <time>2013-05-22T19:22:53Z</time>
      </trkpt>
      <trkpt lat="59.8288853" lon="17.6483855">
        <ele>21.2864</ele>
        <time>2013-05-22T19:22:54Z</time>
      </trkpt>
      <trkpt lat="59.8288875" lon="17.6483409">
        <ele>21.2864</ele>
        <time>2013-05-22T19:22:55Z</time>
      </trkpt>
      <trkpt lat="59.8288924" lon="17.6482959">
        <ele>22.2476</ele>
        <time>2013-05-22T19:22:56Z</time>
      </trkpt>
      <trkpt lat="59.8288929" lon="17.648258">
        <ele>22.7283</ele>
        <time>2013-05-22T19:22:57Z</time>
      </trkpt>
      <trkpt lat="59.8288851" lon="17.6482264">
        <ele>23.209</ele>
        <time>2013-05-22T19:22:58Z</time>
      </trkpt>
      <trkpt lat="59.8288708" lon="17.6482063">
        <ele>22.7283</ele>
        <time>2013-05-22T19:22:59Z</time>
      </trkpt>
      <trkpt lat="59.828849" lon="17.6482011">
        <ele>22.7283</ele>
        <time>2013-05-22T19:23:00Z</time>
      </trkpt>
      <trkpt lat="59.8288256" lon="17.6482061">
        <ele>24.1703</ele>
        <time>2013-05-22T19:23:01Z</time>
      </trkpt>
      <trkpt lat="59.8287954" lon="17.6482072">
        <ele>23.6896</ele>
        <time>2013-05-22T19:23:02Z</time>
      </trkpt>
      <trkpt lat="59.8287731" lon="17.6482123">
        <ele>24.1703</ele>
        <time>2013-05-22T19:23:03Z</time>
      </trkpt>
      <trkpt lat="59.8287431" lon="17.6482128">
        <ele>22.7283</ele>
        <time>2013-05-22T19:23:04Z</time>
      </trkpt>
      <trkpt lat="59.8287209" lon="17.6482305">
        <ele>23.6896</ele>
        <time>2013-05-22T19:23:05Z</time>
      </trkpt>
      <trkpt lat="59.8287003" lon="17.6482382">
        <ele>23.209</ele>
        <time>2013-05-22T19:23:06Z</time>
      </trkpt>
      <trkpt lat="59.8286758" lon="17.6482399">
        <ele>22.7283</ele>
        <time>2013-05-22T19:23:07Z</time>
      </trkpt>
      <trkpt lat="59.828651" lon="17.6482384">
        <ele>22.2476</ele>
        <time>2013-05-22T19:23:08Z</time>
      </trkpt>
      <trkpt lat="59.8286342" lon="17.6482462">
        <ele>22.2476</ele>
        <time>2013-05-22T19:23:09Z</time>
      </trkpt>
      <trkpt lat="59.8286111" lon="17.6482519">
        <ele>22.2476</ele>
        <time>2013-05-22T19:23:10Z</time>
      </trkpt>
      <trkpt lat="59.8285897" lon="17.6482462">
        <ele>22.7283</ele>
        <time>2013-05-22T19:23:11Z</time>
      </trkpt>
      <trkpt lat="59.8285662" lon="17.6482374">
        <ele>22.7283</ele>
        <time>2013-05-22T19:23:12Z</time>
      </trkpt>
      <trkpt lat="59.8285382" lon="17.6482214">
        <ele>22.7283</ele>
        <time>2013-05-22T19:23:13Z</time>
      </trkpt>
      <trkpt lat="59.8285047" lon="17.6481986">
        <ele>23.209</ele>
        <time>2013-05-22T19:23:14Z</time>
      </trkpt>
      <trkpt lat="59.8284671" lon="17.6481756">
        <ele>22.7283</ele>
        <time>2013-05-22T19:23:15Z</time>
      </trkpt>
      <trkpt lat="59.8284474" lon="17.6481517">
        <ele>23.6896</ele>
        <time>2013-05-22T19:23:16Z</time>
      </trkpt>
      <trkpt lat="59.8284271" lon="17.6481227">
        <ele>23.209</ele>
        <time>2013-05-22T19:23:17Z</time>
      </trkpt>
      <trkpt lat="59.8284037" lon="17.648081">
        <ele>22.2476</ele>
        <time>2013-05-22T19:23:18Z</time>
      </trkpt>
      <trkpt lat="59.828389" lon="17.6480403">
        <ele>22.7283</ele>
        <time>2013-05-22T19:23:19Z</time>
      </trkpt>
      <trkpt lat="59.828378" lon="17.6480087">
        <ele>24.1703</ele>
        <time>2013-05-22T19:23:20Z</time>
      </trkpt>
      <trkpt lat="59.8283682" lon="17.6479709">
        <ele>24.1703</ele>
        <time>2013-05-22T19:23:21Z</time>
      </trkpt>
      <trkpt lat="59.8283712" lon="17.6479363">
        <ele>25.1317</ele>
        <time>2013-05-22T19:23:22Z</time>
      </trkpt>
      <trkpt lat="59.8283682" lon="17.6478987">
        <ele>26.0929</ele>
        <time>2013-05-22T19:23:23Z</time>
      </trkpt>
      <trkpt lat="59.8283696" lon="17.6478618">
        <ele>28.9769</ele>
        <time>2013-05-22T19:23:24Z</time>
      </trkpt>
      <trkpt lat="59.8283661" lon="17.6478145">
        <ele>29.4575</ele>
        <time>2013-05-22T19:23:25Z</time>
      </trkpt>
      <trkpt lat="59.8283652" lon="17.6477638">
        <ele>29.9381</ele>
        <time>2013-05-22T19:23:26Z</time>
      </trkpt>
      <trkpt lat="59.8283728" lon="17.6477157">
        <ele>29.9381</ele>
        <time>2013-05-22T19:23:27Z</time>
      </trkpt>
      <trkpt lat="59.8283811" lon="17.647666">
        <ele>30.8995</ele>
        <time>2013-05-22T19:23:28Z</time>
      </trkpt>
      <trkpt lat="59.8283848" lon="17.647611">
        <ele>30.8995</ele>
        <time>2013-05-22T19:23:29Z</time>
      </trkpt>
      <trkpt lat="59.8283826" lon="17.6475664">
        <ele>30.8995</ele>
        <time>2013-05-22T19:23:30Z</time>
      </trkpt>
      <trkpt lat="59.828376" lon="17.6475184">
        <ele>30.4188</ele>
        <time>2013-05-22T19:23:31Z</time>
      </trkpt>
      <trkpt lat="59.8283742" lon="17.6474655">
        <ele>30.4188</ele>
        <time>2013-05-22T19:23:32Z</time>
      </trkpt>
      <trkpt lat="59.8283739" lon="17.6474237">
        <ele>30.8995</ele>
        <time>2013-05-22T19:23:33Z</time>
      </trkpt>
      <trkpt lat="59.8283688" lon="17.6473806">
        <ele>30.4188</ele>
        <time>2013-05-22T19:23:34Z</time>
      </trkpt>
      <trkpt lat="59.8283607" lon="17.6473302">
        <ele>29.4575</ele>
        <time>2013-05-22T19:23:35Z</time>
      </trkpt>
      <trkpt lat="59.8283558" lon="17.6472833">
        <ele>28.4962</ele>
        <time>2013-05-22T19:23:36Z</time>
      </trkpt>
      <trkpt lat="59.8283527" lon="17.6472376">
        <ele>28.9769</ele>
        <time>2013-05-22T19:23:37Z</time>
      </trkpt>
      <trkpt lat="59.8283457" lon="17.6471894">
        <ele>28.9769</ele>
        <time>2013-05-22T19:23:38Z</time>
      </trkpt>
      <trkpt lat="59.8283459" lon="17.6471461">
        <ele>28.4962</ele>
        <time>2013-05-22T19:23:39Z</time>
      </trkpt>
      <trkpt lat="59.8283374" lon="17.6470989">
        <ele>27.5349</ele>
        <time>2013-05-22T19:23:40Z</time>
      </trkpt>
      <trkpt lat="59.828331" lon="17.6470558">
        <ele>27.0543</ele>
        <time>2013-05-22T19:23:41Z</time>
      </trkpt>
      <trkpt lat="59.828325" lon="17.6470093">
        <ele>26.0929</ele>
        <time>2013-05-22T19:23:42Z</time>
      </trkpt>
      <trkpt lat="59.8283221" lon="17.6469675">
        <ele>25.1317</ele>
        <time>2013-05-22T19:23:43Z</time>
      </trkpt>
      <trkpt lat="59.828316" lon="17.6469236">
        <ele>24.1703</ele>
        <time>2013-05-22T19:23:44Z</time>
      </trkpt>
      <trkpt lat="59.8283022" lon="17.6468818">
        <ele>23.6896</ele>
        <time>2013-05-22T19:23:45Z</time>
      </trkpt>
      <trkpt lat="59.8282879" lon="17.6468423">
        <ele>22.7283</ele>
        <time>2013-05-22T19:23:46Z</time>
      </trkpt>
      <trkpt lat="59.8282802" lon="17.6468004">
        <ele>23.209</ele>
        <time>2013-05-22T19:23:47Z</time>
      </trkpt>
      <trkpt lat="59.8282743" lon="17.6467648">
        <ele>23.6896</ele>
        <time>2013-05-22T19:23:48Z</time>
      </trkpt>
      <trkpt lat="59.8282718" lon="17.6467366">
        <ele>23.6896</ele>
        <time>2013-05-22T19:23:49Z</time>
      </trkpt>
      <trkpt lat="59.8282676" lon="17.6467063">
        <ele>23.6896</ele>
        <time>2013-05-22T19:23:50Z</time>
      </trkpt>
      <trkpt lat="59.8282616" lon="17.6466792">
        <ele>22.7283</ele>
        <time>2013-05-22T19:23:51Z</time>
      </trkpt>
      <trkpt lat="59.8282578" lon="17.6466495">
        <ele>22.2476</ele>
        <time>2013-05-22T19:23:52Z</time>
      </trkpt>
      <trkpt lat="59.8282562" lon="17.6466228">
        <ele>22.2476</ele>
        <time>2013-05-22T19:23:53Z</time>
      </trkpt>
      <trkpt lat="59.8282519" lon="17.6466027">
        <ele>22.2476</ele>
        <time>2013-05-22T19:23:54Z</time>
      </trkpt>
      <trkpt lat="59.828249" lon="17.6465813">
        <ele>22.2476</ele>
        <time>2013-05-22T19:23:55Z</time>
      </trkpt>
      <trkpt lat="59.8282427" lon="17.6465528">
        <ele>22.7283</ele>
        <time>2013-05-22T19:23:56Z</time>
      </trkpt>
      <trkpt lat="59.828231" lon="17.6465228">
        <ele>21.767</ele>
        <time>2013-05-22T19:23:57Z</time>
      </trkpt>
      <trkpt lat="59.8282248" lon="17.64649">
        <ele>21.767</ele>
        <time>2013-05-22T19:23:58Z</time>
      </trkpt>
      <trkpt lat="59.8282175" lon="17.646462">
        <ele>21.2864</ele>
        <time>2013-05-22T19:23:59Z</time>
      </trkpt>
      <trkpt lat="59.8282076" lon="17.6464441">
        <ele>20.325</ele>
        <time>2013-05-22T19:24:00Z</time>
      </trkpt>
      <trkpt lat="59.8281952" lon="17.6464143">
        <ele>19.8444</ele>
        <time>2013-05-22T19:24:01Z</time>
      </trkpt>
      <trkpt lat="59.8281915" lon="17.646386">
        <ele>19.3638</ele>
        <time>2013-05-22T19:24:02Z</time>
      </trkpt>
      <trkpt lat="59.8281833" lon="17.6463524">
        <ele>17.9218</ele>
        <time>2013-05-22T19:24:03Z</time>
      </trkpt>
      <trkpt lat="59.8281753" lon="17.6463174">
        <ele>17.9218</ele>
        <time>2013-05-22T19:24:04Z</time>
      </trkpt>
      <trkpt lat="59.8281655" lon="17.6462815">
        <ele>17.4412</ele>
        <time>2013-05-22T19:24:05Z</time>
      </trkpt>
      <trkpt lat="59.8281559" lon="17.6462513">
        <ele>17.9218</ele>
        <time>2013-05-22T19:24:06Z</time>
      </trkpt>
      <trkpt lat="59.828148" lon="17.6462208">
        <ele>17.9218</ele>
        <time>2013-05-22T19:24:07Z</time>
      </trkpt>
      <trkpt lat="59.8281459" lon="17.6461937">
        <ele>17.9218</ele>
        <time>2013-05-22T19:24:08Z</time>
      </trkpt>
      <trkpt lat="59.8281452" lon="17.6461654">
        <ele>17.4412</ele>
        <time>2013-05-22T19:24:09Z</time>
      </trkpt>
      <trkpt lat="59.828143" lon="17.6461384">
        <ele>17.9218</ele>
        <time>2013-05-22T19:24:10Z</time>
      </trkpt>
      <trkpt lat="59.8281473" lon="17.6461178">
        <ele>19.3638</ele>
        <time>2013-05-22T19:24:11Z</time>
      </trkpt>
      <trkpt lat="59.8281579" lon="17.6461063">
        <ele>21.2864</ele>
        <time>2013-05-22T19:24:12Z</time>
      </trkpt>
      <trkpt lat="59.8281828" lon="17.6460923">
        <ele>24.1703</ele>
        <time>2013-05-22T19:24:13Z</time>
      </trkpt>
      <trkpt lat="59.828191" lon="17.6460794">
        <ele>24.651</ele>
        <time>2013-05-22T19:24:14Z</time>
      </trkpt>
      <trkpt lat="59.8282163" lon="17.6460784">
        <ele>28.0155</ele>
        <time>2013-05-22T19:24:15Z</time>
      </trkpt>
      <trkpt lat="59.828232" lon="17.6460756">
        <ele>28.9769</ele>
        <time>2013-05-22T19:24:16Z</time>
      </trkpt>
      <trkpt lat="59.8282444" lon="17.6460592">
        <ele>29.4575</ele>
        <time>2013-05-22T19:24:17Z</time>
      </trkpt>
      <trkpt lat="59.828265" lon="17.646036">
        <ele>30.8995</ele>
        <time>2013-05-22T19:24:18Z</time>
      </trkpt>
      <trkpt lat="59.8282898" lon="17.6460068">
        <ele>34.2642</ele>
        <time>2013-05-22T19:24:19Z</time>
      </trkpt>
      <trkpt lat="59.8283022" lon="17.645971">
        <ele>35.2255</ele>
        <time>2013-05-22T19:24:20Z</time>
      </trkpt>
      <trkpt lat="59.8283307" lon="17.6459274">
        <ele>38.1094</ele>
        <time>2013-05-22T19:24:21Z</time>
      </trkpt>
      <trkpt lat="59.8283475" lon="17.6458789">
        <ele>38.1094</ele>
        <time>2013-05-22T19:24:22Z</time>
      </trkpt>
      <trkpt lat="59.8283481" lon="17.6458388">
        <ele>35.7061</ele>
        <time>2013-05-22T19:24:23Z</time>
      </trkpt>
      <trkpt lat="59.8283595" lon="17.6458063">
        <ele>34.7449</ele>
        <time>2013-05-22T19:24:24Z</time>
      </trkpt>
      <trkpt lat="59.8283873" lon="17.6457826">
        <ele>36.6675</ele>
        <time>2013-05-22T19:24:25Z</time>
      </trkpt>
      <trkpt lat="59.8284101" lon="17.6457503">
        <ele>36.1868</ele>
        <time>2013-05-22T19:24:26Z</time>
      </trkpt>
      <trkpt lat="59.8284304" lon="17.6457169">
        <ele>37.1481</ele>
        <time>2013-05-22T19:24:27Z</time>
      </trkpt>
      <trkpt lat="59.828476" lon="17.6457012">
        <ele>41.9547</ele>
        <time>2013-05-22T19:24:28Z</time>
      </trkpt>
      <trkpt lat="59.828513" lon="17.6456894">
        <ele>44.358</ele>
        <time>2013-05-22T19:24:29Z</time>
      </trkpt>
      <trkpt lat="59.8285333" lon="17.6456748">
        <ele>44.358</ele>
        <time>2013-05-22T19:24:30Z</time>
      </trkpt>
      <trkpt lat="59.8285421" lon="17.6456487">
        <ele>43.3966</ele>
        <time>2013-05-22T19:24:31Z</time>
      </trkpt>
      <trkpt lat="59.8285687" lon="17.6456385">
        <ele>44.8386</ele>
        <time>2013-05-22T19:24:32Z</time>
      </trkpt>
      <trkpt lat="59.8286131" lon="17.6456344">
        <ele>47.7225</ele>
        <time>2013-05-22T19:24:33Z</time>
      </trkpt>
      <trkpt lat="59.8286547" lon="17.6456322">
        <ele>49.6453</ele>
        <time>2013-05-22T19:24:34Z</time>
      </trkpt>
      <trkpt lat="59.8286882" lon="17.6456345">
        <ele>49.1646</ele>
        <time>2013-05-22T19:24:35Z</time>
      </trkpt>
      <trkpt lat="59.8287228" lon="17.6456318">
        <ele>49.6453</ele>
        <time>2013-05-22T19:24:36Z</time>
      </trkpt>
      <trkpt lat="59.8287547" lon="17.6456244">
        <ele>48.2034</ele>
        <time>2013-05-22T19:24:37Z</time>
      </trkpt>
      <trkpt lat="59.8287897" lon="17.6456246">
        <ele>47.2418</ele>
        <time>2013-05-22T19:24:38Z</time>
      </trkpt>
      <trkpt lat="59.8288245" lon="17.6456365">
        <ele>47.2418</ele>
        <time>2013-05-22T19:24:39Z</time>
      </trkpt>
      <trkpt lat="59.8288218" lon="17.645657">
        <ele>42.4354</ele>
        <time>2013-05-22T19:24:40Z</time>
      </trkpt>
      <trkpt lat="59.8288477" lon="17.6456675">
        <ele>40.5128</ele>
        <time>2013-05-22T19:24:41Z</time>
      </trkpt>
      <trkpt lat="59.8288762" lon="17.6456903">
        <ele>40.0321</ele>
        <time>2013-05-22T19:24:42Z</time>
      </trkpt>
      <trkpt lat="59.8288966" lon="17.645709">
        <ele>38.5901</ele>
        <time>2013-05-22T19:24:43Z</time>
      </trkpt>
      <trkpt lat="59.828925" lon="17.6457236">
        <ele>40.5128</ele>
        <time>2013-05-22T19:24:44Z</time>
      </trkpt>
      <trkpt lat="59.8289414" lon="17.6457282">
        <ele>39.5513</ele>
        <time>2013-05-22T19:24:45Z</time>
      </trkpt>
      <trkpt lat="59.828963" lon="17.6457305">
        <ele>38.5901</ele>
        <time>2013-05-22T19:24:46Z</time>
      </trkpt>
      <trkpt lat="59.8289799" lon="17.6457301">
        <ele>37.1481</ele>
        <time>2013-05-22T19:24:47Z</time>
      </trkpt>
      <trkpt lat="59.8289981" lon="17.6457343">
        <ele>36.6675</ele>
        <time>2013-05-22T19:24:48Z</time>
      </trkpt>
      <trkpt lat="59.8290229" lon="17.6457384">
        <ele>35.7061</ele>
        <time>2013-05-22T19:24:49Z</time>
      </trkpt>
      <trkpt lat="59.8290483" lon="17.6457401">
        <ele>34.7449</ele>
        <time>2013-05-22T19:24:50Z</time>
      </trkpt>
      <trkpt lat="59.8290725" lon="17.6457415">
        <ele>32.8223</ele>
        <time>2013-05-22T19:24:51Z</time>
      </trkpt>
      <trkpt lat="59.8290992" lon="17.645766">
        <ele>32.8223</ele>
        <time>2013-05-22T19:24:52Z</time>
      </trkpt>
      <trkpt lat="59.829127" lon="17.6458003">
        <ele>32.8223</ele>
        <time>2013-05-22T19:24:53Z</time>
      </trkpt>
      <trkpt lat="59.8291507" lon="17.6458231">
        <ele>32.3416</ele>
        <time>2013-05-22T19:24:54Z</time>
      </trkpt>
      <trkpt lat="59.8291675" lon="17.6458426">
        <ele>30.8995</ele>
        <time>2013-05-22T19:24:55Z</time>
      </trkpt>
      <trkpt lat="59.8291943" lon="17.6458634">
        <ele>31.3801</ele>
        <time>2013-05-22T19:24:56Z</time>
      </trkpt>
      <trkpt lat="59.8292208" lon="17.6458747">
        <ele>31.3801</ele>
        <time>2013-05-22T19:24:57Z</time>
      </trkpt>
      <trkpt lat="59.8292525" lon="17.6458779">
        <ele>32.3416</ele>
        <time>2013-05-22T19:24:58Z</time>
      </trkpt>
      <trkpt lat="59.8292815" lon="17.6458712">
        <ele>33.3029</ele>
        <time>2013-05-22T19:24:59Z</time>
      </trkpt>
      <trkpt lat="59.8293037" lon="17.6458668">
        <ele>33.7834</ele>
        <time>2013-05-22T19:25:00Z</time>
      </trkpt>
      <trkpt lat="59.8293278" lon="17.6458639">
        <ele>35.7061</ele>
        <time>2013-05-22T19:25:01Z</time>
      </trkpt>
      <trkpt lat="59.8293497" lon="17.645855">
        <ele>35.2255</ele>
        <time>2013-05-22T19:25:02Z</time>
      </trkpt>
      <trkpt lat="59.8293766" lon="17.6458504">
        <ele>36.6675</ele>
        <time>2013-05-22T19:25:03Z</time>
      </trkpt>
      <trkpt lat="59.8294017" lon="17.6458349">
        <ele>38.1094</ele>
        <time>2013-05-22T19:25:04Z</time>
      </trkpt>
      <trkpt lat="59.8294221" lon="17.6458168">
        <ele>39.0707</ele>
        <time>2013-05-22T19:25:05Z</time>
      </trkpt>
      <trkpt lat="59.8294467" lon="17.6458015">
        <ele>39.5513</ele>
        <time>2013-05-22T19:25:06Z</time>
      </trkpt>
      <trkpt lat="59.829475" lon="17.6457821">
        <ele>40.5128</ele>
        <time>2013-05-22T19:25:07Z</time>
      </trkpt>
      <trkpt lat="59.8294962" lon="17.6457656">
        <ele>40.9934</ele>
        <time>2013-05-22T19:25:08Z</time>
      </trkpt>
      <trkpt lat="59.8295208" lon="17.6457525">
        <ele>43.3966</ele>
        <time>2013-05-22T19:25:09Z</time>
      </trkpt>
      <trkpt lat="59.8295358" lon="17.6457389">
        <ele>44.358</ele>
        <time>2013-05-22T19:25:10Z</time>
      </trkpt>
      <trkpt lat="59.829558" lon="17.6457203">
        <ele>45.7999</ele>
        <time>2013-05-22T19:25:11Z</time>
      </trkpt>
      <trkpt lat="59.8295724" lon="17.645706">
        <ele>45.7999</ele>
        <time>2013-05-22T19:25:12Z</time>
      </trkpt>
      <trkpt lat="59.8295985" lon="17.645696">
        <ele>46.7612</ele>
        <time>2013-05-22T19:25:13Z</time>
      </trkpt>
      <trkpt lat="59.8296298" lon="17.6456863">
        <ele>48.684</ele>
        <time>2013-05-22T19:25:14Z</time>
      </trkpt>
      <trkpt lat="59.8296632" lon="17.6456715">
        <ele>51.5679</ele>
        <time>2013-05-22T19:25:15Z</time>
      </trkpt>
      <trkpt lat="59.8296786" lon="17.6456614">
        <ele>52.5292</ele>
        <time>2013-05-22T19:25:16Z</time>
      </trkpt>
      <trkpt lat="59.8296954" lon="17.645652">
        <ele>53.4905</ele>
        <time>2013-05-22T19:25:17Z</time>
      </trkpt>
      <trkpt lat="59.8297155" lon="17.6456438">
        <ele>55.4131</ele>
        <time>2013-05-22T19:25:18Z</time>
      </trkpt>
      <trkpt lat="59.8297425" lon="17.6456297">
        <ele>57.8165</ele>
        <time>2013-05-22T19:25:19Z</time>
      </trkpt>
      <trkpt lat="59.8297595" lon="17.6456126">
        <ele>57.3358</ele>
        <time>2013-05-22T19:25:20Z</time>
      </trkpt>
      <trkpt lat="59.8297817" lon="17.6455988">
        <ele>58.7777</ele>
        <time>2013-05-22T19:25:21Z</time>
      </trkpt>
      <trkpt lat="59.8298027" lon="17.645579">
        <ele>59.2584</ele>
        <time>2013-05-22T19:25:22Z</time>
      </trkpt>
      <trkpt lat="59.8298263" lon="17.6455531">
        <ele>59.2584</ele>
        <time>2013-05-22T19:25:23Z</time>
      </trkpt>
      <trkpt lat="59.8298405" lon="17.645527">
        <ele>58.2971</ele>
        <time>2013-05-22T19:25:24Z</time>
      </trkpt>
      <trkpt lat="59.8298624" lon="17.6455079">
        <ele>57.8165</ele>
        <time>2013-05-22T19:25:25Z</time>
      </trkpt>
      <trkpt lat="59.8298804" lon="17.6454926">
        <ele>57.8165</ele>
        <time>2013-05-22T19:25:26Z</time>
      </trkpt>
      <trkpt lat="59.8298896" lon="17.6454774">
        <ele>55.8938</ele>
        <time>2013-05-22T19:25:27Z</time>
      </trkpt>
      <trkpt lat="59.8299127" lon="17.6454608">
        <ele>56.8551</ele>
        <time>2013-05-22T19:25:28Z</time>
      </trkpt>
      <trkpt lat="59.8299404" lon="17.6454541">
        <ele>58.7777</ele>
        <time>2013-05-22T19:25:29Z</time>
      </trkpt>
      <trkpt lat="59.8299713" lon="17.6454385">
        <ele>60.2197</ele>
        <time>2013-05-22T19:25:30Z</time>
      </trkpt>
      <trkpt lat="59.8299941" lon="17.6454205">
        <ele>59.7391</ele>
        <time>2013-05-22T19:25:31Z</time>
      </trkpt>
      <trkpt lat="59.8300175" lon="17.6453931">
        <ele>58.7777</ele>
        <time>2013-05-22T19:25:32Z</time>
      </trkpt>
      <trkpt lat="59.8300329" lon="17.6453651">
        <ele>57.8165</ele>
        <time>2013-05-22T19:25:33Z</time>
      </trkpt>
      <trkpt lat="59.8300453" lon="17.6453413">
        <ele>56.8551</ele>
        <time>2013-05-22T19:25:34Z</time>
      </trkpt>
      <trkpt lat="59.8300585" lon="17.6453315">
        <ele>55.4131</ele>
        <time>2013-05-22T19:25:35Z</time>
      </trkpt>
      <trkpt lat="59.8300668" lon="17.6453117">
        <ele>54.4518</ele>
        <time>2013-05-22T19:25:36Z</time>
      </trkpt>
      <trkpt lat="59.8300748" lon="17.6452956">
        <ele>53.4905</ele>
        <time>2013-05-22T19:25:37Z</time>
      </trkpt>
      <trkpt lat="59.8300844" lon="17.6452799">
        <ele>52.5292</ele>
        <time>2013-05-22T19:25:38Z</time>
      </trkpt>
      <trkpt lat="59.8300947" lon="17.6452678">
        <ele>50.6066</ele>
        <time>2013-05-22T19:25:39Z</time>
      </trkpt>
      <trkpt lat="59.8300989" lon="17.6452433">
        <ele>47.2418</ele>
        <time>2013-05-22T19:25:40Z</time>
      </trkpt>
      <trkpt lat="59.8301087" lon="17.6452205">
        <ele>44.358</ele>
        <time>2013-05-22T19:25:41Z</time>
      </trkpt>
      <trkpt lat="59.830133" lon="17.6452033">
        <ele>44.358</ele>
        <time>2013-05-22T19:25:42Z</time>
      </trkpt>
      <trkpt lat="59.8301573" lon="17.6451733">
        <ele>44.358</ele>
        <time>2013-05-22T19:25:43Z</time>
      </trkpt>
      <trkpt lat="59.8302056" lon="17.6451345">
        <ele>49.6453</ele>
        <time>2013-05-22T19:25:44Z</time>
      </trkpt>
      <trkpt lat="59.8302438" lon="17.6451195">
        <ele>53.9712</ele>
        <time>2013-05-22T19:25:45Z</time>
      </trkpt>
      <trkpt lat="59.8302847" lon="17.6451055">
        <ele>58.2971</ele>
        <time>2013-05-22T19:25:46Z</time>
      </trkpt>
      <trkpt lat="59.8303064" lon="17.6450911">
        <ele>59.2584</ele>
        <time>2013-05-22T19:25:47Z</time>
      </trkpt>
      <trkpt lat="59.8303164" lon="17.645076">
        <ele>58.7777</ele>
        <time>2013-05-22T19:25:48Z</time>
      </trkpt>
      <trkpt lat="59.8303326" lon="17.6450573">
        <ele>56.8551</ele>
        <time>2013-05-22T19:25:49Z</time>
      </trkpt>
      <trkpt lat="59.8303558" lon="17.6450376">
        <ele>56.3745</ele>
        <time>2013-05-22T19:25:50Z</time>
      </trkpt>
      <trkpt lat="59.8303853" lon="17.6450246">
        <ele>57.8165</ele>
        <time>2013-05-22T19:25:51Z</time>
      </trkpt>
      <trkpt lat="59.8304159" lon="17.6450009">
        <ele>59.2584</ele>
        <time>2013-05-22T19:25:52Z</time>
      </trkpt>
      <trkpt lat="59.8304194" lon="17.6449801">
        <ele>56.8551</ele>
        <time>2013-05-22T19:25:53Z</time>
      </trkpt>
      <trkpt lat="59.8304382" lon="17.6449464">
        <ele>54.9324</ele>
        <time>2013-05-22T19:25:54Z</time>
      </trkpt>
      <trkpt lat="59.8304625" lon="17.6449174">
        <ele>54.9324</ele>
        <time>2013-05-22T19:25:55Z</time>
      </trkpt>
      <trkpt lat="59.8304857" lon="17.64489">
        <ele>54.4518</ele>
        <time>2013-05-22T19:25:56Z</time>
      </trkpt>
      <trkpt lat="59.8305006" lon="17.6448693">
        <ele>53.0098</ele>
        <time>2013-05-22T19:25:57Z</time>
      </trkpt>
      <trkpt lat="59.8305082" lon="17.6448595">
        <ele>51.5679</ele>
        <time>2013-05-22T19:25:58Z</time>
      </trkpt>
      <trkpt lat="59.8305236" lon="17.6448511">
        <ele>51.5679</ele>
        <time>2013-05-22T19:25:59Z</time>
      </trkpt>
      <trkpt lat="59.8305376" lon="17.6448268">
        <ele>50.6066</ele>
        <time>2013-05-22T19:26:00Z</time>
      </trkpt>
      <trkpt lat="59.8305669" lon="17.6448085">
        <ele>52.0486</ele>
        <time>2013-05-22T19:26:01Z</time>
      </trkpt>
      <trkpt lat="59.8305895" lon="17.6447942">
        <ele>53.4905</ele>
        <time>2013-05-22T19:26:02Z</time>
      </trkpt>
      <trkpt lat="59.8306122" lon="17.6447736">
        <ele>53.9712</ele>
        <time>2013-05-22T19:26:03Z</time>
      </trkpt>
      <trkpt lat="59.8306255" lon="17.6447666">
        <ele>53.9712</ele>
        <time>2013-05-22T19:26:04Z</time>
      </trkpt>
      <trkpt lat="59.8306464" lon="17.6447544">
        <ele>55.8938</ele>
        <time>2013-05-22T19:26:05Z</time>
      </trkpt>
      <trkpt lat="59.8306713" lon="17.6447306">
        <ele>57.8165</ele>
        <time>2013-05-22T19:26:06Z</time>
      </trkpt>
      <trkpt lat="59.8306977" lon="17.6447087">
        <ele>59.2584</ele>
        <time>2013-05-22T19:26:07Z</time>
      </trkpt>
      <trkpt lat="59.830726" lon="17.644691">
        <ele>60.7003</ele>
        <time>2013-05-22T19:26:08Z</time>
      </trkpt>
      <trkpt lat="59.8307609" lon="17.6446699">
        <ele>62.6229</ele>
        <time>2013-05-22T19:26:09Z</time>
      </trkpt>
      <trkpt lat="59.8307671" lon="17.6446444">
        <ele>59.7391</ele>
        <time>2013-05-22T19:26:10Z</time>
      </trkpt>
      <trkpt lat="59.8307835" lon="17.6446205">
        <ele>57.8165</ele>
        <time>2013-05-22T19:26:11Z</time>
      </trkpt>
      <trkpt lat="59.830813" lon="17.6445933">
        <ele>56.8551</ele>
        <time>2013-05-22T19:26:12Z</time>
      </trkpt>
      <trkpt lat="59.8308432" lon="17.6445912">
        <ele>57.8165</ele>
        <time>2013-05-22T19:26:13Z</time>
      </trkpt>
      <trkpt lat="59.8308834" lon="17.6445896">
        <ele>62.1423</ele>
        <time>2013-05-22T19:26:14Z</time>
      </trkpt>
      <trkpt lat="59.8309209" lon="17.6445576">
        <ele>63.5844</ele>
        <time>2013-05-22T19:26:15Z</time>
      </trkpt>
      <trkpt lat="59.8309722" lon="17.6445158">
        <ele>66.949</ele>
        <time>2013-05-22T19:26:16Z</time>
      </trkpt>
      <trkpt lat="59.8310125" lon="17.644474">
        <ele>67.4297</ele>
        <time>2013-05-22T19:26:17Z</time>
      </trkpt>
      <trkpt lat="59.8310459" lon="17.6444441">
        <ele>68.3909</ele>
        <time>2013-05-22T19:26:18Z</time>
      </trkpt>
      <trkpt lat="59.831067" lon="17.6444207">
        <ele>69.3523</ele>
        <time>2013-05-22T19:26:19Z</time>
      </trkpt>
      <trkpt lat="59.8310894" lon="17.6444107">
        <ele>70.7942</ele>
        <time>2013-05-22T19:26:20Z</time>
      </trkpt>
      <trkpt lat="59.8311166" lon="17.6443891">
        <ele>72.7169</ele>
        <time>2013-05-22T19:26:21Z</time>
      </trkpt>
      <trkpt lat="59.8311224" lon="17.6443669">
        <ele>70.3135</ele>
        <time>2013-05-22T19:26:22Z</time>
      </trkpt>
      <trkpt lat="59.8311338" lon="17.6443532">
        <ele>69.8329</ele>
        <time>2013-05-22T19:26:23Z</time>
      </trkpt>
      <trkpt lat="59.8311601" lon="17.6443315">
        <ele>71.2749</ele>
        <time>2013-05-22T19:26:24Z</time>
      </trkpt>
      <trkpt lat="59.831179" lon="17.6443181">
        <ele>71.2749</ele>
        <time>2013-05-22T19:26:25Z</time>
      </trkpt>
      <trkpt lat="59.8311996" lon="17.6443138">
        <ele>70.3135</ele>
        <time>2013-05-22T19:26:26Z</time>
      </trkpt>
      <trkpt lat="59.8312201" lon="17.6443067">
        <ele>68.8716</ele>
        <time>2013-05-22T19:26:27Z</time>
      </trkpt>
      <trkpt lat="59.8312417" lon="17.644298">
        <ele>68.3909</ele>
        <time>2013-05-22T19:26:28Z</time>
      </trkpt>
      <trkpt lat="59.8312773" lon="17.644287">
        <ele>69.8329</ele>
        <time>2013-05-22T19:26:29Z</time>
      </trkpt>
      <trkpt lat="59.831298" lon="17.6442654">
        <ele>68.8716</ele>
        <time>2013-05-22T19:26:30Z</time>
      </trkpt>
      <trkpt lat="59.8313153" lon="17.6442502">
        <ele>69.3523</ele>
        <time>2013-05-22T19:26:31Z</time>
      </trkpt>
      <trkpt lat="59.8313296" lon="17.6442451">
        <ele>69.3523</ele>
        <time>2013-05-22T19:26:32Z</time>
      </trkpt>
      <trkpt lat="59.8313507" lon="17.6442275">
        <ele>69.8329</ele>
        <time>2013-05-22T19:26:33Z</time>
      </trkpt>
      <trkpt lat="59.8313649" lon="17.6442072">
        <ele>68.3909</ele>
        <time>2013-05-22T19:26:34Z</time>
      </trkpt>
      <trkpt lat="59.8313957" lon="17.6441896">
        <ele>69.3523</ele>
        <time>2013-05-22T19:26:35Z</time>
      </trkpt>
      <trkpt lat="59.8314271" lon="17.6441677">
        <ele>70.3135</ele>
        <time>2013-05-22T19:26:36Z</time>
      </trkpt>
      <trkpt lat="59.8314621" lon="17.6441473">
        <ele>72.7169</ele>
        <time>2013-05-22T19:26:37Z</time>
      </trkpt>
      <trkpt lat="59.8314845" lon="17.6441294">
        <ele>73.6782</ele>
        <time>2013-05-22T19:26:38Z</time>
      </trkpt>
      <trkpt lat="59.8315042" lon="17.6441032">
        <ele>71.7555</ele>
        <time>2013-05-22T19:26:39Z</time>
      </trkpt>
      <trkpt lat="59.8315115" lon="17.6440748">
        <ele>69.8329</ele>
        <time>2013-05-22T19:26:40Z</time>
      </trkpt>
      <trkpt lat="59.8315307" lon="17.6440379">
        <ele>67.9103</ele>
        <time>2013-05-22T19:26:41Z</time>
      </trkpt>
      <trkpt lat="59.8315463" lon="17.6440247">
        <ele>66.949</ele>
        <time>2013-05-22T19:26:42Z</time>
      </trkpt>
      <trkpt lat="59.8315519" lon="17.6440068">
        <ele>64.5457</ele>
        <time>2013-05-22T19:26:43Z</time>
      </trkpt>
      <trkpt lat="59.8315605" lon="17.6439922">
        <ele>62.6229</ele>
        <time>2013-05-22T19:26:44Z</time>
      </trkpt>
      <trkpt lat="59.8315762" lon="17.6439746">
        <ele>61.181</ele>
        <time>2013-05-22T19:26:45Z</time>
      </trkpt>
      <trkpt lat="59.8315814" lon="17.6439457">
        <ele>58.7777</ele>
        <time>2013-05-22T19:26:46Z</time>
      </trkpt>
      <trkpt lat="59.8315861" lon="17.6439289">
        <ele>55.4131</ele>
        <time>2013-05-22T19:26:47Z</time>
      </trkpt>
      <trkpt lat="59.8316042" lon="17.6439208">
        <ele>53.9712</ele>
        <time>2013-05-22T19:26:48Z</time>
      </trkpt>
      <trkpt lat="59.8316055" lon="17.6439035">
        <ele>50.6066</ele>
        <time>2013-05-22T19:26:49Z</time>
      </trkpt>
      <trkpt lat="59.8315999" lon="17.6438774">
        <ele>46.2806</ele>
        <time>2013-05-22T19:26:50Z</time>
      </trkpt>
      <trkpt lat="59.8316126" lon="17.6438482">
        <ele>43.3966</ele>
        <time>2013-05-22T19:26:51Z</time>
      </trkpt>
      <trkpt lat="59.8316691" lon="17.6438306">
        <ele>50.126</ele>
        <time>2013-05-22T19:26:52Z</time>
      </trkpt>
      <trkpt lat="59.8317145" lon="17.6438048">
        <ele>54.9324</ele>
        <time>2013-05-22T19:26:53Z</time>
      </trkpt>
      <trkpt lat="59.8317558" lon="17.6437846">
        <ele>58.7777</ele>
        <time>2013-05-22T19:26:54Z</time>
      </trkpt>
      <trkpt lat="59.8317941" lon="17.643759">
        <ele>62.6229</ele>
        <time>2013-05-22T19:26:55Z</time>
      </trkpt>
      <trkpt lat="59.8318026" lon="17.6437238">
        <ele>58.7777</ele>
        <time>2013-05-22T19:26:56Z</time>
      </trkpt>
      <trkpt lat="59.8318296" lon="17.6437088">
        <ele>60.2197</ele>
        <time>2013-05-22T19:26:57Z</time>
      </trkpt>
      <trkpt lat="59.831849" lon="17.6436945">
        <ele>59.7391</ele>
        <time>2013-05-22T19:26:58Z</time>
      </trkpt>
      <trkpt lat="59.8318792" lon="17.6436763">
        <ele>60.7003</ele>
        <time>2013-05-22T19:26:59Z</time>
      </trkpt>
      <trkpt lat="59.8319024" lon="17.6436556">
        <ele>60.7003</ele>
        <time>2013-05-22T19:27:00Z</time>
      </trkpt>
      <trkpt lat="59.8319268" lon="17.6436389">
        <ele>60.7003</ele>
        <time>2013-05-22T19:27:01Z</time>
      </trkpt>
      <trkpt lat="59.8319446" lon="17.6436219">
        <ele>59.7391</ele>
        <time>2013-05-22T19:27:02Z</time>
      </trkpt>
      <trkpt lat="59.831954" lon="17.6435927">
        <ele>57.8165</ele>
        <time>2013-05-22T19:27:03Z</time>
      </trkpt>
      <trkpt lat="59.831972" lon="17.6435686">
        <ele>57.3358</ele>
        <time>2013-05-22T19:27:04Z</time>
      </trkpt>
      <trkpt lat="59.8319959" lon="17.6435389">
        <ele>58.7777</ele>
        <time>2013-05-22T19:27:05Z</time>
      </trkpt>
      <trkpt lat="59.832021" lon="17.6435095">
        <ele>59.7391</ele>
        <time>2013-05-22T19:27:06Z</time>
      </trkpt>
      <trkpt lat="59.83205" lon="17.6434836">
        <ele>62.1423</ele>
        <time>2013-05-22T19:27:07Z</time>
      </trkpt>
      <trkpt lat="59.8320667" lon="17.6434473">
        <ele>63.5844</ele>
        <time>2013-05-22T19:27:08Z</time>
      </trkpt>
      <trkpt lat="59.8320725" lon="17.6434141">
        <ele>62.6229</ele>
        <time>2013-05-22T19:27:09Z</time>
      </trkpt>
      <trkpt lat="59.832089" lon="17.6433882">
        <ele>62.6229</ele>
        <time>2013-05-22T19:27:10Z</time>
      </trkpt>
      <trkpt lat="59.8320956" lon="17.6433493">
        <ele>61.6617</ele>
        <time>2013-05-22T19:27:11Z</time>
      </trkpt>
      <trkpt lat="59.8320988" lon="17.6433205">
        <ele>60.2197</ele>
        <time>2013-05-22T19:27:12Z</time>
      </trkpt>
      <trkpt lat="59.8320988" lon="17.6432836">
        <ele>57.8165</ele>
        <time>2013-05-22T19:27:13Z</time>
      </trkpt>
      <trkpt lat="59.8321202" lon="17.6432593">
        <ele>58.2971</ele>
        <time>2013-05-22T19:27:14Z</time>
      </trkpt>
      <trkpt lat="59.8321346" lon="17.6432309">
        <ele>57.8165</ele>
        <time>2013-05-22T19:27:15Z</time>
      </trkpt>
      <trkpt lat="59.8321402" lon="17.6431931">
        <ele>56.3745</ele>
        <time>2013-05-22T19:27:16Z</time>
      </trkpt>
      <trkpt lat="59.8321482" lon="17.6431557">
        <ele>54.9324</ele>
        <time>2013-05-22T19:27:17Z</time>
      </trkpt>
      <trkpt lat="59.8321765" lon="17.6431218">
        <ele>57.3358</ele>
        <time>2013-05-22T19:27:18Z</time>
      </trkpt>
      <trkpt lat="59.8321942" lon="17.6430859">
        <ele>57.8165</ele>
        <time>2013-05-22T19:27:19Z</time>
      </trkpt>
      <trkpt lat="59.8322082" lon="17.6430579">
        <ele>56.3745</ele>
        <time>2013-05-22T19:27:20Z</time>
      </trkpt>
      <trkpt lat="59.8322196" lon="17.6430313">
        <ele>53.0098</ele>
        <time>2013-05-22T19:27:21Z</time>
      </trkpt>
      <trkpt lat="59.8322401" lon="17.6430128">
        <ele>52.5292</ele>
        <time>2013-05-22T19:27:22Z</time>
      </trkpt>
      <trkpt lat="59.8322605" lon="17.6429918">
        <ele>52.5292</ele>
        <time>2013-05-22T19:27:23Z</time>
      </trkpt>
      <trkpt lat="59.8322699" lon="17.6429721">
        <ele>49.1646</ele>
        <time>2013-05-22T19:27:24Z</time>
      </trkpt>
      <trkpt lat="59.832289" lon="17.6429537">
        <ele>49.1646</ele>
        <time>2013-05-22T19:27:25Z</time>
      </trkpt>
      <trkpt lat="59.8323128" lon="17.6429392">
        <ele>49.6453</ele>
        <time>2013-05-22T19:27:26Z</time>
      </trkpt>
      <trkpt lat="59.8323284" lon="17.6429319">
        <ele>48.684</ele>
        <time>2013-05-22T19:27:27Z</time>
      </trkpt>
      <trkpt lat="59.8323608" lon="17.6429328">
        <ele>51.5679</ele>
        <time>2013-05-22T19:27:28Z</time>
      </trkpt>
      <trkpt lat="59.832387" lon="17.6429162">
        <ele>53.9712</ele>
        <time>2013-05-22T19:27:29Z</time>
      </trkpt>
      <trkpt lat="59.8324105" lon="17.6429013">
        <ele>55.8938</ele>
        <time>2013-05-22T19:27:30Z</time>
      </trkpt>
      <trkpt lat="59.8324347" lon="17.6428885">
        <ele>56.8551</ele>
        <time>2013-05-22T19:27:31Z</time>
      </trkpt>
      <trkpt lat="59.832468" lon="17.6428796">
        <ele>58.7777</ele>
        <time>2013-05-22T19:27:32Z</time>
      </trkpt>
      <trkpt lat="59.8325001" lon="17.6428812">
        <ele>60.7003</ele>
        <time>2013-05-22T19:27:33Z</time>
      </trkpt>
      <trkpt lat="59.8325286" lon="17.642883">
        <ele>63.1036</ele>
        <time>2013-05-22T19:27:34Z</time>
      </trkpt>
      <trkpt lat="59.8325551" lon="17.6428818">
        <ele>65.0264</ele>
        <time>2013-05-22T19:27:35Z</time>
      </trkpt>
      <trkpt lat="59.8325686" lon="17.6428795">
        <ele>63.1036</ele>
        <time>2013-05-22T19:27:36Z</time>
      </trkpt>
      <trkpt lat="59.8325769" lon="17.6428722">
        <ele>59.7391</ele>
        <time>2013-05-22T19:27:37Z</time>
      </trkpt>
      <trkpt lat="59.832605" lon="17.642866">
        <ele>60.2197</ele>
        <time>2013-05-22T19:27:38Z</time>
      </trkpt>
      <trkpt lat="59.8326329" lon="17.6428711">
        <ele>60.7003</ele>
        <time>2013-05-22T19:27:39Z</time>
      </trkpt>
      <trkpt lat="59.8326502" lon="17.6428758">
        <ele>58.7777</ele>
        <time>2013-05-22T19:27:40Z</time>
      </trkpt>
      <trkpt lat="59.832679" lon="17.6428836">
        <ele>58.7777</ele>
        <time>2013-05-22T19:27:41Z</time>
      </trkpt>
      <trkpt lat="59.8326976" lon="17.6428924">
        <ele>57.8165</ele>
        <time>2013-05-22T19:27:42Z</time>
      </trkpt>
      <trkpt lat="59.8327206" lon="17.6428977">
        <ele>58.2971</ele>
        <time>2013-05-22T19:27:43Z</time>
      </trkpt>
      <trkpt lat="59.8327433" lon="17.6428983">
        <ele>57.8165</ele>
        <time>2013-05-22T19:27:44Z</time>
      </trkpt>
      <trkpt lat="59.8327649" lon="17.6429024">
        <ele>57.3358</ele>
        <time>2013-05-22T19:27:45Z</time>
      </trkpt>
      <trkpt lat="59.8327804" lon="17.6428983">
        <ele>54.4518</ele>
        <time>2013-05-22T19:27:46Z</time>
      </trkpt>
      <trkpt lat="59.8327961" lon="17.6428952">
        <ele>52.0486</ele>
        <time>2013-05-22T19:27:47Z</time>
      </trkpt>
      <trkpt lat="59.8328239" lon="17.6429043">
        <ele>51.5679</ele>
        <time>2013-05-22T19:27:48Z</time>
      </trkpt>
      <trkpt lat="59.8328413" lon="17.6429038">
        <ele>48.2034</ele>
        <time>2013-05-22T19:27:49Z</time>
      </trkpt>
      <trkpt lat="59.8328688" lon="17.6429097">
        <ele>47.2418</ele>
        <time>2013-05-22T19:27:50Z</time>
      </trkpt>
      <trkpt lat="59.8328916" lon="17.6429212">
        <ele>45.7999</ele>
        <time>2013-05-22T19:27:51Z</time>
      </trkpt>
      <trkpt lat="59.8329148" lon="17.6429303">
        <ele>45.3192</ele>
        <time>2013-05-22T19:27:52Z</time>
      </trkpt>
      <trkpt lat="59.8329412" lon="17.6429379">
        <ele>44.358</ele>
        <time>2013-05-22T19:27:53Z</time>
      </trkpt>
      <trkpt lat="59.8329727" lon="17.6429611">
        <ele>43.3966</ele>
        <time>2013-05-22T19:27:54Z</time>
      </trkpt>
      <trkpt lat="59.8329895" lon="17.6429843">
        <ele>41.474</ele>
        <time>2013-05-22T19:27:55Z</time>
      </trkpt>
      <trkpt lat="59.8330146" lon="17.6430015">
        <ele>40.0321</ele>
        <time>2013-05-22T19:27:56Z</time>
      </trkpt>
      <trkpt lat="59.833038" lon="17.6430232">
        <ele>40.5128</ele>
        <time>2013-05-22T19:27:57Z</time>
      </trkpt>
      <trkpt lat="59.8330654" lon="17.6430488">
        <ele>41.9547</ele>
        <time>2013-05-22T19:27:58Z</time>
      </trkpt>
      <trkpt lat="59.8330809" lon="17.6430744">
        <ele>41.474</ele>
        <time>2013-05-22T19:27:59Z</time>
      </trkpt>
      <trkpt lat="59.8330984" lon="17.6430884">
        <ele>40.9934</ele>
        <time>2013-05-22T19:28:00Z</time>
      </trkpt>
      <trkpt lat="59.8331146" lon="17.6430961">
        <ele>40.0321</ele>
        <time>2013-05-22T19:28:01Z</time>
      </trkpt>
      <trkpt lat="59.8331277" lon="17.6431058">
        <ele>39.5513</ele>
        <time>2013-05-22T19:28:02Z</time>
      </trkpt>
      <trkpt lat="59.8331518" lon="17.6431236">
        <ele>41.9547</ele>
        <time>2013-05-22T19:28:03Z</time>
      </trkpt>
      <trkpt lat="59.8331696" lon="17.6431454">
        <ele>42.4354</ele>
        <time>2013-05-22T19:28:04Z</time>
      </trkpt>
      <trkpt lat="59.8331868" lon="17.6431713">
        <ele>44.8386</ele>
        <time>2013-05-22T19:28:05Z</time>
      </trkpt>
      <trkpt lat="59.8332152" lon="17.6431835">
        <ele>46.2806</ele>
        <time>2013-05-22T19:28:06Z</time>
      </trkpt>
      <trkpt lat="59.8332409" lon="17.6431956">
        <ele>48.2034</ele>
        <time>2013-05-22T19:28:07Z</time>
      </trkpt>
      <trkpt lat="59.8332747" lon="17.643209">
        <ele>51.0872</ele>
        <time>2013-05-22T19:28:08Z</time>
      </trkpt>
      <trkpt lat="59.8333068" lon="17.6432071">
        <ele>52.0486</ele>
        <time>2013-05-22T19:28:09Z</time>
      </trkpt>
      <trkpt lat="59.8333365" lon="17.6432039">
        <ele>53.4905</ele>
        <time>2013-05-22T19:28:10Z</time>
      </trkpt>
      <trkpt lat="59.8333497" lon="17.6431842">
        <ele>50.126</ele>
        <time>2013-05-22T19:28:11Z</time>
      </trkpt>
      <trkpt lat="59.8333748" lon="17.6431681">
        <ele>49.6453</ele>
        <time>2013-05-22T19:28:12Z</time>
      </trkpt>
      <trkpt lat="59.8334104" lon="17.6431615">
        <ele>51.5679</ele>
        <time>2013-05-22T19:28:13Z</time>
      </trkpt>
      <trkpt lat="59.8334368" lon="17.64315">
        <ele>51.5679</ele>
        <time>2013-05-22T19:28:14Z</time>
      </trkpt>
      <trkpt lat="59.8334592" lon="17.6431355">
        <ele>51.5679</ele>
        <time>2013-05-22T19:28:15Z</time>
      </trkpt>
      <trkpt lat="59.8334882" lon="17.6431283">
        <ele>53.4905</ele>
        <time>2013-05-22T19:28:16Z</time>
      </trkpt>
      <trkpt lat="59.8335006" lon="17.6431136">
        <ele>53.4905</ele>
        <time>2013-05-22T19:28:17Z</time>
      </trkpt>
      <trkpt lat="59.8335198" lon="17.6431024">
        <ele>53.9712</ele>
        <time>2013-05-22T19:28:18Z</time>
      </trkpt>
      <trkpt lat="59.8335468" lon="17.6430925">
        <ele>56.8551</ele>
        <time>2013-05-22T19:28:19Z</time>
      </trkpt>
      <trkpt lat="59.8335699" lon="17.6430775">
        <ele>58.2971</ele>
        <time>2013-05-22T19:28:20Z</time>
      </trkpt>
      <trkpt lat="59.8336011" lon="17.6430587">
        <ele>61.6617</ele>
        <time>2013-05-22T19:28:21Z</time>
      </trkpt>
      <trkpt lat="59.833612" lon="17.6430276">
        <ele>60.7003</ele>
        <time>2013-05-22T19:28:22Z</time>
      </trkpt>
      <trkpt lat="59.8336344" lon="17.6430138">
        <ele>61.181</ele>
        <time>2013-05-22T19:28:23Z</time>
      </trkpt>
      <trkpt lat="59.8336608" lon="17.6429965">
        <ele>61.181</ele>
        <time>2013-05-22T19:28:24Z</time>
      </trkpt>
      <trkpt lat="59.8336772" lon="17.6429668">
        <ele>60.7003</ele>
        <time>2013-05-22T19:28:25Z</time>
      </trkpt>
      <trkpt lat="59.8337126" lon="17.6429455">
        <ele>62.6229</ele>
        <time>2013-05-22T19:28:26Z</time>
      </trkpt>
      <trkpt lat="59.8337331" lon="17.6429177">
        <ele>62.1423</ele>
        <time>2013-05-22T19:28:27Z</time>
      </trkpt>
      <trkpt lat="59.8337441" lon="17.6428918">
        <ele>60.7003</ele>
        <time>2013-05-22T19:28:28Z</time>
      </trkpt>
      <trkpt lat="59.833744" lon="17.642864">
        <ele>57.3358</ele>
        <time>2013-05-22T19:28:29Z</time>
      </trkpt>
      <trkpt lat="59.8337454" lon="17.642862">
        <ele>55.4131</ele>
        <time>2013-05-22T19:28:30Z</time>
      </trkpt>
      <trkpt lat="59.8337579" lon="17.6428611">
        <ele>55.4131</ele>
        <time>2013-05-22T19:28:31Z</time>
      </trkpt>
      <trkpt lat="59.8341844" lon="17.6425004">
        <ele>48.2034</ele>
        <time>2013-05-22T19:28:43Z</time>
      </trkpt>
      <trkpt lat="59.834186" lon="17.6424202">
        <ele>54.9324</ele>
        <time>2013-05-22T19:28:44Z</time>
      </trkpt>
      <trkpt lat="59.8341512" lon="17.6424409">
        <ele>48.2034</ele>
        <time>2013-05-22T19:28:45Z</time>
      </trkpt>
      <trkpt lat="59.8341249" lon="17.6424305">
        <ele>45.7999</ele>
        <time>2013-05-22T19:28:46Z</time>
      </trkpt>
      <trkpt lat="59.8341096" lon="17.6424077">
        <ele>41.474</ele>
        <time>2013-05-22T19:28:47Z</time>
      </trkpt>
      <trkpt lat="59.8341194" lon="17.6423896">
        <ele>40.5128</ele>
        <time>2013-05-22T19:28:48Z</time>
      </trkpt>
      <trkpt lat="59.8341303" lon="17.6423787">
        <ele>39.5513</ele>
        <time>2013-05-22T19:28:49Z</time>
      </trkpt>
      <trkpt lat="59.8341286" lon="17.6423576">
        <ele>37.6287</ele>
        <time>2013-05-22T19:28:50Z</time>
      </trkpt>
      <trkpt lat="59.8341475" lon="17.6423398">
        <ele>38.1094</ele>
        <time>2013-05-22T19:28:51Z</time>
      </trkpt>
      <trkpt lat="59.834188" lon="17.6423339">
        <ele>41.9547</ele>
        <time>2013-05-22T19:28:52Z</time>
      </trkpt>
      <trkpt lat="59.8342189" lon="17.6423238">
        <ele>44.8386</ele>
        <time>2013-05-22T19:28:53Z</time>
      </trkpt>
      <trkpt lat="59.8342314" lon="17.6423057">
        <ele>42.916</ele>
        <time>2013-05-22T19:28:54Z</time>
      </trkpt>
      <trkpt lat="59.8342489" lon="17.6422886">
        <ele>43.8773</ele>
        <time>2013-05-22T19:28:55Z</time>
      </trkpt>
      <trkpt lat="59.8342745" lon="17.642284">
        <ele>44.358</ele>
        <time>2013-05-22T19:28:56Z</time>
      </trkpt>
      <trkpt lat="59.8342947" lon="17.6422736">
        <ele>44.358</ele>
        <time>2013-05-22T19:28:57Z</time>
      </trkpt>
      <trkpt lat="59.834317" lon="17.6422612">
        <ele>44.358</ele>
        <time>2013-05-22T19:28:58Z</time>
      </trkpt>
      <trkpt lat="59.8343433" lon="17.6422584">
        <ele>45.3192</ele>
        <time>2013-05-22T19:28:59Z</time>
      </trkpt>
      <trkpt lat="59.8343665" lon="17.6422426">
        <ele>45.7999</ele>
        <time>2013-05-22T19:29:00Z</time>
      </trkpt>
      <trkpt lat="59.834391" lon="17.6422316">
        <ele>47.2418</ele>
        <time>2013-05-22T19:29:01Z</time>
      </trkpt>
      <trkpt lat="59.8344243" lon="17.6422243">
        <ele>49.1646</ele>
        <time>2013-05-22T19:29:02Z</time>
      </trkpt>
      <trkpt lat="59.8344393" lon="17.642216">
        <ele>48.684</ele>
        <time>2013-05-22T19:29:03Z</time>
      </trkpt>
      <trkpt lat="59.8344549" lon="17.6422083">
        <ele>48.2034</ele>
        <time>2013-05-22T19:29:04Z</time>
      </trkpt>
      <trkpt lat="59.8344719" lon="17.6422006">
        <ele>46.7612</ele>
        <time>2013-05-22T19:29:05Z</time>
      </trkpt>
      <trkpt lat="59.8345082" lon="17.6422098">
        <ele>49.6453</ele>
        <time>2013-05-22T19:29:06Z</time>
      </trkpt>
      <trkpt lat="59.834532" lon="17.6422186">
        <ele>49.1646</ele>
        <time>2013-05-22T19:29:07Z</time>
      </trkpt>
      <trkpt lat="59.8345439" lon="17.6422249">
        <ele>48.2034</ele>
        <time>2013-05-22T19:29:08Z</time>
      </trkpt>
      <trkpt lat="59.8345525" lon="17.6422363">
        <ele>47.2418</ele>
        <time>2013-05-22T19:29:09Z</time>
      </trkpt>
      <trkpt lat="59.8345635" lon="17.642257">
        <ele>46.2806</ele>
        <time>2013-05-22T19:29:10Z</time>
      </trkpt>
      <trkpt lat="59.834578" lon="17.6422891">
        <ele>45.7999</ele>
        <time>2013-05-22T19:29:11Z</time>
      </trkpt>
      <trkpt lat="59.8345946" lon="17.642316">
        <ele>44.8386</ele>
        <time>2013-05-22T19:29:12Z</time>
      </trkpt>
      <trkpt lat="59.8346076" lon="17.6423255">
        <ele>42.916</ele>
        <time>2013-05-22T19:29:13Z</time>
      </trkpt>
      <trkpt lat="59.8346242" lon="17.6423404">
        <ele>42.4354</ele>
        <time>2013-05-22T19:29:14Z</time>
      </trkpt>
      <trkpt lat="59.8346517" lon="17.6423507">
        <ele>43.8773</ele>
        <time>2013-05-22T19:29:15Z</time>
      </trkpt>
      <trkpt lat="59.8346749" lon="17.6423552">
        <ele>44.358</ele>
        <time>2013-05-22T19:29:16Z</time>
      </trkpt>
      <trkpt lat="59.8347045" lon="17.6423672">
        <ele>43.8773</ele>
        <time>2013-05-22T19:29:17Z</time>
      </trkpt>
      <trkpt lat="59.8347426" lon="17.6423879">
        <ele>46.2806</ele>
        <time>2013-05-22T19:29:18Z</time>
      </trkpt>
      <trkpt lat="59.8347711" lon="17.6424107">
        <ele>46.7612</ele>
        <time>2013-05-22T19:29:19Z</time>
      </trkpt>
      <trkpt lat="59.8347874" lon="17.6424451">
        <ele>46.7612</ele>
        <time>2013-05-22T19:29:20Z</time>
      </trkpt>
      <trkpt lat="59.834791" lon="17.6424692">
        <ele>45.7999</ele>
        <time>2013-05-22T19:29:21Z</time>
      </trkpt>
      <trkpt lat="59.8348065" lon="17.6424953">
        <ele>46.2806</ele>
        <time>2013-05-22T19:29:22Z</time>
      </trkpt>
      <trkpt lat="59.8348245" lon="17.6425211">
        <ele>48.2034</ele>
        <time>2013-05-22T19:29:23Z</time>
      </trkpt>
      <trkpt lat="59.8348472" lon="17.6425468">
        <ele>49.1646</ele>
        <time>2013-05-22T19:29:24Z</time>
      </trkpt>
      <trkpt lat="59.8348654" lon="17.6425683">
        <ele>48.684</ele>
        <time>2013-05-22T19:29:25Z</time>
      </trkpt>
      <trkpt lat="59.8348789" lon="17.6425968">
        <ele>47.7225</ele>
        <time>2013-05-22T19:29:26Z</time>
      </trkpt>
      <trkpt lat="59.8349044" lon="17.6426086">
        <ele>47.7225</ele>
        <time>2013-05-22T19:29:27Z</time>
      </trkpt>
      <trkpt lat="59.8349173" lon="17.6426207">
        <ele>45.7999</ele>
        <time>2013-05-22T19:29:28Z</time>
      </trkpt>
      <trkpt lat="59.8349246" lon="17.6426304">
        <ele>45.3192</ele>
        <time>2013-05-22T19:29:29Z</time>
      </trkpt>
      <trkpt lat="59.8349365" lon="17.6426481">
        <ele>45.3192</ele>
        <time>2013-05-22T19:29:30Z</time>
      </trkpt>
      <trkpt lat="59.8349552" lon="17.6426681">
        <ele>45.3192</ele>
        <time>2013-05-22T19:29:31Z</time>
      </trkpt>
      <trkpt lat="59.8349695" lon="17.6426926">
        <ele>45.3192</ele>
        <time>2013-05-22T19:29:32Z</time>
      </trkpt>
      <trkpt lat="59.8349909" lon="17.642703">
        <ele>44.358</ele>
        <time>2013-05-22T19:29:33Z</time>
      </trkpt>
      <trkpt lat="59.8350008" lon="17.6427147">
        <ele>44.358</ele>
        <time>2013-05-22T19:29:34Z</time>
      </trkpt>
      <trkpt lat="59.835012" lon="17.6427284">
        <ele>45.7999</ele>
        <time>2013-05-22T19:29:35Z</time>
      </trkpt>
      <trkpt lat="59.8350262" lon="17.6427333">
        <ele>44.8386</ele>
        <time>2013-05-22T19:29:36Z</time>
      </trkpt>
      <trkpt lat="59.8350615" lon="17.6427491">
        <ele>46.7612</ele>
        <time>2013-05-22T19:29:37Z</time>
      </trkpt>
      <trkpt lat="59.8350941" lon="17.642765">
        <ele>46.2806</ele>
        <time>2013-05-22T19:29:38Z</time>
      </trkpt>
      <trkpt lat="59.835124" lon="17.6427841">
        <ele>46.2806</ele>
        <time>2013-05-22T19:29:39Z</time>
      </trkpt>
      <trkpt lat="59.8351506" lon="17.6428077">
        <ele>46.2806</ele>
        <time>2013-05-22T19:29:40Z</time>
      </trkpt>
      <trkpt lat="59.8351713" lon="17.6428347">
        <ele>45.7999</ele>
        <time>2013-05-22T19:29:41Z</time>
      </trkpt>
      <trkpt lat="59.8352037" lon="17.642865">
        <ele>48.2034</ele>
        <time>2013-05-22T19:29:42Z</time>
      </trkpt>
      <trkpt lat="59.8352209" lon="17.6429018">
        <ele>48.684</ele>
        <time>2013-05-22T19:29:43Z</time>
      </trkpt>
      <trkpt lat="59.8352296" lon="17.6429407">
        <ele>48.684</ele>
        <time>2013-05-22T19:29:44Z</time>
      </trkpt>
      <trkpt lat="59.8352426" lon="17.6429745">
        <ele>49.1646</ele>
        <time>2013-05-22T19:29:45Z</time>
      </trkpt>
      <trkpt lat="59.8352549" lon="17.6430077">
        <ele>49.6453</ele>
        <time>2013-05-22T19:29:46Z</time>
      </trkpt>
      <trkpt lat="59.8352758" lon="17.6430333">
        <ele>49.6453</ele>
        <time>2013-05-22T19:29:47Z</time>
      </trkpt>
      <trkpt lat="59.835297" lon="17.6430695">
        <ele>51.0872</ele>
        <time>2013-05-22T19:29:48Z</time>
      </trkpt>
      <trkpt lat="59.8353164" lon="17.6431087">
        <ele>51.5679</ele>
        <time>2013-05-22T19:29:49Z</time>
      </trkpt>
      <trkpt lat="59.8353225" lon="17.6431469">
        <ele>50.126</ele>
        <time>2013-05-22T19:29:50Z</time>
      </trkpt>
      <trkpt lat="59.8353343" lon="17.6431631">
        <ele>48.2034</ele>
        <time>2013-05-22T19:29:51Z</time>
      </trkpt>
      <trkpt lat="59.8353492" lon="17.6431816">
        <ele>46.7612</ele>
        <time>2013-05-22T19:29:52Z</time>
      </trkpt>
      <trkpt lat="59.8353587" lon="17.6432026">
        <ele>44.8386</ele>
        <time>2013-05-22T19:29:53Z</time>
      </trkpt>
      <trkpt lat="59.8353684" lon="17.6432265">
        <ele>42.916</ele>
        <time>2013-05-22T19:29:54Z</time>
      </trkpt>
      <trkpt lat="59.8353783" lon="17.6432548">
        <ele>40.9934</ele>
        <time>2013-05-22T19:29:55Z</time>
      </trkpt>
      <trkpt lat="59.8354028" lon="17.6432919">
        <ele>43.3966</ele>
        <time>2013-05-22T19:29:56Z</time>
      </trkpt>
      <trkpt lat="59.8354146" lon="17.6433252">
        <ele>43.3966</ele>
        <time>2013-05-22T19:29:57Z</time>
      </trkpt>
      <trkpt lat="59.8354396" lon="17.6433637">
        <ele>45.7999</ele>
        <time>2013-05-22T19:29:58Z</time>
      </trkpt>
      <trkpt lat="59.8354515" lon="17.6433904">
        <ele>44.358</ele>
        <time>2013-05-22T19:29:59Z</time>
      </trkpt>
      <trkpt lat="59.8354606" lon="17.6434192">
        <ele>43.3966</ele>
        <time>2013-05-22T19:30:00Z</time>
      </trkpt>
      <trkpt lat="59.8354782" lon="17.643434">
        <ele>43.3966</ele>
        <time>2013-05-22T19:30:01Z</time>
      </trkpt>
      <trkpt lat="59.8354949" lon="17.643451">
        <ele>43.3966</ele>
        <time>2013-05-22T19:30:02Z</time>
      </trkpt>
      <trkpt lat="59.8355079" lon="17.6434712">
        <ele>43.3966</ele>
        <time>2013-05-22T19:30:03Z</time>
      </trkpt>
      <trkpt lat="59.8355286" lon="17.6434871">
        <ele>43.8773</ele>
        <time>2013-05-22T19:30:04Z</time>
      </trkpt>
      <trkpt lat="59.8355499" lon="17.6434914">
        <ele>44.358</ele>
        <time>2013-05-22T19:30:05Z</time>
      </trkpt>
      <trkpt lat="59.8355675" lon="17.6434907">
        <ele>42.4354</ele>
        <time>2013-05-22T19:30:06Z</time>
      </trkpt>
      <trkpt lat="59.8355897" lon="17.6434908">
        <ele>40.5128</ele>
        <time>2013-05-22T19:30:07Z</time>
      </trkpt>
      <trkpt lat="59.8356134" lon="17.6435017">
        <ele>40.5128</ele>
        <time>2013-05-22T19:30:08Z</time>
      </trkpt>
      <trkpt lat="59.8356322" lon="17.6435126">
        <ele>40.5128</ele>
        <time>2013-05-22T19:30:09Z</time>
      </trkpt>
      <trkpt lat="59.8356504" lon="17.6434998">
        <ele>38.1094</ele>
        <time>2013-05-22T19:30:10Z</time>
      </trkpt>
      <trkpt lat="59.8356835" lon="17.6434974">
        <ele>39.5513</ele>
        <time>2013-05-22T19:30:11Z</time>
      </trkpt>
      <trkpt lat="59.835701" lon="17.6434946">
        <ele>38.1094</ele>
        <time>2013-05-22T19:30:12Z</time>
      </trkpt>
      <trkpt lat="59.8357213" lon="17.643499">
        <ele>38.5901</ele>
        <time>2013-05-22T19:30:13Z</time>
      </trkpt>
      <trkpt lat="59.8357404" lon="17.6435107">
        <ele>40.0321</ele>
        <time>2013-05-22T19:30:14Z</time>
      </trkpt>
      <trkpt lat="59.8357613" lon="17.6434981">
        <ele>40.5128</ele>
        <time>2013-05-22T19:30:15Z</time>
      </trkpt>
      <trkpt lat="59.8357928" lon="17.6434929">
        <ele>41.9547</ele>
        <time>2013-05-22T19:30:16Z</time>
      </trkpt>
      <trkpt lat="59.8358244" lon="17.6434929">
        <ele>43.3966</ele>
        <time>2013-05-22T19:30:17Z</time>
      </trkpt>
      <trkpt lat="59.835846" lon="17.6434874">
        <ele>43.3966</ele>
        <time>2013-05-22T19:30:18Z</time>
      </trkpt>
      <trkpt lat="59.8358741" lon="17.6434585">
        <ele>41.9547</ele>
        <time>2013-05-22T19:30:19Z</time>
      </trkpt>
      <trkpt lat="59.8359032" lon="17.6434236">
        <ele>40.0321</ele>
        <time>2013-05-22T19:30:20Z</time>
      </trkpt>
      <trkpt lat="59.8359169" lon="17.6433919">
        <ele>39.0707</ele>
        <time>2013-05-22T19:30:21Z</time>
      </trkpt>
      <trkpt lat="59.8359347" lon="17.6433718">
        <ele>39.0707</ele>
        <time>2013-05-22T19:30:22Z</time>
      </trkpt>
      <trkpt lat="59.8359504" lon="17.64335">
        <ele>39.5513</ele>
        <time>2013-05-22T19:30:23Z</time>
      </trkpt>
      <trkpt lat="59.8359747" lon="17.6433255">
        <ele>40.9934</ele>
        <time>2013-05-22T19:30:24Z</time>
      </trkpt>
      <trkpt lat="59.8360109" lon="17.6433054">
        <ele>43.3966</ele>
        <time>2013-05-22T19:30:25Z</time>
      </trkpt>
      <trkpt lat="59.836033" lon="17.6432746">
        <ele>43.8773</ele>
        <time>2013-05-22T19:30:26Z</time>
      </trkpt>
      <trkpt lat="59.8360548" lon="17.6432534">
        <ele>44.8386</ele>
        <time>2013-05-22T19:30:27Z</time>
      </trkpt>
      <trkpt lat="59.8360886" lon="17.643237">
        <ele>48.2034</ele>
        <time>2013-05-22T19:30:28Z</time>
      </trkpt>
      <trkpt lat="59.8361231" lon="17.6432153">
        <ele>50.126</ele>
        <time>2013-05-22T19:30:29Z</time>
      </trkpt>
      <trkpt lat="59.8361565" lon="17.6431892">
        <ele>52.5292</ele>
        <time>2013-05-22T19:30:30Z</time>
      </trkpt>
      <trkpt lat="59.8361793" lon="17.6431648">
        <ele>53.4905</ele>
        <time>2013-05-22T19:30:31Z</time>
      </trkpt>
      <trkpt lat="59.8361911" lon="17.6431324">
        <ele>51.0872</ele>
        <time>2013-05-22T19:30:32Z</time>
      </trkpt>
      <trkpt lat="59.8361922" lon="17.64311">
        <ele>48.684</ele>
        <time>2013-05-22T19:30:33Z</time>
      </trkpt>
      <trkpt lat="59.8362077" lon="17.6430851">
        <ele>49.1646</ele>
        <time>2013-05-22T19:30:34Z</time>
      </trkpt>
      <trkpt lat="59.8362166" lon="17.6430546">
        <ele>47.7225</ele>
        <time>2013-05-22T19:30:35Z</time>
      </trkpt>
      <trkpt lat="59.8362259" lon="17.6430198">
        <ele>45.3192</ele>
        <time>2013-05-22T19:30:36Z</time>
      </trkpt>
      <trkpt lat="59.8362378" lon="17.6429796">
        <ele>45.3192</ele>
        <time>2013-05-22T19:30:37Z</time>
      </trkpt>
      <trkpt lat="59.8362487" lon="17.6429599">
        <ele>43.3966</ele>
        <time>2013-05-22T19:30:38Z</time>
      </trkpt>
      <trkpt lat="59.8362755" lon="17.6429367">
        <ele>44.8386</ele>
        <time>2013-05-22T19:30:39Z</time>
      </trkpt>
      <trkpt lat="59.8362968" lon="17.6429029">
        <ele>45.3192</ele>
        <time>2013-05-22T19:30:40Z</time>
      </trkpt>
      <trkpt lat="59.8363243" lon="17.6428832">
        <ele>44.8386</ele>
        <time>2013-05-22T19:30:41Z</time>
      </trkpt>
      <trkpt lat="59.836331" lon="17.6428929">
        <ele>44.8386</ele>
        <time>2013-05-22T19:30:42Z</time>
      </trkpt>
      <trkpt lat="59.8363539" lon="17.642869">
        <ele>43.8773</ele>
        <time>2013-05-22T19:30:43Z</time>
      </trkpt>
      <trkpt lat="59.8363812" lon="17.6428533">
        <ele>44.8386</ele>
        <time>2013-05-22T19:30:44Z</time>
      </trkpt>
      <trkpt lat="59.836403" lon="17.6428371">
        <ele>44.358</ele>
        <time>2013-05-22T19:30:45Z</time>
      </trkpt>
      <trkpt lat="59.8364218" lon="17.6428149">
        <ele>43.3966</ele>
        <time>2013-05-22T19:30:46Z</time>
      </trkpt>
      <trkpt lat="59.8364485" lon="17.6428033">
        <ele>44.358</ele>
        <time>2013-05-22T19:30:47Z</time>
      </trkpt>
      <trkpt lat="59.8364813" lon="17.6427976">
        <ele>45.7999</ele>
        <time>2013-05-22T19:30:48Z</time>
      </trkpt>
      <trkpt lat="59.8365166" lon="17.6427937">
        <ele>48.2034</ele>
        <time>2013-05-22T19:30:49Z</time>
      </trkpt>
      <trkpt lat="59.8365472" lon="17.6427666">
        <ele>48.2034</ele>
        <time>2013-05-22T19:30:50Z</time>
      </trkpt>
      <trkpt lat="59.8365549" lon="17.6427526">
        <ele>45.7999</ele>
        <time>2013-05-22T19:30:51Z</time>
      </trkpt>
      <trkpt lat="59.8365613" lon="17.642747">
        <ele>43.8773</ele>
        <time>2013-05-22T19:30:52Z</time>
      </trkpt>
      <trkpt lat="59.8365782" lon="17.6427418">
        <ele>43.8773</ele>
        <time>2013-05-22T19:30:53Z</time>
      </trkpt>
      <trkpt lat="59.8365869" lon="17.6427522">
        <ele>44.8386</ele>
        <time>2013-05-22T19:30:54Z</time>
      </trkpt>
      <trkpt lat="59.836614" lon="17.6427484">
        <ele>47.2418</ele>
        <time>2013-05-22T19:30:55Z</time>
      </trkpt>
      <trkpt lat="59.8366277" lon="17.6427274">
        <ele>45.7999</ele>
        <time>2013-05-22T19:30:56Z</time>
      </trkpt>
      <trkpt lat="59.8366432" lon="17.6427181">
        <ele>45.7999</ele>
        <time>2013-05-22T19:30:57Z</time>
      </trkpt>
      <trkpt lat="59.8366779" lon="17.642704">
        <ele>48.2034</ele>
        <time>2013-05-22T19:30:58Z</time>
      </trkpt>
      <trkpt lat="59.8367217" lon="17.6426884">
        <ele>52.0486</ele>
        <time>2013-05-22T19:30:59Z</time>
      </trkpt>
      <trkpt lat="59.8367601" lon="17.6426816">
        <ele>55.4131</ele>
        <time>2013-05-22T19:31:00Z</time>
      </trkpt>
      <trkpt lat="59.836806" lon="17.6426833">
        <ele>59.7391</ele>
        <time>2013-05-22T19:31:01Z</time>
      </trkpt>
      <trkpt lat="59.8368496" lon="17.6426811">
        <ele>63.1036</ele>
        <time>2013-05-22T19:31:02Z</time>
      </trkpt>
      <trkpt lat="59.8368818" lon="17.6426899">
        <ele>64.5457</ele>
        <time>2013-05-22T19:31:03Z</time>
      </trkpt>
      <trkpt lat="59.8369225" lon="17.6426978">
        <ele>66.949</ele>
        <time>2013-05-22T19:31:04Z</time>
      </trkpt>
      <trkpt lat="59.8369486" lon="17.6427098">
        <ele>66.949</ele>
        <time>2013-05-22T19:31:05Z</time>
      </trkpt>
      <trkpt lat="59.8369791" lon="17.6427253">
        <ele>69.3523</ele>
        <time>2013-05-22T19:31:06Z</time>
      </trkpt>
      <trkpt lat="59.8369988" lon="17.6427468">
        <ele>69.8329</ele>
        <time>2013-05-22T19:31:07Z</time>
      </trkpt>
      <trkpt lat="59.8370126" lon="17.6427704">
        <ele>69.3523</ele>
        <time>2013-05-22T19:31:08Z</time>
      </trkpt>
      <trkpt lat="59.83702" lon="17.6427941">
        <ele>67.4297</ele>
        <time>2013-05-22T19:31:09Z</time>
      </trkpt>
      <trkpt lat="59.8370429" lon="17.6428071">
        <ele>67.4297</ele>
        <time>2013-05-22T19:31:10Z</time>
      </trkpt>
      <trkpt lat="59.8370557" lon="17.6428274">
        <ele>66.4683</ele>
        <time>2013-05-22T19:31:11Z</time>
      </trkpt>
      <trkpt lat="59.8370737" lon="17.6428419">
        <ele>65.9877</ele>
        <time>2013-05-22T19:31:12Z</time>
      </trkpt>
      <trkpt lat="59.8370935" lon="17.642845">
        <ele>63.5844</ele>
        <time>2013-05-22T19:31:13Z</time>
      </trkpt>
      <trkpt lat="59.8371149" lon="17.6428536">
        <ele>61.6617</ele>
        <time>2013-05-22T19:31:14Z</time>
      </trkpt>
      <trkpt lat="59.8371394" lon="17.6428639">
        <ele>61.181</ele>
        <time>2013-05-22T19:31:15Z</time>
      </trkpt>
      <trkpt lat="59.8371712" lon="17.6428727">
        <ele>62.1423</ele>
        <time>2013-05-22T19:31:16Z</time>
      </trkpt>
      <trkpt lat="59.8371969" lon="17.6428786">
        <ele>62.1423</ele>
        <time>2013-05-22T19:31:17Z</time>
      </trkpt>
      <trkpt lat="59.8372097" lon="17.6428816">
        <ele>60.2197</ele>
        <time>2013-05-22T19:31:18Z</time>
      </trkpt>
      <trkpt lat="59.837214" lon="17.6428801">
        <ele>59.2584</ele>
        <time>2013-05-22T19:31:19Z</time>
      </trkpt>
      <trkpt lat="59.8372215" lon="17.6428789">
        <ele>57.8165</ele>
        <time>2013-05-22T19:31:20Z</time>
      </trkpt>
      <trkpt lat="59.8372278" lon="17.6428774">
        <ele>55.8938</ele>
        <time>2013-05-22T19:31:21Z</time>
      </trkpt>
      <trkpt lat="59.8372483" lon="17.6428828">
        <ele>53.4905</ele>
        <time>2013-05-22T19:31:22Z</time>
      </trkpt>
      <trkpt lat="59.8372679" lon="17.6428915">
        <ele>52.0486</ele>
        <time>2013-05-22T19:31:23Z</time>
      </trkpt>
      <trkpt lat="59.8372948" lon="17.6428982">
        <ele>53.4905</ele>
        <time>2013-05-22T19:31:24Z</time>
      </trkpt>
      <trkpt lat="59.8373266" lon="17.6429034">
        <ele>53.9712</ele>
        <time>2013-05-22T19:31:25Z</time>
      </trkpt>
      <trkpt lat="59.8373556" lon="17.6429164">
        <ele>55.8938</ele>
        <time>2013-05-22T19:31:26Z</time>
      </trkpt>
      <trkpt lat="59.8373798" lon="17.6429335">
        <ele>56.8551</ele>
        <time>2013-05-22T19:31:27Z</time>
      </trkpt>
      <trkpt lat="59.8374033" lon="17.642933">
        <ele>55.8938</ele>
        <time>2013-05-22T19:31:28Z</time>
      </trkpt>
      <trkpt lat="59.8374189" lon="17.6429387">
        <ele>54.9324</ele>
        <time>2013-05-22T19:31:29Z</time>
      </trkpt>
      <trkpt lat="59.8374386" lon="17.6429479">
        <ele>53.4905</ele>
        <time>2013-05-22T19:31:30Z</time>
      </trkpt>
      <trkpt lat="59.8374582" lon="17.642959">
        <ele>52.5292</ele>
        <time>2013-05-22T19:31:31Z</time>
      </trkpt>
      <trkpt lat="59.8374831" lon="17.6429589">
        <ele>52.5292</ele>
        <time>2013-05-22T19:31:32Z</time>
      </trkpt>
      <trkpt lat="59.8374984" lon="17.6429594">
        <ele>51.5679</ele>
        <time>2013-05-22T19:31:33Z</time>
      </trkpt>
      <trkpt lat="59.8375212" lon="17.6429571">
        <ele>52.5292</ele>
        <time>2013-05-22T19:31:34Z</time>
      </trkpt>
      <trkpt lat="59.8375353" lon="17.6429584">
        <ele>52.5292</ele>
        <time>2013-05-22T19:31:35Z</time>
      </trkpt>
      <trkpt lat="59.8375586" lon="17.6429526">
        <ele>53.4905</ele>
        <time>2013-05-22T19:31:36Z</time>
      </trkpt>
      <trkpt lat="59.8375768" lon="17.6429564">
        <ele>53.9712</ele>
        <time>2013-05-22T19:31:37Z</time>
      </trkpt>
      <trkpt lat="59.8375872" lon="17.6429654">
        <ele>54.4518</ele>
        <time>2013-05-22T19:31:38Z</time>
      </trkpt>
      <trkpt lat="59.8375938" lon="17.6429718">
        <ele>52.5292</ele>
        <time>2013-05-22T19:31:39Z</time>
      </trkpt>
      <trkpt lat="59.8376193" lon="17.6429718">
        <ele>53.4905</ele>
        <time>2013-05-22T19:31:40Z</time>
      </trkpt>
      <trkpt lat="59.8376493" lon="17.6429716">
        <ele>54.4518</ele>
        <time>2013-05-22T19:31:41Z</time>
      </trkpt>
      <trkpt lat="59.837681" lon="17.6429672">
        <ele>56.3745</ele>
        <time>2013-05-22T19:31:42Z</time>
      </trkpt>
      <trkpt lat="59.8376984" lon="17.6429532">
        <ele>55.8938</ele>
        <time>2013-05-22T19:31:43Z</time>
      </trkpt>
      <trkpt lat="59.8377149" lon="17.6429505">
        <ele>55.4131</ele>
        <time>2013-05-22T19:31:44Z</time>
      </trkpt>
      <trkpt lat="59.8377246" lon="17.6429413">
        <ele>53.9712</ele>
        <time>2013-05-22T19:31:45Z</time>
      </trkpt>
      <trkpt lat="59.8377377" lon="17.6429361">
        <ele>53.0098</ele>
        <time>2013-05-22T19:31:46Z</time>
      </trkpt>
      <trkpt lat="59.8377595" lon="17.6429236">
        <ele>53.0098</ele>
        <time>2013-05-22T19:31:47Z</time>
      </trkpt>
      <trkpt lat="59.837779" lon="17.6429071">
        <ele>51.5679</ele>
        <time>2013-05-22T19:31:48Z</time>
      </trkpt>
      <trkpt lat="59.8378047" lon="17.6428968">
        <ele>51.5679</ele>
        <time>2013-05-22T19:31:49Z</time>
      </trkpt>
      <trkpt lat="59.8378327" lon="17.6428804">
        <ele>49.6453</ele>
        <time>2013-05-22T19:31:50Z</time>
      </trkpt>
      <trkpt lat="59.8378416" lon="17.6428706">
        <ele>47.7225</ele>
        <time>2013-05-22T19:31:51Z</time>
      </trkpt>
      <trkpt lat="59.8378597" lon="17.6428688">
        <ele>47.2418</ele>
        <time>2013-05-22T19:31:52Z</time>
      </trkpt>
      <trkpt lat="59.8378887" lon="17.6428701">
        <ele>47.7225</ele>
        <time>2013-05-22T19:31:53Z</time>
      </trkpt>
      <trkpt lat="59.8379198" lon="17.6428754">
        <ele>48.684</ele>
        <time>2013-05-22T19:31:54Z</time>
      </trkpt>
      <trkpt lat="59.8379487" lon="17.6428675">
        <ele>48.2034</ele>
        <time>2013-05-22T19:31:55Z</time>
      </trkpt>
      <trkpt lat="59.8379871" lon="17.6428671">
        <ele>51.5679</ele>
        <time>2013-05-22T19:31:56Z</time>
      </trkpt>
      <trkpt lat="59.83801" lon="17.6428682">
        <ele>52.0486</ele>
        <time>2013-05-22T19:31:57Z</time>
      </trkpt>
      <trkpt lat="59.8380389" lon="17.6428761">
        <ele>53.9712</ele>
        <time>2013-05-22T19:31:58Z</time>
      </trkpt>
      <trkpt lat="59.8380606" lon="17.642887">
        <ele>54.4518</ele>
        <time>2013-05-22T19:31:59Z</time>
      </trkpt>
      <trkpt lat="59.8380829" lon="17.6428972">
        <ele>55.4131</ele>
        <time>2013-05-22T19:32:00Z</time>
      </trkpt>
      <trkpt lat="59.8381108" lon="17.6428998">
        <ele>57.8165</ele>
        <time>2013-05-22T19:32:01Z</time>
      </trkpt>
      <trkpt lat="59.8381358" lon="17.6429067">
        <ele>59.2584</ele>
        <time>2013-05-22T19:32:02Z</time>
      </trkpt>
      <trkpt lat="59.8381587" lon="17.6429155">
        <ele>59.2584</ele>
        <time>2013-05-22T19:32:03Z</time>
      </trkpt>
      <trkpt lat="59.8381783" lon="17.642917">
        <ele>58.2971</ele>
        <time>2013-05-22T19:32:04Z</time>
      </trkpt>
      <trkpt lat="59.8382006" lon="17.642923">
        <ele>57.8165</ele>
        <time>2013-05-22T19:32:05Z</time>
      </trkpt>
      <trkpt lat="59.8382228" lon="17.6429268">
        <ele>56.3745</ele>
        <time>2013-05-22T19:32:06Z</time>
      </trkpt>
      <trkpt lat="59.8382291" lon="17.6429383">
        <ele>53.9712</ele>
        <time>2013-05-22T19:32:07Z</time>
      </trkpt>
      <trkpt lat="59.8382455" lon="17.6429495">
        <ele>53.0098</ele>
        <time>2013-05-22T19:32:08Z</time>
      </trkpt>
      <trkpt lat="59.8382685" lon="17.6429664">
        <ele>53.4905</ele>
        <time>2013-05-22T19:32:09Z</time>
      </trkpt>
      <trkpt lat="59.8382887" lon="17.6429914">
        <ele>54.4518</ele>
        <time>2013-05-22T19:32:10Z</time>
      </trkpt>
      <trkpt lat="59.8382973" lon="17.6430092">
        <ele>52.5292</ele>
        <time>2013-05-22T19:32:11Z</time>
      </trkpt>
      <trkpt lat="59.8383145" lon="17.6430309">
        <ele>52.5292</ele>
        <time>2013-05-22T19:32:12Z</time>
      </trkpt>
      <trkpt lat="59.8383476" lon="17.6430459">
        <ele>53.9712</ele>
        <time>2013-05-22T19:32:13Z</time>
      </trkpt>
      <trkpt lat="59.8383711" lon="17.643065">
        <ele>53.9712</ele>
        <time>2013-05-22T19:32:14Z</time>
      </trkpt>
      <trkpt lat="59.8383906" lon="17.6430771">
        <ele>52.0486</ele>
        <time>2013-05-22T19:32:15Z</time>
      </trkpt>
      <trkpt lat="59.8384213" lon="17.6430872">
        <ele>52.5292</ele>
        <time>2013-05-22T19:32:16Z</time>
      </trkpt>
      <trkpt lat="59.8384436" lon="17.6430956">
        <ele>50.6066</ele>
        <time>2013-05-22T19:32:17Z</time>
      </trkpt>
      <trkpt lat="59.8384554" lon="17.6431167">
        <ele>48.2034</ele>
        <time>2013-05-22T19:32:18Z</time>
      </trkpt>
      <trkpt lat="59.8384619" lon="17.6431434">
        <ele>46.2806</ele>
        <time>2013-05-22T19:32:19Z</time>
      </trkpt>
      <trkpt lat="59.8384736" lon="17.6431757">
        <ele>46.2806</ele>
        <time>2013-05-22T19:32:20Z</time>
      </trkpt>
      <trkpt lat="59.8384842" lon="17.6432133">
        <ele>46.7612</ele>
        <time>2013-05-22T19:32:21Z</time>
      </trkpt>
      <trkpt lat="59.8384944" lon="17.6432499">
        <ele>46.2806</ele>
        <time>2013-05-22T19:32:22Z</time>
      </trkpt>
      <trkpt lat="59.838504" lon="17.6432851">
        <ele>46.2806</ele>
        <time>2013-05-22T19:32:23Z</time>
      </trkpt>
      <trkpt lat="59.8385161" lon="17.6433069">
        <ele>44.358</ele>
        <time>2013-05-22T19:32:24Z</time>
      </trkpt>
      <trkpt lat="59.8385222" lon="17.6433313">
        <ele>42.916</ele>
        <time>2013-05-22T19:32:25Z</time>
      </trkpt>
      <trkpt lat="59.8385344" lon="17.6433518">
        <ele>41.9547</ele>
        <time>2013-05-22T19:32:26Z</time>
      </trkpt>
      <trkpt lat="59.8385542" lon="17.6433842">
        <ele>42.4354</ele>
        <time>2013-05-22T19:32:27Z</time>
      </trkpt>
      <trkpt lat="59.8385756" lon="17.6434064">
        <ele>41.474</ele>
        <time>2013-05-22T19:32:28Z</time>
      </trkpt>
      <trkpt lat="59.8385925" lon="17.6434342">
        <ele>40.5128</ele>
        <time>2013-05-22T19:32:29Z</time>
      </trkpt>
      <trkpt lat="59.8386025" lon="17.6434665">
        <ele>39.0707</ele>
        <time>2013-05-22T19:32:30Z</time>
      </trkpt>
      <trkpt lat="59.8386135" lon="17.6434964">
        <ele>38.1094</ele>
        <time>2013-05-22T19:32:31Z</time>
      </trkpt>
      <trkpt lat="59.8386212" lon="17.6435388">
        <ele>37.6287</ele>
        <time>2013-05-22T19:32:32Z</time>
      </trkpt>
      <trkpt lat="59.8386296" lon="17.6435602">
        <ele>35.2255</ele>
        <time>2013-05-22T19:32:33Z</time>
      </trkpt>
      <trkpt lat="59.8386434" lon="17.6435866">
        <ele>36.1868</ele>
        <time>2013-05-22T19:32:34Z</time>
      </trkpt>
      <trkpt lat="59.8386588" lon="17.6436197">
        <ele>35.7061</ele>
        <time>2013-05-22T19:32:35Z</time>
      </trkpt>
      <trkpt lat="59.8386767" lon="17.6436433">
        <ele>36.1868</ele>
        <time>2013-05-22T19:32:36Z</time>
      </trkpt>
      <trkpt lat="59.8386995" lon="17.643655">
        <ele>37.1481</ele>
        <time>2013-05-22T19:32:37Z</time>
      </trkpt>
      <trkpt lat="59.8387263" lon="17.6436743">
        <ele>39.0707</ele>
        <time>2013-05-22T19:32:38Z</time>
      </trkpt>
      <trkpt lat="59.838748" lon="17.6436971">
        <ele>40.5128</ele>
        <time>2013-05-22T19:32:39Z</time>
      </trkpt>
      <trkpt lat="59.8387689" lon="17.6437094">
        <ele>40.9934</ele>
        <time>2013-05-22T19:32:40Z</time>
      </trkpt>
      <trkpt lat="59.8387803" lon="17.6437238">
        <ele>40.9934</ele>
        <time>2013-05-22T19:32:41Z</time>
      </trkpt>
      <trkpt lat="59.8388013" lon="17.6437372">
        <ele>40.9934</ele>
        <time>2013-05-22T19:32:42Z</time>
      </trkpt>
      <trkpt lat="59.8388196" lon="17.6437526">
        <ele>40.0321</ele>
        <time>2013-05-22T19:32:43Z</time>
      </trkpt>
      <trkpt lat="59.8388391" lon="17.6437777">
        <ele>40.5128</ele>
        <time>2013-05-22T19:32:44Z</time>
      </trkpt>
      <trkpt lat="59.8388644" lon="17.6437899">
        <ele>40.0321</ele>
        <time>2013-05-22T19:32:45Z</time>
      </trkpt>
      <trkpt lat="59.8388839" lon="17.6438183">
        <ele>40.5128</ele>
        <time>2013-05-22T19:32:46Z</time>
      </trkpt>
      <trkpt lat="59.8389053" lon="17.6438358">
        <ele>40.0321</ele>
        <time>2013-05-22T19:32:47Z</time>
      </trkpt>
      <trkpt lat="59.8389304" lon="17.6438372">
        <ele>39.0707</ele>
        <time>2013-05-22T19:32:48Z</time>
      </trkpt>
      <trkpt lat="59.8389538" lon="17.643836">
        <ele>39.0707</ele>
        <time>2013-05-22T19:32:49Z</time>
      </trkpt>
      <trkpt lat="59.8389707" lon="17.6438296">
        <ele>38.5901</ele>
        <time>2013-05-22T19:32:50Z</time>
      </trkpt>
      <trkpt lat="59.8389813" lon="17.6438401">
        <ele>38.5901</ele>
        <time>2013-05-22T19:32:51Z</time>
      </trkpt>
      <trkpt lat="59.8389863" lon="17.6438482">
        <ele>36.6675</ele>
        <time>2013-05-22T19:32:52Z</time>
      </trkpt>
      <trkpt lat="59.8390048" lon="17.6438435">
        <ele>35.2255</ele>
        <time>2013-05-22T19:32:53Z</time>
      </trkpt>
      <trkpt lat="59.839023" lon="17.6438587">
        <ele>34.7449</ele>
        <time>2013-05-22T19:32:54Z</time>
      </trkpt>
      <trkpt lat="59.8390395" lon="17.6438836">
        <ele>35.2255</ele>
        <time>2013-05-22T19:32:55Z</time>
      </trkpt>
      <trkpt lat="59.8390483" lon="17.6439001">
        <ele>33.7834</ele>
        <time>2013-05-22T19:32:56Z</time>
      </trkpt>
      <trkpt lat="59.8390718" lon="17.6439167">
        <ele>33.7834</ele>
        <time>2013-05-22T19:32:57Z</time>
      </trkpt>
      <trkpt lat="59.8390973" lon="17.6439362">
        <ele>33.7834</ele>
        <time>2013-05-22T19:32:58Z</time>
      </trkpt>
      <trkpt lat="59.8391169" lon="17.6439622">
        <ele>34.2642</ele>
        <time>2013-05-22T19:32:59Z</time>
      </trkpt>
      <trkpt lat="59.8391369" lon="17.6439731">
        <ele>33.3029</ele>
        <time>2013-05-22T19:33:00Z</time>
      </trkpt>
      <trkpt lat="59.8391614" lon="17.6439887">
        <ele>33.3029</ele>
        <time>2013-05-22T19:33:01Z</time>
      </trkpt>
      <trkpt lat="59.8391878" lon="17.6440006">
        <ele>32.8223</ele>
        <time>2013-05-22T19:33:02Z</time>
      </trkpt>
      <trkpt lat="59.8392059" lon="17.6440234">
        <ele>32.8223</ele>
        <time>2013-05-22T19:33:03Z</time>
      </trkpt>
      <trkpt lat="59.8392205" lon="17.6440401">
        <ele>32.3416</ele>
        <time>2013-05-22T19:33:04Z</time>
      </trkpt>
      <trkpt lat="59.8392509" lon="17.6440608">
        <ele>34.7449</ele>
        <time>2013-05-22T19:33:05Z</time>
      </trkpt>
      <trkpt lat="59.8392817" lon="17.6440831">
        <ele>36.1868</ele>
        <time>2013-05-22T19:33:06Z</time>
      </trkpt>
      <trkpt lat="59.8393001" lon="17.6440949">
        <ele>35.2255</ele>
        <time>2013-05-22T19:33:07Z</time>
      </trkpt>
      <trkpt lat="59.8393231" lon="17.6441169">
        <ele>35.7061</ele>
        <time>2013-05-22T19:33:08Z</time>
      </trkpt>
      <trkpt lat="59.8393521" lon="17.6441445">
        <ele>37.6287</ele>
        <time>2013-05-22T19:33:09Z</time>
      </trkpt>
      <trkpt lat="59.8393672" lon="17.6441854">
        <ele>37.6287</ele>
        <time>2013-05-22T19:33:10Z</time>
      </trkpt>
      <trkpt lat="59.8393904" lon="17.6442074">
        <ele>39.5513</ele>
        <time>2013-05-22T19:33:11Z</time>
      </trkpt>
      <trkpt lat="59.8394014" lon="17.6442404">
        <ele>40.0321</ele>
        <time>2013-05-22T19:33:12Z</time>
      </trkpt>
      <trkpt lat="59.8394271" lon="17.6442586">
        <ele>40.0321</ele>
        <time>2013-05-22T19:33:13Z</time>
      </trkpt>
      <trkpt lat="59.8394562" lon="17.6442849">
        <ele>40.9934</ele>
        <time>2013-05-22T19:33:14Z</time>
      </trkpt>
      <trkpt lat="59.8394795" lon="17.64432">
        <ele>41.474</ele>
        <time>2013-05-22T19:33:15Z</time>
      </trkpt>
      <trkpt lat="59.8395029" lon="17.6443443">
        <ele>40.5128</ele>
        <time>2013-05-22T19:33:16Z</time>
      </trkpt>
      <trkpt lat="59.8395282" lon="17.6443714">
        <ele>40.9934</ele>
        <time>2013-05-22T19:33:17Z</time>
      </trkpt>
      <trkpt lat="59.8395529" lon="17.6443932">
        <ele>40.9934</ele>
        <time>2013-05-22T19:33:18Z</time>
      </trkpt>
      <trkpt lat="59.8395692" lon="17.644416">
        <ele>40.5128</ele>
        <time>2013-05-22T19:33:19Z</time>
      </trkpt>
      <trkpt lat="59.8395873" lon="17.6444311">
        <ele>40.0321</ele>
        <time>2013-05-22T19:33:20Z</time>
      </trkpt>
      <trkpt lat="59.8396098" lon="17.6444491">
        <ele>40.0321</ele>
        <time>2013-05-22T19:33:21Z</time>
      </trkpt>
      <trkpt lat="59.839627" lon="17.6444632">
        <ele>39.0707</ele>
        <time>2013-05-22T19:33:22Z</time>
      </trkpt>
      <trkpt lat="59.839642" lon="17.6444863">
        <ele>38.5901</ele>
        <time>2013-05-22T19:33:23Z</time>
      </trkpt>
      <trkpt lat="59.8396644" lon="17.644507">
        <ele>38.5901</ele>
        <time>2013-05-22T19:33:24Z</time>
      </trkpt>
      <trkpt lat="59.8396986" lon="17.644526">
        <ele>40.5128</ele>
        <time>2013-05-22T19:33:25Z</time>
      </trkpt>
      <trkpt lat="59.8397262" lon="17.6445486">
        <ele>41.474</ele>
        <time>2013-05-22T19:33:26Z</time>
      </trkpt>
      <trkpt lat="59.8397477" lon="17.6445766">
        <ele>40.9934</ele>
        <time>2013-05-22T19:33:27Z</time>
      </trkpt>
      <trkpt lat="59.839764" lon="17.6445984">
        <ele>40.5128</ele>
        <time>2013-05-22T19:33:28Z</time>
      </trkpt>
      <trkpt lat="59.8397859" lon="17.6446201">
        <ele>40.5128</ele>
        <time>2013-05-22T19:33:29Z</time>
      </trkpt>
      <trkpt lat="59.8398089" lon="17.6446366">
        <ele>40.9934</ele>
        <time>2013-05-22T19:33:30Z</time>
      </trkpt>
      <trkpt lat="59.8398313" lon="17.6446507">
        <ele>40.5128</ele>
        <time>2013-05-22T19:33:31Z</time>
      </trkpt>
      <trkpt lat="59.8398534" lon="17.6446573">
        <ele>39.5513</ele>
        <time>2013-05-22T19:33:32Z</time>
      </trkpt>
      <trkpt lat="59.8398778" lon="17.6446648">
        <ele>40.0321</ele>
        <time>2013-05-22T19:33:33Z</time>
      </trkpt>
      <trkpt lat="59.8398929" lon="17.6446709">
        <ele>39.5513</ele>
        <time>2013-05-22T19:33:34Z</time>
      </trkpt>
      <trkpt lat="59.8399061" lon="17.644674">
        <ele>38.5901</ele>
        <time>2013-05-22T19:33:35Z</time>
      </trkpt>
      <trkpt lat="59.8399233" lon="17.6446719">
        <ele>37.1481</ele>
        <time>2013-05-22T19:33:36Z</time>
      </trkpt>
      <trkpt lat="59.8399474" lon="17.6446676">
        <ele>37.6287</ele>
        <time>2013-05-22T19:33:37Z</time>
      </trkpt>
      <trkpt lat="59.8399675" lon="17.6446579">
        <ele>37.1481</ele>
        <time>2013-05-22T19:33:38Z</time>
      </trkpt>
      <trkpt lat="59.8399828" lon="17.6446362">
        <ele>36.6675</ele>
        <time>2013-05-22T19:33:39Z</time>
      </trkpt>
      <trkpt lat="59.8399971" lon="17.64462">
        <ele>36.6675</ele>
        <time>2013-05-22T19:33:40Z</time>
      </trkpt>
      <trkpt lat="59.8400108" lon="17.6445989">
        <ele>36.6675</ele>
        <time>2013-05-22T19:33:41Z</time>
      </trkpt>
      <trkpt lat="59.8400246" lon="17.6445724">
        <ele>35.7061</ele>
        <time>2013-05-22T19:33:42Z</time>
      </trkpt>
      <trkpt lat="59.840039" lon="17.6445481">
        <ele>34.7449</ele>
        <time>2013-05-22T19:33:43Z</time>
      </trkpt>
      <trkpt lat="59.8400529" lon="17.6445282">
        <ele>35.2255</ele>
        <time>2013-05-22T19:33:44Z</time>
      </trkpt>
      <trkpt lat="59.8400659" lon="17.6445062">
        <ele>35.2255</ele>
        <time>2013-05-22T19:33:45Z</time>
      </trkpt>
      <trkpt lat="59.8400848" lon="17.6444818">
        <ele>35.2255</ele>
        <time>2013-05-22T19:33:46Z</time>
      </trkpt>
      <trkpt lat="59.8401093" lon="17.6444505">
        <ele>34.7449</ele>
        <time>2013-05-22T19:33:47Z</time>
      </trkpt>
      <trkpt lat="59.8401318" lon="17.6444144">
        <ele>34.7449</ele>
        <time>2013-05-22T19:33:48Z</time>
      </trkpt>
      <trkpt lat="59.8401486" lon="17.6443734">
        <ele>33.7834</ele>
        <time>2013-05-22T19:33:49Z</time>
      </trkpt>
      <trkpt lat="59.8401577" lon="17.6443332">
        <ele>32.3416</ele>
        <time>2013-05-22T19:33:50Z</time>
      </trkpt>
      <trkpt lat="59.8401798" lon="17.6443068">
        <ele>32.8223</ele>
        <time>2013-05-22T19:33:51Z</time>
      </trkpt>
      <trkpt lat="59.8401923" lon="17.6442809">
        <ele>32.8223</ele>
        <time>2013-05-22T19:33:52Z</time>
      </trkpt>
      <trkpt lat="59.8401989" lon="17.644243">
        <ele>30.8995</ele>
        <time>2013-05-22T19:33:53Z</time>
      </trkpt>
      <trkpt lat="59.8402092" lon="17.6442079">
        <ele>29.9381</ele>
        <time>2013-05-22T19:33:54Z</time>
      </trkpt>
      <trkpt lat="59.8402244" lon="17.6441791">
        <ele>29.4575</ele>
        <time>2013-05-22T19:33:55Z</time>
      </trkpt>
      <trkpt lat="59.8402399" lon="17.6441397">
        <ele>28.9769</ele>
        <time>2013-05-22T19:33:56Z</time>
      </trkpt>
      <trkpt lat="59.8402613" lon="17.6441087">
        <ele>28.9769</ele>
        <time>2013-05-22T19:33:57Z</time>
      </trkpt>
      <trkpt lat="59.8402817" lon="17.6440841">
        <ele>28.9769</ele>
        <time>2013-05-22T19:33:58Z</time>
      </trkpt>
      <trkpt lat="59.8402942" lon="17.6440496">
        <ele>28.4962</ele>
        <time>2013-05-22T19:33:59Z</time>
      </trkpt>
      <trkpt lat="59.8403065" lon="17.6440195">
        <ele>27.5349</ele>
        <time>2013-05-22T19:34:00Z</time>
      </trkpt>
      <trkpt lat="59.8403213" lon="17.6439902">
        <ele>27.0543</ele>
        <time>2013-05-22T19:34:01Z</time>
      </trkpt>
      <trkpt lat="59.8403376" lon="17.6439623">
        <ele>27.0543</ele>
        <time>2013-05-22T19:34:02Z</time>
      </trkpt>
      <trkpt lat="59.8403565" lon="17.6439379">
        <ele>27.0543</ele>
        <time>2013-05-22T19:34:03Z</time>
      </trkpt>
      <trkpt lat="59.8403731" lon="17.6439154">
        <ele>27.0543</ele>
        <time>2013-05-22T19:34:04Z</time>
      </trkpt>
      <trkpt lat="59.840391" lon="17.643894">
        <ele>27.0543</ele>
        <time>2013-05-22T19:34:05Z</time>
      </trkpt>
      <trkpt lat="59.840412" lon="17.6438711">
        <ele>26.5736</ele>
        <time>2013-05-22T19:34:06Z</time>
      </trkpt>
      <trkpt lat="59.8404324" lon="17.6438447">
        <ele>27.0543</ele>
        <time>2013-05-22T19:34:07Z</time>
      </trkpt>
      <trkpt lat="59.8404545" lon="17.6438165">
        <ele>27.0543</ele>
        <time>2013-05-22T19:34:08Z</time>
      </trkpt>
      <trkpt lat="59.8404737" lon="17.6437854">
        <ele>27.0543</ele>
        <time>2013-05-22T19:34:09Z</time>
      </trkpt>
      <trkpt lat="59.8404856" lon="17.6437497">
        <ele>26.0929</ele>
        <time>2013-05-22T19:34:10Z</time>
      </trkpt>
      <trkpt lat="59.8404983" lon="17.6437198">
        <ele>25.1317</ele>
        <time>2013-05-22T19:34:11Z</time>
      </trkpt>
      <trkpt lat="59.8405145" lon="17.6436935">
        <ele>25.6123</ele>
        <time>2013-05-22T19:34:12Z</time>
      </trkpt>
      <trkpt lat="59.8405288" lon="17.6436617">
        <ele>25.1317</ele>
        <time>2013-05-22T19:34:13Z</time>
      </trkpt>
      <trkpt lat="59.8405482" lon="17.6436288">
        <ele>24.1703</ele>
        <time>2013-05-22T19:34:14Z</time>
      </trkpt>
      <trkpt lat="59.8405694" lon="17.6435979">
        <ele>24.651</ele>
        <time>2013-05-22T19:34:15Z</time>
      </trkpt>
      <trkpt lat="59.8405891" lon="17.6435699">
        <ele>25.6123</ele>
        <time>2013-05-22T19:34:16Z</time>
      </trkpt>
      <trkpt lat="59.8406068" lon="17.6435414">
        <ele>25.6123</ele>
        <time>2013-05-22T19:34:17Z</time>
      </trkpt>
      <trkpt lat="59.8406194" lon="17.6435119">
        <ele>24.651</ele>
        <time>2013-05-22T19:34:18Z</time>
      </trkpt>
      <trkpt lat="59.8406425" lon="17.6434882">
        <ele>25.1317</ele>
        <time>2013-05-22T19:34:19Z</time>
      </trkpt>
      <trkpt lat="59.8406591" lon="17.643455">
        <ele>24.1703</ele>
        <time>2013-05-22T19:34:20Z</time>
      </trkpt>
      <trkpt lat="59.840672" lon="17.643415">
        <ele>23.209</ele>
        <time>2013-05-22T19:34:21Z</time>
      </trkpt>
      <trkpt lat="59.8406866" lon="17.643379">
        <ele>23.209</ele>
        <time>2013-05-22T19:34:22Z</time>
      </trkpt>
      <trkpt lat="59.8407051" lon="17.6433465">
        <ele>23.209</ele>
        <time>2013-05-22T19:34:23Z</time>
      </trkpt>
      <trkpt lat="59.840719" lon="17.6433122">
        <ele>22.7283</ele>
        <time>2013-05-22T19:34:24Z</time>
      </trkpt>
      <trkpt lat="59.8407313" lon="17.6432733">
        <ele>21.767</ele>
        <time>2013-05-22T19:34:25Z</time>
      </trkpt>
      <trkpt lat="59.8407542" lon="17.6432355">
        <ele>21.2864</ele>
        <time>2013-05-22T19:34:26Z</time>
      </trkpt>
      <trkpt lat="59.8407647" lon="17.6431936">
        <ele>19.8444</ele>
        <time>2013-05-22T19:34:27Z</time>
      </trkpt>
      <trkpt lat="59.8407788" lon="17.6431626">
        <ele>19.3638</ele>
        <time>2013-05-22T19:34:28Z</time>
      </trkpt>
      <trkpt lat="59.840793" lon="17.643122">
        <ele>19.3638</ele>
        <time>2013-05-22T19:34:29Z</time>
      </trkpt>
      <trkpt lat="59.8408116" lon="17.6430754">
        <ele>19.3638</ele>
        <time>2013-05-22T19:34:30Z</time>
      </trkpt>
      <trkpt lat="59.8408271" lon="17.6430338">
        <ele>18.8831</ele>
        <time>2013-05-22T19:34:31Z</time>
      </trkpt>
      <trkpt lat="59.8408422" lon="17.6429957">
        <ele>18.8831</ele>
        <time>2013-05-22T19:34:32Z</time>
      </trkpt>
      <trkpt lat="59.8408552" lon="17.6429502">
        <ele>17.9218</ele>
        <time>2013-05-22T19:34:33Z</time>
      </trkpt>
      <trkpt lat="59.8408712" lon="17.6429103">
        <ele>17.9218</ele>
        <time>2013-05-22T19:34:34Z</time>
      </trkpt>
      <trkpt lat="59.8408805" lon="17.642867">
        <ele>17.9218</ele>
        <time>2013-05-22T19:34:35Z</time>
      </trkpt>
      <trkpt lat="59.8408926" lon="17.6428272">
        <ele>17.9218</ele>
        <time>2013-05-22T19:34:36Z</time>
      </trkpt>
      <trkpt lat="59.8409045" lon="17.6427906">
        <ele>16.9604</ele>
        <time>2013-05-22T19:34:37Z</time>
      </trkpt>
      <trkpt lat="59.8409278" lon="17.6427675">
        <ele>16.4797</ele>
        <time>2013-05-22T19:34:38Z</time>
      </trkpt>
      <trkpt lat="59.8409476" lon="17.6427619">
        <ele>15.999</ele>
        <time>2013-05-22T19:34:39Z</time>
      </trkpt>
      <trkpt lat="59.8409704" lon="17.6428024">
        <ele>16.4797</ele>
        <time>2013-05-22T19:34:40Z</time>
      </trkpt>
      <trkpt lat="59.8409818" lon="17.642848">
        <ele>15.5184</ele>
        <time>2013-05-22T19:34:41Z</time>
      </trkpt>
      <trkpt lat="59.841004" lon="17.6428804">
        <ele>14.557</ele>
        <time>2013-05-22T19:34:42Z</time>
      </trkpt>
      <trkpt lat="59.841031" lon="17.642919">
        <ele>15.999</ele>
        <time>2013-05-22T19:34:43Z</time>
      </trkpt>
      <trkpt lat="59.841049" lon="17.6429691">
        <ele>17.4412</ele>
        <time>2013-05-22T19:34:44Z</time>
      </trkpt>
      <trkpt lat="59.8410668" lon="17.6430236">
        <ele>18.4023</ele>
        <time>2013-05-22T19:34:45Z</time>
      </trkpt>
      <trkpt lat="59.841079" lon="17.6430778">
        <ele>18.4023</ele>
        <time>2013-05-22T19:34:46Z</time>
      </trkpt>
      <trkpt lat="59.8411012" lon="17.6431283">
        <ele>20.325</ele>
        <time>2013-05-22T19:34:47Z</time>
      </trkpt>
      <trkpt lat="59.8411221" lon="17.6431748">
        <ele>21.2864</ele>
        <time>2013-05-22T19:34:48Z</time>
      </trkpt>
      <trkpt lat="59.8411463" lon="17.6432113">
        <ele>22.2476</ele>
        <time>2013-05-22T19:34:49Z</time>
      </trkpt>
      <trkpt lat="59.8411703" lon="17.6432443">
        <ele>23.209</ele>
        <time>2013-05-22T19:34:50Z</time>
      </trkpt>
      <trkpt lat="59.841195" lon="17.6432795">
        <ele>23.6896</ele>
        <time>2013-05-22T19:34:51Z</time>
      </trkpt>
      <trkpt lat="59.8412159" lon="17.6433126">
        <ele>24.651</ele>
        <time>2013-05-22T19:34:52Z</time>
      </trkpt>
      <trkpt lat="59.8412319" lon="17.6433457">
        <ele>25.1317</ele>
        <time>2013-05-22T19:34:53Z</time>
      </trkpt>
      <trkpt lat="59.8412491" lon="17.6433858">
        <ele>26.0929</ele>
        <time>2013-05-22T19:34:54Z</time>
      </trkpt>
      <trkpt lat="59.8412678" lon="17.6434235">
        <ele>26.5736</ele>
        <time>2013-05-22T19:34:55Z</time>
      </trkpt>
      <trkpt lat="59.8412809" lon="17.6434602">
        <ele>26.0929</ele>
        <time>2013-05-22T19:34:56Z</time>
      </trkpt>
      <trkpt lat="59.8413008" lon="17.6434881">
        <ele>26.5736</ele>
        <time>2013-05-22T19:34:57Z</time>
      </trkpt>
      <trkpt lat="59.8413246" lon="17.6435116">
        <ele>27.5349</ele>
        <time>2013-05-22T19:34:58Z</time>
      </trkpt>
      <trkpt lat="59.8413377" lon="17.6435493">
        <ele>27.5349</ele>
        <time>2013-05-22T19:34:59Z</time>
      </trkpt>
      <trkpt lat="59.8413478" lon="17.6435908">
        <ele>27.5349</ele>
        <time>2013-05-22T19:35:00Z</time>
      </trkpt>
      <trkpt lat="59.8413639" lon="17.643625">
        <ele>28.4962</ele>
        <time>2013-05-22T19:35:01Z</time>
      </trkpt>
      <trkpt lat="59.8413847" lon="17.6436575">
        <ele>28.9769</ele>
        <time>2013-05-22T19:35:02Z</time>
      </trkpt>
      <trkpt lat="59.8414021" lon="17.6436961">
        <ele>29.9381</ele>
        <time>2013-05-22T19:35:03Z</time>
      </trkpt>
      <trkpt lat="59.8414164" lon="17.6437261">
        <ele>29.9381</ele>
        <time>2013-05-22T19:35:04Z</time>
      </trkpt>
      <trkpt lat="59.8414333" lon="17.6437621">
        <ele>30.8995</ele>
        <time>2013-05-22T19:35:05Z</time>
      </trkpt>
      <trkpt lat="59.8414408" lon="17.6438035">
        <ele>30.4188</ele>
        <time>2013-05-22T19:35:06Z</time>
      </trkpt>
      <trkpt lat="59.841452" lon="17.643839">
        <ele>29.9381</ele>
        <time>2013-05-22T19:35:07Z</time>
      </trkpt>
      <trkpt lat="59.8414688" lon="17.643869">
        <ele>30.8995</ele>
        <time>2013-05-22T19:35:08Z</time>
      </trkpt>
      <trkpt lat="59.841483" lon="17.6439053">
        <ele>30.8995</ele>
        <time>2013-05-22T19:35:09Z</time>
      </trkpt>
      <trkpt lat="59.8414944" lon="17.6439353">
        <ele>30.8995</ele>
        <time>2013-05-22T19:35:10Z</time>
      </trkpt>
      <trkpt lat="59.8415076" lon="17.6439603">
        <ele>31.3801</ele>
        <time>2013-05-22T19:35:11Z</time>
      </trkpt>
      <trkpt lat="59.8415251" lon="17.6439909">
        <ele>31.8607</ele>
        <time>2013-05-22T19:35:12Z</time>
      </trkpt>
      <trkpt lat="59.8415408" lon="17.6440206">
        <ele>31.3801</ele>
        <time>2013-05-22T19:35:13Z</time>
      </trkpt>
      <trkpt lat="59.8415557" lon="17.6440488">
        <ele>31.3801</ele>
        <time>2013-05-22T19:35:14Z</time>
      </trkpt>
      <trkpt lat="59.8415689" lon="17.6440841">
        <ele>31.8607</ele>
        <time>2013-05-22T19:35:15Z</time>
      </trkpt>
      <trkpt lat="59.841583" lon="17.6441218">
        <ele>32.3416</ele>
        <time>2013-05-22T19:35:16Z</time>
      </trkpt>
      <trkpt lat="59.8415938" lon="17.6441627">
        <ele>32.8223</ele>
        <time>2013-05-22T19:35:17Z</time>
      </trkpt>
      <trkpt lat="59.8416075" lon="17.6441959">
        <ele>33.7834</ele>
        <time>2013-05-22T19:35:18Z</time>
      </trkpt>
      <trkpt lat="59.8416254" lon="17.6442238">
        <ele>34.2642</ele>
        <time>2013-05-22T19:35:19Z</time>
      </trkpt>
      <trkpt lat="59.8416484" lon="17.644255">
        <ele>35.2255</ele>
        <time>2013-05-22T19:35:20Z</time>
      </trkpt>
      <trkpt lat="59.841667" lon="17.6442824">
        <ele>35.2255</ele>
        <time>2013-05-22T19:35:21Z</time>
      </trkpt>
      <trkpt lat="59.8416893" lon="17.6443057">
        <ele>36.1868</ele>
        <time>2013-05-22T19:35:22Z</time>
      </trkpt>
      <trkpt lat="59.8417111" lon="17.6443311">
        <ele>36.1868</ele>
        <time>2013-05-22T19:35:23Z</time>
      </trkpt>
      <trkpt lat="59.8417328" lon="17.6443627">
        <ele>36.1868</ele>
        <time>2013-05-22T19:35:24Z</time>
      </trkpt>
      <trkpt lat="59.841748" lon="17.6443979">
        <ele>36.6675</ele>
        <time>2013-05-22T19:35:25Z</time>
      </trkpt>
      <trkpt lat="59.841759" lon="17.6444317">
        <ele>36.6675</ele>
        <time>2013-05-22T19:35:26Z</time>
      </trkpt>
      <trkpt lat="59.8417769" lon="17.6444579">
        <ele>37.1481</ele>
        <time>2013-05-22T19:35:27Z</time>
      </trkpt>
      <trkpt lat="59.8417986" lon="17.6444828">
        <ele>37.6287</ele>
        <time>2013-05-22T19:35:28Z</time>
      </trkpt>
      <trkpt lat="59.841812" lon="17.6445085">
        <ele>37.6287</ele>
        <time>2013-05-22T19:35:29Z</time>
      </trkpt>
      <trkpt lat="59.8418235" lon="17.644527">
        <ele>38.1094</ele>
        <time>2013-05-22T19:35:30Z</time>
      </trkpt>
      <trkpt lat="59.8418376" lon="17.6445383">
        <ele>37.6287</ele>
        <time>2013-05-22T19:35:31Z</time>
      </trkpt>
      <trkpt lat="59.8418544" lon="17.6445521">
        <ele>37.1481</ele>
        <time>2013-05-22T19:35:32Z</time>
      </trkpt>
      <trkpt lat="59.8418766" lon="17.6445635">
        <ele>37.1481</ele>
        <time>2013-05-22T19:35:33Z</time>
      </trkpt>
      <trkpt lat="59.8418991" lon="17.6445626">
        <ele>37.1481</ele>
        <time>2013-05-22T19:35:34Z</time>
      </trkpt>
      <trkpt lat="59.8419207" lon="17.6445469">
        <ele>36.6675</ele>
        <time>2013-05-22T19:35:35Z</time>
      </trkpt>
      <trkpt lat="59.8419432" lon="17.6445277">
        <ele>36.1868</ele>
        <time>2013-05-22T19:35:36Z</time>
      </trkpt>
      <trkpt lat="59.8419617" lon="17.6445021">
        <ele>35.7061</ele>
        <time>2013-05-22T19:35:37Z</time>
      </trkpt>
      <trkpt lat="59.8419721" lon="17.6444645">
        <ele>34.7449</ele>
        <time>2013-05-22T19:35:38Z</time>
      </trkpt>
      <trkpt lat="59.8419877" lon="17.6444303">
        <ele>34.7449</ele>
        <time>2013-05-22T19:35:39Z</time>
      </trkpt>
      <trkpt lat="59.842003" lon="17.6443935">
        <ele>33.7834</ele>
        <time>2013-05-22T19:35:40Z</time>
      </trkpt>
      <trkpt lat="59.8420192" lon="17.6443568">
        <ele>33.7834</ele>
        <time>2013-05-22T19:35:41Z</time>
      </trkpt>
      <trkpt lat="59.8420228" lon="17.6443114">
        <ele>31.8607</ele>
        <time>2013-05-22T19:35:42Z</time>
      </trkpt>
      <trkpt lat="59.8420307" lon="17.6442736">
        <ele>30.8995</ele>
        <time>2013-05-22T19:35:43Z</time>
      </trkpt>
      <trkpt lat="59.8420395" lon="17.6442364">
        <ele>29.9381</ele>
        <time>2013-05-22T19:35:44Z</time>
      </trkpt>
      <trkpt lat="59.84204" lon="17.6441891">
        <ele>28.9769</ele>
        <time>2013-05-22T19:35:45Z</time>
      </trkpt>
      <trkpt lat="59.8420385" lon="17.6441387">
        <ele>27.0543</ele>
        <time>2013-05-22T19:35:46Z</time>
      </trkpt>
      <trkpt lat="59.8420442" lon="17.6440911">
        <ele>26.5736</ele>
        <time>2013-05-22T19:35:47Z</time>
      </trkpt>
      <trkpt lat="59.8420525" lon="17.6440473">
        <ele>26.0929</ele>
        <time>2013-05-22T19:35:48Z</time>
      </trkpt>
      <trkpt lat="59.8420569" lon="17.6440042">
        <ele>26.0929</ele>
        <time>2013-05-22T19:35:49Z</time>
      </trkpt>
      <trkpt lat="59.8420642" lon="17.6439556">
        <ele>26.5736</ele>
        <time>2013-05-22T19:35:50Z</time>
      </trkpt>
      <trkpt lat="59.8420689" lon="17.6439099">
        <ele>26.5736</ele>
        <time>2013-05-22T19:35:51Z</time>
      </trkpt>
      <trkpt lat="59.8420776" lon="17.6438678">
        <ele>28.0155</ele>
        <time>2013-05-22T19:35:52Z</time>
      </trkpt>
      <trkpt lat="59.8420813" lon="17.6438157">
        <ele>28.4962</ele>
        <time>2013-05-22T19:35:53Z</time>
      </trkpt>
      <trkpt lat="59.8420776" lon="17.6437696">
        <ele>28.0155</ele>
        <time>2013-05-22T19:35:54Z</time>
      </trkpt>
      <trkpt lat="59.8420842" lon="17.6437327">
        <ele>29.4575</ele>
        <time>2013-05-22T19:35:55Z</time>
      </trkpt>
      <trkpt lat="59.8420866" lon="17.6436845">
        <ele>29.4575</ele>
        <time>2013-05-22T19:35:56Z</time>
      </trkpt>
      <trkpt lat="59.8420834" lon="17.6436312">
        <ele>28.9769</ele>
        <time>2013-05-22T19:35:57Z</time>
      </trkpt>
      <trkpt lat="59.8420851" lon="17.6435826">
        <ele>28.4962</ele>
        <time>2013-05-22T19:35:58Z</time>
      </trkpt>
      <trkpt lat="59.8420899" lon="17.6435327">
        <ele>27.5349</ele>
        <time>2013-05-22T19:35:59Z</time>
      </trkpt>
      <trkpt lat="59.8420978" lon="17.6434879">
        <ele>26.5736</ele>
        <time>2013-05-22T19:36:00Z</time>
      </trkpt>
      <trkpt lat="59.8421084" lon="17.6434546">
        <ele>26.5736</ele>
        <time>2013-05-22T19:36:01Z</time>
      </trkpt>
      <trkpt lat="59.8421178" lon="17.6434177">
        <ele>26.0929</ele>
        <time>2013-05-22T19:36:02Z</time>
      </trkpt>
      <trkpt lat="59.8421274" lon="17.6433785">
        <ele>25.6123</ele>
        <time>2013-05-22T19:36:03Z</time>
      </trkpt>
      <trkpt lat="59.8421453" lon="17.6433562">
        <ele>25.1317</ele>
        <time>2013-05-22T19:36:04Z</time>
      </trkpt>
      <trkpt lat="59.8421641" lon="17.6433408">
        <ele>25.1317</ele>
        <time>2013-05-22T19:36:05Z</time>
      </trkpt>
      <trkpt lat="59.8421909" lon="17.6433256">
        <ele>26.5736</ele>
        <time>2013-05-22T19:36:06Z</time>
      </trkpt>
      <trkpt lat="59.8422118" lon="17.6433132">
        <ele>27.0543</ele>
        <time>2013-05-22T19:36:07Z</time>
      </trkpt>
      <trkpt lat="59.8422348" lon="17.6433006">
        <ele>27.0543</ele>
        <time>2013-05-22T19:36:08Z</time>
      </trkpt>
      <trkpt lat="59.8422574" lon="17.6432864">
        <ele>27.0543</ele>
        <time>2013-05-22T19:36:09Z</time>
      </trkpt>
      <trkpt lat="59.8422892" lon="17.6432732">
        <ele>28.4962</ele>
        <time>2013-05-22T19:36:10Z</time>
      </trkpt>
      <trkpt lat="59.8423239" lon="17.6432581">
        <ele>30.4188</ele>
        <time>2013-05-22T19:36:11Z</time>
      </trkpt>
      <trkpt lat="59.8423535" lon="17.6432381">
        <ele>31.3801</ele>
        <time>2013-05-22T19:36:12Z</time>
      </trkpt>
      <trkpt lat="59.8423959" lon="17.643236">
        <ele>34.7449</ele>
        <time>2013-05-22T19:36:13Z</time>
      </trkpt>
      <trkpt lat="59.8424409" lon="17.6432324">
        <ele>38.5901</ele>
        <time>2013-05-22T19:36:14Z</time>
      </trkpt>
      <trkpt lat="59.8424796" lon="17.6432218">
        <ele>40.9934</ele>
        <time>2013-05-22T19:36:15Z</time>
      </trkpt>
      <trkpt lat="59.8425065" lon="17.6432151">
        <ele>41.474</ele>
        <time>2013-05-22T19:36:16Z</time>
      </trkpt>
      <trkpt lat="59.8425326" lon="17.6432214">
        <ele>41.9547</ele>
        <time>2013-05-22T19:36:17Z</time>
      </trkpt>
      <trkpt lat="59.8425518" lon="17.6432272">
        <ele>41.474</ele>
        <time>2013-05-22T19:36:18Z</time>
      </trkpt>
      <trkpt lat="59.8425663" lon="17.6432199">
        <ele>40.9934</ele>
        <time>2013-05-22T19:36:19Z</time>
      </trkpt>
      <trkpt lat="59.842592" lon="17.6432184">
        <ele>41.9547</ele>
        <time>2013-05-22T19:36:20Z</time>
      </trkpt>
      <trkpt lat="59.8426166" lon="17.6432265">
        <ele>41.474</ele>
        <time>2013-05-22T19:36:21Z</time>
      </trkpt>
      <trkpt lat="59.8426391" lon="17.6432319">
        <ele>41.474</ele>
        <time>2013-05-22T19:36:22Z</time>
      </trkpt>
      <trkpt lat="59.8426689" lon="17.6432345">
        <ele>42.916</ele>
        <time>2013-05-22T19:36:23Z</time>
      </trkpt>
      <trkpt lat="59.8426963" lon="17.6432296">
        <ele>43.8773</ele>
        <time>2013-05-22T19:36:24Z</time>
      </trkpt>
      <trkpt lat="59.8427274" lon="17.6432246">
        <ele>46.2806</ele>
        <time>2013-05-22T19:36:25Z</time>
      </trkpt>
      <trkpt lat="59.8427529" lon="17.6432161">
        <ele>47.2418</ele>
        <time>2013-05-22T19:36:26Z</time>
      </trkpt>
      <trkpt lat="59.8427809" lon="17.6432137">
        <ele>49.1646</ele>
        <time>2013-05-22T19:36:27Z</time>
      </trkpt>
      <trkpt lat="59.8428248" lon="17.6432166">
        <ele>53.9712</ele>
        <time>2013-05-22T19:36:28Z</time>
      </trkpt>
      <trkpt lat="59.8428542" lon="17.6431985">
        <ele>56.3745</ele>
        <time>2013-05-22T19:36:29Z</time>
      </trkpt>
      <trkpt lat="59.8428823" lon="17.6431815">
        <ele>57.8165</ele>
        <time>2013-05-22T19:36:30Z</time>
      </trkpt>
      <trkpt lat="59.8428995" lon="17.6431582">
        <ele>56.8551</ele>
        <time>2013-05-22T19:36:31Z</time>
      </trkpt>
      <trkpt lat="59.8429232" lon="17.643146">
        <ele>57.8165</ele>
        <time>2013-05-22T19:36:32Z</time>
      </trkpt>
      <trkpt lat="59.842945" lon="17.6431298">
        <ele>58.7777</ele>
        <time>2013-05-22T19:36:33Z</time>
      </trkpt>
      <trkpt lat="59.8429589" lon="17.6431178">
        <ele>58.2971</ele>
        <time>2013-05-22T19:36:34Z</time>
      </trkpt>
      <trkpt lat="59.8429777" lon="17.6431115">
        <ele>58.2971</ele>
        <time>2013-05-22T19:36:35Z</time>
      </trkpt>
      <trkpt lat="59.8429901" lon="17.6430749">
        <ele>56.3745</ele>
        <time>2013-05-22T19:36:36Z</time>
      </trkpt>
      <trkpt lat="59.8430072" lon="17.6430284">
        <ele>56.3745</ele>
        <time>2013-05-22T19:36:37Z</time>
      </trkpt>
      <trkpt lat="59.8430142" lon="17.6429853">
        <ele>53.4905</ele>
        <time>2013-05-22T19:36:38Z</time>
      </trkpt>
      <trkpt lat="59.8430339" lon="17.6429604">
        <ele>53.4905</ele>
        <time>2013-05-22T19:36:39Z</time>
      </trkpt>
      <trkpt lat="59.8430515" lon="17.6429443">
        <ele>53.4905</ele>
        <time>2013-05-22T19:36:40Z</time>
      </trkpt>
      <trkpt lat="59.843063" lon="17.642934">
        <ele>51.5679</ele>
        <time>2013-05-22T19:36:41Z</time>
      </trkpt>
      <trkpt lat="59.8430777" lon="17.6429257">
        <ele>50.126</ele>
        <time>2013-05-22T19:36:42Z</time>
      </trkpt>
      <trkpt lat="59.8430948" lon="17.6429132">
        <ele>48.684</ele>
        <time>2013-05-22T19:36:43Z</time>
      </trkpt>
      <trkpt lat="59.8431267" lon="17.6429028">
        <ele>49.6453</ele>
        <time>2013-05-22T19:36:44Z</time>
      </trkpt>
      <trkpt lat="59.8431558" lon="17.6428931">
        <ele>50.126</ele>
        <time>2013-05-22T19:36:45Z</time>
      </trkpt>
      <trkpt lat="59.843175" lon="17.6428888">
        <ele>50.126</ele>
        <time>2013-05-22T19:36:46Z</time>
      </trkpt>
      <trkpt lat="59.8431962" lon="17.6428801">
        <ele>49.6453</ele>
        <time>2013-05-22T19:36:47Z</time>
      </trkpt>
      <trkpt lat="59.8432137" lon="17.6428729">
        <ele>49.1646</ele>
        <time>2013-05-22T19:36:48Z</time>
      </trkpt>
      <trkpt lat="59.8432307" lon="17.6428604">
        <ele>48.684</ele>
        <time>2013-05-22T19:36:49Z</time>
      </trkpt>
      <trkpt lat="59.8432458" lon="17.6428554">
        <ele>47.7225</ele>
        <time>2013-05-22T19:36:50Z</time>
      </trkpt>
      <trkpt lat="59.8432595" lon="17.6428414">
        <ele>46.7612</ele>
        <time>2013-05-22T19:36:51Z</time>
      </trkpt>
      <trkpt lat="59.8432704" lon="17.6428107">
        <ele>44.8386</ele>
        <time>2013-05-22T19:36:52Z</time>
      </trkpt>
      <trkpt lat="59.8432843" lon="17.6427977">
        <ele>44.358</ele>
        <time>2013-05-22T19:36:53Z</time>
      </trkpt>
      <trkpt lat="59.8433006" lon="17.6427936">
        <ele>42.916</ele>
        <time>2013-05-22T19:36:54Z</time>
      </trkpt>
      <trkpt lat="59.843318" lon="17.6427952">
        <ele>42.4354</ele>
        <time>2013-05-22T19:36:55Z</time>
      </trkpt>
      <trkpt lat="59.8433374" lon="17.6427895">
        <ele>41.474</ele>
        <time>2013-05-22T19:36:56Z</time>
      </trkpt>
      <trkpt lat="59.8433614" lon="17.6427838">
        <ele>40.9934</ele>
        <time>2013-05-22T19:36:57Z</time>
      </trkpt>
      <trkpt lat="59.8433873" lon="17.6427749">
        <ele>40.9934</ele>
        <time>2013-05-22T19:36:58Z</time>
      </trkpt>
      <trkpt lat="59.8434009" lon="17.6427598">
        <ele>40.5128</ele>
        <time>2013-05-22T19:36:59Z</time>
      </trkpt>
      <trkpt lat="59.8434003" lon="17.6427294">
        <ele>37.6287</ele>
        <time>2013-05-22T19:37:00Z</time>
      </trkpt>
      <trkpt lat="59.8434177" lon="17.6427091">
        <ele>39.0707</ele>
        <time>2013-05-22T19:37:01Z</time>
      </trkpt>
      <trkpt lat="59.8434082" lon="17.6426707">
        <ele>36.1868</ele>
        <time>2013-05-22T19:37:02Z</time>
      </trkpt>
      <trkpt lat="59.8434153" lon="17.6426385">
        <ele>37.1481</ele>
        <time>2013-05-22T19:37:03Z</time>
      </trkpt>
      <trkpt lat="59.8434077" lon="17.642601">
        <ele>36.1868</ele>
        <time>2013-05-22T19:37:04Z</time>
      </trkpt>
      <trkpt lat="59.8434338" lon="17.6425683">
        <ele>42.4354</ele>
        <time>2013-05-22T19:37:05Z</time>
      </trkpt>
      <trkpt lat="59.8434184" lon="17.6425274">
        <ele>40.9934</ele>
        <time>2013-05-22T19:37:06Z</time>
      </trkpt>
      <trkpt lat="59.8434046" lon="17.6424896">
        <ele>38.5901</ele>
        <time>2013-05-22T19:37:07Z</time>
      </trkpt>
      <trkpt lat="59.8433967" lon="17.6424451">
        <ele>37.1481</ele>
        <time>2013-05-22T19:37:08Z</time>
      </trkpt>
      <trkpt lat="59.8433799" lon="17.6424013">
        <ele>33.3029</ele>
        <time>2013-05-22T19:37:09Z</time>
      </trkpt>
      <trkpt lat="59.8433659" lon="17.6423579">
        <ele>30.8995</ele>
        <time>2013-05-22T19:37:10Z</time>
      </trkpt>
      <trkpt lat="59.8433646" lon="17.6423144">
        <ele>30.4188</ele>
        <time>2013-05-22T19:37:11Z</time>
      </trkpt>
      <trkpt lat="59.8433675" lon="17.6422744">
        <ele>30.8995</ele>
        <time>2013-05-22T19:37:12Z</time>
      </trkpt>
      <trkpt lat="59.8433655" lon="17.642241">
        <ele>30.8995</ele>
        <time>2013-05-22T19:37:13Z</time>
      </trkpt>
      <trkpt lat="59.8433609" lon="17.6422018">
        <ele>30.4188</ele>
        <time>2013-05-22T19:37:14Z</time>
      </trkpt>
      <trkpt lat="59.8433597" lon="17.642159">
        <ele>30.4188</ele>
        <time>2013-05-22T19:37:15Z</time>
      </trkpt>
      <trkpt lat="59.8433553" lon="17.6421166">
        <ele>29.4575</ele>
        <time>2013-05-22T19:37:16Z</time>
      </trkpt>
      <trkpt lat="59.8433569" lon="17.6420809">
        <ele>29.4575</ele>
        <time>2013-05-22T19:37:17Z</time>
      </trkpt>
      <trkpt lat="59.8433613" lon="17.6420431">
        <ele>29.4575</ele>
        <time>2013-05-22T19:37:18Z</time>
      </trkpt>
      <trkpt lat="59.84336" lon="17.642001">
        <ele>28.9769</ele>
        <time>2013-05-22T19:37:19Z</time>
      </trkpt>
      <trkpt lat="59.8433528" lon="17.6419592">
        <ele>28.4962</ele>
        <time>2013-05-22T19:37:20Z</time>
      </trkpt>
      <trkpt lat="59.8433459" lon="17.6419226">
        <ele>28.4962</ele>
        <time>2013-05-22T19:37:21Z</time>
      </trkpt>
      <trkpt lat="59.8433437" lon="17.6418831">
        <ele>28.4962</ele>
        <time>2013-05-22T19:37:22Z</time>
      </trkpt>
      <trkpt lat="59.8433308" lon="17.6418305">
        <ele>26.5736</ele>
        <time>2013-05-22T19:37:23Z</time>
      </trkpt>
      <trkpt lat="59.8433356" lon="17.6417897">
        <ele>27.0543</ele>
        <time>2013-05-22T19:37:24Z</time>
      </trkpt>
      <trkpt lat="59.8433407" lon="17.641755">
        <ele>27.0543</ele>
        <time>2013-05-22T19:37:25Z</time>
      </trkpt>
      <trkpt lat="59.8433504" lon="17.6417291">
        <ele>26.5736</ele>
        <time>2013-05-22T19:37:26Z</time>
      </trkpt>
      <trkpt lat="59.8433734" lon="17.6417142">
        <ele>27.0543</ele>
        <time>2013-05-22T19:37:27Z</time>
      </trkpt>
      <trkpt lat="59.8433956" lon="17.6417005">
        <ele>27.0543</ele>
        <time>2013-05-22T19:37:28Z</time>
      </trkpt>
      <trkpt lat="59.8434191" lon="17.6416873">
        <ele>26.5736</ele>
        <time>2013-05-22T19:37:29Z</time>
      </trkpt>
      <trkpt lat="59.8434403" lon="17.6416762">
        <ele>26.0929</ele>
        <time>2013-05-22T19:37:30Z</time>
      </trkpt>
      <trkpt lat="59.8434609" lon="17.6416671">
        <ele>25.6123</ele>
        <time>2013-05-22T19:37:31Z</time>
      </trkpt>
      <trkpt lat="59.8434794" lon="17.6416557">
        <ele>25.1317</ele>
        <time>2013-05-22T19:37:32Z</time>
      </trkpt>
      <trkpt lat="59.8434982" lon="17.6416498">
        <ele>24.651</ele>
        <time>2013-05-22T19:37:33Z</time>
      </trkpt>
      <trkpt lat="59.8435195" lon="17.6416442">
        <ele>24.1703</ele>
        <time>2013-05-22T19:37:34Z</time>
      </trkpt>
      <trkpt lat="59.84354" lon="17.6416374">
        <ele>23.6896</ele>
        <time>2013-05-22T19:37:35Z</time>
      </trkpt>
      <trkpt lat="59.8435612" lon="17.641628">
        <ele>23.6896</ele>
        <time>2013-05-22T19:37:36Z</time>
      </trkpt>
      <trkpt lat="59.8435833" lon="17.6416223">
        <ele>23.6896</ele>
        <time>2013-05-22T19:37:37Z</time>
      </trkpt>
      <trkpt lat="59.8436104" lon="17.6416167">
        <ele>24.651</ele>
        <time>2013-05-22T19:37:38Z</time>
      </trkpt>
      <trkpt lat="59.8436311" lon="17.6416032">
        <ele>24.1703</ele>
        <time>2013-05-22T19:37:39Z</time>
      </trkpt>
      <trkpt lat="59.8436534" lon="17.6415885">
        <ele>24.651</ele>
        <time>2013-05-22T19:37:40Z</time>
      </trkpt>
      <trkpt lat="59.8436697" lon="17.6415757">
        <ele>23.6896</ele>
        <time>2013-05-22T19:37:41Z</time>
      </trkpt>
      <trkpt lat="59.8436903" lon="17.6415613">
        <ele>24.1703</ele>
        <time>2013-05-22T19:37:42Z</time>
      </trkpt>
      <trkpt lat="59.8437073" lon="17.6415472">
        <ele>23.6896</ele>
        <time>2013-05-22T19:37:43Z</time>
      </trkpt>
      <trkpt lat="59.843729" lon="17.64154">
        <ele>23.6896</ele>
        <time>2013-05-22T19:37:44Z</time>
      </trkpt>
      <trkpt lat="59.8437506" lon="17.6415323">
        <ele>23.6896</ele>
        <time>2013-05-22T19:37:45Z</time>
      </trkpt>
      <trkpt lat="59.8437664" lon="17.6415204">
        <ele>23.209</ele>
        <time>2013-05-22T19:37:46Z</time>
      </trkpt>
      <trkpt lat="59.8437829" lon="17.6415074">
        <ele>22.7283</ele>
        <time>2013-05-22T19:37:47Z</time>
      </trkpt>
      <trkpt lat="59.8438013" lon="17.6414934">
        <ele>22.2476</ele>
        <time>2013-05-22T19:37:48Z</time>
      </trkpt>
      <trkpt lat="59.8438257" lon="17.6414816">
        <ele>22.2476</ele>
        <time>2013-05-22T19:37:49Z</time>
      </trkpt>
      <trkpt lat="59.8438479" lon="17.6414774">
        <ele>22.2476</ele>
        <time>2013-05-22T19:37:50Z</time>
      </trkpt>
      <trkpt lat="59.8438666" lon="17.6414691">
        <ele>21.767</ele>
        <time>2013-05-22T19:37:51Z</time>
      </trkpt>
      <trkpt lat="59.8438857" lon="17.6414582">
        <ele>21.2864</ele>
        <time>2013-05-22T19:37:52Z</time>
      </trkpt>
      <trkpt lat="59.843907" lon="17.6414471">
        <ele>21.2864</ele>
        <time>2013-05-22T19:37:53Z</time>
      </trkpt>
      <trkpt lat="59.8439319" lon="17.6414354">
        <ele>21.767</ele>
        <time>2013-05-22T19:37:54Z</time>
      </trkpt>
      <trkpt lat="59.8439551" lon="17.6414199">
        <ele>21.767</ele>
        <time>2013-05-22T19:37:55Z</time>
      </trkpt>
      <trkpt lat="59.8439795" lon="17.6414064">
        <ele>21.767</ele>
        <time>2013-05-22T19:37:56Z</time>
      </trkpt>
      <trkpt lat="59.8440001" lon="17.6413974">
        <ele>21.767</ele>
        <time>2013-05-22T19:37:57Z</time>
      </trkpt>
      <trkpt lat="59.8440178" lon="17.6413868">
        <ele>21.2864</ele>
        <time>2013-05-22T19:37:58Z</time>
      </trkpt>
      <trkpt lat="59.8440359" lon="17.6413842">
        <ele>20.8057</ele>
        <time>2013-05-22T19:37:59Z</time>
      </trkpt>
      <trkpt lat="59.8440547" lon="17.6413795">
        <ele>20.8057</ele>
        <time>2013-05-22T19:38:00Z</time>
      </trkpt>
      <trkpt lat="59.8440747" lon="17.6413665">
        <ele>20.8057</ele>
        <time>2013-05-22T19:38:01Z</time>
      </trkpt>
      <trkpt lat="59.8440961" lon="17.6413495">
        <ele>20.325</ele>
        <time>2013-05-22T19:38:02Z</time>
      </trkpt>
      <trkpt lat="59.8441175" lon="17.6413364">
        <ele>19.8444</ele>
        <time>2013-05-22T19:38:03Z</time>
      </trkpt>
      <trkpt lat="59.8441417" lon="17.6413245">
        <ele>19.8444</ele>
        <time>2013-05-22T19:38:04Z</time>
      </trkpt>
      <trkpt lat="59.8441704" lon="17.6413129">
        <ele>20.8057</ele>
        <time>2013-05-22T19:38:05Z</time>
      </trkpt>
      <trkpt lat="59.8441856" lon="17.6412954">
        <ele>20.325</ele>
        <time>2013-05-22T19:38:06Z</time>
      </trkpt>
      <trkpt lat="59.8441968" lon="17.6412696">
        <ele>19.8444</ele>
        <time>2013-05-22T19:38:07Z</time>
      </trkpt>
      <trkpt lat="59.844198" lon="17.6412332">
        <ele>17.9218</ele>
        <time>2013-05-22T19:38:08Z</time>
      </trkpt>
      <trkpt lat="59.8442113" lon="17.6411915">
        <ele>18.4023</ele>
        <time>2013-05-22T19:38:09Z</time>
      </trkpt>
      <trkpt lat="59.8442183" lon="17.6411469">
        <ele>18.4023</ele>
        <time>2013-05-22T19:38:10Z</time>
      </trkpt>
      <trkpt lat="59.8442292" lon="17.6411008">
        <ele>18.8831</ele>
        <time>2013-05-22T19:38:11Z</time>
      </trkpt>
      <trkpt lat="59.8442404" lon="17.6410524">
        <ele>18.4023</ele>
        <time>2013-05-22T19:38:12Z</time>
      </trkpt>
      <trkpt lat="59.8442473" lon="17.6410078">
        <ele>18.4023</ele>
        <time>2013-05-22T19:38:13Z</time>
      </trkpt>
      <trkpt lat="59.8442496" lon="17.6409612">
        <ele>18.4023</ele>
        <time>2013-05-22T19:38:14Z</time>
      </trkpt>
      <trkpt lat="59.844256" lon="17.6409125">
        <ele>18.8831</ele>
        <time>2013-05-22T19:38:15Z</time>
      </trkpt>
      <trkpt lat="59.844261" lon="17.6408687">
        <ele>18.8831</ele>
        <time>2013-05-22T19:38:16Z</time>
      </trkpt>
      <trkpt lat="59.8442655" lon="17.6408251">
        <ele>18.8831</ele>
        <time>2013-05-22T19:38:17Z</time>
      </trkpt>
      <trkpt lat="59.8442658" lon="17.640779">
        <ele>18.4023</ele>
        <time>2013-05-22T19:38:18Z</time>
      </trkpt>
      <trkpt lat="59.8442634" lon="17.640738">
        <ele>18.4023</ele>
        <time>2013-05-22T19:38:19Z</time>
      </trkpt>
      <trkpt lat="59.8442657" lon="17.6406936">
        <ele>17.4412</ele>
        <time>2013-05-22T19:38:20Z</time>
      </trkpt>
      <trkpt lat="59.8442746" lon="17.64065">
        <ele>16.9604</ele>
        <time>2013-05-22T19:38:21Z</time>
      </trkpt>
      <trkpt lat="59.8442871" lon="17.6406075">
        <ele>17.4412</ele>
        <time>2013-05-22T19:38:22Z</time>
      </trkpt>
      <trkpt lat="59.8443011" lon="17.6405682">
        <ele>18.4023</ele>
        <time>2013-05-22T19:38:23Z</time>
      </trkpt>
      <trkpt lat="59.8443087" lon="17.6405268">
        <ele>17.9218</ele>
        <time>2013-05-22T19:38:24Z</time>
      </trkpt>
      <trkpt lat="59.8443213" lon="17.6404864">
        <ele>17.4412</ele>
        <time>2013-05-22T19:38:25Z</time>
      </trkpt>
      <trkpt lat="59.8443353" lon="17.6404474">
        <ele>17.4412</ele>
        <time>2013-05-22T19:38:26Z</time>
      </trkpt>
      <trkpt lat="59.8443418" lon="17.640404">
        <ele>15.999</ele>
        <time>2013-05-22T19:38:27Z</time>
      </trkpt>
      <trkpt lat="59.8443564" lon="17.64037">
        <ele>15.999</ele>
        <time>2013-05-22T19:38:28Z</time>
      </trkpt>
      <trkpt lat="59.844368" lon="17.6403386">
        <ele>15.0377</ele>
        <time>2013-05-22T19:38:29Z</time>
      </trkpt>
      <trkpt lat="59.8443742" lon="17.6403014">
        <ele>14.557</ele>
        <time>2013-05-22T19:38:30Z</time>
      </trkpt>
      <trkpt lat="59.844386" lon="17.6402651">
        <ele>14.0764</ele>
        <time>2013-05-22T19:38:31Z</time>
      </trkpt>
      <trkpt lat="59.8444009" lon="17.6402429">
        <ele>14.0764</ele>
        <time>2013-05-22T19:38:32Z</time>
      </trkpt>
      <trkpt lat="59.8444124" lon="17.6402134">
        <ele>14.0764</ele>
        <time>2013-05-22T19:38:33Z</time>
      </trkpt>
      <trkpt lat="59.8444208" lon="17.6401689">
        <ele>14.557</ele>
        <time>2013-05-22T19:38:34Z</time>
      </trkpt>
      <trkpt lat="59.8444312" lon="17.6401231">
        <ele>15.0377</ele>
        <time>2013-05-22T19:38:35Z</time>
      </trkpt>
      <trkpt lat="59.8444335" lon="17.6400762">
        <ele>15.0377</ele>
        <time>2013-05-22T19:38:36Z</time>
      </trkpt>
      <trkpt lat="59.8444343" lon="17.6400319">
        <ele>15.0377</ele>
        <time>2013-05-22T19:38:37Z</time>
      </trkpt>
      <trkpt lat="59.8444404" lon="17.6399844">
        <ele>16.4797</ele>
        <time>2013-05-22T19:38:38Z</time>
      </trkpt>
      <trkpt lat="59.844441" lon="17.6399363">
        <ele>16.9604</ele>
        <time>2013-05-22T19:38:39Z</time>
      </trkpt>
      <trkpt lat="59.8444429" lon="17.6398979">
        <ele>17.4412</ele>
        <time>2013-05-22T19:38:40Z</time>
      </trkpt>
      <trkpt lat="59.8444466" lon="17.6398579">
        <ele>18.8831</ele>
        <time>2013-05-22T19:38:41Z</time>
      </trkpt>
      <trkpt lat="59.844447" lon="17.6398056">
        <ele>19.3638</ele>
        <time>2013-05-22T19:38:42Z</time>
      </trkpt>
      <trkpt lat="59.8444493" lon="17.6397538">
        <ele>19.3638</ele>
        <time>2013-05-22T19:38:43Z</time>
      </trkpt>
      <trkpt lat="59.8444509" lon="17.6397062">
        <ele>19.3638</ele>
        <time>2013-05-22T19:38:44Z</time>
      </trkpt>
      <trkpt lat="59.8444541" lon="17.6396576">
        <ele>19.3638</ele>
        <time>2013-05-22T19:38:45Z</time>
      </trkpt>
      <trkpt lat="59.8444632" lon="17.6396156">
        <ele>19.3638</ele>
        <time>2013-05-22T19:38:46Z</time>
      </trkpt>
      <trkpt lat="59.8444799" lon="17.6395859">
        <ele>19.3638</ele>
        <time>2013-05-22T19:38:47Z</time>
      </trkpt>
      <trkpt lat="59.8444995" lon="17.6395624">
        <ele>18.8831</ele>
        <time>2013-05-22T19:38:48Z</time>
      </trkpt>
      <trkpt lat="59.8445275" lon="17.6395463">
        <ele>20.325</ele>
        <time>2013-05-22T19:38:49Z</time>
      </trkpt>
      <trkpt lat="59.8445471" lon="17.6395333">
        <ele>19.8444</ele>
        <time>2013-05-22T19:38:50Z</time>
      </trkpt>
      <trkpt lat="59.84457" lon="17.6395239">
        <ele>19.8444</ele>
        <time>2013-05-22T19:38:51Z</time>
      </trkpt>
      <trkpt lat="59.8445915" lon="17.6395139">
        <ele>19.3638</ele>
        <time>2013-05-22T19:38:52Z</time>
      </trkpt>
      <trkpt lat="59.8446099" lon="17.6395009">
        <ele>19.3638</ele>
        <time>2013-05-22T19:38:53Z</time>
      </trkpt>
      <trkpt lat="59.8446285" lon="17.6394876">
        <ele>18.8831</ele>
        <time>2013-05-22T19:38:54Z</time>
      </trkpt>
      <trkpt lat="59.8446478" lon="17.639482">
        <ele>18.8831</ele>
        <time>2013-05-22T19:38:55Z</time>
      </trkpt>
      <trkpt lat="59.8446684" lon="17.6394741">
        <ele>18.4023</ele>
        <time>2013-05-22T19:38:56Z</time>
      </trkpt>
      <trkpt lat="59.8446902" lon="17.6394653">
        <ele>18.8831</ele>
        <time>2013-05-22T19:38:57Z</time>
      </trkpt>
      <trkpt lat="59.8447077" lon="17.6394557">
        <ele>17.9218</ele>
        <time>2013-05-22T19:38:58Z</time>
      </trkpt>
      <trkpt lat="59.8447311" lon="17.6394478">
        <ele>17.9218</ele>
        <time>2013-05-22T19:38:59Z</time>
      </trkpt>
      <trkpt lat="59.8447581" lon="17.6394443">
        <ele>18.4023</ele>
        <time>2013-05-22T19:39:00Z</time>
      </trkpt>
      <trkpt lat="59.8447823" lon="17.6394342">
        <ele>18.4023</ele>
        <time>2013-05-22T19:39:01Z</time>
      </trkpt>
      <trkpt lat="59.8448082" lon="17.6394285">
        <ele>18.8831</ele>
        <time>2013-05-22T19:39:02Z</time>
      </trkpt>
      <trkpt lat="59.8448295" lon="17.6394265">
        <ele>18.8831</ele>
        <time>2013-05-22T19:39:03Z</time>
      </trkpt>
      <trkpt lat="59.8448524" lon="17.6394209">
        <ele>18.8831</ele>
        <time>2013-05-22T19:39:04Z</time>
      </trkpt>
      <trkpt lat="59.8448713" lon="17.6394105">
        <ele>17.9218</ele>
        <time>2013-05-22T19:39:05Z</time>
      </trkpt>
      <trkpt lat="59.844894" lon="17.6394042">
        <ele>17.4412</ele>
        <time>2013-05-22T19:39:06Z</time>
      </trkpt>
      <trkpt lat="59.8449155" lon="17.6394021">
        <ele>17.4412</ele>
        <time>2013-05-22T19:39:07Z</time>
      </trkpt>
      <trkpt lat="59.8449435" lon="17.6394031">
        <ele>18.4023</ele>
        <time>2013-05-22T19:39:08Z</time>
      </trkpt>
      <trkpt lat="59.8449638" lon="17.6394039">
        <ele>18.4023</ele>
        <time>2013-05-22T19:39:09Z</time>
      </trkpt>
      <trkpt lat="59.8449843" lon="17.6393963">
        <ele>17.9218</ele>
        <time>2013-05-22T19:39:10Z</time>
      </trkpt>
      <trkpt lat="59.8450063" lon="17.639381">
        <ele>17.4412</ele>
        <time>2013-05-22T19:39:11Z</time>
      </trkpt>
      <trkpt lat="59.8450351" lon="17.6393737">
        <ele>18.8831</ele>
        <time>2013-05-22T19:39:12Z</time>
      </trkpt>
      <trkpt lat="59.8450631" lon="17.6393696">
        <ele>20.325</ele>
        <time>2013-05-22T19:39:13Z</time>
      </trkpt>
      <trkpt lat="59.8450859" lon="17.6393669">
        <ele>20.8057</ele>
        <time>2013-05-22T19:39:14Z</time>
      </trkpt>
      <trkpt lat="59.8451045" lon="17.6393701">
        <ele>20.8057</ele>
        <time>2013-05-22T19:39:15Z</time>
      </trkpt>
      <trkpt lat="59.8451244" lon="17.6393659">
        <ele>20.8057</ele>
        <time>2013-05-22T19:39:16Z</time>
      </trkpt>
      <trkpt lat="59.8451433" lon="17.6393551">
        <ele>20.325</ele>
        <time>2013-05-22T19:39:17Z</time>
      </trkpt>
      <trkpt lat="59.8451648" lon="17.6393422">
        <ele>20.325</ele>
        <time>2013-05-22T19:39:18Z</time>
      </trkpt>
      <trkpt lat="59.8451833" lon="17.6393313">
        <ele>19.8444</ele>
        <time>2013-05-22T19:39:19Z</time>
      </trkpt>
      <trkpt lat="59.8452046" lon="17.6393179">
        <ele>19.8444</ele>
        <time>2013-05-22T19:39:20Z</time>
      </trkpt>
      <trkpt lat="59.8452324" lon="17.6393114">
        <ele>20.325</ele>
        <time>2013-05-22T19:39:21Z</time>
      </trkpt>
      <trkpt lat="59.8452565" lon="17.6393094">
        <ele>20.325</ele>
        <time>2013-05-22T19:39:22Z</time>
      </trkpt>
      <trkpt lat="59.8452779" lon="17.6393023">
        <ele>19.8444</ele>
        <time>2013-05-22T19:39:23Z</time>
      </trkpt>
      <trkpt lat="59.8452969" lon="17.6392982">
        <ele>19.3638</ele>
        <time>2013-05-22T19:39:24Z</time>
      </trkpt>
      <trkpt lat="59.8453189" lon="17.6392892">
        <ele>18.8831</ele>
        <time>2013-05-22T19:39:25Z</time>
      </trkpt>
      <trkpt lat="59.8453418" lon="17.639273">
        <ele>18.4023</ele>
        <time>2013-05-22T19:39:26Z</time>
      </trkpt>
      <trkpt lat="59.8453651" lon="17.6392561">
        <ele>18.4023</ele>
        <time>2013-05-22T19:39:27Z</time>
      </trkpt>
      <trkpt lat="59.8453838" lon="17.6392411">
        <ele>17.9218</ele>
        <time>2013-05-22T19:39:28Z</time>
      </trkpt>
      <trkpt lat="59.8454072" lon="17.6392271">
        <ele>18.4023</ele>
        <time>2013-05-22T19:39:29Z</time>
      </trkpt>
      <trkpt lat="59.8454297" lon="17.6392167">
        <ele>17.9218</ele>
        <time>2013-05-22T19:39:30Z</time>
      </trkpt>
      <trkpt lat="59.845454" lon="17.6392034">
        <ele>17.9218</ele>
        <time>2013-05-22T19:39:31Z</time>
      </trkpt>
      <trkpt lat="59.8454806" lon="17.6391953">
        <ele>18.4023</ele>
        <time>2013-05-22T19:39:32Z</time>
      </trkpt>
      <trkpt lat="59.845504" lon="17.6391892">
        <ele>17.9218</ele>
        <time>2013-05-22T19:39:33Z</time>
      </trkpt>
      <trkpt lat="59.8455305" lon="17.6391782">
        <ele>17.9218</ele>
        <time>2013-05-22T19:39:34Z</time>
      </trkpt>
      <trkpt lat="59.8455521" lon="17.6391684">
        <ele>17.4412</ele>
        <time>2013-05-22T19:39:35Z</time>
      </trkpt>
      <trkpt lat="59.8455718" lon="17.6391589">
        <ele>16.9604</ele>
        <time>2013-05-22T19:39:36Z</time>
      </trkpt>
      <trkpt lat="59.8455966" lon="17.6391566">
        <ele>17.4412</ele>
        <time>2013-05-22T19:39:37Z</time>
      </trkpt>
      <trkpt lat="59.845623" lon="17.6391689">
        <ele>17.9218</ele>
        <time>2013-05-22T19:39:38Z</time>
      </trkpt>
      <trkpt lat="59.8456459" lon="17.6391935">
        <ele>18.4023</ele>
        <time>2013-05-22T19:39:39Z</time>
      </trkpt>
      <trkpt lat="59.8456621" lon="17.6392334">
        <ele>17.9218</ele>
        <time>2013-05-22T19:39:40Z</time>
      </trkpt>
      <trkpt lat="59.8456764" lon="17.6392866">
        <ele>17.9218</ele>
        <time>2013-05-22T19:39:41Z</time>
      </trkpt>
      <trkpt lat="59.8456847" lon="17.6393442">
        <ele>17.9218</ele>
        <time>2013-05-22T19:39:42Z</time>
      </trkpt>
      <trkpt lat="59.8456982" lon="17.639402">
        <ele>18.4023</ele>
        <time>2013-05-22T19:39:43Z</time>
      </trkpt>
      <trkpt lat="59.8457048" lon="17.6394572">
        <ele>18.4023</ele>
        <time>2013-05-22T19:39:44Z</time>
      </trkpt>
      <trkpt lat="59.8457138" lon="17.639508">
        <ele>19.3638</ele>
        <time>2013-05-22T19:39:45Z</time>
      </trkpt>
      <trkpt lat="59.8457251" lon="17.6395504">
        <ele>19.8444</ele>
        <time>2013-05-22T19:39:46Z</time>
      </trkpt>
      <trkpt lat="59.8457377" lon="17.6395986">
        <ele>20.8057</ele>
        <time>2013-05-22T19:39:47Z</time>
      </trkpt>
      <trkpt lat="59.8457527" lon="17.6396496">
        <ele>21.767</ele>
        <time>2013-05-22T19:39:48Z</time>
      </trkpt>
      <trkpt lat="59.8457687" lon="17.639699">
        <ele>23.6896</ele>
        <time>2013-05-22T19:39:49Z</time>
      </trkpt>
      <trkpt lat="59.8457855" lon="17.6397347">
        <ele>24.1703</ele>
        <time>2013-05-22T19:39:50Z</time>
      </trkpt>
      <trkpt lat="59.8458026" lon="17.6397689">
        <ele>24.651</ele>
        <time>2013-05-22T19:39:51Z</time>
      </trkpt>
      <trkpt lat="59.8458178" lon="17.6397972">
        <ele>25.1317</ele>
        <time>2013-05-22T19:39:52Z</time>
      </trkpt>
      <trkpt lat="59.8458412" lon="17.6398147">
        <ele>26.0929</ele>
        <time>2013-05-22T19:39:53Z</time>
      </trkpt>
      <trkpt lat="59.8458666" lon="17.6398244">
        <ele>27.0543</ele>
        <time>2013-05-22T19:39:54Z</time>
      </trkpt>
      <trkpt lat="59.8458925" lon="17.6398312">
        <ele>28.4962</ele>
        <time>2013-05-22T19:39:55Z</time>
      </trkpt>
      <trkpt lat="59.8459189" lon="17.6398357">
        <ele>29.4575</ele>
        <time>2013-05-22T19:39:56Z</time>
      </trkpt>
      <trkpt lat="59.8459433" lon="17.6398358">
        <ele>30.8995</ele>
        <time>2013-05-22T19:39:57Z</time>
      </trkpt>
      <trkpt lat="59.8459696" lon="17.6398379">
        <ele>32.3416</ele>
        <time>2013-05-22T19:39:58Z</time>
      </trkpt>
      <trkpt lat="59.8459944" lon="17.6398394">
        <ele>33.7834</ele>
        <time>2013-05-22T19:39:59Z</time>
      </trkpt>
      <trkpt lat="59.846019" lon="17.6398377">
        <ele>35.7061</ele>
        <time>2013-05-22T19:40:00Z</time>
      </trkpt>
      <trkpt lat="59.8460485" lon="17.6398436">
        <ele>37.6287</ele>
        <time>2013-05-22T19:40:01Z</time>
      </trkpt>
      <trkpt lat="59.846064" lon="17.6398498">
        <ele>35.7061</ele>
        <time>2013-05-22T19:40:02Z</time>
      </trkpt>
      <trkpt lat="59.8460852" lon="17.6398532">
        <ele>34.2642</ele>
        <time>2013-05-22T19:40:03Z</time>
      </trkpt>
      <trkpt lat="59.8461116" lon="17.6398576">
        <ele>34.7449</ele>
        <time>2013-05-22T19:40:04Z</time>
      </trkpt>
      <trkpt lat="59.8461324" lon="17.6398537">
        <ele>35.2255</ele>
        <time>2013-05-22T19:40:05Z</time>
      </trkpt>
      <trkpt lat="59.8461613" lon="17.6398491">
        <ele>35.7061</ele>
        <time>2013-05-22T19:40:06Z</time>
      </trkpt>
      <trkpt lat="59.8462106" lon="17.6398512">
        <ele>39.5513</ele>
        <time>2013-05-22T19:40:07Z</time>
      </trkpt>
      <trkpt lat="59.8462571" lon="17.6398514">
        <ele>42.916</ele>
        <time>2013-05-22T19:40:08Z</time>
      </trkpt>
      <trkpt lat="59.8462878" lon="17.6398487">
        <ele>42.916</ele>
        <time>2013-05-22T19:40:09Z</time>
      </trkpt>
      <trkpt lat="59.8463187" lon="17.6398492">
        <ele>42.916</ele>
        <time>2013-05-22T19:40:10Z</time>
      </trkpt>
      <trkpt lat="59.8463484" lon="17.6398591">
        <ele>43.8773</ele>
        <time>2013-05-22T19:40:11Z</time>
      </trkpt>
      <trkpt lat="59.8463737" lon="17.6398773">
        <ele>43.3966</ele>
        <time>2013-05-22T19:40:12Z</time>
      </trkpt>
      <trkpt lat="59.8464106" lon="17.6399011">
        <ele>45.3192</ele>
        <time>2013-05-22T19:40:13Z</time>
      </trkpt>
      <trkpt lat="59.8464276" lon="17.6399299">
        <ele>43.8773</ele>
        <time>2013-05-22T19:40:14Z</time>
      </trkpt>
      <trkpt lat="59.8464327" lon="17.6399574">
        <ele>41.474</ele>
        <time>2013-05-22T19:40:15Z</time>
      </trkpt>
      <trkpt lat="59.8464429" lon="17.6399913">
        <ele>40.0321</ele>
        <time>2013-05-22T19:40:16Z</time>
      </trkpt>
      <trkpt lat="59.8464519" lon="17.6400321">
        <ele>38.5901</ele>
        <time>2013-05-22T19:40:17Z</time>
      </trkpt>
      <trkpt lat="59.8464634" lon="17.640071">
        <ele>37.1481</ele>
        <time>2013-05-22T19:40:18Z</time>
      </trkpt>
      <trkpt lat="59.8464767" lon="17.6401143">
        <ele>36.1868</ele>
        <time>2013-05-22T19:40:19Z</time>
      </trkpt>
      <trkpt lat="59.8464892" lon="17.6401621">
        <ele>35.7061</ele>
        <time>2013-05-22T19:40:20Z</time>
      </trkpt>
      <trkpt lat="59.846498" lon="17.6402062">
        <ele>34.2642</ele>
        <time>2013-05-22T19:40:21Z</time>
      </trkpt>
      <trkpt lat="59.8465089" lon="17.640258">
        <ele>33.7834</ele>
        <time>2013-05-22T19:40:22Z</time>
      </trkpt>
      <trkpt lat="59.8465235" lon="17.640314">
        <ele>33.3029</ele>
        <time>2013-05-22T19:40:23Z</time>
      </trkpt>
      <trkpt lat="59.846538" lon="17.6403575">
        <ele>32.8223</ele>
        <time>2013-05-22T19:40:24Z</time>
      </trkpt>
      <trkpt lat="59.8465471" lon="17.640406">
        <ele>32.3416</ele>
        <time>2013-05-22T19:40:25Z</time>
      </trkpt>
      <trkpt lat="59.8465612" lon="17.6404469">
        <ele>32.3416</ele>
        <time>2013-05-22T19:40:26Z</time>
      </trkpt>
      <trkpt lat="59.8465701" lon="17.640492">
        <ele>32.3416</ele>
        <time>2013-05-22T19:40:27Z</time>
      </trkpt>
      <trkpt lat="59.8465681" lon="17.6405372">
        <ele>31.3801</ele>
        <time>2013-05-22T19:40:28Z</time>
      </trkpt>
      <trkpt lat="59.8465642" lon="17.6405867">
        <ele>30.8995</ele>
        <time>2013-05-22T19:40:29Z</time>
      </trkpt>
      <trkpt lat="59.8465623" lon="17.640629">
        <ele>30.4188</ele>
        <time>2013-05-22T19:40:30Z</time>
      </trkpt>
      <trkpt lat="59.8465632" lon="17.6406686">
        <ele>29.9381</ele>
        <time>2013-05-22T19:40:31Z</time>
      </trkpt>
      <trkpt lat="59.8465637" lon="17.6407101">
        <ele>28.9769</ele>
        <time>2013-05-22T19:40:32Z</time>
      </trkpt>
      <trkpt lat="59.846562" lon="17.6407694">
        <ele>29.4575</ele>
        <time>2013-05-22T19:40:33Z</time>
      </trkpt>
      <trkpt lat="59.8465602" lon="17.6408292">
        <ele>29.4575</ele>
        <time>2013-05-22T19:40:34Z</time>
      </trkpt>
      <trkpt lat="59.8465628" lon="17.6408805">
        <ele>29.4575</ele>
        <time>2013-05-22T19:40:35Z</time>
      </trkpt>
      <trkpt lat="59.8465698" lon="17.6409303">
        <ele>28.9769</ele>
        <time>2013-05-22T19:40:36Z</time>
      </trkpt>
      <trkpt lat="59.8465782" lon="17.6409843">
        <ele>28.9769</ele>
        <time>2013-05-22T19:40:37Z</time>
      </trkpt>
      <trkpt lat="59.846587" lon="17.641032">
        <ele>28.0155</ele>
        <time>2013-05-22T19:40:38Z</time>
      </trkpt>
      <trkpt lat="59.8465984" lon="17.6410676">
        <ele>28.0155</ele>
        <time>2013-05-22T19:40:39Z</time>
      </trkpt>
      <trkpt lat="59.8466043" lon="17.6411128">
        <ele>28.0155</ele>
        <time>2013-05-22T19:40:40Z</time>
      </trkpt>
      <trkpt lat="59.8466058" lon="17.6411651">
        <ele>28.0155</ele>
        <time>2013-05-22T19:40:41Z</time>
      </trkpt>
      <trkpt lat="59.8466058" lon="17.6412214">
        <ele>28.0155</ele>
        <time>2013-05-22T19:40:42Z</time>
      </trkpt>
      <trkpt lat="59.8466089" lon="17.6412686">
        <ele>27.5349</ele>
        <time>2013-05-22T19:40:43Z</time>
      </trkpt>
      <trkpt lat="59.846612" lon="17.6413124">
        <ele>27.0543</ele>
        <time>2013-05-22T19:40:44Z</time>
      </trkpt>
      <trkpt lat="59.8466139" lon="17.6413533">
        <ele>26.5736</ele>
        <time>2013-05-22T19:40:45Z</time>
      </trkpt>
      <trkpt lat="59.8466198" lon="17.6413909">
        <ele>26.5736</ele>
        <time>2013-05-22T19:40:46Z</time>
      </trkpt>
      <trkpt lat="59.8466306" lon="17.6414245">
        <ele>26.5736</ele>
        <time>2013-05-22T19:40:47Z</time>
      </trkpt>
      <trkpt lat="59.84664" lon="17.6414578">
        <ele>26.0929</ele>
        <time>2013-05-22T19:40:48Z</time>
      </trkpt>
      <trkpt lat="59.8466477" lon="17.6414943">
        <ele>25.6123</ele>
        <time>2013-05-22T19:40:49Z</time>
      </trkpt>
      <trkpt lat="59.8466568" lon="17.6415301">
        <ele>25.6123</ele>
        <time>2013-05-22T19:40:50Z</time>
      </trkpt>
      <trkpt lat="59.8466674" lon="17.6415635">
        <ele>25.1317</ele>
        <time>2013-05-22T19:40:51Z</time>
      </trkpt>
      <trkpt lat="59.8466787" lon="17.6415989">
        <ele>24.651</ele>
        <time>2013-05-22T19:40:52Z</time>
      </trkpt>
      <trkpt lat="59.8466919" lon="17.641632">
        <ele>24.1703</ele>
        <time>2013-05-22T19:40:53Z</time>
      </trkpt>
      <trkpt lat="59.8467078" lon="17.6416617">
        <ele>24.1703</ele>
        <time>2013-05-22T19:40:54Z</time>
      </trkpt>
      <trkpt lat="59.8467232" lon="17.6416944">
        <ele>24.1703</ele>
        <time>2013-05-22T19:40:55Z</time>
      </trkpt>
      <trkpt lat="59.8467367" lon="17.641732">
        <ele>24.1703</ele>
        <time>2013-05-22T19:40:56Z</time>
      </trkpt>
      <trkpt lat="59.8467492" lon="17.6417667">
        <ele>23.6896</ele>
        <time>2013-05-22T19:40:57Z</time>
      </trkpt>
      <trkpt lat="59.8467623" lon="17.6418037">
        <ele>23.6896</ele>
        <time>2013-05-22T19:40:58Z</time>
      </trkpt>
      <trkpt lat="59.8467745" lon="17.6418409">
        <ele>23.6896</ele>
        <time>2013-05-22T19:40:59Z</time>
      </trkpt>
      <trkpt lat="59.8467875" lon="17.6418705">
        <ele>23.209</ele>
        <time>2013-05-22T19:41:00Z</time>
      </trkpt>
      <trkpt lat="59.8468001" lon="17.6419021">
        <ele>23.209</ele>
        <time>2013-05-22T19:41:01Z</time>
      </trkpt>
      <trkpt lat="59.8468109" lon="17.6419332">
        <ele>23.209</ele>
        <time>2013-05-22T19:41:02Z</time>
      </trkpt>
      <trkpt lat="59.8468234" lon="17.6419684">
        <ele>23.6896</ele>
        <time>2013-05-22T19:41:03Z</time>
      </trkpt>
      <trkpt lat="59.8468352" lon="17.6420041">
        <ele>23.6896</ele>
        <time>2013-05-22T19:41:04Z</time>
      </trkpt>
      <trkpt lat="59.8468492" lon="17.6420398">
        <ele>23.6896</ele>
        <time>2013-05-22T19:41:05Z</time>
      </trkpt>
      <trkpt lat="59.8468625" lon="17.6420756">
        <ele>23.6896</ele>
        <time>2013-05-22T19:41:06Z</time>
      </trkpt>
      <trkpt lat="59.8468766" lon="17.6421125">
        <ele>23.6896</ele>
        <time>2013-05-22T19:41:07Z</time>
      </trkpt>
      <trkpt lat="59.8468931" lon="17.6421488">
        <ele>24.1703</ele>
        <time>2013-05-22T19:41:08Z</time>
      </trkpt>
      <trkpt lat="59.8469083" lon="17.6421808">
        <ele>23.6896</ele>
        <time>2013-05-22T19:41:09Z</time>
      </trkpt>
      <trkpt lat="59.8469232" lon="17.642211">
        <ele>24.1703</ele>
        <time>2013-05-22T19:41:10Z</time>
      </trkpt>
      <trkpt lat="59.8469392" lon="17.6422383">
        <ele>24.1703</ele>
        <time>2013-05-22T19:41:11Z</time>
      </trkpt>
      <trkpt lat="59.8469505" lon="17.6422623">
        <ele>23.6896</ele>
        <time>2013-05-22T19:41:12Z</time>
      </trkpt>
      <trkpt lat="59.8469597" lon="17.6422852">
        <ele>23.6896</ele>
        <time>2013-05-22T19:41:13Z</time>
      </trkpt>
      <trkpt lat="59.8469647" lon="17.6423114">
        <ele>22.2476</ele>
        <time>2013-05-22T19:41:14Z</time>
      </trkpt>
      <trkpt lat="59.8469788" lon="17.6423296">
        <ele>22.2476</ele>
        <time>2013-05-22T19:41:15Z</time>
      </trkpt>
      <trkpt lat="59.8469962" lon="17.6423469">
        <ele>22.2476</ele>
        <time>2013-05-22T19:41:16Z</time>
      </trkpt>
      <trkpt lat="59.8470141" lon="17.6423681">
        <ele>22.2476</ele>
        <time>2013-05-22T19:41:17Z</time>
      </trkpt>
      <trkpt lat="59.8470306" lon="17.6423902">
        <ele>21.767</ele>
        <time>2013-05-22T19:41:18Z</time>
      </trkpt>
      <trkpt lat="59.8470493" lon="17.6424097">
        <ele>22.2476</ele>
        <time>2013-05-22T19:41:19Z</time>
      </trkpt>
      <trkpt lat="59.8470664" lon="17.6424331">
        <ele>22.7283</ele>
        <time>2013-05-22T19:41:20Z</time>
      </trkpt>
      <trkpt lat="59.8470889" lon="17.6424476">
        <ele>23.6896</ele>
        <time>2013-05-22T19:41:21Z</time>
      </trkpt>
      <trkpt lat="59.8470957" lon="17.642459">
        <ele>23.209</ele>
        <time>2013-05-22T19:41:22Z</time>
      </trkpt>
      <trkpt lat="59.847102" lon="17.6424615">
        <ele>23.209</ele>
        <time>2013-05-22T19:41:23Z</time>
      </trkpt>
      <trkpt lat="59.8471102" lon="17.6424662">
        <ele>23.209</ele>
        <time>2013-05-22T19:41:24Z</time>
      </trkpt>
      <trkpt lat="59.8471135" lon="17.6424797">
        <ele>22.7283</ele>
        <time>2013-05-22T19:41:25Z</time>
      </trkpt>
      <trkpt lat="59.8471205" lon="17.6424982">
        <ele>23.209</ele>
        <time>2013-05-22T19:41:26Z</time>
      </trkpt>
      <trkpt lat="59.8471217" lon="17.642508">
        <ele>21.767</ele>
        <time>2013-05-22T19:41:27Z</time>
      </trkpt>
      <trkpt lat="59.8471186" lon="17.6425129">
        <ele>19.3638</ele>
        <time>2013-05-22T19:41:28Z</time>
      </trkpt>
      <trkpt lat="59.8471356" lon="17.6425118">
        <ele>20.8057</ele>
        <time>2013-05-22T19:41:29Z</time>
      </trkpt>
      <trkpt lat="59.847134" lon="17.6425156">
        <ele>19.3638</ele>
        <time>2013-05-22T19:41:30Z</time>
      </trkpt>
      <trkpt lat="59.8471294" lon="17.6425176">
        <ele>18.8831</ele>
        <time>2013-05-22T19:41:31Z</time>
      </trkpt>
      <trkpt lat="59.847131" lon="17.6425149">
        <ele>17.9218</ele>
        <time>2013-05-22T19:41:32Z</time>
      </trkpt>
      <trkpt lat="59.8471403" lon="17.6425067">
        <ele>16.9604</ele>
        <time>2013-05-22T19:41:33Z</time>
      </trkpt>
      <trkpt lat="59.847146" lon="17.6425101">
        <ele>15.999</ele>
        <time>2013-05-22T19:41:34Z</time>
      </trkpt>
      <trkpt lat="59.8471664" lon="17.6425408">
        <ele>16.9604</ele>
        <time>2013-05-22T19:41:35Z</time>
      </trkpt>
      <trkpt lat="59.8471914" lon="17.6425744">
        <ele>17.9218</ele>
        <time>2013-05-22T19:41:36Z</time>
      </trkpt>
      <trkpt lat="59.8472109" lon="17.6426112">
        <ele>19.3638</ele>
        <time>2013-05-22T19:41:37Z</time>
      </trkpt>
      <trkpt lat="59.8472403" lon="17.6426362">
        <ele>20.325</ele>
        <time>2013-05-22T19:41:38Z</time>
      </trkpt>
      <trkpt lat="59.8472464" lon="17.6426548">
        <ele>19.8444</ele>
        <time>2013-05-22T19:41:39Z</time>
      </trkpt>
      <trkpt lat="59.8472771" lon="17.6426672">
        <ele>22.7283</ele>
        <time>2013-05-22T19:41:40Z</time>
      </trkpt>
      <trkpt lat="59.8472878" lon="17.6426821">
        <ele>23.209</ele>
        <time>2013-05-22T19:41:41Z</time>
      </trkpt>
      <trkpt lat="59.8473138" lon="17.6427018">
        <ele>25.6123</ele>
        <time>2013-05-22T19:41:42Z</time>
      </trkpt>
      <trkpt lat="59.8473385" lon="17.6427279">
        <ele>27.0543</ele>
        <time>2013-05-22T19:41:43Z</time>
      </trkpt>
      <trkpt lat="59.847363" lon="17.6427517">
        <ele>28.0155</ele>
        <time>2013-05-22T19:41:44Z</time>
      </trkpt>
      <trkpt lat="59.8473833" lon="17.6427766">
        <ele>30.4188</ele>
        <time>2013-05-22T19:41:45Z</time>
      </trkpt>
      <trkpt lat="59.8473823" lon="17.6427872">
        <ele>29.4575</ele>
        <time>2013-05-22T19:41:46Z</time>
      </trkpt>
      <trkpt lat="59.8473888" lon="17.6427914">
        <ele>28.0155</ele>
        <time>2013-05-22T19:41:47Z</time>
      </trkpt>
      <trkpt lat="59.8473948" lon="17.6427966">
        <ele>26.5736</ele>
        <time>2013-05-22T19:41:48Z</time>
      </trkpt>
      <trkpt lat="59.8474147" lon="17.6428169">
        <ele>28.0155</ele>
        <time>2013-05-22T19:41:49Z</time>
      </trkpt>
      <trkpt lat="59.8474338" lon="17.6428366">
        <ele>28.4962</ele>
        <time>2013-05-22T19:41:50Z</time>
      </trkpt>
      <trkpt lat="59.8474537" lon="17.6428496">
        <ele>28.4962</ele>
        <time>2013-05-22T19:41:51Z</time>
      </trkpt>
      <trkpt lat="59.8474758" lon="17.642865">
        <ele>28.4962</ele>
        <time>2013-05-22T19:41:52Z</time>
      </trkpt>
      <trkpt lat="59.8474951" lon="17.6428895">
        <ele>29.4575</ele>
        <time>2013-05-22T19:41:53Z</time>
      </trkpt>
      <trkpt lat="59.8475157" lon="17.6428998">
        <ele>30.8995</ele>
        <time>2013-05-22T19:41:54Z</time>
      </trkpt>
      <trkpt lat="59.8475382" lon="17.6429247">
        <ele>31.8607</ele>
        <time>2013-05-22T19:41:55Z</time>
      </trkpt>
      <trkpt lat="59.8475465" lon="17.6429335">
        <ele>30.4188</ele>
        <time>2013-05-22T19:41:56Z</time>
      </trkpt>
      <trkpt lat="59.8475747" lon="17.642948">
        <ele>32.3416</ele>
        <time>2013-05-22T19:41:57Z</time>
      </trkpt>
      <trkpt lat="59.8475988" lon="17.6429664">
        <ele>33.3029</ele>
        <time>2013-05-22T19:41:58Z</time>
      </trkpt>
      <trkpt lat="59.847624" lon="17.6429809">
        <ele>35.7061</ele>
        <time>2013-05-22T19:41:59Z</time>
      </trkpt>
      <trkpt lat="59.8476314" lon="17.6429951">
        <ele>35.7061</ele>
        <time>2013-05-22T19:42:00Z</time>
      </trkpt>
      <trkpt lat="59.847647" lon="17.6430014">
        <ele>36.6675</ele>
        <time>2013-05-22T19:42:01Z</time>
      </trkpt>
      <trkpt lat="59.8476671" lon="17.6430196">
        <ele>37.6287</ele>
        <time>2013-05-22T19:42:02Z</time>
      </trkpt>
      <trkpt lat="59.8476759" lon="17.6430376">
        <ele>37.1481</ele>
        <time>2013-05-22T19:42:03Z</time>
      </trkpt>
      <trkpt lat="59.8476801" lon="17.6430391">
        <ele>35.2255</ele>
        <time>2013-05-22T19:42:04Z</time>
      </trkpt>
      <trkpt lat="59.8477089" lon="17.6430563">
        <ele>37.6287</ele>
        <time>2013-05-22T19:42:05Z</time>
      </trkpt>
      <trkpt lat="59.8477281" lon="17.6430759">
        <ele>39.5513</ele>
        <time>2013-05-22T19:42:06Z</time>
      </trkpt>
      <trkpt lat="59.8477412" lon="17.6430905">
        <ele>40.0321</ele>
        <time>2013-05-22T19:42:07Z</time>
      </trkpt>
      <trkpt lat="59.8477593" lon="17.643105">
        <ele>41.9547</ele>
        <time>2013-05-22T19:42:08Z</time>
      </trkpt>
      <trkpt lat="59.8477866" lon="17.6431252">
        <ele>44.8386</ele>
        <time>2013-05-22T19:42:09Z</time>
      </trkpt>
      <trkpt lat="59.8478122" lon="17.643149">
        <ele>47.2418</ele>
        <time>2013-05-22T19:42:10Z</time>
      </trkpt>
      <trkpt lat="59.8478293" lon="17.643142">
        <ele>48.684</ele>
        <time>2013-05-22T19:42:11Z</time>
      </trkpt>
      <trkpt lat="59.847826" lon="17.643135">
        <ele>47.7225</ele>
        <time>2013-05-22T19:42:12Z</time>
      </trkpt>
      <trkpt lat="59.8478175" lon="17.6431277">
        <ele>46.7612</ele>
        <time>2013-05-22T19:42:13Z</time>
      </trkpt>
      <trkpt lat="59.8478141" lon="17.6431396">
        <ele>46.2806</ele>
        <time>2013-05-22T19:42:14Z</time>
      </trkpt>
      <trkpt lat="59.8478229" lon="17.6431584">
        <ele>45.3192</ele>
        <time>2013-05-22T19:42:15Z</time>
      </trkpt>
      <trkpt lat="59.847842" lon="17.6431801">
        <ele>45.7999</ele>
        <time>2013-05-22T19:42:16Z</time>
      </trkpt>
      <trkpt lat="59.84787" lon="17.6432049">
        <ele>47.2418</ele>
        <time>2013-05-22T19:42:17Z</time>
      </trkpt>
      <trkpt lat="59.8478907" lon="17.6432276">
        <ele>47.7225</ele>
        <time>2013-05-22T19:42:18Z</time>
      </trkpt>
      <trkpt lat="59.8479095" lon="17.64325">
        <ele>48.684</ele>
        <time>2013-05-22T19:42:19Z</time>
      </trkpt>
      <trkpt lat="59.8479199" lon="17.643271">
        <ele>47.7225</ele>
        <time>2013-05-22T19:42:20Z</time>
      </trkpt>
      <trkpt lat="59.8479294" lon="17.6432887">
        <ele>47.2418</ele>
        <time>2013-05-22T19:42:21Z</time>
      </trkpt>
      <trkpt lat="59.847936" lon="17.6432983">
        <ele>46.7612</ele>
        <time>2013-05-22T19:42:22Z</time>
      </trkpt>
      <trkpt lat="59.8479431" lon="17.6432914">
        <ele>45.3192</ele>
        <time>2013-05-22T19:42:23Z</time>
      </trkpt>
      <trkpt lat="59.8479565" lon="17.6433128">
        <ele>45.3192</ele>
        <time>2013-05-22T19:42:24Z</time>
      </trkpt>
      <trkpt lat="59.8479876" lon="17.6433379">
        <ele>46.2806</ele>
        <time>2013-05-22T19:42:25Z</time>
      </trkpt>
      <trkpt lat="59.8480218" lon="17.643364">
        <ele>44.8386</ele>
        <time>2013-05-22T19:42:26Z</time>
      </trkpt>
      <trkpt lat="59.848047" lon="17.6433972">
        <ele>44.358</ele>
        <time>2013-05-22T19:42:27Z</time>
      </trkpt>
      <trkpt lat="59.8480768" lon="17.6434167">
        <ele>44.358</ele>
        <time>2013-05-22T19:42:28Z</time>
      </trkpt>
      <trkpt lat="59.8481111" lon="17.6434379">
        <ele>45.7999</ele>
        <time>2013-05-22T19:42:29Z</time>
      </trkpt>
      <trkpt lat="59.8481416" lon="17.6434587">
        <ele>45.7999</ele>
        <time>2013-05-22T19:42:30Z</time>
      </trkpt>
      <trkpt lat="59.8481684" lon="17.6434913">
        <ele>45.7999</ele>
        <time>2013-05-22T19:42:31Z</time>
      </trkpt>
      <trkpt lat="59.8481874" lon="17.6435186">
        <ele>45.7999</ele>
        <time>2013-05-22T19:42:32Z</time>
      </trkpt>
      <trkpt lat="59.8482156" lon="17.6435437">
        <ele>46.7612</ele>
        <time>2013-05-22T19:42:33Z</time>
      </trkpt>
      <trkpt lat="59.8482358" lon="17.6435651">
        <ele>46.2806</ele>
        <time>2013-05-22T19:42:34Z</time>
      </trkpt>
      <trkpt lat="59.8482555" lon="17.6435857">
        <ele>47.2418</ele>
        <time>2013-05-22T19:42:35Z</time>
      </trkpt>
      <trkpt lat="59.848278" lon="17.643609">
        <ele>48.2034</ele>
        <time>2013-05-22T19:42:36Z</time>
      </trkpt>
      <trkpt lat="59.8482955" lon="17.6436272">
        <ele>47.2418</ele>
        <time>2013-05-22T19:42:37Z</time>
      </trkpt>
      <trkpt lat="59.8483054" lon="17.643637">
        <ele>44.8386</ele>
        <time>2013-05-22T19:42:38Z</time>
      </trkpt>
      <trkpt lat="59.8483198" lon="17.6436499">
        <ele>42.916</ele>
        <time>2013-05-22T19:42:39Z</time>
      </trkpt>
      <trkpt lat="59.848325" lon="17.6436647">
        <ele>40.5128</ele>
        <time>2013-05-22T19:42:40Z</time>
      </trkpt>
      <trkpt lat="59.848324" lon="17.6436851">
        <ele>37.1481</ele>
        <time>2013-05-22T19:42:41Z</time>
      </trkpt>
      <trkpt lat="59.8483197" lon="17.6436992">
        <ele>33.3029</ele>
        <time>2013-05-22T19:42:42Z</time>
      </trkpt>
      <trkpt lat="59.8483197" lon="17.6437208">
        <ele>29.9381</ele>
        <time>2013-05-22T19:42:43Z</time>
      </trkpt>
      <trkpt lat="59.8483337" lon="17.6437457">
        <ele>28.4962</ele>
        <time>2013-05-22T19:42:44Z</time>
      </trkpt>
      <trkpt lat="59.8483551" lon="17.6437555">
        <ele>27.0543</ele>
        <time>2013-05-22T19:42:45Z</time>
      </trkpt>
      <trkpt lat="59.8483785" lon="17.643771">
        <ele>26.0929</ele>
        <time>2013-05-22T19:42:46Z</time>
      </trkpt>
      <trkpt lat="59.8484046" lon="17.6438033">
        <ele>26.5736</ele>
        <time>2013-05-22T19:42:47Z</time>
      </trkpt>
      <trkpt lat="59.8484272" lon="17.6438303">
        <ele>25.1317</ele>
        <time>2013-05-22T19:42:48Z</time>
      </trkpt>
      <trkpt lat="59.8484468" lon="17.6438587">
        <ele>24.1703</ele>
        <time>2013-05-22T19:42:49Z</time>
      </trkpt>
      <trkpt lat="59.8484675" lon="17.6438825">
        <ele>22.7283</ele>
        <time>2013-05-22T19:42:50Z</time>
      </trkpt>
      <trkpt lat="59.8484861" lon="17.6439011">
        <ele>21.2864</ele>
        <time>2013-05-22T19:42:51Z</time>
      </trkpt>
      <trkpt lat="59.848503" lon="17.6439233">
        <ele>19.8444</ele>
        <time>2013-05-22T19:42:52Z</time>
      </trkpt>
      <trkpt lat="59.8485188" lon="17.6439441">
        <ele>18.8831</ele>
        <time>2013-05-22T19:42:53Z</time>
      </trkpt>
      <trkpt lat="59.8485355" lon="17.6439581">
        <ele>17.4412</ele>
        <time>2013-05-22T19:42:54Z</time>
      </trkpt>
      <trkpt lat="59.8485524" lon="17.64397">
        <ele>15.999</ele>
        <time>2013-05-22T19:42:55Z</time>
      </trkpt>
      <trkpt lat="59.8485769" lon="17.6439818">
        <ele>15.5184</ele>
        <time>2013-05-22T19:42:56Z</time>
      </trkpt>
      <trkpt lat="59.8485985" lon="17.6439882">
        <ele>15.0377</ele>
        <time>2013-05-22T19:42:57Z</time>
      </trkpt>
      <trkpt lat="59.8486151" lon="17.6440042">
        <ele>13.5958</ele>
        <time>2013-05-22T19:42:58Z</time>
      </trkpt>
      <trkpt lat="59.8486305" lon="17.6440182">
        <ele>11.6732</ele>
        <time>2013-05-22T19:42:59Z</time>
      </trkpt>
      <trkpt lat="59.8486486" lon="17.6440294">
        <ele>10.2312</ele>
        <time>2013-05-22T19:43:00Z</time>
      </trkpt>
      <trkpt lat="59.8486685" lon="17.6440374">
        <ele>8.78918</ele>
        <time>2013-05-22T19:43:01Z</time>
      </trkpt>
      <trkpt lat="59.848702" lon="17.6440465">
        <ele>9.75061</ele>
        <time>2013-05-22T19:43:02Z</time>
      </trkpt>
      <trkpt lat="59.8487214" lon="17.6440512">
        <ele>8.78918</ele>
        <time>2013-05-22T19:43:03Z</time>
      </trkpt>
      <trkpt lat="59.8487362" lon="17.6440508">
        <ele>7.34717</ele>
        <time>2013-05-22T19:43:04Z</time>
      </trkpt>
      <trkpt lat="59.8487523" lon="17.6440532">
        <ele>6.38586</ele>
        <time>2013-05-22T19:43:05Z</time>
      </trkpt>
      <trkpt lat="59.8487686" lon="17.6440581">
        <ele>5.42456</ele>
        <time>2013-05-22T19:43:06Z</time>
      </trkpt>
      <trkpt lat="59.8487913" lon="17.6440563">
        <ele>4.94385</ele>
        <time>2013-05-22T19:43:07Z</time>
      </trkpt>
      <trkpt lat="59.848818" lon="17.644057">
        <ele>4.94385</ele>
        <time>2013-05-22T19:43:08Z</time>
      </trkpt>
      <trkpt lat="59.8488358" lon="17.6440551">
        <ele>3.98267</ele>
        <time>2013-05-22T19:43:09Z</time>
      </trkpt>
      <trkpt lat="59.8488642" lon="17.6440555">
        <ele>5.90527</ele>
        <time>2013-05-22T19:43:10Z</time>
      </trkpt>
      <trkpt lat="59.8488934" lon="17.6440534">
        <ele>6.86646</ele>
        <time>2013-05-22T19:43:11Z</time>
      </trkpt>
      <trkpt lat="59.8489276" lon="17.6440596">
        <ele>8.30859</ele>
        <time>2013-05-22T19:43:12Z</time>
      </trkpt>
      <trkpt lat="59.8489523" lon="17.6440612">
        <ele>7.82788</ele>
        <time>2013-05-22T19:43:13Z</time>
      </trkpt>
      <trkpt lat="59.8489746" lon="17.6440617">
        <ele>7.82788</ele>
        <time>2013-05-22T19:43:14Z</time>
      </trkpt>
      <trkpt lat="59.8489934" lon="17.6440669">
        <ele>6.86646</ele>
        <time>2013-05-22T19:43:15Z</time>
      </trkpt>
      <trkpt lat="59.8490149" lon="17.6440685">
        <ele>6.38586</ele>
        <time>2013-05-22T19:43:16Z</time>
      </trkpt>
      <trkpt lat="59.849041" lon="17.6440674">
        <ele>6.86646</ele>
        <time>2013-05-22T19:43:17Z</time>
      </trkpt>
      <trkpt lat="59.8490632" lon="17.6440597">
        <ele>6.38586</ele>
        <time>2013-05-22T19:43:18Z</time>
      </trkpt>
      <trkpt lat="59.8490907" lon="17.6440528">
        <ele>6.38586</ele>
        <time>2013-05-22T19:43:19Z</time>
      </trkpt>
      <trkpt lat="59.8491156" lon="17.6440446">
        <ele>5.90527</ele>
        <time>2013-05-22T19:43:20Z</time>
      </trkpt>
      <trkpt lat="59.8491381" lon="17.64403">
        <ele>5.90527</ele>
        <time>2013-05-22T19:43:21Z</time>
      </trkpt>
      <trkpt lat="59.8491662" lon="17.6440166">
        <ele>5.90527</ele>
        <time>2013-05-22T19:43:22Z</time>
      </trkpt>
      <trkpt lat="59.8491901" lon="17.6440072">
        <ele>5.90527</ele>
        <time>2013-05-22T19:43:23Z</time>
      </trkpt>
      <trkpt lat="59.8492083" lon="17.6440051">
        <ele>5.90527</ele>
        <time>2013-05-22T19:43:24Z</time>
      </trkpt>
      <trkpt lat="59.8492236" lon="17.6439924">
        <ele>4.94385</ele>
        <time>2013-05-22T19:43:25Z</time>
      </trkpt>
      <trkpt lat="59.8492495" lon="17.6439825">
        <ele>4.94385</ele>
        <time>2013-05-22T19:43:26Z</time>
      </trkpt>
      <trkpt lat="59.849273" lon="17.6439752">
        <ele>4.94385</ele>
        <time>2013-05-22T19:43:27Z</time>
      </trkpt>
      <trkpt lat="59.8492963" lon="17.6439675">
        <ele>5.42456</ele>
        <time>2013-05-22T19:43:28Z</time>
      </trkpt>
      <trkpt lat="59.8493159" lon="17.6439673">
        <ele>6.38586</ele>
        <time>2013-05-22T19:43:29Z</time>
      </trkpt>
      <trkpt lat="59.8493242" lon="17.6439809">
        <ele>5.90527</ele>
        <time>2013-05-22T19:43:30Z</time>
      </trkpt>
      <trkpt lat="59.8493274" lon="17.6440088">
        <ele>6.38586</ele>
        <time>2013-05-22T19:43:31Z</time>
      </trkpt>
      <trkpt lat="59.8493114" lon="17.6440519">
        <ele>4.94385</ele>
        <time>2013-05-22T19:43:32Z</time>
      </trkpt>
      <trkpt lat="59.8492979" lon="17.6440931">
        <ele>4.94385</ele>
        <time>2013-05-22T19:43:33Z</time>
      </trkpt>
      <trkpt lat="59.8492807" lon="17.6441284">
        <ele>5.42456</ele>
        <time>2013-05-22T19:43:34Z</time>
      </trkpt>
      <trkpt lat="59.849258" lon="17.6441734">
        <ele>4.94385</ele>
        <time>2013-05-22T19:43:35Z</time>
      </trkpt>
      <trkpt lat="59.8492378" lon="17.6442108">
        <ele>4.94385</ele>
        <time>2013-05-22T19:43:36Z</time>
      </trkpt>
      <trkpt lat="59.8492096" lon="17.6442337">
        <ele>3.98267</ele>
        <time>2013-05-22T19:43:37Z</time>
      </trkpt>
      <trkpt lat="59.8491895" lon="17.6442701">
        <ele>4.94385</ele>
        <time>2013-05-22T19:43:38Z</time>
      </trkpt>
      <trkpt lat="59.8491637" lon="17.6442989">
        <ele>4.46326</ele>
        <time>2013-05-22T19:43:39Z</time>
      </trkpt>
      <trkpt lat="59.8491403" lon="17.6443289">
        <ele>4.46326</ele>
        <time>2013-05-22T19:43:40Z</time>
      </trkpt>
      <trkpt lat="59.8491236" lon="17.6443532">
        <ele>5.42456</ele>
        <time>2013-05-22T19:43:41Z</time>
      </trkpt>
      <trkpt lat="59.8491065" lon="17.6443679">
        <ele>5.90527</ele>
        <time>2013-05-22T19:43:42Z</time>
      </trkpt>
      <trkpt lat="59.8490871" lon="17.6443896">
        <ele>5.90527</ele>
        <time>2013-05-22T19:43:43Z</time>
      </trkpt>
      <trkpt lat="59.8490694" lon="17.6444124">
        <ele>6.38586</ele>
        <time>2013-05-22T19:43:44Z</time>
      </trkpt>
      <trkpt lat="59.8490506" lon="17.6444414">
        <ele>7.34717</ele>
        <time>2013-05-22T19:43:45Z</time>
      </trkpt>
      <trkpt lat="59.8490371" lon="17.6444826">
        <ele>8.30859</ele>
        <time>2013-05-22T19:43:46Z</time>
      </trkpt>
      <trkpt lat="59.8490213" lon="17.6445185">
        <ele>9.75061</ele>
        <time>2013-05-22T19:43:47Z</time>
      </trkpt>
      <trkpt lat="59.8490046" lon="17.644542">
        <ele>9.75061</ele>
        <time>2013-05-22T19:43:48Z</time>
      </trkpt>
      <trkpt lat="59.8489818" lon="17.6445584">
        <ele>9.2699</ele>
        <time>2013-05-22T19:43:49Z</time>
      </trkpt>
      <trkpt lat="59.8489643" lon="17.6445791">
        <ele>9.2699</ele>
        <time>2013-05-22T19:43:50Z</time>
      </trkpt>
      <trkpt lat="59.8489445" lon="17.644603">
        <ele>10.2312</ele>
        <time>2013-05-22T19:43:51Z</time>
      </trkpt>
      <trkpt lat="59.8489254" lon="17.6446248">
        <ele>10.2312</ele>
        <time>2013-05-22T19:43:52Z</time>
      </trkpt>
      <trkpt lat="59.8489034" lon="17.6446472">
        <ele>10.2312</ele>
        <time>2013-05-22T19:43:53Z</time>
      </trkpt>
      <trkpt lat="59.8488824" lon="17.6446748">
        <ele>10.2312</ele>
        <time>2013-05-22T19:43:54Z</time>
      </trkpt>
      <trkpt lat="59.8488669" lon="17.6446956">
        <ele>9.75061</ele>
        <time>2013-05-22T19:43:55Z</time>
      </trkpt>
      <trkpt lat="59.8488481" lon="17.6447178">
        <ele>9.75061</ele>
        <time>2013-05-22T19:43:56Z</time>
      </trkpt>
      <trkpt lat="59.8488321" lon="17.6447336">
        <ele>9.2699</ele>
        <time>2013-05-22T19:43:57Z</time>
      </trkpt>
      <trkpt lat="59.8488134" lon="17.6447619">
        <ele>9.75061</ele>
        <time>2013-05-22T19:43:58Z</time>
      </trkpt>
      <trkpt lat="59.8487937" lon="17.6447803">
        <ele>8.78918</ele>
        <time>2013-05-22T19:43:59Z</time>
      </trkpt>
      <trkpt lat="59.8487802" lon="17.6447999">
        <ele>8.30859</ele>
        <time>2013-05-22T19:44:00Z</time>
      </trkpt>
      <trkpt lat="59.8487706" lon="17.644838">
        <ele>7.82788</ele>
        <time>2013-05-22T19:44:01Z</time>
      </trkpt>
      <trkpt lat="59.8487685" lon="17.644874">
        <ele>7.82788</ele>
        <time>2013-05-22T19:44:02Z</time>
      </trkpt>
      <trkpt lat="59.8487766" lon="17.6448925">
        <ele>6.86646</ele>
        <time>2013-05-22T19:44:03Z</time>
      </trkpt>
      <trkpt lat="59.8487898" lon="17.6449149">
        <ele>6.86646</ele>
        <time>2013-05-22T19:44:04Z</time>
      </trkpt>
      <trkpt lat="59.8488082" lon="17.6449355">
        <ele>6.38586</ele>
        <time>2013-05-22T19:44:05Z</time>
      </trkpt>
      <trkpt lat="59.848825" lon="17.6449559">
        <ele>6.38586</ele>
        <time>2013-05-22T19:44:06Z</time>
      </trkpt>
      <trkpt lat="59.8488419" lon="17.644976">
        <ele>5.42456</ele>
        <time>2013-05-22T19:44:07Z</time>
      </trkpt>
      <trkpt lat="59.8488606" lon="17.6449998">
        <ele>5.42456</ele>
        <time>2013-05-22T19:44:08Z</time>
      </trkpt>
      <trkpt lat="59.8488772" lon="17.6450304">
        <ele>4.94385</ele>
        <time>2013-05-22T19:44:09Z</time>
      </trkpt>
      <trkpt lat="59.8488912" lon="17.6450569">
        <ele>4.94385</ele>
        <time>2013-05-22T19:44:10Z</time>
      </trkpt>
      <trkpt lat="59.8489026" lon="17.6450844">
        <ele>4.94385</ele>
        <time>2013-05-22T19:44:11Z</time>
      </trkpt>
      <trkpt lat="59.8489139" lon="17.6451201">
        <ele>5.42456</ele>
        <time>2013-05-22T19:44:12Z</time>
      </trkpt>
      <trkpt lat="59.8489229" lon="17.6451557">
        <ele>5.90527</ele>
        <time>2013-05-22T19:44:13Z</time>
      </trkpt>
      <trkpt lat="59.8489345" lon="17.6451837">
        <ele>5.90527</ele>
        <time>2013-05-22T19:44:14Z</time>
      </trkpt>
      <trkpt lat="59.8489488" lon="17.6452025">
        <ele>5.90527</ele>
        <time>2013-05-22T19:44:15Z</time>
      </trkpt>
      <trkpt lat="59.8489672" lon="17.6452025">
        <ele>5.90527</ele>
        <time>2013-05-22T19:44:16Z</time>
      </trkpt>
      <trkpt lat="59.8489871" lon="17.6451882">
        <ele>5.90527</ele>
        <time>2013-05-22T19:44:17Z</time>
      </trkpt>
      <trkpt lat="59.8490083" lon="17.6451761">
        <ele>6.38586</ele>
        <time>2013-05-22T19:44:18Z</time>
      </trkpt>
      <trkpt lat="59.849027" lon="17.6451646">
        <ele>6.38586</ele>
        <time>2013-05-22T19:44:19Z</time>
      </trkpt>
      <trkpt lat="59.8490492" lon="17.6451479">
        <ele>6.38586</ele>
        <time>2013-05-22T19:44:20Z</time>
      </trkpt>
      <trkpt lat="59.8490716" lon="17.6451276">
        <ele>6.86646</ele>
        <time>2013-05-22T19:44:21Z</time>
      </trkpt>
      <trkpt lat="59.8490932" lon="17.6451118">
        <ele>6.86646</ele>
        <time>2013-05-22T19:44:22Z</time>
      </trkpt>
      <trkpt lat="59.8491102" lon="17.645093">
        <ele>6.38586</ele>
        <time>2013-05-22T19:44:23Z</time>
      </trkpt>
      <trkpt lat="59.8491239" lon="17.6450678">
        <ele>5.90527</ele>
        <time>2013-05-22T19:44:24Z</time>
      </trkpt>
      <trkpt lat="59.8491446" lon="17.6450382">
        <ele>5.90527</ele>
        <time>2013-05-22T19:44:25Z</time>
      </trkpt>
      <trkpt lat="59.8491678" lon="17.6450113">
        <ele>6.38586</ele>
        <time>2013-05-22T19:44:26Z</time>
      </trkpt>
      <trkpt lat="59.8491871" lon="17.6449848">
        <ele>5.42456</ele>
        <time>2013-05-22T19:44:27Z</time>
      </trkpt>
      <trkpt lat="59.8492041" lon="17.6449567">
        <ele>4.94385</ele>
        <time>2013-05-22T19:44:28Z</time>
      </trkpt>
      <trkpt lat="59.8492233" lon="17.644925">
        <ele>3.98267</ele>
        <time>2013-05-22T19:44:29Z</time>
      </trkpt>
      <trkpt lat="59.8492428" lon="17.6448971">
        <ele>3.98267</ele>
        <time>2013-05-22T19:44:30Z</time>
      </trkpt>
      <trkpt lat="59.8492637" lon="17.6448672">
        <ele>3.98267</ele>
        <time>2013-05-22T19:44:31Z</time>
      </trkpt>
      <trkpt lat="59.8492811" lon="17.6448329">
        <ele>3.50195</ele>
        <time>2013-05-22T19:44:32Z</time>
      </trkpt>
      <trkpt lat="59.849302" lon="17.6448052">
        <ele>3.50195</ele>
        <time>2013-05-22T19:44:33Z</time>
      </trkpt>
      <trkpt lat="59.8493232" lon="17.6447838">
        <ele>3.98267</ele>
        <time>2013-05-22T19:44:34Z</time>
      </trkpt>
      <trkpt lat="59.849343" lon="17.6447579">
        <ele>4.94385</ele>
        <time>2013-05-22T19:44:35Z</time>
      </trkpt>
      <trkpt lat="59.8493642" lon="17.6447347">
        <ele>5.42456</ele>
        <time>2013-05-22T19:44:36Z</time>
      </trkpt>
      <trkpt lat="59.8493874" lon="17.6447165">
        <ele>5.90527</ele>
        <time>2013-05-22T19:44:37Z</time>
      </trkpt>
      <trkpt lat="59.8494038" lon="17.6446979">
        <ele>5.42456</ele>
        <time>2013-05-22T19:44:38Z</time>
      </trkpt>
      <trkpt lat="59.8494194" lon="17.6446781">
        <ele>5.42456</ele>
        <time>2013-05-22T19:44:39Z</time>
      </trkpt>
      <trkpt lat="59.849434" lon="17.6446581">
        <ele>4.94385</ele>
        <time>2013-05-22T19:44:40Z</time>
      </trkpt>
      <trkpt lat="59.8494548" lon="17.6446403">
        <ele>5.42456</ele>
        <time>2013-05-22T19:44:41Z</time>
      </trkpt>
      <trkpt lat="59.849473" lon="17.6446181">
        <ele>5.42456</ele>
        <time>2013-05-22T19:44:42Z</time>
      </trkpt>
      <trkpt lat="59.8494915" lon="17.6445906">
        <ele>5.42456</ele>
        <time>2013-05-22T19:44:43Z</time>
      </trkpt>
      <trkpt lat="59.8495147" lon="17.6445648">
        <ele>5.90527</ele>
        <time>2013-05-22T19:44:44Z</time>
      </trkpt>
      <trkpt lat="59.8495354" lon="17.6445389">
        <ele>5.42456</ele>
        <time>2013-05-22T19:44:45Z</time>
      </trkpt>
      <trkpt lat="59.8495575" lon="17.6445177">
        <ele>5.42456</ele>
        <time>2013-05-22T19:44:46Z</time>
      </trkpt>
      <trkpt lat="59.8495801" lon="17.6444989">
        <ele>5.90527</ele>
        <time>2013-05-22T19:44:47Z</time>
      </trkpt>
      <trkpt lat="59.8495961" lon="17.6444803">
        <ele>5.90527</ele>
        <time>2013-05-22T19:44:48Z</time>
      </trkpt>
      <trkpt lat="59.8496097" lon="17.6444567">
        <ele>5.42456</ele>
        <time>2013-05-22T19:44:49Z</time>
      </trkpt>
      <trkpt lat="59.8496308" lon="17.6444258">
        <ele>5.42456</ele>
        <time>2013-05-22T19:44:50Z</time>
      </trkpt>
      <trkpt lat="59.849654" lon="17.6443974">
        <ele>5.90527</ele>
        <time>2013-05-22T19:44:51Z</time>
      </trkpt>
      <trkpt lat="59.8496775" lon="17.6443702">
        <ele>6.38586</ele>
        <time>2013-05-22T19:44:52Z</time>
      </trkpt>
      <trkpt lat="59.8496993" lon="17.6443451">
        <ele>6.38586</ele>
        <time>2013-05-22T19:44:53Z</time>
      </trkpt>
      <trkpt lat="59.8497193" lon="17.6443218">
        <ele>5.90527</ele>
        <time>2013-05-22T19:44:54Z</time>
      </trkpt>
      <trkpt lat="59.8497369" lon="17.6442901">
        <ele>4.94385</ele>
        <time>2013-05-22T19:44:55Z</time>
      </trkpt>
      <trkpt lat="59.8497635" lon="17.6442606">
        <ele>5.90527</ele>
        <time>2013-05-22T19:44:56Z</time>
      </trkpt>
      <trkpt lat="59.8497874" lon="17.6442416">
        <ele>5.90527</ele>
        <time>2013-05-22T19:44:57Z</time>
      </trkpt>
      <trkpt lat="59.8498115" lon="17.644228">
        <ele>6.38586</ele>
        <time>2013-05-22T19:44:58Z</time>
      </trkpt>
      <trkpt lat="59.8498308" lon="17.644214">
        <ele>6.38586</ele>
        <time>2013-05-22T19:44:59Z</time>
      </trkpt>
      <trkpt lat="59.849854" lon="17.6441949">
        <ele>6.86646</ele>
        <time>2013-05-22T19:45:00Z</time>
      </trkpt>
      <trkpt lat="59.8498776" lon="17.6441731">
        <ele>6.86646</ele>
        <time>2013-05-22T19:45:01Z</time>
      </trkpt>
      <trkpt lat="59.8498972" lon="17.6441646">
        <ele>6.38586</ele>
        <time>2013-05-22T19:45:02Z</time>
      </trkpt>
      <trkpt lat="59.8499198" lon="17.6441649">
        <ele>5.90527</ele>
        <time>2013-05-22T19:45:03Z</time>
      </trkpt>
      <trkpt lat="59.8499362" lon="17.6441741">
        <ele>5.42456</ele>
        <time>2013-05-22T19:45:04Z</time>
      </trkpt>
      <trkpt lat="59.8499541" lon="17.6441818">
        <ele>4.94385</ele>
        <time>2013-05-22T19:45:05Z</time>
      </trkpt>
      <trkpt lat="59.8499807" lon="17.6441918">
        <ele>5.42456</ele>
        <time>2013-05-22T19:45:06Z</time>
      </trkpt>
      <trkpt lat="59.8500032" lon="17.6442125">
        <ele>5.90527</ele>
        <time>2013-05-22T19:45:07Z</time>
      </trkpt>
      <trkpt lat="59.850023" lon="17.6442351">
        <ele>5.90527</ele>
        <time>2013-05-22T19:45:08Z</time>
      </trkpt>
      <trkpt lat="59.8500468" lon="17.6442575">
        <ele>6.38586</ele>
        <time>2013-05-22T19:45:09Z</time>
      </trkpt>
      <trkpt lat="59.8500671" lon="17.6442872">
        <ele>6.86646</ele>
        <time>2013-05-22T19:45:10Z</time>
      </trkpt>
      <trkpt lat="59.8500871" lon="17.6443171">
        <ele>6.86646</ele>
        <time>2013-05-22T19:45:11Z</time>
      </trkpt>
      <trkpt lat="59.850111" lon="17.6443398">
        <ele>7.82788</ele>
        <time>2013-05-22T19:45:12Z</time>
      </trkpt>
      <trkpt lat="59.8501317" lon="17.6443679">
        <ele>8.30859</ele>
        <time>2013-05-22T19:45:13Z</time>
      </trkpt>
      <trkpt lat="59.8501491" lon="17.6444">
        <ele>7.82788</ele>
        <time>2013-05-22T19:45:14Z</time>
      </trkpt>
      <trkpt lat="59.8501635" lon="17.6444362">
        <ele>7.82788</ele>
        <time>2013-05-22T19:45:15Z</time>
      </trkpt>
      <trkpt lat="59.8501805" lon="17.6444816">
        <ele>8.78918</ele>
        <time>2013-05-22T19:45:16Z</time>
      </trkpt>
      <trkpt lat="59.850199" lon="17.6445257">
        <ele>9.2699</ele>
        <time>2013-05-22T19:45:17Z</time>
      </trkpt>
      <trkpt lat="59.8502154" lon="17.6445707">
        <ele>9.2699</ele>
        <time>2013-05-22T19:45:18Z</time>
      </trkpt>
      <trkpt lat="59.8502301" lon="17.6446153">
        <ele>9.75061</ele>
        <time>2013-05-22T19:45:19Z</time>
      </trkpt>
      <trkpt lat="59.8502401" lon="17.644661">
        <ele>9.75061</ele>
        <time>2013-05-22T19:45:20Z</time>
      </trkpt>
      <trkpt lat="59.8502425" lon="17.6447127">
        <ele>9.2699</ele>
        <time>2013-05-22T19:45:21Z</time>
      </trkpt>
      <trkpt lat="59.8502474" lon="17.6447548">
        <ele>9.2699</ele>
        <time>2013-05-22T19:45:22Z</time>
      </trkpt>
      <trkpt lat="59.8502596" lon="17.644792">
        <ele>9.75061</ele>
        <time>2013-05-22T19:45:23Z</time>
      </trkpt>
      <trkpt lat="59.8502718" lon="17.6448361">
        <ele>9.75061</ele>
        <time>2013-05-22T19:45:24Z</time>
      </trkpt>
      <trkpt lat="59.8502747" lon="17.6448854">
        <ele>10.7118</ele>
        <time>2013-05-22T19:45:25Z</time>
      </trkpt>
      <trkpt lat="59.8502691" lon="17.6449352">
        <ele>10.7118</ele>
        <time>2013-05-22T19:45:26Z</time>
      </trkpt>
      <trkpt lat="59.8502588" lon="17.6449869">
        <ele>10.7118</ele>
        <time>2013-05-22T19:45:27Z</time>
      </trkpt>
      <trkpt lat="59.850249" lon="17.6450391">
        <ele>10.7118</ele>
        <time>2013-05-22T19:45:28Z</time>
      </trkpt>
      <trkpt lat="59.8502416" lon="17.6450832">
        <ele>9.2699</ele>
        <time>2013-05-22T19:45:29Z</time>
      </trkpt>
      <trkpt lat="59.8502313" lon="17.6451251">
        <ele>8.78918</ele>
        <time>2013-05-22T19:45:30Z</time>
      </trkpt>
      <trkpt lat="59.8502185" lon="17.6451709">
        <ele>8.30859</ele>
        <time>2013-05-22T19:45:31Z</time>
      </trkpt>
      <trkpt lat="59.8502063" lon="17.6452162">
        <ele>8.30859</ele>
        <time>2013-05-22T19:45:32Z</time>
      </trkpt>
      <trkpt lat="59.8501919" lon="17.6452603">
        <ele>7.34717</ele>
        <time>2013-05-22T19:45:33Z</time>
      </trkpt>
      <trkpt lat="59.850176" lon="17.6453037">
        <ele>6.86646</ele>
        <time>2013-05-22T19:45:34Z</time>
      </trkpt>
      <trkpt lat="59.8501592" lon="17.6453394">
        <ele>6.38586</ele>
        <time>2013-05-22T19:45:35Z</time>
      </trkpt>
      <trkpt lat="59.8501408" lon="17.6453698">
        <ele>5.42456</ele>
        <time>2013-05-22T19:45:36Z</time>
      </trkpt>
      <trkpt lat="59.8501211" lon="17.6453991">
        <ele>4.46326</ele>
        <time>2013-05-22T19:45:37Z</time>
      </trkpt>
      <trkpt lat="59.8501023" lon="17.6454308">
        <ele>3.98267</ele>
        <time>2013-05-22T19:45:38Z</time>
      </trkpt>
      <trkpt lat="59.8500801" lon="17.6454623">
        <ele>3.02124</ele>
        <time>2013-05-22T19:45:39Z</time>
      </trkpt>
      <trkpt lat="59.8500543" lon="17.6455021">
        <ele>2.54065</ele>
        <time>2013-05-22T19:45:40Z</time>
      </trkpt>
      <trkpt lat="59.850026" lon="17.6455266">
        <ele>2.54065</ele>
        <time>2013-05-22T19:45:41Z</time>
      </trkpt>
      <trkpt lat="59.8499997" lon="17.6455458">
        <ele>2.06006</ele>
        <time>2013-05-22T19:45:42Z</time>
      </trkpt>
      <trkpt lat="59.8499749" lon="17.64557">
        <ele>2.06006</ele>
        <time>2013-05-22T19:45:43Z</time>
      </trkpt>
      <trkpt lat="59.8499522" lon="17.6455939">
        <ele>1.57935</ele>
        <time>2013-05-22T19:45:44Z</time>
      </trkpt>
      <trkpt lat="59.8499286" lon="17.6456259">
        <ele>1.57935</ele>
        <time>2013-05-22T19:45:45Z</time>
      </trkpt>
      <trkpt lat="59.8499065" lon="17.6456623">
        <ele>1.57935</ele>
        <time>2013-05-22T19:45:46Z</time>
      </trkpt>
      <trkpt lat="59.8498847" lon="17.6456927">
        <ele>1.09863</ele>
        <time>2013-05-22T19:45:47Z</time>
      </trkpt>
      <trkpt lat="59.8498639" lon="17.6457193">
        <ele>1.57935</ele>
        <time>2013-05-22T19:45:48Z</time>
      </trkpt>
      <trkpt lat="59.849838" lon="17.6457458">
        <ele>1.09863</ele>
        <time>2013-05-22T19:45:49Z</time>
      </trkpt>
      <trkpt lat="59.8498133" lon="17.645777">
        <ele>1.57935</ele>
        <time>2013-05-22T19:45:50Z</time>
      </trkpt>
      <trkpt lat="59.8497918" lon="17.6458041">
        <ele>1.57935</ele>
        <time>2013-05-22T19:45:51Z</time>
      </trkpt>
      <trkpt lat="59.8497704" lon="17.6458336">
        <ele>1.57935</ele>
        <time>2013-05-22T19:45:52Z</time>
      </trkpt>
      <trkpt lat="59.8497429" lon="17.6458561">
        <ele>1.57935</ele>
        <time>2013-05-22T19:45:53Z</time>
      </trkpt>
      <trkpt lat="59.8497205" lon="17.6458804">
        <ele>1.57935</ele>
        <time>2013-05-22T19:45:54Z</time>
      </trkpt>
    </trkseg>
  </trk>
</gpx>